<?xml version="1.0" encoding="UTF-8" standalone="no" ?>
<gpx xmlns="http://www.topografix.com/GPX/1/1" xmlns:xsi="http://www.w3.org/2001/XMLSchema-instance" xsi:schemaLocation="http://www.topografix.com/GPX/1/1 http://www.topografix.com/GPX/1/1/gpx.xsd" version="1.1" creator="VisuGPX - https://www.visugpx.com">
  <metadata>
    <name>Des Mouettes aux Cigales 2021</name>
  </metadata>
  <trk>
    <name><![CDATA[Étape 7 : Decize - Charolles]]></name>
    <extensions>
      <line xmlns="http://www.topografix.com/GPX/gpx_style/0/2">
        <color>008800</color>
        <width>4</width>
      </line>
    </extensions>
    <trkseg>
      <trkpt lat="46.82722" lon="3.4572">
        <ele>196.520912</ele>
        <time>2021-09-11T05:16:00.000Z</time>
      </trkpt>
      <trkpt lat="46.82727" lon="3.45719">
        <ele>196.520912</ele>
        <time>2021-09-11T05:16:03.000Z</time>
      </trkpt>
      <trkpt lat="46.82727" lon="3.45719">
        <ele>196.520912</ele>
        <time>2021-09-11T05:16:05.000Z</time>
      </trkpt>
      <trkpt lat="46.82726" lon="3.45719">
        <ele>196.520912</ele>
        <time>2021-09-11T05:16:06.000Z</time>
      </trkpt>
      <trkpt lat="46.8272" lon="3.45721">
        <ele>196.520912</ele>
        <time>2021-09-11T05:16:10.000Z</time>
      </trkpt>
      <trkpt lat="46.82705" lon="3.45726">
        <ele>196.520912</ele>
        <time>2021-09-11T05:16:16.000Z</time>
      </trkpt>
      <trkpt lat="46.82685" lon="3.4573">
        <ele>196.520912</ele>
        <time>2021-09-11T05:16:23.000Z</time>
      </trkpt>
      <trkpt lat="46.82669" lon="3.4573">
        <ele>196.520912</ele>
        <time>2021-09-11T05:16:27.000Z</time>
      </trkpt>
      <trkpt lat="46.82656" lon="3.45728">
        <ele>196.520912</ele>
        <time>2021-09-11T05:16:31.000Z</time>
      </trkpt>
      <trkpt lat="46.8263" lon="3.45723">
        <ele>196.39694</ele>
        <time>2021-09-11T05:16:37.000Z</time>
      </trkpt>
      <trkpt lat="46.82586" lon="3.45709">
        <ele>196.00156</ele>
        <time>2021-09-11T05:16:44.000Z</time>
      </trkpt>
      <trkpt lat="46.82562" lon="3.45702">
        <ele>195.791472</ele>
        <time>2021-09-11T05:16:50.000Z</time>
      </trkpt>
      <trkpt lat="46.82541" lon="3.45696">
        <ele>195.595681</ele>
        <time>2021-09-11T05:16:53.000Z</time>
      </trkpt>
      <trkpt lat="46.82508" lon="3.45686">
        <ele>195.299343</ele>
        <time>2021-09-11T05:16:59.000Z</time>
      </trkpt>
      <trkpt lat="46.82496" lon="3.45683">
        <ele>195.197066</ele>
        <time>2021-09-11T05:17:01.000Z</time>
      </trkpt>
      <trkpt lat="46.82496" lon="3.45683">
        <ele>195.197066</ele>
        <time>2021-09-11T05:17:02.000Z</time>
      </trkpt>
      <trkpt lat="46.82468" lon="3.45675">
        <ele>194.945582</ele>
        <time>2021-09-11T05:17:05.000Z</time>
      </trkpt>
      <trkpt lat="46.82454" lon="3.45671">
        <ele>194.856954</ele>
        <time>2021-09-11T05:17:08.000Z</time>
      </trkpt>
      <trkpt lat="46.82426" lon="3.45663">
        <ele>194.699084</ele>
        <time>2021-09-11T05:17:13.000Z</time>
      </trkpt>
      <trkpt lat="46.82384" lon="3.45651">
        <ele>194.452961</ele>
        <time>2021-09-11T05:17:21.000Z</time>
      </trkpt>
      <trkpt lat="46.82366" lon="3.45645">
        <ele>194.35093</ele>
        <time>2021-09-11T05:17:24.000Z</time>
      </trkpt>
      <trkpt lat="46.82345" lon="3.45638">
        <ele>194.22556</ele>
        <time>2021-09-11T05:17:27.000Z</time>
      </trkpt>
      <trkpt lat="46.8234" lon="3.45637">
        <ele>194.195294</ele>
        <time>2021-09-11T05:17:29.000Z</time>
      </trkpt>
      <trkpt lat="46.82329" lon="3.45619">
        <ele>194.101704</ele>
        <time>2021-09-11T05:17:30.000Z</time>
      </trkpt>
      <trkpt lat="46.8233" lon="3.45611">
        <ele>194.07269</ele>
        <time>2021-09-11T05:17:31.000Z</time>
      </trkpt>
      <trkpt lat="46.82331" lon="3.45603">
        <ele>194.040126</ele>
        <time>2021-09-11T05:17:33.000Z</time>
      </trkpt>
      <trkpt lat="46.82339" lon="3.45544">
        <ele>193.918298</ele>
        <time>2021-09-11T05:17:40.000Z</time>
      </trkpt>
      <trkpt lat="46.82341" lon="3.45528">
        <ele>193.922076</ele>
        <time>2021-09-11T05:17:41.000Z</time>
      </trkpt>
      <trkpt lat="46.82342" lon="3.45507">
        <ele>193.92721</ele>
        <time>2021-09-11T05:17:45.000Z</time>
      </trkpt>
      <trkpt lat="46.82337" lon="3.45488">
        <ele>193.93183</ele>
        <time>2021-09-11T05:17:47.000Z</time>
      </trkpt>
      <trkpt lat="46.82331" lon="3.45481">
        <ele>193.934824</ele>
        <time>2021-09-11T05:17:49.000Z</time>
      </trkpt>
      <trkpt lat="46.8232" lon="3.45464">
        <ele>193.940202</ele>
        <time>2021-09-11T05:17:53.000Z</time>
      </trkpt>
      <trkpt lat="46.82306" lon="3.45463">
        <ele>193.944851</ele>
        <time>2021-09-11T05:17:57.000Z</time>
      </trkpt>
      <trkpt lat="46.82288" lon="3.45457">
        <ele>193.951453</ele>
        <time>2021-09-11T05:18:02.000Z</time>
      </trkpt>
      <trkpt lat="46.8228" lon="3.45455">
        <ele>193.9542</ele>
        <time>2021-09-11T05:18:04.000Z</time>
      </trkpt>
      <trkpt lat="46.82265" lon="3.45451">
        <ele>193.959558</ele>
        <time>2021-09-11T05:18:08.000Z</time>
      </trkpt>
      <trkpt lat="46.82261" lon="3.4545">
        <ele>193.960968</ele>
        <time>2021-09-11T05:18:09.000Z</time>
      </trkpt>
      <trkpt lat="46.82241" lon="3.45444">
        <ele>193.96777</ele>
        <time>2021-09-11T05:18:14.000Z</time>
      </trkpt>
      <trkpt lat="46.82225" lon="3.4544">
        <ele>193.97369</ele>
        <time>2021-09-11T05:18:18.000Z</time>
      </trkpt>
      <trkpt lat="46.82217" lon="3.45438">
        <ele>193.989501</ele>
        <time>2021-09-11T05:18:20.000Z</time>
      </trkpt>
      <trkpt lat="46.822" lon="3.45433">
        <ele>194.030385</ele>
        <time>2021-09-11T05:18:25.000Z</time>
      </trkpt>
      <trkpt lat="46.82186" lon="3.45429">
        <ele>194.063166</ele>
        <time>2021-09-11T05:18:30.000Z</time>
      </trkpt>
      <trkpt lat="46.82185" lon="3.45429">
        <ele>194.06627</ele>
        <time>2021-09-11T05:18:33.000Z</time>
      </trkpt>
      <trkpt lat="46.82185" lon="3.45429">
        <ele>194.066764</ele>
        <time>2021-09-11T05:19:18.000Z</time>
      </trkpt>
      <trkpt lat="46.82179" lon="3.45427">
        <ele>194.080325</ele>
        <time>2021-09-11T05:19:20.000Z</time>
      </trkpt>
      <trkpt lat="46.82164" lon="3.45423">
        <ele>194.117417</ele>
        <time>2021-09-11T05:19:24.000Z</time>
      </trkpt>
      <trkpt lat="46.82121" lon="3.45411">
        <ele>194.21944</ele>
        <time>2021-09-11T05:19:32.000Z</time>
      </trkpt>
      <trkpt lat="46.82061" lon="3.45394">
        <ele>194.361414</ele>
        <time>2021-09-11T05:19:42.000Z</time>
      </trkpt>
      <trkpt lat="46.82018" lon="3.45382">
        <ele>194.297427</ele>
        <time>2021-09-11T05:19:49.000Z</time>
      </trkpt>
      <trkpt lat="46.81982" lon="3.45372">
        <ele>194.177502</ele>
        <time>2021-09-11T05:19:55.000Z</time>
      </trkpt>
      <trkpt lat="46.81971" lon="3.45369">
        <ele>194.141173</ele>
        <time>2021-09-11T05:19:57.000Z</time>
      </trkpt>
      <trkpt lat="46.81957" lon="3.45373">
        <ele>194.095701</ele>
        <time>2021-09-11T05:19:59.000Z</time>
      </trkpt>
      <trkpt lat="46.81954" lon="3.45389">
        <ele>194.057652</ele>
        <time>2021-09-11T05:20:01.000Z</time>
      </trkpt>
      <trkpt lat="46.81953" lon="3.45398">
        <ele>194.037869</ele>
        <time>2021-09-11T05:20:02.000Z</time>
      </trkpt>
      <trkpt lat="46.81952" lon="3.45407">
        <ele>194.01823</ele>
        <time>2021-09-11T05:20:03.000Z</time>
      </trkpt>
      <trkpt lat="46.81947" lon="3.45434">
        <ele>193.955198</ele>
        <time>2021-09-11T05:20:06.000Z</time>
      </trkpt>
      <trkpt lat="46.8194" lon="3.45485">
        <ele>193.840184</ele>
        <time>2021-09-11T05:20:12.000Z</time>
      </trkpt>
      <trkpt lat="46.81934" lon="3.45521">
        <ele>193.688084</ele>
        <time>2021-09-11T05:20:17.000Z</time>
      </trkpt>
      <trkpt lat="46.81933" lon="3.45527">
        <ele>193.655306</ele>
        <time>2021-09-11T05:20:18.000Z</time>
      </trkpt>
      <trkpt lat="46.81929" lon="3.45555">
        <ele>193.510808</ele>
        <time>2021-09-11T05:20:23.000Z</time>
      </trkpt>
      <trkpt lat="46.81928" lon="3.4556">
        <ele>193.482208</ele>
        <time>2021-09-11T05:20:24.000Z</time>
      </trkpt>
      <trkpt lat="46.81919" lon="3.45567">
        <ele>193.406619</ele>
        <time>2021-09-11T05:20:26.000Z</time>
      </trkpt>
      <trkpt lat="46.81897" lon="3.45563">
        <ele>193.237266</ele>
        <time>2021-09-11T05:20:30.000Z</time>
      </trkpt>
      <trkpt lat="46.81885" lon="3.45562">
        <ele>193.150035</ele>
        <time>2021-09-11T05:20:32.000Z</time>
      </trkpt>
      <trkpt lat="46.81874" lon="3.4557">
        <ele>193.062351</ele>
        <time>2021-09-11T05:20:34.000Z</time>
      </trkpt>
      <trkpt lat="46.8187" lon="3.45586">
        <ele>192.971705</ele>
        <time>2021-09-11T05:20:36.000Z</time>
      </trkpt>
      <trkpt lat="46.8187" lon="3.45595">
        <ele>192.926421</ele>
        <time>2021-09-11T05:20:37.000Z</time>
      </trkpt>
      <trkpt lat="46.8187" lon="3.45638">
        <ele>192.704636</ele>
        <time>2021-09-11T05:20:42.000Z</time>
      </trkpt>
      <trkpt lat="46.81869" lon="3.45684">
        <ele>192.469394</ele>
        <time>2021-09-11T05:20:47.000Z</time>
      </trkpt>
      <trkpt lat="46.81859" lon="3.45751">
        <ele>192.298631</ele>
        <time>2021-09-11T05:20:54.000Z</time>
      </trkpt>
      <trkpt lat="46.81846" lon="3.45807">
        <ele>192.156408</ele>
        <time>2021-09-11T05:21:00.000Z</time>
      </trkpt>
      <trkpt lat="46.81844" lon="3.45816">
        <ele>192.133049</ele>
        <time>2021-09-11T05:21:01.000Z</time>
      </trkpt>
      <trkpt lat="46.8183" lon="3.4586">
        <ele>192.017158</ele>
        <time>2021-09-11T05:21:06.000Z</time>
      </trkpt>
      <trkpt lat="46.81812" lon="3.45913">
        <ele>191.874904</ele>
        <time>2021-09-11T05:21:12.000Z</time>
      </trkpt>
      <trkpt lat="46.81784" lon="3.45969">
        <ele>192.050193</ele>
        <time>2021-09-11T05:21:19.000Z</time>
      </trkpt>
      <trkpt lat="46.81753" lon="3.46019">
        <ele>192.355151</ele>
        <time>2021-09-11T05:21:26.000Z</time>
      </trkpt>
      <trkpt lat="46.81729" lon="3.46051">
        <ele>192.568831</ele>
        <time>2021-09-11T05:21:31.000Z</time>
      </trkpt>
      <trkpt lat="46.81724" lon="3.46058">
        <ele>192.611094</ele>
        <time>2021-09-11T05:21:32.000Z</time>
      </trkpt>
      <trkpt lat="46.81706" lon="3.46082">
        <ele>192.776074</ele>
        <time>2021-09-11T05:21:36.000Z</time>
      </trkpt>
      <trkpt lat="46.81697" lon="3.46095">
        <ele>192.860908</ele>
        <time>2021-09-11T05:21:38.000Z</time>
      </trkpt>
      <trkpt lat="46.81668" lon="3.46134">
        <ele>193.215161</ele>
        <time>2021-09-11T05:21:44.000Z</time>
      </trkpt>
      <trkpt lat="46.81639" lon="3.46173">
        <ele>193.714108</ele>
        <time>2021-09-11T05:21:50.000Z</time>
      </trkpt>
      <trkpt lat="46.81635" lon="3.4618">
        <ele>193.798016</ele>
        <time>2021-09-11T05:21:51.000Z</time>
      </trkpt>
      <trkpt lat="46.8162" lon="3.46199">
        <ele>194.053127</ele>
        <time>2021-09-11T05:21:54.000Z</time>
      </trkpt>
      <trkpt lat="46.81593" lon="3.4624">
        <ele>194.547095</ele>
        <time>2021-09-11T05:22:00.000Z</time>
      </trkpt>
      <trkpt lat="46.81589" lon="3.46247">
        <ele>194.6284</ele>
        <time>2021-09-11T05:22:01.000Z</time>
      </trkpt>
      <trkpt lat="46.81563" lon="3.46289">
        <ele>195.117736</ele>
        <time>2021-09-11T05:22:07.000Z</time>
      </trkpt>
      <trkpt lat="46.8155" lon="3.46309">
        <ele>195.339913</ele>
        <time>2021-09-11T05:22:10.000Z</time>
      </trkpt>
      <trkpt lat="46.81538" lon="3.46329">
        <ele>195.507396</ele>
        <time>2021-09-11T05:22:13.000Z</time>
      </trkpt>
      <trkpt lat="46.8153" lon="3.46342">
        <ele>195.612279</ele>
        <time>2021-09-11T05:22:15.000Z</time>
      </trkpt>
      <trkpt lat="46.81517" lon="3.46363">
        <ele>195.780815</ele>
        <time>2021-09-11T05:22:18.000Z</time>
      </trkpt>
      <trkpt lat="46.81501" lon="3.46391">
        <ele>196.007229</ele>
        <time>2021-09-11T05:22:22.000Z</time>
      </trkpt>
      <trkpt lat="46.81493" lon="3.46406">
        <ele>196.121454</ele>
        <time>2021-09-11T05:22:24.000Z</time>
      </trkpt>
      <trkpt lat="46.8147" lon="3.46449">
        <ele>196.454019</ele>
        <time>2021-09-11T05:22:30.000Z</time>
      </trkpt>
      <trkpt lat="46.81451" lon="3.46486">
        <ele>196.736592</ele>
        <time>2021-09-11T05:22:35.000Z</time>
      </trkpt>
      <trkpt lat="46.81426" lon="3.46542">
        <ele>196.870411</ele>
        <time>2021-09-11T05:22:42.000Z</time>
      </trkpt>
      <trkpt lat="46.81407" lon="3.46592">
        <ele>196.816881</ele>
        <time>2021-09-11T05:22:48.000Z</time>
      </trkpt>
      <trkpt lat="46.81402" lon="3.46608">
        <ele>196.800402</ele>
        <time>2021-09-11T05:22:50.000Z</time>
      </trkpt>
      <trkpt lat="46.81387" lon="3.46659">
        <ele>196.748526</ele>
        <time>2021-09-11T05:22:56.000Z</time>
      </trkpt>
      <trkpt lat="46.81384" lon="3.46668">
        <ele>196.739888</ele>
        <time>2021-09-11T05:22:57.000Z</time>
      </trkpt>
      <trkpt lat="46.81376" lon="3.46703">
        <ele>196.705343</ele>
        <time>2021-09-11T05:23:01.000Z</time>
      </trkpt>
      <trkpt lat="46.81361" lon="3.46764">
        <ele>196.597499</ele>
        <time>2021-09-11T05:23:08.000Z</time>
      </trkpt>
      <trkpt lat="46.81348" lon="3.46808">
        <ele>196.434105</ele>
        <time>2021-09-11T05:23:14.000Z</time>
      </trkpt>
      <trkpt lat="46.81348" lon="3.46839">
        <ele>196.325445</ele>
        <time>2021-09-11T05:23:20.000Z</time>
      </trkpt>
      <trkpt lat="46.81344" lon="3.46855">
        <ele>196.265984</ele>
        <time>2021-09-11T05:23:22.000Z</time>
      </trkpt>
      <trkpt lat="46.81337" lon="3.46877">
        <ele>196.1854</ele>
        <time>2021-09-11T05:23:25.000Z</time>
      </trkpt>
      <trkpt lat="46.81328" lon="3.46913">
        <ele>196.051567</ele>
        <time>2021-09-11T05:23:29.000Z</time>
      </trkpt>
      <trkpt lat="46.81316" lon="3.4696">
        <ele>195.877447</ele>
        <time>2021-09-11T05:23:34.000Z</time>
      </trkpt>
      <trkpt lat="46.81306" lon="3.47008">
        <ele>195.687837</ele>
        <time>2021-09-11T05:23:39.000Z</time>
      </trkpt>
      <trkpt lat="46.81296" lon="3.47055">
        <ele>195.463707</ele>
        <time>2021-09-11T05:23:44.000Z</time>
      </trkpt>
      <trkpt lat="46.81281" lon="3.47109">
        <ele>195.198011</ele>
        <time>2021-09-11T05:23:50.000Z</time>
      </trkpt>
      <trkpt lat="46.81262" lon="3.47172">
        <ele>194.883095</ele>
        <time>2021-09-11T05:23:57.000Z</time>
      </trkpt>
      <trkpt lat="46.8126" lon="3.4718">
        <ele>194.841912</ele>
        <time>2021-09-11T05:23:58.000Z</time>
      </trkpt>
      <trkpt lat="46.81244" lon="3.47212">
        <ele>194.663015</ele>
        <time>2021-09-11T05:24:02.000Z</time>
      </trkpt>
      <trkpt lat="46.81232" lon="3.47231">
        <ele>194.539522</ele>
        <time>2021-09-11T05:24:05.000Z</time>
      </trkpt>
      <trkpt lat="46.81228" lon="3.47237">
        <ele>194.48636</ele>
        <time>2021-09-11T05:24:06.000Z</time>
      </trkpt>
      <trkpt lat="46.81225" lon="3.47243">
        <ele>194.431018</ele>
        <time>2021-09-11T05:24:07.000Z</time>
      </trkpt>
      <trkpt lat="46.81215" lon="3.47262">
        <ele>194.262728</ele>
        <time>2021-09-11T05:24:10.000Z</time>
      </trkpt>
      <trkpt lat="46.81198" lon="3.47307">
        <ele>193.913542</ele>
        <time>2021-09-11T05:24:16.000Z</time>
      </trkpt>
      <trkpt lat="46.81165" lon="3.47378">
        <ele>193.316796</ele>
        <time>2021-09-11T05:24:26.000Z</time>
      </trkpt>
      <trkpt lat="46.81152" lon="3.47407">
        <ele>193.081334</ele>
        <time>2021-09-11T05:24:30.000Z</time>
      </trkpt>
      <trkpt lat="46.81146" lon="3.47422">
        <ele>192.958778</ele>
        <time>2021-09-11T05:24:32.000Z</time>
      </trkpt>
      <trkpt lat="46.81132" lon="3.47451">
        <ele>192.681564</ele>
        <time>2021-09-11T05:24:36.000Z</time>
      </trkpt>
      <trkpt lat="46.81126" lon="3.47466">
        <ele>192.395589</ele>
        <time>2021-09-11T05:24:38.000Z</time>
      </trkpt>
      <trkpt lat="46.81108" lon="3.47511">
        <ele>191.551551</ele>
        <time>2021-09-11T05:24:44.000Z</time>
      </trkpt>
      <trkpt lat="46.81088" lon="3.47577">
        <ele>190.373563</ele>
        <time>2021-09-11T05:24:52.000Z</time>
      </trkpt>
      <trkpt lat="46.81079" lon="3.47609">
        <ele>189.807789</ele>
        <time>2021-09-11T05:24:56.000Z</time>
      </trkpt>
      <trkpt lat="46.81077" lon="3.47617">
        <ele>189.669247</ele>
        <time>2021-09-11T05:24:57.000Z</time>
      </trkpt>
      <trkpt lat="46.81071" lon="3.47649">
        <ele>189.137414</ele>
        <time>2021-09-11T05:25:01.000Z</time>
      </trkpt>
      <trkpt lat="46.81069" lon="3.47664">
        <ele>188.881543</ele>
        <time>2021-09-11T05:25:03.000Z</time>
      </trkpt>
      <trkpt lat="46.81063" lon="3.47705">
        <ele>187.866352</ele>
        <time>2021-09-11T05:25:08.000Z</time>
      </trkpt>
      <trkpt lat="46.81061" lon="3.47722">
        <ele>187.232564</ele>
        <time>2021-09-11T05:25:10.000Z</time>
      </trkpt>
      <trkpt lat="46.81058" lon="3.47747">
        <ele>186.242383</ele>
        <time>2021-09-11T05:25:13.000Z</time>
      </trkpt>
      <trkpt lat="46.81055" lon="3.47775">
        <ele>185.197204</ele>
        <time>2021-09-11T05:25:16.000Z</time>
      </trkpt>
      <trkpt lat="46.81049" lon="3.4782">
        <ele>183.470954</ele>
        <time>2021-09-11T05:25:21.000Z</time>
      </trkpt>
      <trkpt lat="46.81047" lon="3.4786">
        <ele>181.933161</ele>
        <time>2021-09-11T05:25:26.000Z</time>
      </trkpt>
      <trkpt lat="46.81043" lon="3.47919">
        <ele>179.700486</ele>
        <time>2021-09-11T05:25:33.000Z</time>
      </trkpt>
      <trkpt lat="46.81045" lon="3.47959">
        <ele>178.299717</ele>
        <time>2021-09-11T05:25:38.000Z</time>
      </trkpt>
      <trkpt lat="46.81046" lon="3.47982">
        <ele>177.660448</ele>
        <time>2021-09-11T05:25:41.000Z</time>
      </trkpt>
      <trkpt lat="46.81047" lon="3.47991">
        <ele>177.425595</ele>
        <time>2021-09-11T05:25:42.000Z</time>
      </trkpt>
      <trkpt lat="46.81048" lon="3.48">
        <ele>177.177671</ele>
        <time>2021-09-11T05:25:43.000Z</time>
      </trkpt>
      <trkpt lat="46.81051" lon="3.48029">
        <ele>176.401404</ele>
        <time>2021-09-11T05:25:46.000Z</time>
      </trkpt>
      <trkpt lat="46.81058" lon="3.48088">
        <ele>174.766712</ele>
        <time>2021-09-11T05:25:53.000Z</time>
      </trkpt>
      <trkpt lat="46.81065" lon="3.48144">
        <ele>173.235405</ele>
        <time>2021-09-11T05:26:00.000Z</time>
      </trkpt>
      <trkpt lat="46.81066" lon="3.48152">
        <ele>173.024581</ele>
        <time>2021-09-11T05:26:01.000Z</time>
      </trkpt>
      <trkpt lat="46.81068" lon="3.48167">
        <ele>172.606294</ele>
        <time>2021-09-11T05:26:03.000Z</time>
      </trkpt>
      <trkpt lat="46.81069" lon="3.48175">
        <ele>172.393515</ele>
        <time>2021-09-11T05:26:04.000Z</time>
      </trkpt>
      <trkpt lat="46.81074" lon="3.48216">
        <ele>171.384457</ele>
        <time>2021-09-11T05:26:09.000Z</time>
      </trkpt>
      <trkpt lat="46.81077" lon="3.48233">
        <ele>171.16973</ele>
        <time>2021-09-11T05:26:11.000Z</time>
      </trkpt>
      <trkpt lat="46.81081" lon="3.48269">
        <ele>170.73192</ele>
        <time>2021-09-11T05:26:15.000Z</time>
      </trkpt>
      <trkpt lat="46.81082" lon="3.48278">
        <ele>170.620975</ele>
        <time>2021-09-11T05:26:16.000Z</time>
      </trkpt>
      <trkpt lat="46.81086" lon="3.48331">
        <ele>169.973711</ele>
        <time>2021-09-11T05:26:22.000Z</time>
      </trkpt>
      <trkpt lat="46.81094" lon="3.48393">
        <ele>169.203688</ele>
        <time>2021-09-11T05:26:29.000Z</time>
      </trkpt>
      <trkpt lat="46.81094" lon="3.48461">
        <ele>168.379705</ele>
        <time>2021-09-11T05:26:36.000Z</time>
      </trkpt>
      <trkpt lat="46.81089" lon="3.48523">
        <ele>168.404659</ele>
        <time>2021-09-11T05:26:43.000Z</time>
      </trkpt>
      <trkpt lat="46.81084" lon="3.48577">
        <ele>168.532042</ele>
        <time>2021-09-11T05:26:49.000Z</time>
      </trkpt>
      <trkpt lat="46.81083" lon="3.48587">
        <ele>168.555414</ele>
        <time>2021-09-11T05:26:50.000Z</time>
      </trkpt>
      <trkpt lat="46.81076" lon="3.48624">
        <ele>168.644633</ele>
        <time>2021-09-11T05:26:54.000Z</time>
      </trkpt>
      <trkpt lat="46.81062" lon="3.48676">
        <ele>168.774724</ele>
        <time>2021-09-11T05:27:00.000Z</time>
      </trkpt>
      <trkpt lat="46.81051" lon="3.4871">
        <ele>168.860557</ele>
        <time>2021-09-11T05:27:04.000Z</time>
      </trkpt>
      <trkpt lat="46.81045" lon="3.48726">
        <ele>169.012444</ele>
        <time>2021-09-11T05:27:06.000Z</time>
      </trkpt>
      <trkpt lat="46.81035" lon="3.48749">
        <ele>169.539562</ele>
        <time>2021-09-11T05:27:09.000Z</time>
      </trkpt>
      <trkpt lat="46.81026" lon="3.48773">
        <ele>170.081431</ele>
        <time>2021-09-11T05:27:12.000Z</time>
      </trkpt>
      <trkpt lat="46.81016" lon="3.48796">
        <ele>170.62984</ele>
        <time>2021-09-11T05:27:15.000Z</time>
      </trkpt>
      <trkpt lat="46.81009" lon="3.48812">
        <ele>170.986222</ele>
        <time>2021-09-11T05:27:17.000Z</time>
      </trkpt>
      <trkpt lat="46.8098" lon="3.48881">
        <ele>172.595568</ele>
        <time>2021-09-11T05:27:26.000Z</time>
      </trkpt>
      <trkpt lat="46.80973" lon="3.48897">
        <ele>172.95363</ele>
        <time>2021-09-11T05:27:28.000Z</time>
      </trkpt>
      <trkpt lat="46.80957" lon="3.48935">
        <ele>173.850213</ele>
        <time>2021-09-11T05:27:33.000Z</time>
      </trkpt>
      <trkpt lat="46.80947" lon="3.48958">
        <ele>174.331213</ele>
        <time>2021-09-11T05:27:36.000Z</time>
      </trkpt>
      <trkpt lat="46.80941" lon="3.48973">
        <ele>174.636764</ele>
        <time>2021-09-11T05:27:38.000Z</time>
      </trkpt>
      <trkpt lat="46.80938" lon="3.48981">
        <ele>174.784606</ele>
        <time>2021-09-11T05:27:39.000Z</time>
      </trkpt>
      <trkpt lat="46.80928" lon="3.49003">
        <ele>175.229438</ele>
        <time>2021-09-11T05:27:42.000Z</time>
      </trkpt>
      <trkpt lat="46.80906" lon="3.49055">
        <ele>176.271017</ele>
        <time>2021-09-11T05:27:49.000Z</time>
      </trkpt>
      <trkpt lat="46.80882" lon="3.49094">
        <ele>177.173518</ele>
        <time>2021-09-11T05:27:56.000Z</time>
      </trkpt>
      <trkpt lat="46.80874" lon="3.49106">
        <ele>177.457564</ele>
        <time>2021-09-11T05:27:57.000Z</time>
      </trkpt>
      <trkpt lat="46.80858" lon="3.49129">
        <ele>178.005168</ele>
        <time>2021-09-11T05:28:01.000Z</time>
      </trkpt>
      <trkpt lat="46.80845" lon="3.49145">
        <ele>178.431363</ele>
        <time>2021-09-11T05:28:04.000Z</time>
      </trkpt>
      <trkpt lat="46.80834" lon="3.49164">
        <ele>178.831437</ele>
        <time>2021-09-11T05:28:07.000Z</time>
      </trkpt>
      <trkpt lat="46.80824" lon="3.49174">
        <ele>179.098014</ele>
        <time>2021-09-11T05:28:09.000Z</time>
      </trkpt>
      <trkpt lat="46.80815" lon="3.49185">
        <ele>179.370964</ele>
        <time>2021-09-11T05:28:11.000Z</time>
      </trkpt>
      <trkpt lat="46.80775" lon="3.49226">
        <ele>180.452376</ele>
        <time>2021-09-11T05:28:19.000Z</time>
      </trkpt>
      <trkpt lat="46.80754" lon="3.49242">
        <ele>180.998699</ele>
        <time>2021-09-11T05:28:23.000Z</time>
      </trkpt>
      <trkpt lat="46.80748" lon="3.49246">
        <ele>181.133933</ele>
        <time>2021-09-11T05:28:24.000Z</time>
      </trkpt>
      <trkpt lat="46.8072" lon="3.4926">
        <ele>181.808232</ele>
        <time>2021-09-11T05:28:29.000Z</time>
      </trkpt>
      <trkpt lat="46.80714" lon="3.49261">
        <ele>181.941408</ele>
        <time>2021-09-11T05:28:30.000Z</time>
      </trkpt>
      <trkpt lat="46.80691" lon="3.49264">
        <ele>182.469038</ele>
        <time>2021-09-11T05:28:34.000Z</time>
      </trkpt>
      <trkpt lat="46.80679" lon="3.49264">
        <ele>182.723223</ele>
        <time>2021-09-11T05:28:36.000Z</time>
      </trkpt>
      <trkpt lat="46.80668" lon="3.49263">
        <ele>182.958877</ele>
        <time>2021-09-11T05:28:38.000Z</time>
      </trkpt>
      <trkpt lat="46.80645" lon="3.49257">
        <ele>183.444196</ele>
        <time>2021-09-11T05:28:42.000Z</time>
      </trkpt>
      <trkpt lat="46.80629" lon="3.4925">
        <ele>183.810002</ele>
        <time>2021-09-11T05:28:45.000Z</time>
      </trkpt>
      <trkpt lat="46.80618" lon="3.49245">
        <ele>184.050759</ele>
        <time>2021-09-11T05:28:47.000Z</time>
      </trkpt>
      <trkpt lat="46.80613" lon="3.49241">
        <ele>184.173858</ele>
        <time>2021-09-11T05:28:48.000Z</time>
      </trkpt>
      <trkpt lat="46.80592" lon="3.49225">
        <ele>184.672649</ele>
        <time>2021-09-11T05:28:52.000Z</time>
      </trkpt>
      <trkpt lat="46.80587" lon="3.4922">
        <ele>184.799318</ele>
        <time>2021-09-11T05:28:53.000Z</time>
      </trkpt>
      <trkpt lat="46.8056" lon="3.49187">
        <ele>185.55212</ele>
        <time>2021-09-11T05:28:59.000Z</time>
      </trkpt>
      <trkpt lat="46.80538" lon="3.49148">
        <ele>186.278025</ele>
        <time>2021-09-11T05:29:05.000Z</time>
      </trkpt>
      <trkpt lat="46.80535" lon="3.49142">
        <ele>186.389569</ele>
        <time>2021-09-11T05:29:06.000Z</time>
      </trkpt>
      <trkpt lat="46.80523" lon="3.49125">
        <ele>186.795351</ele>
        <time>2021-09-11T05:29:09.000Z</time>
      </trkpt>
      <trkpt lat="46.80495" lon="3.49088">
        <ele>187.732973</ele>
        <time>2021-09-11T05:29:16.000Z</time>
      </trkpt>
      <trkpt lat="46.80475" lon="3.49065">
        <ele>188.360734</ele>
        <time>2021-09-11T05:29:21.000Z</time>
      </trkpt>
      <trkpt lat="46.80455" lon="3.49049">
        <ele>188.91074</ele>
        <time>2021-09-11T05:29:25.000Z</time>
      </trkpt>
      <trkpt lat="46.80451" lon="3.49046">
        <ele>189.033676</ele>
        <time>2021-09-11T05:29:26.000Z</time>
      </trkpt>
      <trkpt lat="46.80431" lon="3.49033">
        <ele>189.570066</ele>
        <time>2021-09-11T05:29:30.000Z</time>
      </trkpt>
      <trkpt lat="46.80413" lon="3.49024">
        <ele>190.03206</ele>
        <time>2021-09-11T05:29:34.000Z</time>
      </trkpt>
      <trkpt lat="46.80391" lon="3.49015">
        <ele>190.604625</ele>
        <time>2021-09-11T05:29:38.000Z</time>
      </trkpt>
      <trkpt lat="46.80356" lon="3.49006">
        <ele>191.46083</ele>
        <time>2021-09-11T05:29:44.000Z</time>
      </trkpt>
      <trkpt lat="46.80331" lon="3.49006">
        <ele>192.059784</ele>
        <time>2021-09-11T05:29:48.000Z</time>
      </trkpt>
      <trkpt lat="46.80325" lon="3.49006">
        <ele>192.210929</ele>
        <time>2021-09-11T05:29:49.000Z</time>
      </trkpt>
      <trkpt lat="46.80306" lon="3.4901">
        <ele>192.66559</ele>
        <time>2021-09-11T05:29:52.000Z</time>
      </trkpt>
      <trkpt lat="46.80287" lon="3.49015">
        <ele>193.119602</ele>
        <time>2021-09-11T05:29:55.000Z</time>
      </trkpt>
      <trkpt lat="46.80252" lon="3.49029">
        <ele>194.000344</ele>
        <time>2021-09-11T05:30:01.000Z</time>
      </trkpt>
      <trkpt lat="46.80235" lon="3.49038">
        <ele>194.434283</ele>
        <time>2021-09-11T05:30:04.000Z</time>
      </trkpt>
      <trkpt lat="46.80219" lon="3.49049">
        <ele>194.862176</ele>
        <time>2021-09-11T05:30:07.000Z</time>
      </trkpt>
      <trkpt lat="46.80203" lon="3.49061">
        <ele>195.224057</ele>
        <time>2021-09-11T05:30:10.000Z</time>
      </trkpt>
      <trkpt lat="46.80197" lon="3.49065">
        <ele>195.29935</ele>
        <time>2021-09-11T05:30:12.000Z</time>
      </trkpt>
      <trkpt lat="46.80164" lon="3.49101">
        <ele>195.817156</ele>
        <time>2021-09-11T05:30:19.000Z</time>
      </trkpt>
      <trkpt lat="46.80161" lon="3.49106">
        <ele>195.872048</ele>
        <time>2021-09-11T05:30:20.000Z</time>
      </trkpt>
      <trkpt lat="46.80155" lon="3.49115">
        <ele>195.987977</ele>
        <time>2021-09-11T05:30:22.000Z</time>
      </trkpt>
      <trkpt lat="46.80148" lon="3.49126">
        <ele>196.113489</ele>
        <time>2021-09-11T05:30:24.000Z</time>
      </trkpt>
      <trkpt lat="46.80123" lon="3.49167">
        <ele>196.591688</ele>
        <time>2021-09-11T05:30:31.000Z</time>
      </trkpt>
      <trkpt lat="46.80101" lon="3.49204">
        <ele>197.009735</ele>
        <time>2021-09-11T05:30:37.000Z</time>
      </trkpt>
      <trkpt lat="46.80087" lon="3.49226">
        <ele>197.279714</ele>
        <time>2021-09-11T05:30:41.000Z</time>
      </trkpt>
      <trkpt lat="46.80075" lon="3.49241">
        <ele>197.446278</ele>
        <time>2021-09-11T05:30:44.000Z</time>
      </trkpt>
      <trkpt lat="46.80061" lon="3.49256">
        <ele>197.577914</ele>
        <time>2021-09-11T05:30:49.000Z</time>
      </trkpt>
      <trkpt lat="46.80054" lon="3.49261">
        <ele>197.639229</ele>
        <time>2021-09-11T05:30:50.000Z</time>
      </trkpt>
      <trkpt lat="46.8005" lon="3.49264">
        <ele>197.670557</ele>
        <time>2021-09-11T05:30:51.000Z</time>
      </trkpt>
      <trkpt lat="46.80035" lon="3.49272">
        <ele>197.789218</ele>
        <time>2021-09-11T05:30:55.000Z</time>
      </trkpt>
      <trkpt lat="46.80022" lon="3.4928">
        <ele>197.901361</ele>
        <time>2021-09-11T05:31:00.000Z</time>
      </trkpt>
      <trkpt lat="46.80021" lon="3.49295">
        <ele>197.975263</ele>
        <time>2021-09-11T05:31:03.000Z</time>
      </trkpt>
      <trkpt lat="46.80019" lon="3.49306">
        <ele>198.036947</ele>
        <time>2021-09-11T05:31:04.000Z</time>
      </trkpt>
      <trkpt lat="46.80017" lon="3.49321">
        <ele>198.113471</ele>
        <time>2021-09-11T05:31:06.000Z</time>
      </trkpt>
      <trkpt lat="46.80016" lon="3.49329">
        <ele>198.156823</ele>
        <time>2021-09-11T05:31:07.000Z</time>
      </trkpt>
      <trkpt lat="46.80006" lon="3.49376">
        <ele>198.405967</ele>
        <time>2021-09-11T05:31:12.000Z</time>
      </trkpt>
      <trkpt lat="46.79993" lon="3.49419">
        <ele>198.645611</ele>
        <time>2021-09-11T05:31:16.000Z</time>
      </trkpt>
      <trkpt lat="46.79972" lon="3.49472">
        <ele>198.623783</ele>
        <time>2021-09-11T05:31:22.000Z</time>
      </trkpt>
      <trkpt lat="46.79945" lon="3.49536">
        <ele>198.357177</ele>
        <time>2021-09-11T05:31:29.000Z</time>
      </trkpt>
      <trkpt lat="46.79917" lon="3.49603">
        <ele>198.076212</ele>
        <time>2021-09-11T05:31:36.000Z</time>
      </trkpt>
      <trkpt lat="46.79885" lon="3.49675">
        <ele>197.793443</ele>
        <time>2021-09-11T05:31:45.000Z</time>
      </trkpt>
      <trkpt lat="46.79853" lon="3.49743">
        <ele>197.601616</ele>
        <time>2021-09-11T05:31:54.000Z</time>
      </trkpt>
      <trkpt lat="46.79823" lon="3.49805">
        <ele>197.424577</ele>
        <time>2021-09-11T05:32:02.000Z</time>
      </trkpt>
      <trkpt lat="46.79789" lon="3.49875">
        <ele>197.22387</ele>
        <time>2021-09-11T05:32:11.000Z</time>
      </trkpt>
      <trkpt lat="46.79785" lon="3.49883">
        <ele>197.200229</ele>
        <time>2021-09-11T05:32:12.000Z</time>
      </trkpt>
      <trkpt lat="46.79759" lon="3.49936">
        <ele>197.035353</ele>
        <time>2021-09-11T05:32:19.000Z</time>
      </trkpt>
      <trkpt lat="46.79732" lon="3.49993">
        <ele>196.856844</ele>
        <time>2021-09-11T05:32:28.000Z</time>
      </trkpt>
      <trkpt lat="46.79707" lon="3.50044">
        <ele>196.698066</ele>
        <time>2021-09-11T05:32:35.000Z</time>
      </trkpt>
      <trkpt lat="46.79678" lon="3.50104">
        <ele>196.287634</ele>
        <time>2021-09-11T05:32:42.000Z</time>
      </trkpt>
      <trkpt lat="46.79657" lon="3.50149">
        <ele>195.327972</ele>
        <time>2021-09-11T05:32:48.000Z</time>
      </trkpt>
      <trkpt lat="46.79622" lon="3.50222">
        <ele>193.786152</ele>
        <time>2021-09-11T05:32:58.000Z</time>
      </trkpt>
      <trkpt lat="46.7959" lon="3.50288">
        <ele>192.363929</ele>
        <time>2021-09-11T05:33:07.000Z</time>
      </trkpt>
      <trkpt lat="46.79566" lon="3.50339">
        <ele>191.070706</ele>
        <time>2021-09-11T05:33:14.000Z</time>
      </trkpt>
      <trkpt lat="46.79549" lon="3.50375">
        <ele>190.070372</ele>
        <time>2021-09-11T05:33:19.000Z</time>
      </trkpt>
      <trkpt lat="46.79542" lon="3.5039">
        <ele>189.664548</ele>
        <time>2021-09-11T05:33:21.000Z</time>
      </trkpt>
      <trkpt lat="46.79528" lon="3.50419">
        <ele>188.851068</ele>
        <time>2021-09-11T05:33:25.000Z</time>
      </trkpt>
      <trkpt lat="46.79525" lon="3.50426">
        <ele>188.651005</ele>
        <time>2021-09-11T05:33:26.000Z</time>
      </trkpt>
      <trkpt lat="46.79501" lon="3.50475">
        <ele>187.275038</ele>
        <time>2021-09-11T05:33:33.000Z</time>
      </trkpt>
      <trkpt lat="46.7948" lon="3.50519">
        <ele>186.06706</ele>
        <time>2021-09-11T05:33:39.000Z</time>
      </trkpt>
      <trkpt lat="46.7946" lon="3.50562">
        <ele>184.9149</ele>
        <time>2021-09-11T05:33:46.000Z</time>
      </trkpt>
      <trkpt lat="46.79453" lon="3.50577">
        <ele>184.522619</ele>
        <time>2021-09-11T05:33:47.000Z</time>
      </trkpt>
      <trkpt lat="46.79439" lon="3.50606">
        <ele>183.748837</ele>
        <time>2021-09-11T05:33:51.000Z</time>
      </trkpt>
      <trkpt lat="46.79411" lon="3.50665">
        <ele>182.199427</ele>
        <time>2021-09-11T05:33:59.000Z</time>
      </trkpt>
      <trkpt lat="46.79385" lon="3.50718">
        <ele>180.786159</ele>
        <time>2021-09-11T05:34:06.000Z</time>
      </trkpt>
      <trkpt lat="46.7936" lon="3.50772">
        <ele>180.261014</ele>
        <time>2021-09-11T05:34:13.000Z</time>
      </trkpt>
      <trkpt lat="46.79342" lon="3.50809">
        <ele>180.272604</ele>
        <time>2021-09-11T05:34:18.000Z</time>
      </trkpt>
      <trkpt lat="46.79314" lon="3.50866">
        <ele>180.290105</ele>
        <time>2021-09-11T05:34:25.000Z</time>
      </trkpt>
      <trkpt lat="46.79291" lon="3.50914">
        <ele>180.304922</ele>
        <time>2021-09-11T05:34:31.000Z</time>
      </trkpt>
      <trkpt lat="46.7926" lon="3.50979">
        <ele>180.47069</ele>
        <time>2021-09-11T05:34:39.000Z</time>
      </trkpt>
      <trkpt lat="46.79249" lon="3.51002">
        <ele>180.612419</ele>
        <time>2021-09-11T05:34:42.000Z</time>
      </trkpt>
      <trkpt lat="46.79214" lon="3.51073">
        <ele>181.041283</ele>
        <time>2021-09-11T05:34:51.000Z</time>
      </trkpt>
      <trkpt lat="46.79179" lon="3.51141">
        <ele>181.462352</ele>
        <time>2021-09-11T05:35:00.000Z</time>
      </trkpt>
      <trkpt lat="46.79152" lon="3.51177">
        <ele>181.757249</ele>
        <time>2021-09-11T05:35:06.000Z</time>
      </trkpt>
      <trkpt lat="46.79117" lon="3.51212">
        <ele>182.141196</ele>
        <time>2021-09-11T05:35:13.000Z</time>
      </trkpt>
      <trkpt lat="46.79097" lon="3.51234">
        <ele>182.366562</ele>
        <time>2021-09-11T05:35:17.000Z</time>
      </trkpt>
      <trkpt lat="46.79084" lon="3.51253">
        <ele>182.535458</ele>
        <time>2021-09-11T05:35:20.000Z</time>
      </trkpt>
      <trkpt lat="46.7905" lon="3.51306">
        <ele>182.989669</ele>
        <time>2021-09-11T05:35:28.000Z</time>
      </trkpt>
      <trkpt lat="46.79018" lon="3.51361">
        <ele>183.497836</ele>
        <time>2021-09-11T05:35:36.000Z</time>
      </trkpt>
      <trkpt lat="46.78989" lon="3.51417">
        <ele>184.090635</ele>
        <time>2021-09-11T05:35:44.000Z</time>
      </trkpt>
      <trkpt lat="46.7896" lon="3.51481">
        <ele>184.737298</ele>
        <time>2021-09-11T05:35:53.000Z</time>
      </trkpt>
      <trkpt lat="46.78931" lon="3.51555">
        <ele>185.449153</ele>
        <time>2021-09-11T05:36:03.000Z</time>
      </trkpt>
      <trkpt lat="46.78912" lon="3.51606">
        <ele>185.95894</ele>
        <time>2021-09-11T05:36:10.000Z</time>
      </trkpt>
      <trkpt lat="46.78889" lon="3.51666">
        <ele>186.55115</ele>
        <time>2021-09-11T05:36:18.000Z</time>
      </trkpt>
      <trkpt lat="46.78878" lon="3.51696">
        <ele>186.846569</ele>
        <time>2021-09-11T05:36:22.000Z</time>
      </trkpt>
      <trkpt lat="46.78873" lon="3.51711">
        <ele>186.995041</ele>
        <time>2021-09-11T05:36:24.000Z</time>
      </trkpt>
      <trkpt lat="46.78861" lon="3.51741">
        <ele>187.29397</ele>
        <time>2021-09-11T05:36:33.000Z</time>
      </trkpt>
      <trkpt lat="46.78836" lon="3.51808">
        <ele>187.878105</ele>
        <time>2021-09-11T05:36:39.000Z</time>
      </trkpt>
      <trkpt lat="46.7881" lon="3.51877">
        <ele>188.313493</ele>
        <time>2021-09-11T05:36:47.000Z</time>
      </trkpt>
      <trkpt lat="46.78807" lon="3.51885">
        <ele>188.362559</ele>
        <time>2021-09-11T05:36:48.000Z</time>
      </trkpt>
      <trkpt lat="46.78784" lon="3.51945">
        <ele>188.746167</ele>
        <time>2021-09-11T05:36:56.000Z</time>
      </trkpt>
      <trkpt lat="46.7876" lon="3.52009">
        <ele>189.144904</ele>
        <time>2021-09-11T05:37:03.000Z</time>
      </trkpt>
      <trkpt lat="46.78744" lon="3.52061">
        <ele>189.617429</ele>
        <time>2021-09-11T05:37:09.000Z</time>
      </trkpt>
      <trkpt lat="46.78739" lon="3.5209">
        <ele>189.880442</ele>
        <time>2021-09-11T05:37:13.000Z</time>
      </trkpt>
      <trkpt lat="46.78738" lon="3.52099">
        <ele>189.966539</ele>
        <time>2021-09-11T05:37:14.000Z</time>
      </trkpt>
      <trkpt lat="46.78737" lon="3.5217">
        <ele>190.582584</ele>
        <time>2021-09-11T05:37:20.000Z</time>
      </trkpt>
      <trkpt lat="46.78735" lon="3.52238">
        <ele>191.17701</ele>
        <time>2021-09-11T05:37:27.000Z</time>
      </trkpt>
      <trkpt lat="46.78734" lon="3.52257">
        <ele>191.339004</ele>
        <time>2021-09-11T05:37:35.000Z</time>
      </trkpt>
      <trkpt lat="46.78716" lon="3.52336">
        <ele>191.889104</ele>
        <time>2021-09-11T05:37:38.000Z</time>
      </trkpt>
      <trkpt lat="46.78707" lon="3.5237">
        <ele>192.115314</ele>
        <time>2021-09-11T05:37:43.000Z</time>
      </trkpt>
      <trkpt lat="46.78687" lon="3.52448">
        <ele>192.622735</ele>
        <time>2021-09-11T05:37:51.000Z</time>
      </trkpt>
      <trkpt lat="46.78684" lon="3.52457">
        <ele>192.680401</ele>
        <time>2021-09-11T05:37:53.000Z</time>
      </trkpt>
      <trkpt lat="46.78664" lon="3.52536">
        <ele>193.156072</ele>
        <time>2021-09-11T05:38:01.000Z</time>
      </trkpt>
      <trkpt lat="46.78648" lon="3.52596">
        <ele>193.421963</ele>
        <time>2021-09-11T05:38:08.000Z</time>
      </trkpt>
      <trkpt lat="46.78632" lon="3.52658">
        <ele>193.695436</ele>
        <time>2021-09-11T05:38:15.000Z</time>
      </trkpt>
      <trkpt lat="46.7861" lon="3.5274">
        <ele>194.052255</ele>
        <time>2021-09-11T05:38:24.000Z</time>
      </trkpt>
      <trkpt lat="46.78585" lon="3.52819">
        <ele>194.348427</ele>
        <time>2021-09-11T05:38:33.000Z</time>
      </trkpt>
      <trkpt lat="46.78569" lon="3.52862">
        <ele>194.497131</ele>
        <time>2021-09-11T05:38:39.000Z</time>
      </trkpt>
      <trkpt lat="46.78539" lon="3.52923">
        <ele>194.728737</ele>
        <time>2021-09-11T05:38:46.000Z</time>
      </trkpt>
      <trkpt lat="46.78512" lon="3.5297">
        <ele>194.91754</ele>
        <time>2021-09-11T05:38:53.000Z</time>
      </trkpt>
      <trkpt lat="46.7849" lon="3.53011">
        <ele>195.018857</ele>
        <time>2021-09-11T05:38:59.000Z</time>
      </trkpt>
      <trkpt lat="46.7846" lon="3.53065">
        <ele>195.118801</ele>
        <time>2021-09-11T05:39:07.000Z</time>
      </trkpt>
      <trkpt lat="46.78428" lon="3.53121">
        <ele>195.222893</ele>
        <time>2021-09-11T05:39:15.000Z</time>
      </trkpt>
      <trkpt lat="46.78405" lon="3.53163">
        <ele>195.29966</ele>
        <time>2021-09-11T05:39:21.000Z</time>
      </trkpt>
      <trkpt lat="46.78379" lon="3.53211">
        <ele>195.34719</ele>
        <time>2021-09-11T05:39:28.000Z</time>
      </trkpt>
      <trkpt lat="46.78353" lon="3.53257">
        <ele>195.353916</ele>
        <time>2021-09-11T05:39:35.000Z</time>
      </trkpt>
      <trkpt lat="46.78331" lon="3.53297">
        <ele>195.359606</ele>
        <time>2021-09-11T05:39:41.000Z</time>
      </trkpt>
      <trkpt lat="46.78296" lon="3.53359">
        <ele>195.368602</ele>
        <time>2021-09-11T05:39:50.000Z</time>
      </trkpt>
      <trkpt lat="46.78269" lon="3.53408">
        <ele>195.324324</ele>
        <time>2021-09-11T05:39:57.000Z</time>
      </trkpt>
      <trkpt lat="46.78243" lon="3.53455">
        <ele>195.188518</ele>
        <time>2021-09-11T05:40:04.000Z</time>
      </trkpt>
      <trkpt lat="46.78215" lon="3.53505">
        <ele>195.045352</ele>
        <time>2021-09-11T05:40:11.000Z</time>
      </trkpt>
      <trkpt lat="46.78187" lon="3.53556">
        <ele>194.899606</ele>
        <time>2021-09-11T05:40:18.000Z</time>
      </trkpt>
      <trkpt lat="46.78158" lon="3.53607">
        <ele>194.793577</ele>
        <time>2021-09-11T05:40:25.000Z</time>
      </trkpt>
      <trkpt lat="46.7813" lon="3.53658">
        <ele>194.813686</ele>
        <time>2021-09-11T05:40:32.000Z</time>
      </trkpt>
      <trkpt lat="46.78098" lon="3.53715">
        <ele>194.836361</ele>
        <time>2021-09-11T05:40:40.000Z</time>
      </trkpt>
      <trkpt lat="46.78062" lon="3.5378">
        <ele>194.862063</ele>
        <time>2021-09-11T05:40:49.000Z</time>
      </trkpt>
      <trkpt lat="46.78054" lon="3.53795">
        <ele>194.867885</ele>
        <time>2021-09-11T05:40:51.000Z</time>
      </trkpt>
      <trkpt lat="46.78017" lon="3.5386">
        <ele>195.013326</ele>
        <time>2021-09-11T05:41:00.000Z</time>
      </trkpt>
      <trkpt lat="46.78001" lon="3.53889">
        <ele>195.081016</ele>
        <time>2021-09-11T05:41:04.000Z</time>
      </trkpt>
      <trkpt lat="46.77965" lon="3.53955">
        <ele>195.2344</ele>
        <time>2021-09-11T05:41:13.000Z</time>
      </trkpt>
      <trkpt lat="46.77952" lon="3.53977">
        <ele>195.286543</ele>
        <time>2021-09-11T05:41:16.000Z</time>
      </trkpt>
      <trkpt lat="46.77915" lon="3.54043">
        <ele>195.423293</ele>
        <time>2021-09-11T05:41:25.000Z</time>
      </trkpt>
      <trkpt lat="46.77884" lon="3.541">
        <ele>195.531827</ele>
        <time>2021-09-11T05:41:33.000Z</time>
      </trkpt>
      <trkpt lat="46.77848" lon="3.54164">
        <ele>195.652968</ele>
        <time>2021-09-11T05:41:42.000Z</time>
      </trkpt>
      <trkpt lat="46.7784" lon="3.54178">
        <ele>195.679394</ele>
        <time>2021-09-11T05:41:44.000Z</time>
      </trkpt>
      <trkpt lat="46.77806" lon="3.54239">
        <ele>195.835223</ele>
        <time>2021-09-11T05:41:53.000Z</time>
      </trkpt>
      <trkpt lat="46.77803" lon="3.54246">
        <ele>195.855187</ele>
        <time>2021-09-11T05:41:54.000Z</time>
      </trkpt>
      <trkpt lat="46.77773" lon="3.54299">
        <ele>196.016044</ele>
        <time>2021-09-11T05:42:02.000Z</time>
      </trkpt>
      <trkpt lat="46.77745" lon="3.5435">
        <ele>196.172394</ele>
        <time>2021-09-11T05:42:10.000Z</time>
      </trkpt>
      <trkpt lat="46.77712" lon="3.54409">
        <ele>196.350765</ele>
        <time>2021-09-11T05:42:19.000Z</time>
      </trkpt>
      <trkpt lat="46.77699" lon="3.54435">
        <ele>196.400275</ele>
        <time>2021-09-11T05:42:23.000Z</time>
      </trkpt>
      <trkpt lat="46.77691" lon="3.54447">
        <ele>196.424816</ele>
        <time>2021-09-11T05:42:25.000Z</time>
      </trkpt>
      <trkpt lat="46.77666" lon="3.54492">
        <ele>196.511505</ele>
        <time>2021-09-11T05:42:32.000Z</time>
      </trkpt>
      <trkpt lat="46.77636" lon="3.54545">
        <ele>196.612381</ele>
        <time>2021-09-11T05:42:40.000Z</time>
      </trkpt>
      <trkpt lat="46.77607" lon="3.54597">
        <ele>196.711955</ele>
        <time>2021-09-11T05:42:48.000Z</time>
      </trkpt>
      <trkpt lat="46.77579" lon="3.54649">
        <ele>196.785392</ele>
        <time>2021-09-11T05:42:56.000Z</time>
      </trkpt>
      <trkpt lat="46.77547" lon="3.547">
        <ele>196.85034</ele>
        <time>2021-09-11T05:43:04.000Z</time>
      </trkpt>
      <trkpt lat="46.77517" lon="3.54743">
        <ele>196.907432</ele>
        <time>2021-09-11T05:43:11.000Z</time>
      </trkpt>
      <trkpt lat="46.77477" lon="3.54794">
        <ele>196.979572</ele>
        <time>2021-09-11T05:43:20.000Z</time>
      </trkpt>
      <trkpt lat="46.77441" lon="3.54836">
        <ele>197.065928</ele>
        <time>2021-09-11T05:43:28.000Z</time>
      </trkpt>
      <trkpt lat="46.77409" lon="3.54872">
        <ele>197.144657</ele>
        <time>2021-09-11T05:43:35.000Z</time>
      </trkpt>
      <trkpt lat="46.77371" lon="3.54916">
        <ele>197.238783</ele>
        <time>2021-09-11T05:43:43.000Z</time>
      </trkpt>
      <trkpt lat="46.77338" lon="3.54952">
        <ele>197.318841</ele>
        <time>2021-09-11T05:43:50.000Z</time>
      </trkpt>
      <trkpt lat="46.77296" lon="3.55002">
        <ele>197.421551</ele>
        <time>2021-09-11T05:43:59.000Z</time>
      </trkpt>
      <trkpt lat="46.77252" lon="3.55051">
        <ele>197.525904</ele>
        <time>2021-09-11T05:44:08.000Z</time>
      </trkpt>
      <trkpt lat="46.77223" lon="3.55084">
        <ele>197.595543</ele>
        <time>2021-09-11T05:44:14.000Z</time>
      </trkpt>
      <trkpt lat="46.77194" lon="3.55117">
        <ele>197.666292</ele>
        <time>2021-09-11T05:44:20.000Z</time>
      </trkpt>
      <trkpt lat="46.77155" lon="3.55162">
        <ele>197.763056</ele>
        <time>2021-09-11T05:44:28.000Z</time>
      </trkpt>
      <trkpt lat="46.77111" lon="3.55213">
        <ele>197.873002</ele>
        <time>2021-09-11T05:44:37.000Z</time>
      </trkpt>
      <trkpt lat="46.77072" lon="3.55258">
        <ele>197.97087</ele>
        <time>2021-09-11T05:44:45.000Z</time>
      </trkpt>
      <trkpt lat="46.77043" lon="3.5529">
        <ele>198.041237</ele>
        <time>2021-09-11T05:44:51.000Z</time>
      </trkpt>
      <trkpt lat="46.77009" lon="3.55329">
        <ele>198.108136</ele>
        <time>2021-09-11T05:44:58.000Z</time>
      </trkpt>
      <trkpt lat="46.76972" lon="3.55372">
        <ele>198.182394</ele>
        <time>2021-09-11T05:45:06.000Z</time>
      </trkpt>
      <trkpt lat="46.76929" lon="3.55422">
        <ele>198.267173</ele>
        <time>2021-09-11T05:45:15.000Z</time>
      </trkpt>
      <trkpt lat="46.76901" lon="3.55454">
        <ele>198.32089</ele>
        <time>2021-09-11T05:45:21.000Z</time>
      </trkpt>
      <trkpt lat="46.76861" lon="3.55499">
        <ele>198.384886</ele>
        <time>2021-09-11T05:45:29.000Z</time>
      </trkpt>
      <trkpt lat="46.76817" lon="3.5555">
        <ele>198.456659</ele>
        <time>2021-09-11T05:45:38.000Z</time>
      </trkpt>
      <trkpt lat="46.76771" lon="3.55602">
        <ele>198.530757</ele>
        <time>2021-09-11T05:45:47.000Z</time>
      </trkpt>
      <trkpt lat="46.7673" lon="3.55648">
        <ele>198.548099</ele>
        <time>2021-09-11T05:45:55.000Z</time>
      </trkpt>
      <trkpt lat="46.76684" lon="3.55701">
        <ele>198.555781</ele>
        <time>2021-09-11T05:46:04.000Z</time>
      </trkpt>
      <trkpt lat="46.76638" lon="3.55754">
        <ele>198.563488</ele>
        <time>2021-09-11T05:46:13.000Z</time>
      </trkpt>
      <trkpt lat="46.76599" lon="3.55799">
        <ele>198.55409</ele>
        <time>2021-09-11T05:46:21.000Z</time>
      </trkpt>
      <trkpt lat="46.76553" lon="3.55851">
        <ele>198.531155</ele>
        <time>2021-09-11T05:46:30.000Z</time>
      </trkpt>
      <trkpt lat="46.76548" lon="3.55856">
        <ele>198.528648</ele>
        <time>2021-09-11T05:46:31.000Z</time>
      </trkpt>
      <trkpt lat="46.76502" lon="3.55909">
        <ele>198.505578</ele>
        <time>2021-09-11T05:46:40.000Z</time>
      </trkpt>
      <trkpt lat="46.76457" lon="3.5596">
        <ele>198.52608</ele>
        <time>2021-09-11T05:46:49.000Z</time>
      </trkpt>
      <trkpt lat="46.76442" lon="3.55977">
        <ele>198.545037</ele>
        <time>2021-09-11T05:46:52.000Z</time>
      </trkpt>
      <trkpt lat="46.76397" lon="3.56028">
        <ele>198.602462</ele>
        <time>2021-09-11T05:47:01.000Z</time>
      </trkpt>
      <trkpt lat="46.76388" lon="3.56039">
        <ele>198.615211</ele>
        <time>2021-09-11T05:47:03.000Z</time>
      </trkpt>
      <trkpt lat="46.76344" lon="3.56089">
        <ele>198.671856</ele>
        <time>2021-09-11T05:47:12.000Z</time>
      </trkpt>
      <trkpt lat="46.76299" lon="3.56139">
        <ele>198.751794</ele>
        <time>2021-09-11T05:47:21.000Z</time>
      </trkpt>
      <trkpt lat="46.76295" lon="3.56145">
        <ele>198.760628</ele>
        <time>2021-09-11T05:47:22.000Z</time>
      </trkpt>
      <trkpt lat="46.7625" lon="3.56196">
        <ele>198.844074</ele>
        <time>2021-09-11T05:47:31.000Z</time>
      </trkpt>
      <trkpt lat="46.76245" lon="3.56201">
        <ele>198.853326</ele>
        <time>2021-09-11T05:47:32.000Z</time>
      </trkpt>
      <trkpt lat="46.7621" lon="3.5624">
        <ele>198.918003</ele>
        <time>2021-09-11T05:47:39.000Z</time>
      </trkpt>
      <trkpt lat="46.76165" lon="3.56291">
        <ele>198.992045</ele>
        <time>2021-09-11T05:47:48.000Z</time>
      </trkpt>
      <trkpt lat="46.7612" lon="3.56343">
        <ele>199.061999</ele>
        <time>2021-09-11T05:47:57.000Z</time>
      </trkpt>
      <trkpt lat="46.76076" lon="3.56395">
        <ele>199.131321</ele>
        <time>2021-09-11T05:48:06.000Z</time>
      </trkpt>
      <trkpt lat="46.76035" lon="3.5644">
        <ele>199.202106</ele>
        <time>2021-09-11T05:48:14.000Z</time>
      </trkpt>
      <trkpt lat="46.75996" lon="3.56484">
        <ele>199.281296</ele>
        <time>2021-09-11T05:48:22.000Z</time>
      </trkpt>
      <trkpt lat="46.75952" lon="3.56535">
        <ele>199.371176</ele>
        <time>2021-09-11T05:48:31.000Z</time>
      </trkpt>
      <trkpt lat="46.75947" lon="3.56541">
        <ele>199.381019</ele>
        <time>2021-09-11T05:48:32.000Z</time>
      </trkpt>
      <trkpt lat="46.75903" lon="3.5659">
        <ele>199.430117</ele>
        <time>2021-09-11T05:48:41.000Z</time>
      </trkpt>
      <trkpt lat="46.75898" lon="3.56596">
        <ele>199.420794</ele>
        <time>2021-09-11T05:48:42.000Z</time>
      </trkpt>
      <trkpt lat="46.75859" lon="3.56641">
        <ele>199.346826</ele>
        <time>2021-09-11T05:48:50.000Z</time>
      </trkpt>
      <trkpt lat="46.75825" lon="3.56679">
        <ele>199.282984</ele>
        <time>2021-09-11T05:48:57.000Z</time>
      </trkpt>
      <trkpt lat="46.75781" lon="3.5673">
        <ele>199.200469</ele>
        <time>2021-09-11T05:49:06.000Z</time>
      </trkpt>
      <trkpt lat="46.75772" lon="3.56741">
        <ele>199.182899</ele>
        <time>2021-09-11T05:49:08.000Z</time>
      </trkpt>
      <trkpt lat="46.75767" lon="3.56746">
        <ele>199.187445</ele>
        <time>2021-09-11T05:49:09.000Z</time>
      </trkpt>
      <trkpt lat="46.75744" lon="3.56773">
        <ele>199.211058</ele>
        <time>2021-09-11T05:49:14.000Z</time>
      </trkpt>
      <trkpt lat="46.7571" lon="3.56809">
        <ele>199.244149</ele>
        <time>2021-09-11T05:49:21.000Z</time>
      </trkpt>
      <trkpt lat="46.75676" lon="3.56848">
        <ele>199.278404</ele>
        <time>2021-09-11T05:49:28.000Z</time>
      </trkpt>
      <trkpt lat="46.75642" lon="3.56886">
        <ele>199.312364</ele>
        <time>2021-09-11T05:49:35.000Z</time>
      </trkpt>
      <trkpt lat="46.75603" lon="3.5693">
        <ele>199.382408</ele>
        <time>2021-09-11T05:49:43.000Z</time>
      </trkpt>
      <trkpt lat="46.75565" lon="3.56974">
        <ele>199.468613</ele>
        <time>2021-09-11T05:49:51.000Z</time>
      </trkpt>
      <trkpt lat="46.75522" lon="3.57025">
        <ele>199.564778</ele>
        <time>2021-09-11T05:50:00.000Z</time>
      </trkpt>
      <trkpt lat="46.75513" lon="3.57035">
        <ele>199.585096</ele>
        <time>2021-09-11T05:50:02.000Z</time>
      </trkpt>
      <trkpt lat="46.75478" lon="3.57071">
        <ele>199.686004</ele>
        <time>2021-09-11T05:50:09.000Z</time>
      </trkpt>
      <trkpt lat="46.75435" lon="3.57123">
        <ele>199.91973</ele>
        <time>2021-09-11T05:50:18.000Z</time>
      </trkpt>
      <trkpt lat="46.75399" lon="3.57173">
        <ele>200.126095</ele>
        <time>2021-09-11T05:50:26.000Z</time>
      </trkpt>
      <trkpt lat="46.75363" lon="3.57236">
        <ele>200.361756</ele>
        <time>2021-09-11T05:50:35.000Z</time>
      </trkpt>
      <trkpt lat="46.7534" lon="3.5728">
        <ele>200.523045</ele>
        <time>2021-09-11T05:50:41.000Z</time>
      </trkpt>
      <trkpt lat="46.75304" lon="3.57345">
        <ele>200.76495</ele>
        <time>2021-09-11T05:50:50.000Z</time>
      </trkpt>
      <trkpt lat="46.75275" lon="3.57393">
        <ele>200.951301</ele>
        <time>2021-09-11T05:50:57.000Z</time>
      </trkpt>
      <trkpt lat="46.75264" lon="3.57415">
        <ele>201.031434</ele>
        <time>2021-09-11T05:51:00.000Z</time>
      </trkpt>
      <trkpt lat="46.75255" lon="3.57427">
        <ele>201.083407</ele>
        <time>2021-09-11T05:51:02.000Z</time>
      </trkpt>
      <trkpt lat="46.75251" lon="3.57434">
        <ele>201.110536</ele>
        <time>2021-09-11T05:51:03.000Z</time>
      </trkpt>
      <trkpt lat="46.75236" lon="3.57465">
        <ele>201.172626</ele>
        <time>2021-09-11T05:51:07.000Z</time>
      </trkpt>
      <trkpt lat="46.75203" lon="3.57529">
        <ele>201.233367</ele>
        <time>2021-09-11T05:51:16.000Z</time>
      </trkpt>
      <trkpt lat="46.7518" lon="3.57569">
        <ele>201.272932</ele>
        <time>2021-09-11T05:51:22.000Z</time>
      </trkpt>
      <trkpt lat="46.75172" lon="3.57583">
        <ele>201.286489</ele>
        <time>2021-09-11T05:51:24.000Z</time>
      </trkpt>
      <trkpt lat="46.75157" lon="3.57611">
        <ele>201.313756</ele>
        <time>2021-09-11T05:51:28.000Z</time>
      </trkpt>
      <trkpt lat="46.75123" lon="3.57674">
        <ele>201.376556</ele>
        <time>2021-09-11T05:51:37.000Z</time>
      </trkpt>
      <trkpt lat="46.75119" lon="3.57681">
        <ele>201.383632</ele>
        <time>2021-09-11T05:51:38.000Z</time>
      </trkpt>
      <trkpt lat="46.75101" lon="3.57715">
        <ele>201.418077</ele>
        <time>2021-09-11T05:51:43.000Z</time>
      </trkpt>
      <trkpt lat="46.75072" lon="3.5777">
        <ele>201.474031</ele>
        <time>2021-09-11T05:51:51.000Z</time>
      </trkpt>
      <trkpt lat="46.75041" lon="3.57825">
        <ele>201.531274</ele>
        <time>2021-09-11T05:51:59.000Z</time>
      </trkpt>
      <trkpt lat="46.75007" lon="3.57888">
        <ele>201.618977</ele>
        <time>2021-09-11T05:52:08.000Z</time>
      </trkpt>
      <trkpt lat="46.7498" lon="3.57936">
        <ele>201.708759</ele>
        <time>2021-09-11T05:52:15.000Z</time>
      </trkpt>
      <trkpt lat="46.74951" lon="3.5799">
        <ele>201.808161</ele>
        <time>2021-09-11T05:52:23.000Z</time>
      </trkpt>
      <trkpt lat="46.74918" lon="3.58048">
        <ele>201.917207</ele>
        <time>2021-09-11T05:52:32.000Z</time>
      </trkpt>
      <trkpt lat="46.74894" lon="3.58092">
        <ele>201.941765</ele>
        <time>2021-09-11T05:52:39.000Z</time>
      </trkpt>
      <trkpt lat="46.7487" lon="3.58137">
        <ele>201.934314</ele>
        <time>2021-09-11T05:52:46.000Z</time>
      </trkpt>
      <trkpt lat="46.74844" lon="3.58182">
        <ele>201.926654</ele>
        <time>2021-09-11T05:52:53.000Z</time>
      </trkpt>
      <trkpt lat="46.74819" lon="3.58231">
        <ele>201.918622</ele>
        <time>2021-09-11T05:53:00.000Z</time>
      </trkpt>
      <trkpt lat="46.74787" lon="3.58287">
        <ele>201.880325</ele>
        <time>2021-09-11T05:53:08.000Z</time>
      </trkpt>
      <trkpt lat="46.7476" lon="3.58336">
        <ele>201.795935</ele>
        <time>2021-09-11T05:53:15.000Z</time>
      </trkpt>
      <trkpt lat="46.74737" lon="3.58378">
        <ele>201.72188</ele>
        <time>2021-09-11T05:53:21.000Z</time>
      </trkpt>
      <trkpt lat="46.7471" lon="3.58428">
        <ele>201.63677</ele>
        <time>2021-09-11T05:53:28.000Z</time>
      </trkpt>
      <trkpt lat="46.74678" lon="3.58485">
        <ele>201.559552</ele>
        <time>2021-09-11T05:53:36.000Z</time>
      </trkpt>
      <trkpt lat="46.74651" lon="3.58533">
        <ele>201.569684</ele>
        <time>2021-09-11T05:53:43.000Z</time>
      </trkpt>
      <trkpt lat="46.74629" lon="3.58573">
        <ele>201.578123</ele>
        <time>2021-09-11T05:53:49.000Z</time>
      </trkpt>
      <trkpt lat="46.74606" lon="3.58616">
        <ele>201.587012</ele>
        <time>2021-09-11T05:53:55.000Z</time>
      </trkpt>
      <trkpt lat="46.74576" lon="3.58671">
        <ele>201.598368</ele>
        <time>2021-09-11T05:54:03.000Z</time>
      </trkpt>
      <trkpt lat="46.74545" lon="3.58728">
        <ele>201.622056</ele>
        <time>2021-09-11T05:54:11.000Z</time>
      </trkpt>
      <trkpt lat="46.74538" lon="3.58742">
        <ele>201.628329</ele>
        <time>2021-09-11T05:54:13.000Z</time>
      </trkpt>
      <trkpt lat="46.74526" lon="3.58762">
        <ele>201.637591</ele>
        <time>2021-09-11T05:54:16.000Z</time>
      </trkpt>
      <trkpt lat="46.745" lon="3.58811">
        <ele>201.659497</ele>
        <time>2021-09-11T05:54:23.000Z</time>
      </trkpt>
      <trkpt lat="46.74472" lon="3.5886">
        <ele>201.681746</ele>
        <time>2021-09-11T05:54:30.000Z</time>
      </trkpt>
      <trkpt lat="46.74438" lon="3.58923">
        <ele>201.676796</ele>
        <time>2021-09-11T05:54:39.000Z</time>
      </trkpt>
      <trkpt lat="46.74413" lon="3.5897">
        <ele>201.658153</ele>
        <time>2021-09-11T05:54:46.000Z</time>
      </trkpt>
      <trkpt lat="46.74385" lon="3.59019">
        <ele>201.638704</ele>
        <time>2021-09-11T05:54:53.000Z</time>
      </trkpt>
      <trkpt lat="46.74362" lon="3.59061">
        <ele>201.622122</ele>
        <time>2021-09-11T05:54:59.000Z</time>
      </trkpt>
      <trkpt lat="46.74328" lon="3.59124">
        <ele>201.571775</ele>
        <time>2021-09-11T05:55:08.000Z</time>
      </trkpt>
      <trkpt lat="46.74301" lon="3.59172">
        <ele>201.517522</ele>
        <time>2021-09-11T05:55:15.000Z</time>
      </trkpt>
      <trkpt lat="46.74271" lon="3.59227">
        <ele>201.456026</ele>
        <time>2021-09-11T05:55:23.000Z</time>
      </trkpt>
      <trkpt lat="46.74239" lon="3.59284">
        <ele>201.391753</ele>
        <time>2021-09-11T05:55:31.000Z</time>
      </trkpt>
      <trkpt lat="46.74205" lon="3.59347">
        <ele>201.350714</ele>
        <time>2021-09-11T05:55:40.000Z</time>
      </trkpt>
      <trkpt lat="46.74169" lon="3.59411">
        <ele>201.313262</ele>
        <time>2021-09-11T05:55:49.000Z</time>
      </trkpt>
      <trkpt lat="46.74137" lon="3.5947">
        <ele>201.279173</ele>
        <time>2021-09-11T05:55:57.000Z</time>
      </trkpt>
      <trkpt lat="46.74102" lon="3.59536">
        <ele>201.2833</ele>
        <time>2021-09-11T05:56:06.000Z</time>
      </trkpt>
      <trkpt lat="46.74069" lon="3.59594">
        <ele>201.315359</ele>
        <time>2021-09-11T05:56:14.000Z</time>
      </trkpt>
      <trkpt lat="46.74035" lon="3.5966">
        <ele>201.350109</ele>
        <time>2021-09-11T05:56:23.000Z</time>
      </trkpt>
      <trkpt lat="46.74008" lon="3.59709">
        <ele>201.382082</ele>
        <time>2021-09-11T05:56:30.000Z</time>
      </trkpt>
      <trkpt lat="46.73977" lon="3.59766">
        <ele>201.472813</ele>
        <time>2021-09-11T05:56:38.000Z</time>
      </trkpt>
      <trkpt lat="46.73942" lon="3.59828">
        <ele>201.572484</ele>
        <time>2021-09-11T05:56:47.000Z</time>
      </trkpt>
      <trkpt lat="46.7391" lon="3.59886">
        <ele>201.664657</ele>
        <time>2021-09-11T05:56:55.000Z</time>
      </trkpt>
      <trkpt lat="46.7389" lon="3.59923">
        <ele>201.724658</ele>
        <time>2021-09-11T05:57:00.000Z</time>
      </trkpt>
      <trkpt lat="46.73878" lon="3.59944">
        <ele>201.760731</ele>
        <time>2021-09-11T05:57:03.000Z</time>
      </trkpt>
      <trkpt lat="46.73843" lon="3.60008">
        <ele>201.868179</ele>
        <time>2021-09-11T05:57:12.000Z</time>
      </trkpt>
      <trkpt lat="46.73808" lon="3.60073">
        <ele>201.97579</ele>
        <time>2021-09-11T05:57:21.000Z</time>
      </trkpt>
      <trkpt lat="46.73772" lon="3.60138">
        <ele>202.078925</ele>
        <time>2021-09-11T05:57:30.000Z</time>
      </trkpt>
      <trkpt lat="46.73768" lon="3.60145">
        <ele>202.089398</ele>
        <time>2021-09-11T05:57:31.000Z</time>
      </trkpt>
      <trkpt lat="46.73735" lon="3.60209">
        <ele>202.181002</ele>
        <time>2021-09-11T05:57:40.000Z</time>
      </trkpt>
      <trkpt lat="46.73705" lon="3.60266">
        <ele>202.262996</ele>
        <time>2021-09-11T05:57:48.000Z</time>
      </trkpt>
      <trkpt lat="46.73671" lon="3.60323">
        <ele>202.34844</ele>
        <time>2021-09-11T05:57:56.000Z</time>
      </trkpt>
      <trkpt lat="46.73644" lon="3.60373">
        <ele>202.423236</ele>
        <time>2021-09-11T05:58:03.000Z</time>
      </trkpt>
      <trkpt lat="46.7361" lon="3.60437">
        <ele>202.517287</ele>
        <time>2021-09-11T05:58:12.000Z</time>
      </trkpt>
      <trkpt lat="46.73606" lon="3.60444">
        <ele>202.527372</ele>
        <time>2021-09-11T05:58:13.000Z</time>
      </trkpt>
      <trkpt lat="46.73582" lon="3.60494">
        <ele>202.598088</ele>
        <time>2021-09-11T05:58:20.000Z</time>
      </trkpt>
      <trkpt lat="46.73552" lon="3.60549">
        <ele>202.696292</ele>
        <time>2021-09-11T05:58:28.000Z</time>
      </trkpt>
      <trkpt lat="46.73517" lon="3.60612">
        <ele>202.837231</ele>
        <time>2021-09-11T05:58:37.000Z</time>
      </trkpt>
      <trkpt lat="46.73513" lon="3.60619">
        <ele>202.85318</ele>
        <time>2021-09-11T05:58:38.000Z</time>
      </trkpt>
      <trkpt lat="46.73493" lon="3.60655">
        <ele>202.933877</ele>
        <time>2021-09-11T05:58:47.000Z</time>
      </trkpt>
      <trkpt lat="46.73457" lon="3.6072">
        <ele>203.079273</ele>
        <time>2021-09-11T05:58:54.000Z</time>
      </trkpt>
      <trkpt lat="46.73422" lon="3.60782">
        <ele>203.217166</ele>
        <time>2021-09-11T05:59:02.000Z</time>
      </trkpt>
      <trkpt lat="46.73403" lon="3.60816">
        <ele>203.29189</ele>
        <time>2021-09-11T05:59:09.000Z</time>
      </trkpt>
      <trkpt lat="46.73369" lon="3.60878">
        <ele>203.428022</ele>
        <time>2021-09-11T05:59:17.000Z</time>
      </trkpt>
      <trkpt lat="46.73366" lon="3.60883">
        <ele>203.440357</ele>
        <time>2021-09-11T05:59:21.000Z</time>
      </trkpt>
      <trkpt lat="46.73359" lon="3.60894">
        <ele>203.464897</ele>
        <time>2021-09-11T05:59:26.000Z</time>
      </trkpt>
      <trkpt lat="46.73312" lon="3.60978">
        <ele>203.578128</ele>
        <time>2021-09-11T05:59:34.000Z</time>
      </trkpt>
      <trkpt lat="46.73286" lon="3.61015">
        <ele>203.600889</ele>
        <time>2021-09-11T05:59:39.000Z</time>
      </trkpt>
      <trkpt lat="46.73277" lon="3.61026">
        <ele>203.608401</ele>
        <time>2021-09-11T05:59:42.000Z</time>
      </trkpt>
      <trkpt lat="46.73273" lon="3.6103">
        <ele>203.612012</ele>
        <time>2021-09-11T05:59:43.000Z</time>
      </trkpt>
      <trkpt lat="46.73254" lon="3.61049">
        <ele>203.626146</ele>
        <time>2021-09-11T05:59:47.000Z</time>
      </trkpt>
      <trkpt lat="46.73227" lon="3.61077">
        <ele>203.647656</ele>
        <time>2021-09-11T05:59:52.000Z</time>
      </trkpt>
      <trkpt lat="46.73218" lon="3.61087">
        <ele>203.65493</ele>
        <time>2021-09-11T05:59:55.000Z</time>
      </trkpt>
      <trkpt lat="46.73212" lon="3.61093">
        <ele>203.65924</ele>
        <time>2021-09-11T05:59:57.000Z</time>
      </trkpt>
      <trkpt lat="46.73197" lon="3.61148">
        <ele>203.684847</ele>
        <time>2021-09-11T06:00:04.000Z</time>
      </trkpt>
      <trkpt lat="46.73195" lon="3.61156">
        <ele>203.688498</ele>
        <time>2021-09-11T06:00:08.000Z</time>
      </trkpt>
      <trkpt lat="46.73163" lon="3.61261">
        <ele>203.737721</ele>
        <time>2021-09-11T06:00:17.000Z</time>
      </trkpt>
      <trkpt lat="46.7313" lon="3.61328">
        <ele>203.772645</ele>
        <time>2021-09-11T06:00:24.000Z</time>
      </trkpt>
      <trkpt lat="46.73105" lon="3.61377">
        <ele>203.876281</ele>
        <time>2021-09-11T06:00:31.000Z</time>
      </trkpt>
      <trkpt lat="46.73073" lon="3.6144">
        <ele>204.042944</ele>
        <time>2021-09-11T06:00:40.000Z</time>
      </trkpt>
      <trkpt lat="46.73037" lon="3.61509">
        <ele>204.228098</ele>
        <time>2021-09-11T06:00:50.000Z</time>
      </trkpt>
      <trkpt lat="46.73034" lon="3.61516">
        <ele>204.245362</ele>
        <time>2021-09-11T06:00:51.000Z</time>
      </trkpt>
      <trkpt lat="46.73005" lon="3.61573">
        <ele>204.416439</ele>
        <time>2021-09-11T06:00:59.000Z</time>
      </trkpt>
      <trkpt lat="46.72975" lon="3.61628">
        <ele>204.613566</ele>
        <time>2021-09-11T06:01:07.000Z</time>
      </trkpt>
      <trkpt lat="46.7295" lon="3.61667">
        <ele>204.764576</ele>
        <time>2021-09-11T06:01:13.000Z</time>
      </trkpt>
      <trkpt lat="46.7292" lon="3.61708">
        <ele>204.931437</ele>
        <time>2021-09-11T06:01:20.000Z</time>
      </trkpt>
      <trkpt lat="46.72895" lon="3.61743">
        <ele>205.074698</ele>
        <time>2021-09-11T06:01:26.000Z</time>
      </trkpt>
      <trkpt lat="46.7289" lon="3.61749">
        <ele>205.097892</ele>
        <time>2021-09-11T06:01:27.000Z</time>
      </trkpt>
      <trkpt lat="46.72854" lon="3.61791">
        <ele>205.281858</ele>
        <time>2021-09-11T06:01:35.000Z</time>
      </trkpt>
      <trkpt lat="46.72827" lon="3.61821">
        <ele>205.415695</ele>
        <time>2021-09-11T06:01:41.000Z</time>
      </trkpt>
      <trkpt lat="46.72794" lon="3.6186">
        <ele>205.582634</ele>
        <time>2021-09-11T06:01:49.000Z</time>
      </trkpt>
      <trkpt lat="46.72764" lon="3.61894">
        <ele>205.733022</ele>
        <time>2021-09-11T06:01:56.000Z</time>
      </trkpt>
      <trkpt lat="46.72726" lon="3.61938">
        <ele>205.769368</ele>
        <time>2021-09-11T06:02:04.000Z</time>
      </trkpt>
      <trkpt lat="46.72707" lon="3.61959">
        <ele>205.758498</ele>
        <time>2021-09-11T06:02:08.000Z</time>
      </trkpt>
      <trkpt lat="46.72698" lon="3.61969">
        <ele>205.753231</ele>
        <time>2021-09-11T06:02:10.000Z</time>
      </trkpt>
      <trkpt lat="46.72662" lon="3.62011">
        <ele>205.731794</ele>
        <time>2021-09-11T06:02:18.000Z</time>
      </trkpt>
      <trkpt lat="46.72629" lon="3.62049">
        <ele>205.711864</ele>
        <time>2021-09-11T06:02:25.000Z</time>
      </trkpt>
      <trkpt lat="46.72594" lon="3.6209">
        <ele>205.642919</ele>
        <time>2021-09-11T06:02:32.000Z</time>
      </trkpt>
      <trkpt lat="46.72551" lon="3.62141">
        <ele>205.500944</ele>
        <time>2021-09-11T06:02:41.000Z</time>
      </trkpt>
      <trkpt lat="46.72512" lon="3.62187">
        <ele>205.373785</ele>
        <time>2021-09-11T06:02:49.000Z</time>
      </trkpt>
      <trkpt lat="46.72475" lon="3.62232">
        <ele>205.252077</ele>
        <time>2021-09-11T06:02:57.000Z</time>
      </trkpt>
      <trkpt lat="46.72443" lon="3.6227">
        <ele>205.191466</ele>
        <time>2021-09-11T06:03:04.000Z</time>
      </trkpt>
      <trkpt lat="46.72399" lon="3.62323">
        <ele>205.11539</ele>
        <time>2021-09-11T06:03:13.000Z</time>
      </trkpt>
      <trkpt lat="46.72389" lon="3.62334">
        <ele>205.098191</ele>
        <time>2021-09-11T06:03:15.000Z</time>
      </trkpt>
      <trkpt lat="46.72351" lon="3.6238">
        <ele>205.031709</ele>
        <time>2021-09-11T06:03:23.000Z</time>
      </trkpt>
      <trkpt lat="46.72307" lon="3.62433">
        <ele>205.017814</ele>
        <time>2021-09-11T06:03:32.000Z</time>
      </trkpt>
      <trkpt lat="46.72302" lon="3.62439">
        <ele>205.02108</ele>
        <time>2021-09-11T06:03:33.000Z</time>
      </trkpt>
      <trkpt lat="46.72257" lon="3.62492">
        <ele>205.051068</ele>
        <time>2021-09-11T06:03:42.000Z</time>
      </trkpt>
      <trkpt lat="46.72212" lon="3.62546">
        <ele>205.081079</ele>
        <time>2021-09-11T06:03:51.000Z</time>
      </trkpt>
      <trkpt lat="46.72166" lon="3.626">
        <ele>205.141834</ele>
        <time>2021-09-11T06:04:00.000Z</time>
      </trkpt>
      <trkpt lat="46.72121" lon="3.62654">
        <ele>205.221707</ele>
        <time>2021-09-11T06:04:09.000Z</time>
      </trkpt>
      <trkpt lat="46.72076" lon="3.62708">
        <ele>205.302411</ele>
        <time>2021-09-11T06:04:18.000Z</time>
      </trkpt>
      <trkpt lat="46.72071" lon="3.62714">
        <ele>205.311479</ele>
        <time>2021-09-11T06:04:19.000Z</time>
      </trkpt>
      <trkpt lat="46.72029" lon="3.62765">
        <ele>205.343548</ele>
        <time>2021-09-11T06:04:27.000Z</time>
      </trkpt>
      <trkpt lat="46.72024" lon="3.62772">
        <ele>205.344267</ele>
        <time>2021-09-11T06:04:28.000Z</time>
      </trkpt>
      <trkpt lat="46.71979" lon="3.62827">
        <ele>205.350471</ele>
        <time>2021-09-11T06:04:37.000Z</time>
      </trkpt>
      <trkpt lat="46.71936" lon="3.6288">
        <ele>205.35644</ele>
        <time>2021-09-11T06:04:46.000Z</time>
      </trkpt>
      <trkpt lat="46.71898" lon="3.62927">
        <ele>205.356188</ele>
        <time>2021-09-11T06:04:54.000Z</time>
      </trkpt>
      <trkpt lat="46.71858" lon="3.62977">
        <ele>205.350542</ele>
        <time>2021-09-11T06:05:02.000Z</time>
      </trkpt>
      <trkpt lat="46.71824" lon="3.63019">
        <ele>205.345645</ele>
        <time>2021-09-11T06:05:09.000Z</time>
      </trkpt>
      <trkpt lat="46.71793" lon="3.63054">
        <ele>205.34143</ele>
        <time>2021-09-11T06:05:15.000Z</time>
      </trkpt>
      <trkpt lat="46.71758" lon="3.63082">
        <ele>205.344324</ele>
        <time>2021-09-11T06:05:21.000Z</time>
      </trkpt>
      <trkpt lat="46.71727" lon="3.63094">
        <ele>205.35146</ele>
        <time>2021-09-11T06:05:26.000Z</time>
      </trkpt>
      <trkpt lat="46.71685" lon="3.63102">
        <ele>205.360948</ele>
        <time>2021-09-11T06:05:33.000Z</time>
      </trkpt>
      <trkpt lat="46.71638" lon="3.63111">
        <ele>205.37144</ele>
        <time>2021-09-11T06:05:41.000Z</time>
      </trkpt>
      <trkpt lat="46.71596" lon="3.63121">
        <ele>205.394955</ele>
        <time>2021-09-11T06:05:48.000Z</time>
      </trkpt>
      <trkpt lat="46.71561" lon="3.6313">
        <ele>205.474742</ele>
        <time>2021-09-11T06:05:54.000Z</time>
      </trkpt>
      <trkpt lat="46.71537" lon="3.63135">
        <ele>205.530489</ele>
        <time>2021-09-11T06:05:59.000Z</time>
      </trkpt>
      <trkpt lat="46.71532" lon="3.63137">
        <ele>205.541445</ele>
        <time>2021-09-11T06:06:00.000Z</time>
      </trkpt>
      <trkpt lat="46.71518" lon="3.6314">
        <ele>205.572089</ele>
        <time>2021-09-11T06:06:03.000Z</time>
      </trkpt>
      <trkpt lat="46.7151" lon="3.63142">
        <ele>205.591727</ele>
        <time>2021-09-11T06:06:05.000Z</time>
      </trkpt>
      <trkpt lat="46.71497" lon="3.63145">
        <ele>205.619848</ele>
        <time>2021-09-11T06:06:08.000Z</time>
      </trkpt>
      <trkpt lat="46.71484" lon="3.63148">
        <ele>205.650689</ele>
        <time>2021-09-11T06:06:11.000Z</time>
      </trkpt>
      <trkpt lat="46.71475" lon="3.6315">
        <ele>205.670574</ele>
        <time>2021-09-11T06:06:13.000Z</time>
      </trkpt>
      <trkpt lat="46.71462" lon="3.63153">
        <ele>205.700722</ele>
        <time>2021-09-11T06:06:16.000Z</time>
      </trkpt>
      <trkpt lat="46.71448" lon="3.63157">
        <ele>205.732726</ele>
        <time>2021-09-11T06:06:19.000Z</time>
      </trkpt>
      <trkpt lat="46.71439" lon="3.63159">
        <ele>205.754441</ele>
        <time>2021-09-11T06:06:21.000Z</time>
      </trkpt>
      <trkpt lat="46.71434" lon="3.6316">
        <ele>205.765621</ele>
        <time>2021-09-11T06:06:22.000Z</time>
      </trkpt>
      <trkpt lat="46.71405" lon="3.63167">
        <ele>205.841495</ele>
        <time>2021-09-11T06:06:28.000Z</time>
      </trkpt>
      <trkpt lat="46.714" lon="3.63168">
        <ele>205.8557</ele>
        <time>2021-09-11T06:06:29.000Z</time>
      </trkpt>
      <trkpt lat="46.71385" lon="3.63172">
        <ele>205.897107</ele>
        <time>2021-09-11T06:06:32.000Z</time>
      </trkpt>
      <trkpt lat="46.7137" lon="3.63175">
        <ele>205.937431</ele>
        <time>2021-09-11T06:06:35.000Z</time>
      </trkpt>
      <trkpt lat="46.7136" lon="3.63178">
        <ele>205.964966</ele>
        <time>2021-09-11T06:06:37.000Z</time>
      </trkpt>
      <trkpt lat="46.71347" lon="3.63181">
        <ele>206.003334</ele>
        <time>2021-09-11T06:06:40.000Z</time>
      </trkpt>
      <trkpt lat="46.71342" lon="3.63182">
        <ele>206.016394</ele>
        <time>2021-09-11T06:06:41.000Z</time>
      </trkpt>
      <trkpt lat="46.71319" lon="3.63188">
        <ele>206.080611</ele>
        <time>2021-09-11T06:06:46.000Z</time>
      </trkpt>
      <trkpt lat="46.71309" lon="3.6319">
        <ele>206.107303</ele>
        <time>2021-09-11T06:06:48.000Z</time>
      </trkpt>
      <trkpt lat="46.71291" lon="3.63194">
        <ele>206.159032</ele>
        <time>2021-09-11T06:06:52.000Z</time>
      </trkpt>
      <trkpt lat="46.71253" lon="3.63203">
        <ele>206.264115</ele>
        <time>2021-09-11T06:06:59.000Z</time>
      </trkpt>
      <trkpt lat="46.71195" lon="3.63217">
        <ele>206.465824</ele>
        <time>2021-09-11T06:07:08.000Z</time>
      </trkpt>
      <trkpt lat="46.71136" lon="3.63231">
        <ele>206.676874</ele>
        <time>2021-09-11T06:07:17.000Z</time>
      </trkpt>
      <trkpt lat="46.71129" lon="3.63233">
        <ele>206.700371</ele>
        <time>2021-09-11T06:07:18.000Z</time>
      </trkpt>
      <trkpt lat="46.7107" lon="3.63247">
        <ele>206.909507</ele>
        <time>2021-09-11T06:07:27.000Z</time>
      </trkpt>
      <trkpt lat="46.71063" lon="3.63249">
        <ele>206.901537</ele>
        <time>2021-09-11T06:07:28.000Z</time>
      </trkpt>
      <trkpt lat="46.7101" lon="3.63262">
        <ele>206.836245</ele>
        <time>2021-09-11T06:07:36.000Z</time>
      </trkpt>
      <trkpt lat="46.70996" lon="3.63265">
        <ele>206.819324</ele>
        <time>2021-09-11T06:07:38.000Z</time>
      </trkpt>
      <trkpt lat="46.70937" lon="3.63279">
        <ele>206.746553</ele>
        <time>2021-09-11T06:07:47.000Z</time>
      </trkpt>
      <trkpt lat="46.7093" lon="3.63281">
        <ele>206.738464</ele>
        <time>2021-09-11T06:07:48.000Z</time>
      </trkpt>
      <trkpt lat="46.7087" lon="3.63295">
        <ele>206.655997</ele>
        <time>2021-09-11T06:07:57.000Z</time>
      </trkpt>
      <trkpt lat="46.70864" lon="3.63297">
        <ele>206.644626</ele>
        <time>2021-09-11T06:07:58.000Z</time>
      </trkpt>
      <trkpt lat="46.7081" lon="3.6331">
        <ele>206.556054</ele>
        <time>2021-09-11T06:08:06.000Z</time>
      </trkpt>
      <trkpt lat="46.70803" lon="3.63311">
        <ele>206.545184</ele>
        <time>2021-09-11T06:08:07.000Z</time>
      </trkpt>
      <trkpt lat="46.70757" lon="3.63322">
        <ele>206.468821</ele>
        <time>2021-09-11T06:08:14.000Z</time>
      </trkpt>
      <trkpt lat="46.70706" lon="3.63334">
        <ele>206.407589</ele>
        <time>2021-09-11T06:08:22.000Z</time>
      </trkpt>
      <trkpt lat="46.70648" lon="3.63348">
        <ele>206.454226</ele>
        <time>2021-09-11T06:08:31.000Z</time>
      </trkpt>
      <trkpt lat="46.70642" lon="3.6335">
        <ele>206.459492</ele>
        <time>2021-09-11T06:08:32.000Z</time>
      </trkpt>
      <trkpt lat="46.70584" lon="3.63364">
        <ele>206.506611</ele>
        <time>2021-09-11T06:08:41.000Z</time>
      </trkpt>
      <trkpt lat="46.70577" lon="3.63365">
        <ele>206.511711</ele>
        <time>2021-09-11T06:08:42.000Z</time>
      </trkpt>
      <trkpt lat="46.7052" lon="3.63379">
        <ele>206.548327</ele>
        <time>2021-09-11T06:08:51.000Z</time>
      </trkpt>
      <trkpt lat="46.70514" lon="3.6338">
        <ele>206.549955</ele>
        <time>2021-09-11T06:08:52.000Z</time>
      </trkpt>
      <trkpt lat="46.7047" lon="3.63391">
        <ele>206.561769</ele>
        <time>2021-09-11T06:08:59.000Z</time>
      </trkpt>
      <trkpt lat="46.70412" lon="3.63405">
        <ele>206.577191</ele>
        <time>2021-09-11T06:09:08.000Z</time>
      </trkpt>
      <trkpt lat="46.70355" lon="3.63418">
        <ele>206.594329</ele>
        <time>2021-09-11T06:09:17.000Z</time>
      </trkpt>
      <trkpt lat="46.70342" lon="3.63421">
        <ele>206.602624</ele>
        <time>2021-09-11T06:09:19.000Z</time>
      </trkpt>
      <trkpt lat="46.70292" lon="3.63433">
        <ele>206.634596</ele>
        <time>2021-09-11T06:09:27.000Z</time>
      </trkpt>
      <trkpt lat="46.70242" lon="3.63445">
        <ele>206.666561</ele>
        <time>2021-09-11T06:09:35.000Z</time>
      </trkpt>
      <trkpt lat="46.70186" lon="3.63459">
        <ele>206.702041</ele>
        <time>2021-09-11T06:09:44.000Z</time>
      </trkpt>
      <trkpt lat="46.7018" lon="3.6346">
        <ele>206.703527</ele>
        <time>2021-09-11T06:09:45.000Z</time>
      </trkpt>
      <trkpt lat="46.70168" lon="3.63463">
        <ele>206.699161</ele>
        <time>2021-09-11T06:09:53.000Z</time>
      </trkpt>
      <trkpt lat="46.70112" lon="3.63476">
        <ele>206.679473</ele>
        <time>2021-09-11T06:09:57.000Z</time>
      </trkpt>
      <trkpt lat="46.70076" lon="3.63485">
        <ele>206.666701</ele>
        <time>2021-09-11T06:10:02.000Z</time>
      </trkpt>
      <trkpt lat="46.70023" lon="3.63498">
        <ele>206.647689</ele>
        <time>2021-09-11T06:10:11.000Z</time>
      </trkpt>
      <trkpt lat="46.69964" lon="3.63511">
        <ele>206.637617</ele>
        <time>2021-09-11T06:10:21.000Z</time>
      </trkpt>
      <trkpt lat="46.69958" lon="3.63513">
        <ele>206.637055</ele>
        <time>2021-09-11T06:10:22.000Z</time>
      </trkpt>
      <trkpt lat="46.69952" lon="3.63514">
        <ele>206.636512</ele>
        <time>2021-09-11T06:10:23.000Z</time>
      </trkpt>
      <trkpt lat="46.69916" lon="3.63523">
        <ele>206.633177</ele>
        <time>2021-09-11T06:10:29.000Z</time>
      </trkpt>
      <trkpt lat="46.69873" lon="3.63533">
        <ele>206.629234</ele>
        <time>2021-09-11T06:10:36.000Z</time>
      </trkpt>
      <trkpt lat="46.69823" lon="3.63544">
        <ele>206.628338</ele>
        <time>2021-09-11T06:10:44.000Z</time>
      </trkpt>
      <trkpt lat="46.69768" lon="3.63557">
        <ele>206.67194</ele>
        <time>2021-09-11T06:10:53.000Z</time>
      </trkpt>
      <trkpt lat="46.69724" lon="3.63567">
        <ele>206.706819</ele>
        <time>2021-09-11T06:11:00.000Z</time>
      </trkpt>
      <trkpt lat="46.69667" lon="3.6358">
        <ele>206.751365</ele>
        <time>2021-09-11T06:11:09.000Z</time>
      </trkpt>
      <trkpt lat="46.6961" lon="3.63594">
        <ele>206.869639</ele>
        <time>2021-09-11T06:11:18.000Z</time>
      </trkpt>
      <trkpt lat="46.69598" lon="3.63596">
        <ele>206.902551</ele>
        <time>2021-09-11T06:11:20.000Z</time>
      </trkpt>
      <trkpt lat="46.69542" lon="3.63609">
        <ele>207.051024</ele>
        <time>2021-09-11T06:11:29.000Z</time>
      </trkpt>
      <trkpt lat="46.69536" lon="3.63611">
        <ele>207.06725</ele>
        <time>2021-09-11T06:11:30.000Z</time>
      </trkpt>
      <trkpt lat="46.69481" lon="3.63624">
        <ele>207.21279</ele>
        <time>2021-09-11T06:11:39.000Z</time>
      </trkpt>
      <trkpt lat="46.69469" lon="3.63626">
        <ele>207.241664</ele>
        <time>2021-09-11T06:11:41.000Z</time>
      </trkpt>
      <trkpt lat="46.69416" lon="3.63639">
        <ele>207.332285</ele>
        <time>2021-09-11T06:11:50.000Z</time>
      </trkpt>
      <trkpt lat="46.6941" lon="3.6364">
        <ele>207.342613</ele>
        <time>2021-09-11T06:11:51.000Z</time>
      </trkpt>
      <trkpt lat="46.69355" lon="3.63653">
        <ele>207.435289</ele>
        <time>2021-09-11T06:12:00.000Z</time>
      </trkpt>
      <trkpt lat="46.69349" lon="3.63655">
        <ele>207.445451</ele>
        <time>2021-09-11T06:12:01.000Z</time>
      </trkpt>
      <trkpt lat="46.69295" lon="3.63667">
        <ele>207.536641</ele>
        <time>2021-09-11T06:12:10.000Z</time>
      </trkpt>
      <trkpt lat="46.69289" lon="3.63669">
        <ele>207.523244</ele>
        <time>2021-09-11T06:12:11.000Z</time>
      </trkpt>
      <trkpt lat="46.69235" lon="3.63682">
        <ele>207.391357</ele>
        <time>2021-09-11T06:12:20.000Z</time>
      </trkpt>
      <trkpt lat="46.69223" lon="3.63685">
        <ele>207.362307</ele>
        <time>2021-09-11T06:12:22.000Z</time>
      </trkpt>
      <trkpt lat="46.69168" lon="3.63698">
        <ele>207.231127</ele>
        <time>2021-09-11T06:12:31.000Z</time>
      </trkpt>
      <trkpt lat="46.69162" lon="3.63699">
        <ele>207.216851</ele>
        <time>2021-09-11T06:12:32.000Z</time>
      </trkpt>
      <trkpt lat="46.69108" lon="3.63712">
        <ele>207.083807</ele>
        <time>2021-09-11T06:12:41.000Z</time>
      </trkpt>
      <trkpt lat="46.69102" lon="3.63714">
        <ele>207.067554</ele>
        <time>2021-09-11T06:12:42.000Z</time>
      </trkpt>
      <trkpt lat="46.69047" lon="3.63727">
        <ele>206.922896</ele>
        <time>2021-09-11T06:12:51.000Z</time>
      </trkpt>
      <trkpt lat="46.69035" lon="3.6373">
        <ele>206.891128</ele>
        <time>2021-09-11T06:12:53.000Z</time>
      </trkpt>
      <trkpt lat="46.6898" lon="3.63743">
        <ele>206.746726</ele>
        <time>2021-09-11T06:13:02.000Z</time>
      </trkpt>
      <trkpt lat="46.68924" lon="3.63756">
        <ele>206.609878</ele>
        <time>2021-09-11T06:13:11.000Z</time>
      </trkpt>
      <trkpt lat="46.68918" lon="3.63758">
        <ele>206.597584</ele>
        <time>2021-09-11T06:13:12.000Z</time>
      </trkpt>
      <trkpt lat="46.68863" lon="3.63771">
        <ele>206.48683</ele>
        <time>2021-09-11T06:13:21.000Z</time>
      </trkpt>
      <trkpt lat="46.68857" lon="3.63772">
        <ele>206.474535</ele>
        <time>2021-09-11T06:13:22.000Z</time>
      </trkpt>
      <trkpt lat="46.68801" lon="3.63786">
        <ele>206.36195</ele>
        <time>2021-09-11T06:13:31.000Z</time>
      </trkpt>
      <trkpt lat="46.68751" lon="3.63798">
        <ele>206.315724</ele>
        <time>2021-09-11T06:13:39.000Z</time>
      </trkpt>
      <trkpt lat="46.68696" lon="3.63811">
        <ele>206.476479</ele>
        <time>2021-09-11T06:13:48.000Z</time>
      </trkpt>
      <trkpt lat="46.6869" lon="3.63812">
        <ele>206.494379</ele>
        <time>2021-09-11T06:13:49.000Z</time>
      </trkpt>
      <trkpt lat="46.68633" lon="3.63826">
        <ele>206.656227</ele>
        <time>2021-09-11T06:13:58.000Z</time>
      </trkpt>
      <trkpt lat="46.68589" lon="3.63836">
        <ele>206.783182</ele>
        <time>2021-09-11T06:14:05.000Z</time>
      </trkpt>
      <trkpt lat="46.68535" lon="3.63849">
        <ele>206.969403</ele>
        <time>2021-09-11T06:14:14.000Z</time>
      </trkpt>
      <trkpt lat="46.68516" lon="3.63853">
        <ele>207.034211</ele>
        <time>2021-09-11T06:14:17.000Z</time>
      </trkpt>
      <trkpt lat="46.6846" lon="3.63867">
        <ele>207.228294</ele>
        <time>2021-09-11T06:14:26.000Z</time>
      </trkpt>
      <trkpt lat="46.68454" lon="3.63868">
        <ele>207.249084</ele>
        <time>2021-09-11T06:14:27.000Z</time>
      </trkpt>
      <trkpt lat="46.68406" lon="3.63879">
        <ele>207.415285</ele>
        <time>2021-09-11T06:14:35.000Z</time>
      </trkpt>
      <trkpt lat="46.68364" lon="3.63889">
        <ele>207.541872</ele>
        <time>2021-09-11T06:14:42.000Z</time>
      </trkpt>
      <trkpt lat="46.68358" lon="3.63891">
        <ele>207.559901</ele>
        <time>2021-09-11T06:14:43.000Z</time>
      </trkpt>
      <trkpt lat="46.68315" lon="3.63901">
        <ele>207.689184</ele>
        <time>2021-09-11T06:14:50.000Z</time>
      </trkpt>
      <trkpt lat="46.68309" lon="3.63902">
        <ele>207.707505</ele>
        <time>2021-09-11T06:14:51.000Z</time>
      </trkpt>
      <trkpt lat="46.68284" lon="3.63908">
        <ele>207.78069</ele>
        <time>2021-09-11T06:14:55.000Z</time>
      </trkpt>
      <trkpt lat="46.68235" lon="3.6392">
        <ele>207.927417</ele>
        <time>2021-09-11T06:15:03.000Z</time>
      </trkpt>
      <trkpt lat="46.6818" lon="3.63933">
        <ele>208.006702</ele>
        <time>2021-09-11T06:15:12.000Z</time>
      </trkpt>
      <trkpt lat="46.68174" lon="3.63934">
        <ele>208.014386</ele>
        <time>2021-09-11T06:15:13.000Z</time>
      </trkpt>
      <trkpt lat="46.68126" lon="3.63945">
        <ele>208.074768</ele>
        <time>2021-09-11T06:15:21.000Z</time>
      </trkpt>
      <trkpt lat="46.68072" lon="3.63958">
        <ele>208.14398</ele>
        <time>2021-09-11T06:15:30.000Z</time>
      </trkpt>
      <trkpt lat="46.68059" lon="3.63961">
        <ele>208.159226</ele>
        <time>2021-09-11T06:15:32.000Z</time>
      </trkpt>
      <trkpt lat="46.68005" lon="3.63974">
        <ele>208.24053</ele>
        <time>2021-09-11T06:15:41.000Z</time>
      </trkpt>
      <trkpt lat="46.67999" lon="3.63975">
        <ele>208.250008</ele>
        <time>2021-09-11T06:15:42.000Z</time>
      </trkpt>
      <trkpt lat="46.67945" lon="3.63987">
        <ele>208.332204</ele>
        <time>2021-09-11T06:15:51.000Z</time>
      </trkpt>
      <trkpt lat="46.67897" lon="3.63996">
        <ele>208.406017</ele>
        <time>2021-09-11T06:15:59.000Z</time>
      </trkpt>
      <trkpt lat="46.67847" lon="3.63994">
        <ele>208.453681</ele>
        <time>2021-09-11T06:16:07.000Z</time>
      </trkpt>
      <trkpt lat="46.67799" lon="3.63989">
        <ele>208.478358</ele>
        <time>2021-09-11T06:16:15.000Z</time>
      </trkpt>
      <trkpt lat="46.67745" lon="3.63983">
        <ele>208.506004</ele>
        <time>2021-09-11T06:16:24.000Z</time>
      </trkpt>
      <trkpt lat="46.67739" lon="3.63982">
        <ele>208.509228</ele>
        <time>2021-09-11T06:16:25.000Z</time>
      </trkpt>
      <trkpt lat="46.67684" lon="3.63977">
        <ele>208.562903</ele>
        <time>2021-09-11T06:16:34.000Z</time>
      </trkpt>
      <trkpt lat="46.67678" lon="3.63976">
        <ele>208.580947</ele>
        <time>2021-09-11T06:16:35.000Z</time>
      </trkpt>
      <trkpt lat="46.67619" lon="3.6397">
        <ele>208.759937</ele>
        <time>2021-09-11T06:16:45.000Z</time>
      </trkpt>
      <trkpt lat="46.67572" lon="3.63965">
        <ele>208.90013</ele>
        <time>2021-09-11T06:16:53.000Z</time>
      </trkpt>
      <trkpt lat="46.67513" lon="3.63957">
        <ele>209.077164</ele>
        <time>2021-09-11T06:17:03.000Z</time>
      </trkpt>
      <trkpt lat="46.67468" lon="3.6395">
        <ele>209.190718</ele>
        <time>2021-09-11T06:17:11.000Z</time>
      </trkpt>
      <trkpt lat="46.67425" lon="3.63944">
        <ele>209.300739</ele>
        <time>2021-09-11T06:17:19.000Z</time>
      </trkpt>
      <trkpt lat="46.67381" lon="3.63938">
        <ele>209.411246</ele>
        <time>2021-09-11T06:17:27.000Z</time>
      </trkpt>
      <trkpt lat="46.67337" lon="3.63932">
        <ele>209.524046</ele>
        <time>2021-09-11T06:17:35.000Z</time>
      </trkpt>
      <trkpt lat="46.67309" lon="3.63928">
        <ele>209.582728</ele>
        <time>2021-09-11T06:17:40.000Z</time>
      </trkpt>
      <trkpt lat="46.67298" lon="3.63927">
        <ele>209.607051</ele>
        <time>2021-09-11T06:17:42.000Z</time>
      </trkpt>
      <trkpt lat="46.67243" lon="3.63919">
        <ele>209.723326</ele>
        <time>2021-09-11T06:17:51.000Z</time>
      </trkpt>
      <trkpt lat="46.67192" lon="3.63912">
        <ele>209.833189</ele>
        <time>2021-09-11T06:17:59.000Z</time>
      </trkpt>
      <trkpt lat="46.67134" lon="3.63904">
        <ele>209.907184</ele>
        <time>2021-09-11T06:18:08.000Z</time>
      </trkpt>
      <trkpt lat="46.67127" lon="3.63903">
        <ele>209.907104</ele>
        <time>2021-09-11T06:18:09.000Z</time>
      </trkpt>
      <trkpt lat="46.67069" lon="3.63892">
        <ele>209.90639</ele>
        <time>2021-09-11T06:18:18.000Z</time>
      </trkpt>
      <trkpt lat="46.67024" lon="3.63882">
        <ele>209.90585</ele>
        <time>2021-09-11T06:18:25.000Z</time>
      </trkpt>
      <trkpt lat="46.66968" lon="3.6387">
        <ele>209.910708</ele>
        <time>2021-09-11T06:18:34.000Z</time>
      </trkpt>
      <trkpt lat="46.66912" lon="3.63858">
        <ele>209.939319</ele>
        <time>2021-09-11T06:18:43.000Z</time>
      </trkpt>
      <trkpt lat="46.66899" lon="3.63855">
        <ele>209.945586</ele>
        <time>2021-09-11T06:18:45.000Z</time>
      </trkpt>
      <trkpt lat="46.66844" lon="3.63843">
        <ele>209.973385</ele>
        <time>2021-09-11T06:18:54.000Z</time>
      </trkpt>
      <trkpt lat="46.66838" lon="3.63842">
        <ele>209.976467</ele>
        <time>2021-09-11T06:18:55.000Z</time>
      </trkpt>
      <trkpt lat="46.66796" lon="3.63833">
        <ele>209.995413</ele>
        <time>2021-09-11T06:19:02.000Z</time>
      </trkpt>
      <trkpt lat="46.66747" lon="3.63822">
        <ele>209.997412</ele>
        <time>2021-09-11T06:19:10.000Z</time>
      </trkpt>
      <trkpt lat="46.66705" lon="3.63813">
        <ele>209.999164</ele>
        <time>2021-09-11T06:19:17.000Z</time>
      </trkpt>
      <trkpt lat="46.66656" lon="3.63802">
        <ele>210.001196</ele>
        <time>2021-09-11T06:19:25.000Z</time>
      </trkpt>
      <trkpt lat="46.66601" lon="3.6379">
        <ele>209.960771</ele>
        <time>2021-09-11T06:19:34.000Z</time>
      </trkpt>
      <trkpt lat="46.66547" lon="3.63778">
        <ele>209.855611</ele>
        <time>2021-09-11T06:19:43.000Z</time>
      </trkpt>
      <trkpt lat="46.66541" lon="3.63777">
        <ele>209.843865</ele>
        <time>2021-09-11T06:19:44.000Z</time>
      </trkpt>
      <trkpt lat="46.66493" lon="3.63771">
        <ele>209.752301</ele>
        <time>2021-09-11T06:19:52.000Z</time>
      </trkpt>
      <trkpt lat="46.66445" lon="3.6377">
        <ele>209.660496</ele>
        <time>2021-09-11T06:20:00.000Z</time>
      </trkpt>
      <trkpt lat="46.66396" lon="3.63782">
        <ele>209.6992</ele>
        <time>2021-09-11T06:20:08.000Z</time>
      </trkpt>
      <trkpt lat="46.66343" lon="3.63805">
        <ele>209.743778</ele>
        <time>2021-09-11T06:20:17.000Z</time>
      </trkpt>
      <trkpt lat="46.66294" lon="3.63837">
        <ele>209.788013</ele>
        <time>2021-09-11T06:20:26.000Z</time>
      </trkpt>
      <trkpt lat="46.66255" lon="3.63867">
        <ele>209.830002</ele>
        <time>2021-09-11T06:20:33.000Z</time>
      </trkpt>
      <trkpt lat="46.66212" lon="3.63903">
        <ele>209.883793</ele>
        <time>2021-09-11T06:20:41.000Z</time>
      </trkpt>
      <trkpt lat="46.66164" lon="3.63945">
        <ele>209.944199</ele>
        <time>2021-09-11T06:20:50.000Z</time>
      </trkpt>
      <trkpt lat="46.66153" lon="3.63954">
        <ele>209.957792</ele>
        <time>2021-09-11T06:20:52.000Z</time>
      </trkpt>
      <trkpt lat="46.66107" lon="3.63995">
        <ele>209.995454</ele>
        <time>2021-09-11T06:21:01.000Z</time>
      </trkpt>
      <trkpt lat="46.66059" lon="3.64037">
        <ele>209.976612</ele>
        <time>2021-09-11T06:21:10.000Z</time>
      </trkpt>
      <trkpt lat="46.66048" lon="3.64046">
        <ele>209.972477</ele>
        <time>2021-09-11T06:21:12.000Z</time>
      </trkpt>
      <trkpt lat="46.66006" lon="3.64083">
        <ele>209.956031</ele>
        <time>2021-09-11T06:21:20.000Z</time>
      </trkpt>
      <trkpt lat="46.65955" lon="3.64128">
        <ele>209.922452</ele>
        <time>2021-09-11T06:21:30.000Z</time>
      </trkpt>
      <trkpt lat="46.65903" lon="3.64171">
        <ele>209.835385</ele>
        <time>2021-09-11T06:21:40.000Z</time>
      </trkpt>
      <trkpt lat="46.65893" lon="3.6418">
        <ele>209.817987</ele>
        <time>2021-09-11T06:21:42.000Z</time>
      </trkpt>
      <trkpt lat="46.65847" lon="3.64219">
        <ele>209.741117</ele>
        <time>2021-09-11T06:21:51.000Z</time>
      </trkpt>
      <trkpt lat="46.65797" lon="3.64262">
        <ele>209.608015</ele>
        <time>2021-09-11T06:22:01.000Z</time>
      </trkpt>
      <trkpt lat="46.6575" lon="3.64302">
        <ele>209.362198</ele>
        <time>2021-09-11T06:22:10.000Z</time>
      </trkpt>
      <trkpt lat="46.65719" lon="3.64329">
        <ele>209.19861</ele>
        <time>2021-09-11T06:22:16.000Z</time>
      </trkpt>
      <trkpt lat="46.65683" lon="3.6436">
        <ele>209.008584</ele>
        <time>2021-09-11T06:22:23.000Z</time>
      </trkpt>
      <trkpt lat="46.65647" lon="3.64391">
        <ele>208.727256</ele>
        <time>2021-09-11T06:22:30.000Z</time>
      </trkpt>
      <trkpt lat="46.65606" lon="3.64427">
        <ele>208.036947</ele>
        <time>2021-09-11T06:22:38.000Z</time>
      </trkpt>
      <trkpt lat="46.65558" lon="3.64469">
        <ele>207.228793</ele>
        <time>2021-09-11T06:22:47.000Z</time>
      </trkpt>
      <trkpt lat="46.65553" lon="3.64473">
        <ele>207.137914</ele>
        <time>2021-09-11T06:22:48.000Z</time>
      </trkpt>
      <trkpt lat="46.6551" lon="3.64511">
        <ele>206.413059</ele>
        <time>2021-09-11T06:22:56.000Z</time>
      </trkpt>
      <trkpt lat="46.65479" lon="3.64545">
        <ele>206.088515</ele>
        <time>2021-09-11T06:23:02.000Z</time>
      </trkpt>
      <trkpt lat="46.65469" lon="3.64556">
        <ele>206.009109</ele>
        <time>2021-09-11T06:23:04.000Z</time>
      </trkpt>
      <trkpt lat="46.65424" lon="3.64608">
        <ele>205.650031</ele>
        <time>2021-09-11T06:23:13.000Z</time>
      </trkpt>
      <trkpt lat="46.65375" lon="3.64648">
        <ele>205.301423</ele>
        <time>2021-09-11T06:23:22.000Z</time>
      </trkpt>
      <trkpt lat="46.65369" lon="3.64653">
        <ele>205.26283</ele>
        <time>2021-09-11T06:23:23.000Z</time>
      </trkpt>
      <trkpt lat="46.65353" lon="3.64665">
        <ele>205.148742</ele>
        <time>2021-09-11T06:23:26.000Z</time>
      </trkpt>
      <trkpt lat="46.65331" lon="3.64682">
        <ele>205.189232</ele>
        <time>2021-09-11T06:23:30.000Z</time>
      </trkpt>
      <trkpt lat="46.65297" lon="3.64703">
        <ele>205.262134</ele>
        <time>2021-09-11T06:23:36.000Z</time>
      </trkpt>
      <trkpt lat="46.6525" lon="3.64727">
        <ele>205.360402</ele>
        <time>2021-09-11T06:23:44.000Z</time>
      </trkpt>
      <trkpt lat="46.65196" lon="3.64747">
        <ele>205.471247</ele>
        <time>2021-09-11T06:23:53.000Z</time>
      </trkpt>
      <trkpt lat="46.6519" lon="3.64749">
        <ele>205.483702</ele>
        <time>2021-09-11T06:23:54.000Z</time>
      </trkpt>
      <trkpt lat="46.65136" lon="3.64764">
        <ele>205.917819</ele>
        <time>2021-09-11T06:24:03.000Z</time>
      </trkpt>
      <trkpt lat="46.6513" lon="3.64765">
        <ele>205.969499</ele>
        <time>2021-09-11T06:24:04.000Z</time>
      </trkpt>
      <trkpt lat="46.65071" lon="3.6478">
        <ele>206.496539</ele>
        <time>2021-09-11T06:24:14.000Z</time>
      </trkpt>
      <trkpt lat="46.65065" lon="3.64781">
        <ele>206.549087</ele>
        <time>2021-09-11T06:24:15.000Z</time>
      </trkpt>
      <trkpt lat="46.65012" lon="3.64795">
        <ele>207.024966</ele>
        <time>2021-09-11T06:24:24.000Z</time>
      </trkpt>
      <trkpt lat="46.64969" lon="3.64807">
        <ele>207.31785</ele>
        <time>2021-09-11T06:24:31.000Z</time>
      </trkpt>
      <trkpt lat="46.64915" lon="3.64825">
        <ele>207.667913</ele>
        <time>2021-09-11T06:24:40.000Z</time>
      </trkpt>
      <trkpt lat="46.64868" lon="3.64852">
        <ele>207.989134</ele>
        <time>2021-09-11T06:24:48.000Z</time>
      </trkpt>
      <trkpt lat="46.64816" lon="3.64882">
        <ele>208.144077</ele>
        <time>2021-09-11T06:24:57.000Z</time>
      </trkpt>
      <trkpt lat="46.64805" lon="3.64889">
        <ele>208.091776</ele>
        <time>2021-09-11T06:24:59.000Z</time>
      </trkpt>
      <trkpt lat="46.64758" lon="3.64917">
        <ele>207.8796</ele>
        <time>2021-09-11T06:25:07.000Z</time>
      </trkpt>
      <trkpt lat="46.64723" lon="3.64938">
        <ele>207.722477</ele>
        <time>2021-09-11T06:25:13.000Z</time>
      </trkpt>
      <trkpt lat="46.64687" lon="3.64959">
        <ele>207.562217</ele>
        <time>2021-09-11T06:25:19.000Z</time>
      </trkpt>
      <trkpt lat="46.64631" lon="3.64993">
        <ele>207.234386</ele>
        <time>2021-09-11T06:25:28.000Z</time>
      </trkpt>
      <trkpt lat="46.6458" lon="3.65024">
        <ele>206.892257</ele>
        <time>2021-09-11T06:25:36.000Z</time>
      </trkpt>
      <trkpt lat="46.64567" lon="3.65031">
        <ele>206.807049</ele>
        <time>2021-09-11T06:25:38.000Z</time>
      </trkpt>
      <trkpt lat="46.64515" lon="3.6506">
        <ele>206.468113</ele>
        <time>2021-09-11T06:25:46.000Z</time>
      </trkpt>
      <trkpt lat="46.6447" lon="3.65085">
        <ele>206.407004</ele>
        <time>2021-09-11T06:25:53.000Z</time>
      </trkpt>
      <trkpt lat="46.64422" lon="3.65118">
        <ele>206.45904</ele>
        <time>2021-09-11T06:26:01.000Z</time>
      </trkpt>
      <trkpt lat="46.64389" lon="3.65154">
        <ele>206.498927</ele>
        <time>2021-09-11T06:26:07.000Z</time>
      </trkpt>
      <trkpt lat="46.64359" lon="3.65204">
        <ele>206.543333</ele>
        <time>2021-09-11T06:26:14.000Z</time>
      </trkpt>
      <trkpt lat="46.64333" lon="3.65266">
        <ele>206.748016</ele>
        <time>2021-09-11T06:26:22.000Z</time>
      </trkpt>
      <trkpt lat="46.64312" lon="3.65322">
        <ele>206.946576</ele>
        <time>2021-09-11T06:26:29.000Z</time>
      </trkpt>
      <trkpt lat="46.64289" lon="3.65383">
        <ele>207.169191</ele>
        <time>2021-09-11T06:26:37.000Z</time>
      </trkpt>
      <trkpt lat="46.64259" lon="3.6544">
        <ele>207.382716</ele>
        <time>2021-09-11T06:26:45.000Z</time>
      </trkpt>
      <trkpt lat="46.64227" lon="3.65485">
        <ele>207.457111</ele>
        <time>2021-09-11T06:26:52.000Z</time>
      </trkpt>
      <trkpt lat="46.6419" lon="3.65536">
        <ele>207.539398</ele>
        <time>2021-09-11T06:27:00.000Z</time>
      </trkpt>
      <trkpt lat="46.6415" lon="3.65591">
        <ele>207.630166</ele>
        <time>2021-09-11T06:27:09.000Z</time>
      </trkpt>
      <trkpt lat="46.64145" lon="3.65597">
        <ele>207.640609</ele>
        <time>2021-09-11T06:27:10.000Z</time>
      </trkpt>
      <trkpt lat="46.64105" lon="3.65651">
        <ele>207.767784</ele>
        <time>2021-09-11T06:27:19.000Z</time>
      </trkpt>
      <trkpt lat="46.641" lon="3.65656">
        <ele>207.783971</ele>
        <time>2021-09-11T06:27:20.000Z</time>
      </trkpt>
      <trkpt lat="46.64054" lon="3.65712">
        <ele>207.945523</ele>
        <time>2021-09-11T06:27:30.000Z</time>
      </trkpt>
      <trkpt lat="46.64045" lon="3.65723">
        <ele>207.97849</ele>
        <time>2021-09-11T06:27:32.000Z</time>
      </trkpt>
      <trkpt lat="46.64" lon="3.65769">
        <ele>208.127475</ele>
        <time>2021-09-11T06:27:41.000Z</time>
      </trkpt>
      <trkpt lat="46.63995" lon="3.65774">
        <ele>208.143956</ele>
        <time>2021-09-11T06:27:42.000Z</time>
      </trkpt>
      <trkpt lat="46.63948" lon="3.65818">
        <ele>208.268092</ele>
        <time>2021-09-11T06:27:51.000Z</time>
      </trkpt>
      <trkpt lat="46.639" lon="3.65859">
        <ele>208.392663</ele>
        <time>2021-09-11T06:28:00.000Z</time>
      </trkpt>
      <trkpt lat="46.63894" lon="3.65864">
        <ele>208.4065</ele>
        <time>2021-09-11T06:28:01.000Z</time>
      </trkpt>
      <trkpt lat="46.63844" lon="3.65905">
        <ele>208.534593</ele>
        <time>2021-09-11T06:28:10.000Z</time>
      </trkpt>
      <trkpt lat="46.63792" lon="3.65948">
        <ele>208.648045</ele>
        <time>2021-09-11T06:28:19.000Z</time>
      </trkpt>
      <trkpt lat="46.63746" lon="3.65999">
        <ele>208.756068</ele>
        <time>2021-09-11T06:28:28.000Z</time>
      </trkpt>
      <trkpt lat="46.63708" lon="3.66045">
        <ele>208.849001</ele>
        <time>2021-09-11T06:28:36.000Z</time>
      </trkpt>
      <trkpt lat="46.63667" lon="3.66104">
        <ele>208.917377</ele>
        <time>2021-09-11T06:28:45.000Z</time>
      </trkpt>
      <trkpt lat="46.63658" lon="3.66117">
        <ele>208.927544</ele>
        <time>2021-09-11T06:28:47.000Z</time>
      </trkpt>
      <trkpt lat="46.63619" lon="3.66179">
        <ele>208.973478</ele>
        <time>2021-09-11T06:28:56.000Z</time>
      </trkpt>
      <trkpt lat="46.6358" lon="3.66241">
        <ele>209.019183</ele>
        <time>2021-09-11T06:29:05.000Z</time>
      </trkpt>
      <trkpt lat="46.63575" lon="3.66247">
        <ele>209.024208</ele>
        <time>2021-09-11T06:29:06.000Z</time>
      </trkpt>
      <trkpt lat="46.63542" lon="3.66301">
        <ele>209.068893</ele>
        <time>2021-09-11T06:29:14.000Z</time>
      </trkpt>
      <trkpt lat="46.63513" lon="3.66347">
        <ele>209.10921</ele>
        <time>2021-09-11T06:29:21.000Z</time>
      </trkpt>
      <trkpt lat="46.63474" lon="3.66409">
        <ele>209.16296</ele>
        <time>2021-09-11T06:29:30.000Z</time>
      </trkpt>
      <trkpt lat="46.63434" lon="3.66471">
        <ele>209.214662</ele>
        <time>2021-09-11T06:29:39.000Z</time>
      </trkpt>
      <trkpt lat="46.63403" lon="3.66517">
        <ele>209.250106</ele>
        <time>2021-09-11T06:29:46.000Z</time>
      </trkpt>
      <trkpt lat="46.63398" lon="3.66522">
        <ele>209.255061</ele>
        <time>2021-09-11T06:29:47.000Z</time>
      </trkpt>
      <trkpt lat="46.6337" lon="3.66551">
        <ele>209.282977</ele>
        <time>2021-09-11T06:29:53.000Z</time>
      </trkpt>
      <trkpt lat="46.63337" lon="3.66582">
        <ele>209.314312</ele>
        <time>2021-09-11T06:30:00.000Z</time>
      </trkpt>
      <trkpt lat="46.63321" lon="3.66593">
        <ele>209.328037</ele>
        <time>2021-09-11T06:30:03.000Z</time>
      </trkpt>
      <trkpt lat="46.63305" lon="3.66604">
        <ele>209.342209</ele>
        <time>2021-09-11T06:30:06.000Z</time>
      </trkpt>
      <trkpt lat="46.63274" lon="3.66608">
        <ele>209.419374</ele>
        <time>2021-09-11T06:30:11.000Z</time>
      </trkpt>
      <trkpt lat="46.63216" lon="3.66616">
        <ele>209.57001</ele>
        <time>2021-09-11T06:30:20.000Z</time>
      </trkpt>
      <trkpt lat="46.63204" lon="3.66617">
        <ele>209.603342</ele>
        <time>2021-09-11T06:30:22.000Z</time>
      </trkpt>
      <trkpt lat="46.63146" lon="3.66623">
        <ele>209.752296</ele>
        <time>2021-09-11T06:30:31.000Z</time>
      </trkpt>
      <trkpt lat="46.6314" lon="3.66624">
        <ele>209.768444</ele>
        <time>2021-09-11T06:30:32.000Z</time>
      </trkpt>
      <trkpt lat="46.6311" lon="3.66627">
        <ele>209.814234</ele>
        <time>2021-09-11T06:30:37.000Z</time>
      </trkpt>
      <trkpt lat="46.63099" lon="3.66629">
        <ele>209.816636</ele>
        <time>2021-09-11T06:30:39.000Z</time>
      </trkpt>
      <trkpt lat="46.63094" lon="3.66629">
        <ele>209.817727</ele>
        <time>2021-09-11T06:30:40.000Z</time>
      </trkpt>
      <trkpt lat="46.63087" lon="3.6663">
        <ele>209.819394</ele>
        <time>2021-09-11T06:30:42.000Z</time>
      </trkpt>
      <trkpt lat="46.63084" lon="3.66647">
        <ele>209.822112</ele>
        <time>2021-09-11T06:30:44.000Z</time>
      </trkpt>
      <trkpt lat="46.63084" lon="3.66655">
        <ele>209.82327</ele>
        <time>2021-09-11T06:30:45.000Z</time>
      </trkpt>
      <trkpt lat="46.63083" lon="3.66705">
        <ele>209.830847</ele>
        <time>2021-09-11T06:30:51.000Z</time>
      </trkpt>
      <trkpt lat="46.63081" lon="3.66758">
        <ele>209.838987</ele>
        <time>2021-09-11T06:30:57.000Z</time>
      </trkpt>
      <trkpt lat="46.63081" lon="3.66767">
        <ele>209.840267</ele>
        <time>2021-09-11T06:30:58.000Z</time>
      </trkpt>
      <trkpt lat="46.63071" lon="3.66776">
        <ele>209.842928</ele>
        <time>2021-09-11T06:30:59.000Z</time>
      </trkpt>
      <trkpt lat="46.63058" lon="3.6678">
        <ele>209.84578</ele>
        <time>2021-09-11T06:31:01.000Z</time>
      </trkpt>
      <trkpt lat="46.63006" lon="3.66802">
        <ele>209.808817</ele>
        <time>2021-09-11T06:31:09.000Z</time>
      </trkpt>
      <trkpt lat="46.6295" lon="3.66827">
        <ele>209.725931</ele>
        <time>2021-09-11T06:31:18.000Z</time>
      </trkpt>
      <trkpt lat="46.62943" lon="3.6683">
        <ele>209.717061</ele>
        <time>2021-09-11T06:31:19.000Z</time>
      </trkpt>
      <trkpt lat="46.62889" lon="3.66854">
        <ele>209.637364</ele>
        <time>2021-09-11T06:31:28.000Z</time>
      </trkpt>
      <trkpt lat="46.62836" lon="3.66877">
        <ele>209.62376</ele>
        <time>2021-09-11T06:31:37.000Z</time>
      </trkpt>
      <trkpt lat="46.6279" lon="3.66897">
        <ele>209.663238</ele>
        <time>2021-09-11T06:31:45.000Z</time>
      </trkpt>
      <trkpt lat="46.62738" lon="3.66919">
        <ele>209.708012</ele>
        <time>2021-09-11T06:31:54.000Z</time>
      </trkpt>
      <trkpt lat="46.6272" lon="3.66926">
        <ele>209.722953</ele>
        <time>2021-09-11T06:31:57.000Z</time>
      </trkpt>
      <trkpt lat="46.62668" lon="3.66947">
        <ele>209.784718</ele>
        <time>2021-09-11T06:32:06.000Z</time>
      </trkpt>
      <trkpt lat="46.62662" lon="3.66949">
        <ele>209.79417</ele>
        <time>2021-09-11T06:32:07.000Z</time>
      </trkpt>
      <trkpt lat="46.62621" lon="3.66956">
        <ele>209.859041</ele>
        <time>2021-09-11T06:32:14.000Z</time>
      </trkpt>
      <trkpt lat="46.62572" lon="3.66962">
        <ele>209.935253</ele>
        <time>2021-09-11T06:32:22.000Z</time>
      </trkpt>
      <trkpt lat="46.62523" lon="3.66968">
        <ele>210.010818</ele>
        <time>2021-09-11T06:32:30.000Z</time>
      </trkpt>
      <trkpt lat="46.62475" lon="3.66973">
        <ele>210.037767</ele>
        <time>2021-09-11T06:32:38.000Z</time>
      </trkpt>
      <trkpt lat="46.62421" lon="3.6698">
        <ele>210.051329</ele>
        <time>2021-09-11T06:32:47.000Z</time>
      </trkpt>
      <trkpt lat="46.62365" lon="3.66986">
        <ele>210.065266</ele>
        <time>2021-09-11T06:32:56.000Z</time>
      </trkpt>
      <trkpt lat="46.62311" lon="3.66992">
        <ele>210.120148</ele>
        <time>2021-09-11T06:33:05.000Z</time>
      </trkpt>
      <trkpt lat="46.62293" lon="3.66994">
        <ele>210.15971</ele>
        <time>2021-09-11T06:33:08.000Z</time>
      </trkpt>
      <trkpt lat="46.62237" lon="3.66995">
        <ele>210.278411</ele>
        <time>2021-09-11T06:33:17.000Z</time>
      </trkpt>
      <trkpt lat="46.62178" lon="3.6699">
        <ele>210.406571</ele>
        <time>2021-09-11T06:33:27.000Z</time>
      </trkpt>
      <trkpt lat="46.62122" lon="3.66981">
        <ele>210.581828</ele>
        <time>2021-09-11T06:33:37.000Z</time>
      </trkpt>
      <trkpt lat="46.62077" lon="3.66979">
        <ele>210.752732</ele>
        <time>2021-09-11T06:33:45.000Z</time>
      </trkpt>
      <trkpt lat="46.62025" lon="3.66983">
        <ele>210.95398</ele>
        <time>2021-09-11T06:33:54.000Z</time>
      </trkpt>
      <trkpt lat="46.61974" lon="3.66992">
        <ele>211.150817</ele>
        <time>2021-09-11T06:34:03.000Z</time>
      </trkpt>
      <trkpt lat="46.61925" lon="3.67">
        <ele>211.10115</ele>
        <time>2021-09-11T06:34:11.000Z</time>
      </trkpt>
      <trkpt lat="46.6187" lon="3.6701">
        <ele>211.044158</ele>
        <time>2021-09-11T06:34:20.000Z</time>
      </trkpt>
      <trkpt lat="46.61815" lon="3.67019">
        <ele>210.987369</ele>
        <time>2021-09-11T06:34:29.000Z</time>
      </trkpt>
      <trkpt lat="46.61767" lon="3.67027">
        <ele>210.903573</ele>
        <time>2021-09-11T06:34:37.000Z</time>
      </trkpt>
      <trkpt lat="46.61712" lon="3.67037">
        <ele>210.782491</ele>
        <time>2021-09-11T06:34:46.000Z</time>
      </trkpt>
      <trkpt lat="46.61658" lon="3.67046">
        <ele>210.663597</ele>
        <time>2021-09-11T06:34:55.000Z</time>
      </trkpt>
      <trkpt lat="46.61602" lon="3.67055">
        <ele>210.537471</ele>
        <time>2021-09-11T06:35:04.000Z</time>
      </trkpt>
      <trkpt lat="46.61544" lon="3.67065">
        <ele>210.398138</ele>
        <time>2021-09-11T06:35:13.000Z</time>
      </trkpt>
      <trkpt lat="46.61486" lon="3.67075">
        <ele>210.260246</ele>
        <time>2021-09-11T06:35:22.000Z</time>
      </trkpt>
      <trkpt lat="46.61443" lon="3.67082">
        <ele>210.156941</ele>
        <time>2021-09-11T06:35:29.000Z</time>
      </trkpt>
      <trkpt lat="46.61389" lon="3.67091">
        <ele>210.054509</ele>
        <time>2021-09-11T06:35:38.000Z</time>
      </trkpt>
      <trkpt lat="46.61354" lon="3.67097">
        <ele>209.989459</ele>
        <time>2021-09-11T06:35:44.000Z</time>
      </trkpt>
      <trkpt lat="46.61311" lon="3.67105">
        <ele>209.91156</ele>
        <time>2021-09-11T06:35:51.000Z</time>
      </trkpt>
      <trkpt lat="46.61262" lon="3.6711">
        <ele>209.821896</ele>
        <time>2021-09-11T06:35:59.000Z</time>
      </trkpt>
      <trkpt lat="46.61218" lon="3.67108">
        <ele>209.838762</ele>
        <time>2021-09-11T06:36:06.000Z</time>
      </trkpt>
      <trkpt lat="46.61167" lon="3.67099">
        <ele>209.866008</ele>
        <time>2021-09-11T06:36:14.000Z</time>
      </trkpt>
      <trkpt lat="46.61113" lon="3.67089">
        <ele>209.895309</ele>
        <time>2021-09-11T06:36:23.000Z</time>
      </trkpt>
      <trkpt lat="46.61071" lon="3.67082">
        <ele>209.933373</ele>
        <time>2021-09-11T06:36:30.000Z</time>
      </trkpt>
      <trkpt lat="46.61029" lon="3.67074">
        <ele>210.023475</ele>
        <time>2021-09-11T06:36:37.000Z</time>
      </trkpt>
      <trkpt lat="46.60982" lon="3.67066">
        <ele>210.125888</ele>
        <time>2021-09-11T06:36:45.000Z</time>
      </trkpt>
      <trkpt lat="46.60934" lon="3.67057">
        <ele>210.229597</ele>
        <time>2021-09-11T06:36:53.000Z</time>
      </trkpt>
      <trkpt lat="46.60879" lon="3.67047">
        <ele>210.356866</ele>
        <time>2021-09-11T06:37:02.000Z</time>
      </trkpt>
      <trkpt lat="46.60867" lon="3.67045">
        <ele>210.388105</ele>
        <time>2021-09-11T06:37:04.000Z</time>
      </trkpt>
      <trkpt lat="46.60813" lon="3.67034">
        <ele>210.528267</ele>
        <time>2021-09-11T06:37:13.000Z</time>
      </trkpt>
      <trkpt lat="46.60807" lon="3.67033">
        <ele>210.543771</ele>
        <time>2021-09-11T06:37:14.000Z</time>
      </trkpt>
      <trkpt lat="46.60759" lon="3.67024">
        <ele>210.668705</ele>
        <time>2021-09-11T06:37:22.000Z</time>
      </trkpt>
      <trkpt lat="46.607" lon="3.67013">
        <ele>210.854215</ele>
        <time>2021-09-11T06:37:32.000Z</time>
      </trkpt>
      <trkpt lat="46.60654" lon="3.67004">
        <ele>211.037633</ele>
        <time>2021-09-11T06:37:40.000Z</time>
      </trkpt>
      <trkpt lat="46.60613" lon="3.66995">
        <ele>211.202684</ele>
        <time>2021-09-11T06:37:47.000Z</time>
      </trkpt>
      <trkpt lat="46.60555" lon="3.66984">
        <ele>211.433914</ele>
        <time>2021-09-11T06:37:57.000Z</time>
      </trkpt>
      <trkpt lat="46.60515" lon="3.66979">
        <ele>211.601433</ele>
        <time>2021-09-11T06:38:04.000Z</time>
      </trkpt>
      <trkpt lat="46.60509" lon="3.66978">
        <ele>211.627208</ele>
        <time>2021-09-11T06:38:05.000Z</time>
      </trkpt>
      <trkpt lat="46.60486" lon="3.66975">
        <ele>211.725594</ele>
        <time>2021-09-11T06:38:09.000Z</time>
      </trkpt>
      <trkpt lat="46.60441" lon="3.66974">
        <ele>211.921543</ele>
        <time>2021-09-11T06:38:17.000Z</time>
      </trkpt>
      <trkpt lat="46.60396" lon="3.66973">
        <ele>212.11191</ele>
        <time>2021-09-11T06:38:25.000Z</time>
      </trkpt>
      <trkpt lat="46.60386" lon="3.66973">
        <ele>212.155973</ele>
        <time>2021-09-11T06:38:27.000Z</time>
      </trkpt>
      <trkpt lat="46.60381" lon="3.66973">
        <ele>212.177362</ele>
        <time>2021-09-11T06:38:29.000Z</time>
      </trkpt>
      <trkpt lat="46.60365" lon="3.66957">
        <ele>212.262718</ele>
        <time>2021-09-11T06:38:31.000Z</time>
      </trkpt>
      <trkpt lat="46.60362" lon="3.66969">
        <ele>212.3035</ele>
        <time>2021-09-11T06:38:32.000Z</time>
      </trkpt>
      <trkpt lat="46.60359" lon="3.66973">
        <ele>212.320663</ele>
        <time>2021-09-11T06:38:33.000Z</time>
      </trkpt>
      <trkpt lat="46.6035" lon="3.66985">
        <ele>212.373648</ele>
        <time>2021-09-11T06:38:35.000Z</time>
      </trkpt>
      <trkpt lat="46.60311" lon="3.67024">
        <ele>212.588127</ele>
        <time>2021-09-11T06:38:44.000Z</time>
      </trkpt>
      <trkpt lat="46.60306" lon="3.67029">
        <ele>212.615323</ele>
        <time>2021-09-11T06:38:45.000Z</time>
      </trkpt>
      <trkpt lat="46.60284" lon="3.67056">
        <ele>212.745072</ele>
        <time>2021-09-11T06:38:49.000Z</time>
      </trkpt>
      <trkpt lat="46.6028" lon="3.67063">
        <ele>212.77136</ele>
        <time>2021-09-11T06:38:51.000Z</time>
      </trkpt>
      <trkpt lat="46.60262" lon="3.67094">
        <ele>212.89737</ele>
        <time>2021-09-11T06:38:56.000Z</time>
      </trkpt>
      <trkpt lat="46.60254" lon="3.67114">
        <ele>212.968052</ele>
        <time>2021-09-11T06:38:58.000Z</time>
      </trkpt>
      <trkpt lat="46.60251" lon="3.67121">
        <ele>212.991536</ele>
        <time>2021-09-11T06:39:00.000Z</time>
      </trkpt>
      <trkpt lat="46.60244" lon="3.6714">
        <ele>213.054297</ele>
        <time>2021-09-11T06:39:02.000Z</time>
      </trkpt>
      <trkpt lat="46.60239" lon="3.67154">
        <ele>213.080862</ele>
        <time>2021-09-11T06:39:04.000Z</time>
      </trkpt>
      <trkpt lat="46.60223" lon="3.672">
        <ele>213.16751</ele>
        <time>2021-09-11T06:39:11.000Z</time>
      </trkpt>
      <trkpt lat="46.60219" lon="3.67213">
        <ele>213.19186</ele>
        <time>2021-09-11T06:39:13.000Z</time>
      </trkpt>
      <trkpt lat="46.60215" lon="3.67226">
        <ele>213.215747</ele>
        <time>2021-09-11T06:39:15.000Z</time>
      </trkpt>
      <trkpt lat="46.60213" lon="3.67232">
        <ele>213.227768</ele>
        <time>2021-09-11T06:39:16.000Z</time>
      </trkpt>
      <trkpt lat="46.60202" lon="3.67263">
        <ele>213.286206</ele>
        <time>2021-09-11T06:39:21.000Z</time>
      </trkpt>
      <trkpt lat="46.60199" lon="3.67268">
        <ele>213.297895</ele>
        <time>2021-09-11T06:39:22.000Z</time>
      </trkpt>
      <trkpt lat="46.60194" lon="3.67269">
        <ele>213.309764</ele>
        <time>2021-09-11T06:39:23.000Z</time>
      </trkpt>
      <trkpt lat="46.6019" lon="3.67266">
        <ele>213.322002</ele>
        <time>2021-09-11T06:39:24.000Z</time>
      </trkpt>
      <trkpt lat="46.60181" lon="3.6726">
        <ele>213.346168</ele>
        <time>2021-09-11T06:39:26.000Z</time>
      </trkpt>
      <trkpt lat="46.60158" lon="3.67249">
        <ele>213.40564</ele>
        <time>2021-09-11T06:39:31.000Z</time>
      </trkpt>
      <trkpt lat="46.60154" lon="3.67245">
        <ele>213.417161</ele>
        <time>2021-09-11T06:39:32.000Z</time>
      </trkpt>
      <trkpt lat="46.60148" lon="3.67236">
        <ele>213.439558</ele>
        <time>2021-09-11T06:39:34.000Z</time>
      </trkpt>
      <trkpt lat="46.60145" lon="3.67232">
        <ele>213.449553</ele>
        <time>2021-09-11T06:39:35.000Z</time>
      </trkpt>
      <trkpt lat="46.60125" lon="3.67238">
        <ele>213.494427</ele>
        <time>2021-09-11T06:39:38.000Z</time>
      </trkpt>
      <trkpt lat="46.60108" lon="3.67235">
        <ele>213.51705</ele>
        <time>2021-09-11T06:39:41.000Z</time>
      </trkpt>
      <trkpt lat="46.60074" lon="3.67228">
        <ele>213.562568</ele>
        <time>2021-09-11T06:39:47.000Z</time>
      </trkpt>
      <trkpt lat="46.60068" lon="3.67227">
        <ele>213.570014</ele>
        <time>2021-09-11T06:39:48.000Z</time>
      </trkpt>
      <trkpt lat="46.60027" lon="3.6722">
        <ele>213.625171</ele>
        <time>2021-09-11T06:39:55.000Z</time>
      </trkpt>
      <trkpt lat="46.59984" lon="3.67219">
        <ele>213.681667</ele>
        <time>2021-09-11T06:40:02.000Z</time>
      </trkpt>
      <trkpt lat="46.59935" lon="3.67224">
        <ele>213.669033</ele>
        <time>2021-09-11T06:40:10.000Z</time>
      </trkpt>
      <trkpt lat="46.59884" lon="3.67234">
        <ele>213.47233</ele>
        <time>2021-09-11T06:40:18.000Z</time>
      </trkpt>
      <trkpt lat="46.59835" lon="3.67247">
        <ele>213.279508</ele>
        <time>2021-09-11T06:40:26.000Z</time>
      </trkpt>
      <trkpt lat="46.59787" lon="3.67265">
        <ele>213.090295</ele>
        <time>2021-09-11T06:40:34.000Z</time>
      </trkpt>
      <trkpt lat="46.59735" lon="3.67287">
        <ele>213.106906</ele>
        <time>2021-09-11T06:40:43.000Z</time>
      </trkpt>
      <trkpt lat="46.59729" lon="3.67289">
        <ele>213.117801</ele>
        <time>2021-09-11T06:40:44.000Z</time>
      </trkpt>
      <trkpt lat="46.59676" lon="3.67312">
        <ele>213.217613</ele>
        <time>2021-09-11T06:40:53.000Z</time>
      </trkpt>
      <trkpt lat="46.59629" lon="3.67332">
        <ele>213.305633</ele>
        <time>2021-09-11T06:41:01.000Z</time>
      </trkpt>
      <trkpt lat="46.59574" lon="3.67355">
        <ele>213.399389</ele>
        <time>2021-09-11T06:41:10.000Z</time>
      </trkpt>
      <trkpt lat="46.59517" lon="3.6738">
        <ele>213.487822</ele>
        <time>2021-09-11T06:41:19.000Z</time>
      </trkpt>
      <trkpt lat="46.59462" lon="3.67405">
        <ele>213.573576</ele>
        <time>2021-09-11T06:41:28.000Z</time>
      </trkpt>
      <trkpt lat="46.59418" lon="3.67423">
        <ele>213.652195</ele>
        <time>2021-09-11T06:41:35.000Z</time>
      </trkpt>
      <trkpt lat="46.59359" lon="3.67444">
        <ele>213.799812</ele>
        <time>2021-09-11T06:41:44.000Z</time>
      </trkpt>
      <trkpt lat="46.59326" lon="3.67449">
        <ele>213.881866</ele>
        <time>2021-09-11T06:41:49.000Z</time>
      </trkpt>
      <trkpt lat="46.59313" lon="3.67449">
        <ele>213.915047</ele>
        <time>2021-09-11T06:41:51.000Z</time>
      </trkpt>
      <trkpt lat="46.59265" lon="3.67441">
        <ele>214.031466</ele>
        <time>2021-09-11T06:41:58.000Z</time>
      </trkpt>
      <trkpt lat="46.59213" lon="3.6743">
        <ele>214.181036</ele>
        <time>2021-09-11T06:42:06.000Z</time>
      </trkpt>
      <trkpt lat="46.59207" lon="3.6743">
        <ele>214.200756</ele>
        <time>2021-09-11T06:42:07.000Z</time>
      </trkpt>
      <trkpt lat="46.59181" lon="3.67436">
        <ele>214.277379</ele>
        <time>2021-09-11T06:42:11.000Z</time>
      </trkpt>
      <trkpt lat="46.59132" lon="3.67466">
        <ele>214.436583</ele>
        <time>2021-09-11T06:42:19.000Z</time>
      </trkpt>
      <trkpt lat="46.59084" lon="3.67495">
        <ele>214.593111</ele>
        <time>2021-09-11T06:42:27.000Z</time>
      </trkpt>
      <trkpt lat="46.59029" lon="3.67527">
        <ele>214.763475</ele>
        <time>2021-09-11T06:42:36.000Z</time>
      </trkpt>
      <trkpt lat="46.59023" lon="3.67531">
        <ele>214.781861</ele>
        <time>2021-09-11T06:42:37.000Z</time>
      </trkpt>
      <trkpt lat="46.58987" lon="3.67551">
        <ele>214.891387</ele>
        <time>2021-09-11T06:42:43.000Z</time>
      </trkpt>
      <trkpt lat="46.58946" lon="3.67564">
        <ele>215.012582</ele>
        <time>2021-09-11T06:42:50.000Z</time>
      </trkpt>
      <trkpt lat="46.58911" lon="3.67567">
        <ele>215.114212</ele>
        <time>2021-09-11T06:42:56.000Z</time>
      </trkpt>
      <trkpt lat="46.58864" lon="3.67571">
        <ele>215.119195</ele>
        <time>2021-09-11T06:43:04.000Z</time>
      </trkpt>
      <trkpt lat="46.58823" lon="3.67575">
        <ele>215.117334</ele>
        <time>2021-09-11T06:43:11.000Z</time>
      </trkpt>
      <trkpt lat="46.58793" lon="3.67576">
        <ele>215.115998</ele>
        <time>2021-09-11T06:43:16.000Z</time>
      </trkpt>
      <trkpt lat="46.58774" lon="3.67578">
        <ele>215.115145</ele>
        <time>2021-09-11T06:43:19.000Z</time>
      </trkpt>
      <trkpt lat="46.58732" lon="3.67581">
        <ele>215.113238</ele>
        <time>2021-09-11T06:43:26.000Z</time>
      </trkpt>
      <trkpt lat="46.58703" lon="3.67593">
        <ele>214.960474</ele>
        <time>2021-09-11T06:43:31.000Z</time>
      </trkpt>
      <trkpt lat="46.58666" lon="3.67619">
        <ele>214.731953</ele>
        <time>2021-09-11T06:43:37.000Z</time>
      </trkpt>
      <trkpt lat="46.5863" lon="3.67646">
        <ele>214.501961</ele>
        <time>2021-09-11T06:43:43.000Z</time>
      </trkpt>
      <trkpt lat="46.58584" lon="3.67681">
        <ele>214.20852</ele>
        <time>2021-09-11T06:43:51.000Z</time>
      </trkpt>
      <trkpt lat="46.58546" lon="3.6771">
        <ele>214.034787</ele>
        <time>2021-09-11T06:43:58.000Z</time>
      </trkpt>
      <trkpt lat="46.58513" lon="3.67736">
        <ele>213.931643</ele>
        <time>2021-09-11T06:44:04.000Z</time>
      </trkpt>
      <trkpt lat="46.58467" lon="3.67771">
        <ele>213.78894</ele>
        <time>2021-09-11T06:44:12.000Z</time>
      </trkpt>
      <trkpt lat="46.58418" lon="3.67808">
        <ele>213.638594</ele>
        <time>2021-09-11T06:44:20.000Z</time>
      </trkpt>
      <trkpt lat="46.584" lon="3.67822">
        <ele>213.600281</ele>
        <time>2021-09-11T06:44:23.000Z</time>
      </trkpt>
      <trkpt lat="46.58352" lon="3.67858">
        <ele>213.565139</ele>
        <time>2021-09-11T06:44:31.000Z</time>
      </trkpt>
      <trkpt lat="46.58346" lon="3.67863">
        <ele>213.56082</ele>
        <time>2021-09-11T06:44:32.000Z</time>
      </trkpt>
      <trkpt lat="46.58298" lon="3.67899">
        <ele>213.525678</ele>
        <time>2021-09-11T06:44:40.000Z</time>
      </trkpt>
      <trkpt lat="46.58281" lon="3.67913">
        <ele>213.512583</ele>
        <time>2021-09-11T06:44:43.000Z</time>
      </trkpt>
      <trkpt lat="46.58234" lon="3.67949">
        <ele>213.482914</ele>
        <time>2021-09-11T06:44:51.000Z</time>
      </trkpt>
      <trkpt lat="46.58181" lon="3.67989">
        <ele>213.460769</ele>
        <time>2021-09-11T06:45:00.000Z</time>
      </trkpt>
      <trkpt lat="46.58169" lon="3.67998">
        <ele>213.45587</ele>
        <time>2021-09-11T06:45:02.000Z</time>
      </trkpt>
      <trkpt lat="46.58115" lon="3.68039">
        <ele>213.433481</ele>
        <time>2021-09-11T06:45:11.000Z</time>
      </trkpt>
      <trkpt lat="46.58109" lon="3.68044">
        <ele>213.430958</ele>
        <time>2021-09-11T06:45:12.000Z</time>
      </trkpt>
      <trkpt lat="46.58061" lon="3.6808">
        <ele>213.384237</ele>
        <time>2021-09-11T06:45:20.000Z</time>
      </trkpt>
      <trkpt lat="46.58043" lon="3.68094">
        <ele>213.359262</ele>
        <time>2021-09-11T06:45:23.000Z</time>
      </trkpt>
      <trkpt lat="46.57995" lon="3.68131">
        <ele>213.292883</ele>
        <time>2021-09-11T06:45:31.000Z</time>
      </trkpt>
      <trkpt lat="46.57972" lon="3.68149">
        <ele>213.260317</ele>
        <time>2021-09-11T06:45:35.000Z</time>
      </trkpt>
      <trkpt lat="46.5792" lon="3.68188">
        <ele>213.203968</ele>
        <time>2021-09-11T06:45:44.000Z</time>
      </trkpt>
      <trkpt lat="46.57915" lon="3.68192">
        <ele>213.204719</ele>
        <time>2021-09-11T06:45:45.000Z</time>
      </trkpt>
      <trkpt lat="46.57864" lon="3.68231">
        <ele>213.21161</ele>
        <time>2021-09-11T06:45:54.000Z</time>
      </trkpt>
      <trkpt lat="46.57824" lon="3.68261">
        <ele>213.217082</ele>
        <time>2021-09-11T06:46:01.000Z</time>
      </trkpt>
      <trkpt lat="46.57773" lon="3.683">
        <ele>213.224107</ele>
        <time>2021-09-11T06:46:10.000Z</time>
      </trkpt>
      <trkpt lat="46.57733" lon="3.68331">
        <ele>213.296343</ele>
        <time>2021-09-11T06:46:17.000Z</time>
      </trkpt>
      <trkpt lat="46.57687" lon="3.68366">
        <ele>213.384275</ele>
        <time>2021-09-11T06:46:25.000Z</time>
      </trkpt>
      <trkpt lat="46.57636" lon="3.68405">
        <ele>213.483331</ele>
        <time>2021-09-11T06:46:34.000Z</time>
      </trkpt>
      <trkpt lat="46.5763" lon="3.68409">
        <ele>213.494306</ele>
        <time>2021-09-11T06:46:35.000Z</time>
      </trkpt>
      <trkpt lat="46.57582" lon="3.68439">
        <ele>213.591282</ele>
        <time>2021-09-11T06:46:43.000Z</time>
      </trkpt>
      <trkpt lat="46.5753" lon="3.68454">
        <ele>213.696088</ele>
        <time>2021-09-11T06:46:51.000Z</time>
      </trkpt>
      <trkpt lat="46.57476" lon="3.68449">
        <ele>213.801612</ele>
        <time>2021-09-11T06:46:59.000Z</time>
      </trkpt>
      <trkpt lat="46.57424" lon="3.68429">
        <ele>213.946277</ele>
        <time>2021-09-11T06:47:07.000Z</time>
      </trkpt>
      <trkpt lat="46.57384" lon="3.68413">
        <ele>214.163999</ele>
        <time>2021-09-11T06:47:14.000Z</time>
      </trkpt>
      <trkpt lat="46.57348" lon="3.68408">
        <ele>214.358096</ele>
        <time>2021-09-11T06:47:21.000Z</time>
      </trkpt>
      <trkpt lat="46.57307" lon="3.68414">
        <ele>214.574327</ele>
        <time>2021-09-11T06:47:29.000Z</time>
      </trkpt>
      <trkpt lat="46.57269" lon="3.68422">
        <ele>214.774439</ele>
        <time>2021-09-11T06:47:36.000Z</time>
      </trkpt>
      <trkpt lat="46.57222" lon="3.68433">
        <ele>214.9953</ele>
        <time>2021-09-11T06:47:44.000Z</time>
      </trkpt>
      <trkpt lat="46.57169" lon="3.68445">
        <ele>215.238764</ele>
        <time>2021-09-11T06:47:53.000Z</time>
      </trkpt>
      <trkpt lat="46.57114" lon="3.68458">
        <ele>215.487197</ele>
        <time>2021-09-11T06:48:02.000Z</time>
      </trkpt>
      <trkpt lat="46.57071" lon="3.68468">
        <ele>215.659121</ele>
        <time>2021-09-11T06:48:09.000Z</time>
      </trkpt>
      <trkpt lat="46.57022" lon="3.68479">
        <ele>215.762358</ele>
        <time>2021-09-11T06:48:17.000Z</time>
      </trkpt>
      <trkpt lat="46.56963" lon="3.68493">
        <ele>215.88748</ele>
        <time>2021-09-11T06:48:27.000Z</time>
      </trkpt>
      <trkpt lat="46.56914" lon="3.68505">
        <ele>215.990603</ele>
        <time>2021-09-11T06:48:35.000Z</time>
      </trkpt>
      <trkpt lat="46.56858" lon="3.68518">
        <ele>216.112253</ele>
        <time>2021-09-11T06:48:44.000Z</time>
      </trkpt>
      <trkpt lat="46.56808" lon="3.6853">
        <ele>216.222696</ele>
        <time>2021-09-11T06:48:52.000Z</time>
      </trkpt>
      <trkpt lat="46.5675" lon="3.68544">
        <ele>216.35064</ele>
        <time>2021-09-11T06:49:01.000Z</time>
      </trkpt>
      <trkpt lat="46.56705" lon="3.68554">
        <ele>216.458962</ele>
        <time>2021-09-11T06:49:08.000Z</time>
      </trkpt>
      <trkpt lat="46.56648" lon="3.68567">
        <ele>216.608687</ele>
        <time>2021-09-11T06:49:17.000Z</time>
      </trkpt>
      <trkpt lat="46.56635" lon="3.6857">
        <ele>216.641552</ele>
        <time>2021-09-11T06:49:19.000Z</time>
      </trkpt>
      <trkpt lat="46.56578" lon="3.68584">
        <ele>216.792955</ele>
        <time>2021-09-11T06:49:28.000Z</time>
      </trkpt>
      <trkpt lat="46.56527" lon="3.68596">
        <ele>216.885745</ele>
        <time>2021-09-11T06:49:36.000Z</time>
      </trkpt>
      <trkpt lat="46.56475" lon="3.68608">
        <ele>216.9235</ele>
        <time>2021-09-11T06:49:44.000Z</time>
      </trkpt>
      <trkpt lat="46.56424" lon="3.68622">
        <ele>216.961125</ele>
        <time>2021-09-11T06:49:52.000Z</time>
      </trkpt>
      <trkpt lat="46.56372" lon="3.68643">
        <ele>216.9996</ele>
        <time>2021-09-11T06:50:00.000Z</time>
      </trkpt>
      <trkpt lat="46.56319" lon="3.68666">
        <ele>216.843664</ele>
        <time>2021-09-11T06:50:08.000Z</time>
      </trkpt>
      <trkpt lat="46.56306" lon="3.68673">
        <ele>216.803639</ele>
        <time>2021-09-11T06:50:10.000Z</time>
      </trkpt>
      <trkpt lat="46.5625" lon="3.68704">
        <ele>216.633772</ele>
        <time>2021-09-11T06:50:19.000Z</time>
      </trkpt>
      <trkpt lat="46.56195" lon="3.68734">
        <ele>216.463947</ele>
        <time>2021-09-11T06:50:28.000Z</time>
      </trkpt>
      <trkpt lat="46.56158" lon="3.68754">
        <ele>216.335411</ele>
        <time>2021-09-11T06:50:34.000Z</time>
      </trkpt>
      <trkpt lat="46.56103" lon="3.68784">
        <ele>216.14462</ele>
        <time>2021-09-11T06:50:43.000Z</time>
      </trkpt>
      <trkpt lat="46.56097" lon="3.68787">
        <ele>216.123868</ele>
        <time>2021-09-11T06:50:44.000Z</time>
      </trkpt>
      <trkpt lat="46.56062" lon="3.68807">
        <ele>216.003236</ele>
        <time>2021-09-11T06:50:50.000Z</time>
      </trkpt>
      <trkpt lat="46.56021" lon="3.68829">
        <ele>215.916146</ele>
        <time>2021-09-11T06:50:57.000Z</time>
      </trkpt>
      <trkpt lat="46.55972" lon="3.68856">
        <ele>215.952025</ele>
        <time>2021-09-11T06:51:06.000Z</time>
      </trkpt>
      <trkpt lat="46.55921" lon="3.68884">
        <ele>215.988542</ele>
        <time>2021-09-11T06:51:15.000Z</time>
      </trkpt>
      <trkpt lat="46.55877" lon="3.68908">
        <ele>216.020924</ele>
        <time>2021-09-11T06:51:23.000Z</time>
      </trkpt>
      <trkpt lat="46.55842" lon="3.68927">
        <ele>215.798437</ele>
        <time>2021-09-11T06:51:29.000Z</time>
      </trkpt>
      <trkpt lat="46.55802" lon="3.68949">
        <ele>215.40205</ele>
        <time>2021-09-11T06:51:36.000Z</time>
      </trkpt>
      <trkpt lat="46.55767" lon="3.68968">
        <ele>215.060188</ele>
        <time>2021-09-11T06:51:42.000Z</time>
      </trkpt>
      <trkpt lat="46.55721" lon="3.68993">
        <ele>214.611851</ele>
        <time>2021-09-11T06:51:50.000Z</time>
      </trkpt>
      <trkpt lat="46.55686" lon="3.69011">
        <ele>214.360019</ele>
        <time>2021-09-11T06:51:56.000Z</time>
      </trkpt>
      <trkpt lat="46.55663" lon="3.69024">
        <ele>214.320088</ele>
        <time>2021-09-11T06:52:00.000Z</time>
      </trkpt>
      <trkpt lat="46.55652" lon="3.6903">
        <ele>214.299972</ele>
        <time>2021-09-11T06:52:02.000Z</time>
      </trkpt>
      <trkpt lat="46.55604" lon="3.69056">
        <ele>214.217345</ele>
        <time>2021-09-11T06:52:10.000Z</time>
      </trkpt>
      <trkpt lat="46.55549" lon="3.69086">
        <ele>214.124263</ele>
        <time>2021-09-11T06:52:19.000Z</time>
      </trkpt>
      <trkpt lat="46.55544" lon="3.69089">
        <ele>214.11411</ele>
        <time>2021-09-11T06:52:20.000Z</time>
      </trkpt>
      <trkpt lat="46.55502" lon="3.69111">
        <ele>214.132934</ele>
        <time>2021-09-11T06:52:27.000Z</time>
      </trkpt>
      <trkpt lat="46.53386" lon="3.74558">
        <ele>220.974656</ele>
        <time>2021-09-11T07:13:26.000Z</time>
      </trkpt>
      <trkpt lat="46.53379" lon="3.74579">
        <ele>221.093569</ele>
        <time>2021-09-11T07:13:29.000Z</time>
      </trkpt>
      <trkpt lat="46.53375" lon="3.74595">
        <ele>221.18087</ele>
        <time>2021-09-11T07:13:31.000Z</time>
      </trkpt>
      <trkpt lat="46.53353" lon="3.74654">
        <ele>221.521371</ele>
        <time>2021-09-11T07:13:39.000Z</time>
      </trkpt>
      <trkpt lat="46.53335" lon="3.74699">
        <ele>221.784128</ele>
        <time>2021-09-11T07:13:45.000Z</time>
      </trkpt>
      <trkpt lat="46.53316" lon="3.7475">
        <ele>222.078894</ele>
        <time>2021-09-11T07:13:52.000Z</time>
      </trkpt>
      <trkpt lat="46.53295" lon="3.74803">
        <ele>222.531765</ele>
        <time>2021-09-11T07:13:59.000Z</time>
      </trkpt>
      <trkpt lat="46.53271" lon="3.74863">
        <ele>223.146063</ele>
        <time>2021-09-11T07:14:07.000Z</time>
      </trkpt>
      <trkpt lat="46.53251" lon="3.74914">
        <ele>223.661143</ele>
        <time>2021-09-11T07:14:14.000Z</time>
      </trkpt>
      <trkpt lat="46.53242" lon="3.74939">
        <ele>223.91537</ele>
        <time>2021-09-11T07:14:18.000Z</time>
      </trkpt>
      <trkpt lat="46.53238" lon="3.7495">
        <ele>224.020327</ele>
        <time>2021-09-11T07:14:20.000Z</time>
      </trkpt>
      <trkpt lat="46.53226" lon="3.74978">
        <ele>224.308051</ele>
        <time>2021-09-11T07:14:26.000Z</time>
      </trkpt>
      <trkpt lat="46.53215" lon="3.75007">
        <ele>224.657482</ele>
        <time>2021-09-11T07:14:32.000Z</time>
      </trkpt>
      <trkpt lat="46.53213" lon="3.75013">
        <ele>224.747201</ele>
        <time>2021-09-11T07:14:33.000Z</time>
      </trkpt>
      <trkpt lat="46.53203" lon="3.75039">
        <ele>225.158543</ele>
        <time>2021-09-11T07:14:37.000Z</time>
      </trkpt>
      <trkpt lat="46.53184" lon="3.75087">
        <ele>225.911264</ele>
        <time>2021-09-11T07:14:43.000Z</time>
      </trkpt>
      <trkpt lat="46.53169" lon="3.75128">
        <ele>226.553151</ele>
        <time>2021-09-11T07:14:49.000Z</time>
      </trkpt>
      <trkpt lat="46.53159" lon="3.75152">
        <ele>226.922298</ele>
        <time>2021-09-11T07:14:53.000Z</time>
      </trkpt>
      <trkpt lat="46.53155" lon="3.75162">
        <ele>227.090933</ele>
        <time>2021-09-11T07:14:55.000Z</time>
      </trkpt>
      <trkpt lat="46.53149" lon="3.75178">
        <ele>227.334393</ele>
        <time>2021-09-11T07:14:58.000Z</time>
      </trkpt>
      <trkpt lat="46.53143" lon="3.75193">
        <ele>227.574491</ele>
        <time>2021-09-11T07:15:01.000Z</time>
      </trkpt>
      <trkpt lat="46.53127" lon="3.75234">
        <ele>228.238653</ele>
        <time>2021-09-11T07:15:09.000Z</time>
      </trkpt>
      <trkpt lat="46.53108" lon="3.75283">
        <ele>229.099917</ele>
        <time>2021-09-11T07:15:19.000Z</time>
      </trkpt>
      <trkpt lat="46.53095" lon="3.75318">
        <ele>229.724544</ele>
        <time>2021-09-11T07:15:27.000Z</time>
      </trkpt>
      <trkpt lat="46.53079" lon="3.75359">
        <ele>230.451492</ele>
        <time>2021-09-11T07:15:35.000Z</time>
      </trkpt>
      <trkpt lat="46.5307" lon="3.75381">
        <ele>230.830104</ele>
        <time>2021-09-11T07:15:39.000Z</time>
      </trkpt>
      <trkpt lat="46.53064" lon="3.75396">
        <ele>231.109332</ele>
        <time>2021-09-11T07:15:42.000Z</time>
      </trkpt>
      <trkpt lat="46.5306" lon="3.75408">
        <ele>231.315915</ele>
        <time>2021-09-11T07:15:44.000Z</time>
      </trkpt>
      <trkpt lat="46.53053" lon="3.75427">
        <ele>231.643493</ele>
        <time>2021-09-11T07:15:47.000Z</time>
      </trkpt>
      <trkpt lat="46.53032" lon="3.75479">
        <ele>232.212722</ele>
        <time>2021-09-11T07:15:55.000Z</time>
      </trkpt>
      <trkpt lat="46.53013" lon="3.75529">
        <ele>232.403165</ele>
        <time>2021-09-11T07:16:02.000Z</time>
      </trkpt>
      <trkpt lat="46.52988" lon="3.75592">
        <ele>232.650065</ele>
        <time>2021-09-11T07:16:10.000Z</time>
      </trkpt>
      <trkpt lat="46.52963" lon="3.75656">
        <ele>232.898626</ele>
        <time>2021-09-11T07:16:17.000Z</time>
      </trkpt>
      <trkpt lat="46.52934" lon="3.75733">
        <ele>232.80319</ele>
        <time>2021-09-11T07:16:25.000Z</time>
      </trkpt>
      <trkpt lat="46.52923" lon="3.75761">
        <ele>232.701029</ele>
        <time>2021-09-11T07:16:28.000Z</time>
      </trkpt>
      <trkpt lat="46.52895" lon="3.75833">
        <ele>232.439628</ele>
        <time>2021-09-11T07:16:36.000Z</time>
      </trkpt>
      <trkpt lat="46.52891" lon="3.75842">
        <ele>232.407751</ele>
        <time>2021-09-11T07:16:37.000Z</time>
      </trkpt>
      <trkpt lat="46.5287" lon="3.75896">
        <ele>232.212059</ele>
        <time>2021-09-11T07:16:43.000Z</time>
      </trkpt>
      <trkpt lat="46.5284" lon="3.75974">
        <ele>231.924333</ele>
        <time>2021-09-11T07:16:51.000Z</time>
      </trkpt>
      <trkpt lat="46.52836" lon="3.75984">
        <ele>231.888245</ele>
        <time>2021-09-11T07:16:52.000Z</time>
      </trkpt>
      <trkpt lat="46.52807" lon="3.76061">
        <ele>231.603444</ele>
        <time>2021-09-11T07:17:00.000Z</time>
      </trkpt>
      <trkpt lat="46.52783" lon="3.76124">
        <ele>231.370227</ele>
        <time>2021-09-11T07:17:07.000Z</time>
      </trkpt>
      <trkpt lat="46.52755" lon="3.76197">
        <ele>231.604555</ele>
        <time>2021-09-11T07:17:16.000Z</time>
      </trkpt>
      <trkpt lat="46.52752" lon="3.76205">
        <ele>231.64031</ele>
        <time>2021-09-11T07:17:17.000Z</time>
      </trkpt>
      <trkpt lat="46.52728" lon="3.76267">
        <ele>231.926189</ele>
        <time>2021-09-11T07:17:26.000Z</time>
      </trkpt>
      <trkpt lat="46.52709" lon="3.76317">
        <ele>232.158899</ele>
        <time>2021-09-11T07:17:35.000Z</time>
      </trkpt>
      <trkpt lat="46.52686" lon="3.76375">
        <ele>232.506484</ele>
        <time>2021-09-11T07:17:45.000Z</time>
      </trkpt>
      <trkpt lat="46.52666" lon="3.7643">
        <ele>233.172004</ele>
        <time>2021-09-11T07:17:54.000Z</time>
      </trkpt>
      <trkpt lat="46.52656" lon="3.76455">
        <ele>233.489595</ele>
        <time>2021-09-11T07:18:00.000Z</time>
      </trkpt>
      <trkpt lat="46.5264" lon="3.76494">
        <ele>233.967978</ele>
        <time>2021-09-11T07:18:08.000Z</time>
      </trkpt>
      <trkpt lat="46.52623" lon="3.76537">
        <ele>234.498308</ele>
        <time>2021-09-11T07:18:17.000Z</time>
      </trkpt>
      <trkpt lat="46.52605" lon="3.76583">
        <ele>235.061418</ele>
        <time>2021-09-11T07:18:25.000Z</time>
      </trkpt>
      <trkpt lat="46.52587" lon="3.7663">
        <ele>235.316322</ele>
        <time>2021-09-11T07:18:32.000Z</time>
      </trkpt>
      <trkpt lat="46.52567" lon="3.76681">
        <ele>235.509124</ele>
        <time>2021-09-11T07:18:39.000Z</time>
      </trkpt>
      <trkpt lat="46.52549" lon="3.76725">
        <ele>235.67314</ele>
        <time>2021-09-11T07:18:45.000Z</time>
      </trkpt>
      <trkpt lat="46.52528" lon="3.76778">
        <ele>235.870787</ele>
        <time>2021-09-11T07:18:52.000Z</time>
      </trkpt>
      <trkpt lat="46.52522" lon="3.76793">
        <ele>235.927796</ele>
        <time>2021-09-11T07:18:54.000Z</time>
      </trkpt>
      <trkpt lat="46.5251" lon="3.76824">
        <ele>236.029892</ele>
        <time>2021-09-11T07:18:58.000Z</time>
      </trkpt>
      <trkpt lat="46.52484" lon="3.76891">
        <ele>236.080778</ele>
        <time>2021-09-11T07:19:06.000Z</time>
      </trkpt>
      <trkpt lat="46.52455" lon="3.76966">
        <ele>236.138687</ele>
        <time>2021-09-11T07:19:15.000Z</time>
      </trkpt>
      <trkpt lat="46.52428" lon="3.77034">
        <ele>236.190317</ele>
        <time>2021-09-11T07:19:23.000Z</time>
      </trkpt>
      <trkpt lat="46.52399" lon="3.77111">
        <ele>236.198169</ele>
        <time>2021-09-11T07:19:32.000Z</time>
      </trkpt>
      <trkpt lat="46.52395" lon="3.77119">
        <ele>236.197918</ele>
        <time>2021-09-11T07:19:33.000Z</time>
      </trkpt>
      <trkpt lat="46.52368" lon="3.77189">
        <ele>236.195931</ele>
        <time>2021-09-11T07:19:41.000Z</time>
      </trkpt>
      <trkpt lat="46.52355" lon="3.77223">
        <ele>236.19494</ele>
        <time>2021-09-11T07:19:45.000Z</time>
      </trkpt>
      <trkpt lat="46.52329" lon="3.7729">
        <ele>236.127008</ele>
        <time>2021-09-11T07:19:53.000Z</time>
      </trkpt>
      <trkpt lat="46.52303" lon="3.77356">
        <ele>235.854419</ele>
        <time>2021-09-11T07:20:01.000Z</time>
      </trkpt>
      <trkpt lat="46.52277" lon="3.77425">
        <ele>235.567789</ele>
        <time>2021-09-11T07:20:09.000Z</time>
      </trkpt>
      <trkpt lat="46.52248" lon="3.77498">
        <ele>235.265975</ele>
        <time>2021-09-11T07:20:17.000Z</time>
      </trkpt>
      <trkpt lat="46.52244" lon="3.77508">
        <ele>235.172341</ele>
        <time>2021-09-11T07:20:18.000Z</time>
      </trkpt>
      <trkpt lat="46.52215" lon="3.77582">
        <ele>234.210304</ele>
        <time>2021-09-11T07:20:25.000Z</time>
      </trkpt>
      <trkpt lat="46.52211" lon="3.77593">
        <ele>234.067054</ele>
        <time>2021-09-11T07:20:26.000Z</time>
      </trkpt>
      <trkpt lat="46.52181" lon="3.77665">
        <ele>233.12334</ele>
        <time>2021-09-11T07:20:32.000Z</time>
      </trkpt>
      <trkpt lat="46.52176" lon="3.77677">
        <ele>232.965269</ele>
        <time>2021-09-11T07:20:33.000Z</time>
      </trkpt>
      <trkpt lat="46.52147" lon="3.77749">
        <ele>232.080726</ele>
        <time>2021-09-11T07:20:39.000Z</time>
      </trkpt>
      <trkpt lat="46.52138" lon="3.77771">
        <ele>231.83919</ele>
        <time>2021-09-11T07:20:41.000Z</time>
      </trkpt>
      <trkpt lat="46.52108" lon="3.77846">
        <ele>231.036382</ele>
        <time>2021-09-11T07:20:48.000Z</time>
      </trkpt>
      <trkpt lat="46.52104" lon="3.77857">
        <ele>230.925149</ele>
        <time>2021-09-11T07:20:49.000Z</time>
      </trkpt>
      <trkpt lat="46.52076" lon="3.77925">
        <ele>230.190781</ele>
        <time>2021-09-11T07:20:56.000Z</time>
      </trkpt>
      <trkpt lat="46.52064" lon="3.77954">
        <ele>229.886458</ele>
        <time>2021-09-11T07:20:59.000Z</time>
      </trkpt>
      <trkpt lat="46.52034" lon="3.78029">
        <ele>229.438712</ele>
        <time>2021-09-11T07:21:07.000Z</time>
      </trkpt>
      <trkpt lat="46.52004" lon="3.78102">
        <ele>228.996958</ele>
        <time>2021-09-11T07:21:15.000Z</time>
      </trkpt>
      <trkpt lat="46.51983" lon="3.78156">
        <ele>228.675478</ele>
        <time>2021-09-11T07:21:21.000Z</time>
      </trkpt>
      <trkpt lat="46.51979" lon="3.78165">
        <ele>228.621973</ele>
        <time>2021-09-11T07:21:22.000Z</time>
      </trkpt>
      <trkpt lat="46.51975" lon="3.78174">
        <ele>228.568467</ele>
        <time>2021-09-11T07:21:23.000Z</time>
      </trkpt>
      <trkpt lat="46.51961" lon="3.78209">
        <ele>228.387671</ele>
        <time>2021-09-11T07:21:27.000Z</time>
      </trkpt>
      <trkpt lat="46.51933" lon="3.7828">
        <ele>228.042038</ele>
        <time>2021-09-11T07:21:35.000Z</time>
      </trkpt>
      <trkpt lat="46.51906" lon="3.78346">
        <ele>227.719155</ele>
        <time>2021-09-11T07:21:42.000Z</time>
      </trkpt>
      <trkpt lat="46.51877" lon="3.78416">
        <ele>227.414568</ele>
        <time>2021-09-11T07:21:50.000Z</time>
      </trkpt>
      <trkpt lat="46.51874" lon="3.78424">
        <ele>227.400841</ele>
        <time>2021-09-11T07:21:51.000Z</time>
      </trkpt>
      <trkpt lat="46.51845" lon="3.78495">
        <ele>227.283601</ele>
        <time>2021-09-11T07:22:00.000Z</time>
      </trkpt>
      <trkpt lat="46.51842" lon="3.78503">
        <ele>227.271046</ele>
        <time>2021-09-11T07:22:01.000Z</time>
      </trkpt>
      <trkpt lat="46.51817" lon="3.78564">
        <ele>227.170591</ele>
        <time>2021-09-11T07:22:09.000Z</time>
      </trkpt>
      <trkpt lat="46.5179" lon="3.78632">
        <ele>227.059268</ele>
        <time>2021-09-11T07:22:18.000Z</time>
      </trkpt>
      <trkpt lat="46.51761" lon="3.78703">
        <ele>226.972066</ele>
        <time>2021-09-11T07:22:27.000Z</time>
      </trkpt>
      <trkpt lat="46.51732" lon="3.78775">
        <ele>226.881869</ele>
        <time>2021-09-11T07:22:36.000Z</time>
      </trkpt>
      <trkpt lat="46.51702" lon="3.78848">
        <ele>226.791671</ele>
        <time>2021-09-11T07:22:45.000Z</time>
      </trkpt>
      <trkpt lat="46.51678" lon="3.78905">
        <ele>226.700038</ele>
        <time>2021-09-11T07:22:52.000Z</time>
      </trkpt>
      <trkpt lat="46.51648" lon="3.78979">
        <ele>226.577761</ele>
        <time>2021-09-11T07:23:01.000Z</time>
      </trkpt>
      <trkpt lat="46.5162" lon="3.79048">
        <ele>226.462685</ele>
        <time>2021-09-11T07:23:09.000Z</time>
      </trkpt>
      <trkpt lat="46.51602" lon="3.79092">
        <ele>226.400888</ele>
        <time>2021-09-11T07:23:14.000Z</time>
      </trkpt>
      <trkpt lat="46.51595" lon="3.79109">
        <ele>226.384584</ele>
        <time>2021-09-11T07:23:16.000Z</time>
      </trkpt>
      <trkpt lat="46.51568" lon="3.79177">
        <ele>226.321681</ele>
        <time>2021-09-11T07:23:24.000Z</time>
      </trkpt>
      <trkpt lat="46.51542" lon="3.79242">
        <ele>226.261296</ele>
        <time>2021-09-11T07:23:32.000Z</time>
      </trkpt>
      <trkpt lat="46.51519" lon="3.79298">
        <ele>226.208662</ele>
        <time>2021-09-11T07:23:39.000Z</time>
      </trkpt>
      <trkpt lat="46.51491" lon="3.79366">
        <ele>226.312939</ele>
        <time>2021-09-11T07:23:47.000Z</time>
      </trkpt>
      <trkpt lat="46.51481" lon="3.79392">
        <ele>226.358776</ele>
        <time>2021-09-11T07:23:50.000Z</time>
      </trkpt>
      <trkpt lat="46.51453" lon="3.79462">
        <ele>226.481105</ele>
        <time>2021-09-11T07:23:58.000Z</time>
      </trkpt>
      <trkpt lat="46.51449" lon="3.79471">
        <ele>226.495543</ele>
        <time>2021-09-11T07:23:59.000Z</time>
      </trkpt>
      <trkpt lat="46.51424" lon="3.79534">
        <ele>226.615024</ele>
        <time>2021-09-11T07:24:07.000Z</time>
      </trkpt>
      <trkpt lat="46.514" lon="3.79593">
        <ele>226.809039</ele>
        <time>2021-09-11T07:24:15.000Z</time>
      </trkpt>
      <trkpt lat="46.51376" lon="3.79651">
        <ele>227.003302</ele>
        <time>2021-09-11T07:24:23.000Z</time>
      </trkpt>
      <trkpt lat="46.51361" lon="3.79689">
        <ele>227.126985</ele>
        <time>2021-09-11T07:24:28.000Z</time>
      </trkpt>
      <trkpt lat="46.5134" lon="3.7974">
        <ele>227.297862</ele>
        <time>2021-09-11T07:24:35.000Z</time>
      </trkpt>
      <trkpt lat="46.5132" lon="3.7979">
        <ele>227.488202</ele>
        <time>2021-09-11T07:24:42.000Z</time>
      </trkpt>
      <trkpt lat="46.51294" lon="3.79854">
        <ele>227.748988</ele>
        <time>2021-09-11T07:24:51.000Z</time>
      </trkpt>
      <trkpt lat="46.51267" lon="3.79922">
        <ele>228.022799</ele>
        <time>2021-09-11T07:25:00.000Z</time>
      </trkpt>
      <trkpt lat="46.51252" lon="3.79958">
        <ele>228.169377</ele>
        <time>2021-09-11T07:25:05.000Z</time>
      </trkpt>
      <trkpt lat="46.51248" lon="3.79973">
        <ele>228.22474</ele>
        <time>2021-09-11T07:25:07.000Z</time>
      </trkpt>
      <trkpt lat="46.5124" lon="3.80019">
        <ele>228.482234</ele>
        <time>2021-09-11T07:25:14.000Z</time>
      </trkpt>
      <trkpt lat="46.51242" lon="3.80074">
        <ele>228.796408</ele>
        <time>2021-09-11T07:25:23.000Z</time>
      </trkpt>
      <trkpt lat="46.5125" lon="3.80132">
        <ele>229.14184</ele>
        <time>2021-09-11T07:25:32.000Z</time>
      </trkpt>
      <trkpt lat="46.51258" lon="3.80184">
        <ele>229.453159</ele>
        <time>2021-09-11T07:25:39.000Z</time>
      </trkpt>
      <trkpt lat="46.51259" lon="3.80192">
        <ele>229.499521</ele>
        <time>2021-09-11T07:25:40.000Z</time>
      </trkpt>
      <trkpt lat="46.51261" lon="3.80227">
        <ele>229.700725</ele>
        <time>2021-09-11T07:25:44.000Z</time>
      </trkpt>
      <trkpt lat="46.51257" lon="3.80276">
        <ele>229.695624</ele>
        <time>2021-09-11T07:25:49.000Z</time>
      </trkpt>
      <trkpt lat="46.51251" lon="3.80295">
        <ele>229.653972</ele>
        <time>2021-09-11T07:25:51.000Z</time>
      </trkpt>
      <trkpt lat="46.51239" lon="3.80323">
        <ele>229.585997</ele>
        <time>2021-09-11T07:25:54.000Z</time>
      </trkpt>
      <trkpt lat="46.51212" lon="3.80368">
        <ele>229.465263</ele>
        <time>2021-09-11T07:25:59.000Z</time>
      </trkpt>
      <trkpt lat="46.5117" lon="3.80424">
        <ele>229.296359</ele>
        <time>2021-09-11T07:26:06.000Z</time>
      </trkpt>
      <trkpt lat="46.5113" lon="3.80477">
        <ele>229.170495</ele>
        <time>2021-09-11T07:26:13.000Z</time>
      </trkpt>
      <trkpt lat="46.51087" lon="3.80533">
        <ele>229.053385</ele>
        <time>2021-09-11T07:26:21.000Z</time>
      </trkpt>
      <trkpt lat="46.51077" lon="3.80547">
        <ele>229.025252</ele>
        <time>2021-09-11T07:26:23.000Z</time>
      </trkpt>
      <trkpt lat="46.51036" lon="3.80598">
        <ele>228.916945</ele>
        <time>2021-09-11T07:26:31.000Z</time>
      </trkpt>
      <trkpt lat="46.50991" lon="3.80655">
        <ele>228.794942</ele>
        <time>2021-09-11T07:26:40.000Z</time>
      </trkpt>
      <trkpt lat="46.50964" lon="3.80695">
        <ele>228.715442</ele>
        <time>2021-09-11T07:26:46.000Z</time>
      </trkpt>
      <trkpt lat="46.50961" lon="3.80703">
        <ele>228.702472</ele>
        <time>2021-09-11T07:26:47.000Z</time>
      </trkpt>
      <trkpt lat="46.50955" lon="3.80719">
        <ele>228.67661</ele>
        <time>2021-09-11T07:26:49.000Z</time>
      </trkpt>
      <trkpt lat="46.50944" lon="3.80753">
        <ele>228.623677</ele>
        <time>2021-09-11T07:26:53.000Z</time>
      </trkpt>
      <trkpt lat="46.50929" lon="3.80806">
        <ele>228.541792</ele>
        <time>2021-09-11T07:26:59.000Z</time>
      </trkpt>
      <trkpt lat="46.50911" lon="3.80869">
        <ele>228.421332</ele>
        <time>2021-09-11T07:27:06.000Z</time>
      </trkpt>
      <trkpt lat="46.50888" lon="3.8095">
        <ele>228.249105</ele>
        <time>2021-09-11T07:27:15.000Z</time>
      </trkpt>
      <trkpt lat="46.50886" lon="3.80959">
        <ele>228.22996</ele>
        <time>2021-09-11T07:27:16.000Z</time>
      </trkpt>
      <trkpt lat="46.50866" lon="3.81031">
        <ele>228.076983</ele>
        <time>2021-09-11T07:27:24.000Z</time>
      </trkpt>
      <trkpt lat="46.50846" lon="3.81104">
        <ele>227.881371</ele>
        <time>2021-09-11T07:27:32.000Z</time>
      </trkpt>
      <trkpt lat="46.50844" lon="3.81113">
        <ele>227.851158</ele>
        <time>2021-09-11T07:27:33.000Z</time>
      </trkpt>
      <trkpt lat="46.50827" lon="3.81179">
        <ele>227.628197</ele>
        <time>2021-09-11T07:27:40.000Z</time>
      </trkpt>
      <trkpt lat="46.50809" lon="3.81248">
        <ele>227.4004</ele>
        <time>2021-09-11T07:27:47.000Z</time>
      </trkpt>
      <trkpt lat="46.50805" lon="3.81309">
        <ele>227.208589</ele>
        <time>2021-09-11T07:27:53.000Z</time>
      </trkpt>
      <trkpt lat="46.50801" lon="3.81371">
        <ele>227.147698</ele>
        <time>2021-09-11T07:27:59.000Z</time>
      </trkpt>
      <trkpt lat="46.50791" lon="3.81401">
        <ele>227.130629</ele>
        <time>2021-09-11T07:28:02.000Z</time>
      </trkpt>
      <trkpt lat="46.50783" lon="3.81419">
        <ele>227.119678</ele>
        <time>2021-09-11T07:28:04.000Z</time>
      </trkpt>
      <trkpt lat="46.50759" lon="3.81455">
        <ele>227.093759</ele>
        <time>2021-09-11T07:28:09.000Z</time>
      </trkpt>
      <trkpt lat="46.50754" lon="3.81461">
        <ele>227.088725</ele>
        <time>2021-09-11T07:28:10.000Z</time>
      </trkpt>
      <trkpt lat="46.5075" lon="3.8147">
        <ele>227.083484</ele>
        <time>2021-09-11T07:28:11.000Z</time>
      </trkpt>
      <trkpt lat="46.50745" lon="3.81487">
        <ele>227.073704</ele>
        <time>2021-09-11T07:28:13.000Z</time>
      </trkpt>
      <trkpt lat="46.50743" lon="3.81496">
        <ele>227.068779</ele>
        <time>2021-09-11T07:28:14.000Z</time>
      </trkpt>
      <trkpt lat="46.50736" lon="3.81542">
        <ele>227.044693</ele>
        <time>2021-09-11T07:28:19.000Z</time>
      </trkpt>
      <trkpt lat="46.50725" lon="3.81586">
        <ele>227.140666</ele>
        <time>2021-09-11T07:28:24.000Z</time>
      </trkpt>
      <trkpt lat="46.50722" lon="3.81593">
        <ele>227.164174</ele>
        <time>2021-09-11T07:28:25.000Z</time>
      </trkpt>
      <trkpt lat="46.50719" lon="3.81601">
        <ele>227.18806</ele>
        <time>2021-09-11T07:28:26.000Z</time>
      </trkpt>
      <trkpt lat="46.50712" lon="3.81616">
        <ele>227.238799</ele>
        <time>2021-09-11T07:28:28.000Z</time>
      </trkpt>
      <trkpt lat="46.50707" lon="3.81621">
        <ele>227.263854</ele>
        <time>2021-09-11T07:28:29.000Z</time>
      </trkpt>
      <trkpt lat="46.50695" lon="3.81628">
        <ele>227.3127</ele>
        <time>2021-09-11T07:28:31.000Z</time>
      </trkpt>
      <trkpt lat="46.50683" lon="3.81634">
        <ele>227.363381</ele>
        <time>2021-09-11T07:28:33.000Z</time>
      </trkpt>
      <trkpt lat="46.50679" lon="3.81639">
        <ele>227.386173</ele>
        <time>2021-09-11T07:28:34.000Z</time>
      </trkpt>
      <trkpt lat="46.50674" lon="3.81644">
        <ele>227.409116</ele>
        <time>2021-09-11T07:28:35.000Z</time>
      </trkpt>
      <trkpt lat="46.50655" lon="3.81663">
        <ele>227.501362</ele>
        <time>2021-09-11T07:28:39.000Z</time>
      </trkpt>
      <trkpt lat="46.50641" lon="3.81677">
        <ele>227.57052</ele>
        <time>2021-09-11T07:28:42.000Z</time>
      </trkpt>
      <trkpt lat="46.50633" lon="3.81689">
        <ele>227.614542</ele>
        <time>2021-09-11T07:28:44.000Z</time>
      </trkpt>
      <trkpt lat="46.50612" lon="3.81729">
        <ele>227.754621</ele>
        <time>2021-09-11T07:28:50.000Z</time>
      </trkpt>
      <trkpt lat="46.50601" lon="3.81751">
        <ele>227.781735</ele>
        <time>2021-09-11T07:28:53.000Z</time>
      </trkpt>
      <trkpt lat="46.5059" lon="3.81772">
        <ele>227.806312</ele>
        <time>2021-09-11T07:28:56.000Z</time>
      </trkpt>
      <trkpt lat="46.5058" lon="3.81794">
        <ele>227.830493</ele>
        <time>2021-09-11T07:28:59.000Z</time>
      </trkpt>
      <trkpt lat="46.50574" lon="3.81809">
        <ele>227.846902</ele>
        <time>2021-09-11T07:29:01.000Z</time>
      </trkpt>
      <trkpt lat="46.50551" lon="3.81861">
        <ele>227.90444</ele>
        <time>2021-09-11T07:29:08.000Z</time>
      </trkpt>
      <trkpt lat="46.50531" lon="3.81907">
        <ele>227.954574</ele>
        <time>2021-09-11T07:29:14.000Z</time>
      </trkpt>
      <trkpt lat="46.50501" lon="3.81976">
        <ele>228.005087</ele>
        <time>2021-09-11T07:29:23.000Z</time>
      </trkpt>
      <trkpt lat="46.50478" lon="3.8203">
        <ele>228.014758</ele>
        <time>2021-09-11T07:29:30.000Z</time>
      </trkpt>
      <trkpt lat="46.50448" lon="3.82101">
        <ele>228.027614</ele>
        <time>2021-09-11T07:29:39.000Z</time>
      </trkpt>
      <trkpt lat="46.50445" lon="3.82109">
        <ele>228.029074</ele>
        <time>2021-09-11T07:29:40.000Z</time>
      </trkpt>
      <trkpt lat="46.50417" lon="3.82177">
        <ele>228.042092</ele>
        <time>2021-09-11T07:29:48.000Z</time>
      </trkpt>
      <trkpt lat="46.50413" lon="3.82185">
        <ele>228.044924</ele>
        <time>2021-09-11T07:29:49.000Z</time>
      </trkpt>
      <trkpt lat="46.50386" lon="3.82251">
        <ele>228.06755</ele>
        <time>2021-09-11T07:29:57.000Z</time>
      </trkpt>
      <trkpt lat="46.50356" lon="3.82324">
        <ele>228.092296</ele>
        <time>2021-09-11T07:30:06.000Z</time>
      </trkpt>
      <trkpt lat="46.50353" lon="3.82332">
        <ele>228.094984</ele>
        <time>2021-09-11T07:30:07.000Z</time>
      </trkpt>
      <trkpt lat="46.50326" lon="3.82397">
        <ele>228.116775</ele>
        <time>2021-09-11T07:30:15.000Z</time>
      </trkpt>
      <trkpt lat="46.50303" lon="3.82455">
        <ele>228.113327</ele>
        <time>2021-09-11T07:30:22.000Z</time>
      </trkpt>
      <trkpt lat="46.50275" lon="3.82522">
        <ele>228.109329</ele>
        <time>2021-09-11T07:30:30.000Z</time>
      </trkpt>
      <trkpt lat="46.50252" lon="3.8258">
        <ele>228.105872</ele>
        <time>2021-09-11T07:30:37.000Z</time>
      </trkpt>
      <trkpt lat="46.50221" lon="3.82653">
        <ele>228.127626</ele>
        <time>2021-09-11T07:30:46.000Z</time>
      </trkpt>
      <trkpt lat="46.50218" lon="3.82662">
        <ele>228.133765</ele>
        <time>2021-09-11T07:30:47.000Z</time>
      </trkpt>
      <trkpt lat="46.50187" lon="3.82736">
        <ele>228.188113</ele>
        <time>2021-09-11T07:30:56.000Z</time>
      </trkpt>
      <trkpt lat="46.50165" lon="3.82791">
        <ele>228.22888</ele>
        <time>2021-09-11T07:31:03.000Z</time>
      </trkpt>
      <trkpt lat="46.50136" lon="3.82861">
        <ele>228.269503</ele>
        <time>2021-09-11T07:31:12.000Z</time>
      </trkpt>
      <trkpt lat="46.5011" lon="3.82924">
        <ele>228.27505</ele>
        <time>2021-09-11T07:31:20.000Z</time>
      </trkpt>
      <trkpt lat="46.50088" lon="3.82978">
        <ele>228.279827</ele>
        <time>2021-09-11T07:31:27.000Z</time>
      </trkpt>
      <trkpt lat="46.50063" lon="3.8304">
        <ele>228.285267</ele>
        <time>2021-09-11T07:31:35.000Z</time>
      </trkpt>
      <trkpt lat="46.5004" lon="3.83095">
        <ele>228.300681</ele>
        <time>2021-09-11T07:31:42.000Z</time>
      </trkpt>
      <trkpt lat="46.5001" lon="3.83166">
        <ele>228.336461</ele>
        <time>2021-09-11T07:31:51.000Z</time>
      </trkpt>
      <trkpt lat="46.49984" lon="3.8323">
        <ele>228.368345</ele>
        <time>2021-09-11T07:31:59.000Z</time>
      </trkpt>
      <trkpt lat="46.49954" lon="3.83303">
        <ele>228.402433</ele>
        <time>2021-09-11T07:32:08.000Z</time>
      </trkpt>
      <trkpt lat="46.4993" lon="3.83361">
        <ele>228.416749</ele>
        <time>2021-09-11T07:32:15.000Z</time>
      </trkpt>
      <trkpt lat="46.49902" lon="3.83429">
        <ele>228.433472</ele>
        <time>2021-09-11T07:32:23.000Z</time>
      </trkpt>
      <trkpt lat="46.49888" lon="3.83463">
        <ele>228.441791</ele>
        <time>2021-09-11T07:32:27.000Z</time>
      </trkpt>
      <trkpt lat="46.49861" lon="3.8353">
        <ele>228.463796</ele>
        <time>2021-09-11T07:32:35.000Z</time>
      </trkpt>
      <trkpt lat="46.4983" lon="3.83605">
        <ele>228.515194</ele>
        <time>2021-09-11T07:32:44.000Z</time>
      </trkpt>
      <trkpt lat="46.49802" lon="3.83673">
        <ele>228.561473</ele>
        <time>2021-09-11T07:32:52.000Z</time>
      </trkpt>
      <trkpt lat="46.49798" lon="3.83681">
        <ele>228.567226</ele>
        <time>2021-09-11T07:32:53.000Z</time>
      </trkpt>
      <trkpt lat="46.49767" lon="3.83757">
        <ele>228.619466</ele>
        <time>2021-09-11T07:33:02.000Z</time>
      </trkpt>
      <trkpt lat="46.49743" lon="3.83816">
        <ele>228.661864</ele>
        <time>2021-09-11T07:33:09.000Z</time>
      </trkpt>
      <trkpt lat="46.49711" lon="3.83892">
        <ele>228.716115</ele>
        <time>2021-09-11T07:33:18.000Z</time>
      </trkpt>
      <trkpt lat="46.49683" lon="3.8396">
        <ele>228.765024</ele>
        <time>2021-09-11T07:33:26.000Z</time>
      </trkpt>
      <trkpt lat="46.49659" lon="3.8402">
        <ele>228.696664</ele>
        <time>2021-09-11T07:33:33.000Z</time>
      </trkpt>
      <trkpt lat="46.49631" lon="3.84088">
        <ele>228.605318</ele>
        <time>2021-09-11T07:33:41.000Z</time>
      </trkpt>
      <trkpt lat="46.496" lon="3.84162">
        <ele>228.50494</ele>
        <time>2021-09-11T07:33:50.000Z</time>
      </trkpt>
      <trkpt lat="46.49572" lon="3.8423">
        <ele>228.40122</ele>
        <time>2021-09-11T07:33:58.000Z</time>
      </trkpt>
      <trkpt lat="46.49548" lon="3.84288">
        <ele>228.304333</ele>
        <time>2021-09-11T07:34:05.000Z</time>
      </trkpt>
      <trkpt lat="46.4952" lon="3.84356">
        <ele>228.191314</ele>
        <time>2021-09-11T07:34:14.000Z</time>
      </trkpt>
      <trkpt lat="46.49495" lon="3.84412">
        <ele>228.09553</ele>
        <time>2021-09-11T07:34:22.000Z</time>
      </trkpt>
      <trkpt lat="46.49463" lon="3.84461">
        <ele>228.121267</ele>
        <time>2021-09-11T07:34:30.000Z</time>
      </trkpt>
      <trkpt lat="46.49426" lon="3.84514">
        <ele>228.151983</ele>
        <time>2021-09-11T07:34:39.000Z</time>
      </trkpt>
      <trkpt lat="46.49396" lon="3.84556">
        <ele>228.175966</ele>
        <time>2021-09-11T07:34:46.000Z</time>
      </trkpt>
      <trkpt lat="46.49379" lon="3.84582">
        <ele>228.190624</ele>
        <time>2021-09-11T07:34:50.000Z</time>
      </trkpt>
      <trkpt lat="46.4937" lon="3.84594">
        <ele>228.197722</ele>
        <time>2021-09-11T07:34:52.000Z</time>
      </trkpt>
      <trkpt lat="46.49334" lon="3.84645">
        <ele>228.253691</ele>
        <time>2021-09-11T07:35:00.000Z</time>
      </trkpt>
      <trkpt lat="46.49308" lon="3.84682">
        <ele>228.296153</ele>
        <time>2021-09-11T07:35:07.000Z</time>
      </trkpt>
      <trkpt lat="46.49272" lon="3.84732">
        <ele>228.352953</ele>
        <time>2021-09-11T07:35:14.000Z</time>
      </trkpt>
      <trkpt lat="46.49247" lon="3.84769">
        <ele>228.394089</ele>
        <time>2021-09-11T07:35:20.000Z</time>
      </trkpt>
      <trkpt lat="46.49211" lon="3.8482">
        <ele>228.484701</ele>
        <time>2021-09-11T07:35:28.000Z</time>
      </trkpt>
      <trkpt lat="46.49174" lon="3.84872">
        <ele>228.58715</ele>
        <time>2021-09-11T07:35:36.000Z</time>
      </trkpt>
      <trkpt lat="46.49141" lon="3.84919">
        <ele>228.679703</ele>
        <time>2021-09-11T07:35:43.000Z</time>
      </trkpt>
      <trkpt lat="46.49102" lon="3.84974">
        <ele>228.743925</ele>
        <time>2021-09-11T07:35:51.000Z</time>
      </trkpt>
      <trkpt lat="46.49069" lon="3.85021">
        <ele>228.658337</ele>
        <time>2021-09-11T07:35:58.000Z</time>
      </trkpt>
      <trkpt lat="46.4904" lon="3.85061">
        <ele>228.585133</ele>
        <time>2021-09-11T07:36:04.000Z</time>
      </trkpt>
      <trkpt lat="46.49012" lon="3.85101">
        <ele>228.512898</ele>
        <time>2021-09-11T07:36:10.000Z</time>
      </trkpt>
      <trkpt lat="46.48981" lon="3.85144">
        <ele>228.433653</ele>
        <time>2021-09-11T07:36:17.000Z</time>
      </trkpt>
      <trkpt lat="46.48946" lon="3.85192">
        <ele>228.512534</ele>
        <time>2021-09-11T07:36:25.000Z</time>
      </trkpt>
      <trkpt lat="46.48913" lon="3.85238">
        <ele>228.589112</ele>
        <time>2021-09-11T07:36:33.000Z</time>
      </trkpt>
      <trkpt lat="46.48884" lon="3.85279">
        <ele>228.655806</ele>
        <time>2021-09-11T07:36:40.000Z</time>
      </trkpt>
      <trkpt lat="46.48845" lon="3.85334">
        <ele>228.763378</ele>
        <time>2021-09-11T07:36:49.000Z</time>
      </trkpt>
      <trkpt lat="46.48811" lon="3.85382">
        <ele>228.95148</ele>
        <time>2021-09-11T07:36:57.000Z</time>
      </trkpt>
      <trkpt lat="46.4878" lon="3.85425">
        <ele>229.115429</ele>
        <time>2021-09-11T07:37:04.000Z</time>
      </trkpt>
      <trkpt lat="46.48747" lon="3.85472">
        <ele>229.297843</ele>
        <time>2021-09-11T07:37:12.000Z</time>
      </trkpt>
      <trkpt lat="46.48713" lon="3.85521">
        <ele>229.482705</ele>
        <time>2021-09-11T07:37:20.000Z</time>
      </trkpt>
      <trkpt lat="46.48708" lon="3.85527">
        <ele>229.505968</ele>
        <time>2021-09-11T07:37:21.000Z</time>
      </trkpt>
      <trkpt lat="46.48685" lon="3.85561">
        <ele>229.634322</ele>
        <time>2021-09-11T07:37:27.000Z</time>
      </trkpt>
      <trkpt lat="46.48659" lon="3.85598">
        <ele>229.773167</ele>
        <time>2021-09-11T07:37:34.000Z</time>
      </trkpt>
      <trkpt lat="46.48633" lon="3.85634">
        <ele>229.910802</ele>
        <time>2021-09-11T07:37:41.000Z</time>
      </trkpt>
      <trkpt lat="46.48608" lon="3.85671">
        <ele>230.048272</ele>
        <time>2021-09-11T07:37:48.000Z</time>
      </trkpt>
      <trkpt lat="46.48588" lon="3.85709">
        <ele>230.119221</ele>
        <time>2021-09-11T07:37:54.000Z</time>
      </trkpt>
      <trkpt lat="46.48577" lon="3.85735">
        <ele>230.113439</ele>
        <time>2021-09-11T07:37:58.000Z</time>
      </trkpt>
      <trkpt lat="46.48573" lon="3.85749">
        <ele>230.110741</ele>
        <time>2021-09-11T07:38:00.000Z</time>
      </trkpt>
      <trkpt lat="46.48565" lon="3.85788">
        <ele>230.103119</ele>
        <time>2021-09-11T07:38:06.000Z</time>
      </trkpt>
      <trkpt lat="46.48563" lon="3.85794">
        <ele>230.101833</ele>
        <time>2021-09-11T07:38:07.000Z</time>
      </trkpt>
      <trkpt lat="46.48562" lon="3.85801">
        <ele>230.100564</ele>
        <time>2021-09-11T07:38:08.000Z</time>
      </trkpt>
      <trkpt lat="46.48554" lon="3.85836">
        <ele>230.093768</ele>
        <time>2021-09-11T07:38:13.000Z</time>
      </trkpt>
      <trkpt lat="46.48552" lon="3.85842">
        <ele>230.092418</ele>
        <time>2021-09-11T07:38:14.000Z</time>
      </trkpt>
      <trkpt lat="46.48543" lon="3.8587">
        <ele>230.0867</ele>
        <time>2021-09-11T07:38:18.000Z</time>
      </trkpt>
      <trkpt lat="46.48534" lon="3.85897">
        <ele>230.081066</ele>
        <time>2021-09-11T07:38:22.000Z</time>
      </trkpt>
      <trkpt lat="46.4853" lon="3.8591">
        <ele>230.07847</ele>
        <time>2021-09-11T07:38:24.000Z</time>
      </trkpt>
      <trkpt lat="46.48526" lon="3.85922">
        <ele>230.07598</ele>
        <time>2021-09-11T07:38:26.000Z</time>
      </trkpt>
      <trkpt lat="46.48519" lon="3.85945">
        <ele>230.077576</ele>
        <time>2021-09-11T07:38:30.000Z</time>
      </trkpt>
      <trkpt lat="46.48507" lon="3.85981">
        <ele>230.086624</ele>
        <time>2021-09-11T07:38:36.000Z</time>
      </trkpt>
      <trkpt lat="46.48505" lon="3.85987">
        <ele>230.088157</ele>
        <time>2021-09-11T07:38:37.000Z</time>
      </trkpt>
      <trkpt lat="46.48499" lon="3.86005">
        <ele>230.092542</ele>
        <time>2021-09-11T07:38:40.000Z</time>
      </trkpt>
      <trkpt lat="46.48498" lon="3.86011">
        <ele>230.093933</ele>
        <time>2021-09-11T07:38:41.000Z</time>
      </trkpt>
      <trkpt lat="46.48484" lon="3.86055">
        <ele>230.104759</ele>
        <time>2021-09-11T07:38:48.000Z</time>
      </trkpt>
      <trkpt lat="46.48469" lon="3.86103">
        <ele>230.116616</ele>
        <time>2021-09-11T07:38:55.000Z</time>
      </trkpt>
      <trkpt lat="46.4845" lon="3.8617">
        <ele>230.132836</ele>
        <time>2021-09-11T07:39:03.000Z</time>
      </trkpt>
      <trkpt lat="46.48427" lon="3.86248">
        <ele>230.175509</ele>
        <time>2021-09-11T07:39:12.000Z</time>
      </trkpt>
      <trkpt lat="46.48413" lon="3.86313">
        <ele>230.209648</ele>
        <time>2021-09-11T07:39:20.000Z</time>
      </trkpt>
      <trkpt lat="46.48403" lon="3.8638">
        <ele>230.243717</ele>
        <time>2021-09-11T07:39:28.000Z</time>
      </trkpt>
      <trkpt lat="46.484" lon="3.8641">
        <ele>230.259003</ele>
        <time>2021-09-11T07:39:32.000Z</time>
      </trkpt>
      <trkpt lat="46.48399" lon="3.86425">
        <ele>230.276145</ele>
        <time>2021-09-11T07:39:34.000Z</time>
      </trkpt>
      <trkpt lat="46.48396" lon="3.86479">
        <ele>230.379761</ele>
        <time>2021-09-11T07:39:41.000Z</time>
      </trkpt>
      <trkpt lat="46.48395" lon="3.86534">
        <ele>230.486664</ele>
        <time>2021-09-11T07:39:48.000Z</time>
      </trkpt>
      <trkpt lat="46.48394" lon="3.86566">
        <ele>230.548356</ele>
        <time>2021-09-11T07:39:52.000Z</time>
      </trkpt>
      <trkpt lat="46.48393" lon="3.86582">
        <ele>230.579783</ele>
        <time>2021-09-11T07:39:54.000Z</time>
      </trkpt>
      <trkpt lat="46.48392" lon="3.86668">
        <ele>230.746102</ele>
        <time>2021-09-11T07:40:04.000Z</time>
      </trkpt>
      <trkpt lat="46.48391" lon="3.86745">
        <ele>230.826694</ele>
        <time>2021-09-11T07:40:13.000Z</time>
      </trkpt>
      <trkpt lat="46.4839" lon="3.86805">
        <ele>230.879662</ele>
        <time>2021-09-11T07:40:20.000Z</time>
      </trkpt>
      <trkpt lat="46.48389" lon="3.86886">
        <ele>230.951785</ele>
        <time>2021-09-11T07:40:29.000Z</time>
      </trkpt>
      <trkpt lat="46.48389" lon="3.86949">
        <ele>230.995385</ele>
        <time>2021-09-11T07:40:36.000Z</time>
      </trkpt>
      <trkpt lat="46.48383" lon="3.87029">
        <ele>230.949193</ele>
        <time>2021-09-11T07:40:45.000Z</time>
      </trkpt>
      <trkpt lat="46.48377" lon="3.87101">
        <ele>230.907901</ele>
        <time>2021-09-11T07:40:53.000Z</time>
      </trkpt>
      <trkpt lat="46.48371" lon="3.87172">
        <ele>230.867311</ele>
        <time>2021-09-11T07:41:01.000Z</time>
      </trkpt>
      <trkpt lat="46.48365" lon="3.8724">
        <ele>230.818655</ele>
        <time>2021-09-11T07:41:09.000Z</time>
      </trkpt>
      <trkpt lat="46.48358" lon="3.87326">
        <ele>230.749418</ele>
        <time>2021-09-11T07:41:19.000Z</time>
      </trkpt>
      <trkpt lat="46.48352" lon="3.87376">
        <ele>230.708466</ele>
        <time>2021-09-11T07:41:25.000Z</time>
      </trkpt>
      <trkpt lat="46.48345" lon="3.87428">
        <ele>230.666355</ele>
        <time>2021-09-11T07:41:31.000Z</time>
      </trkpt>
      <trkpt lat="46.48337" lon="3.87483">
        <ele>230.533135</ele>
        <time>2021-09-11T07:41:37.000Z</time>
      </trkpt>
      <trkpt lat="46.48334" lon="3.87502">
        <ele>230.450571</ele>
        <time>2021-09-11T07:41:39.000Z</time>
      </trkpt>
      <trkpt lat="46.48329" lon="3.87538">
        <ele>230.294637</ele>
        <time>2021-09-11T07:41:43.000Z</time>
      </trkpt>
      <trkpt lat="46.4832" lon="3.87598">
        <ele>230.038003</ele>
        <time>2021-09-11T07:41:50.000Z</time>
      </trkpt>
      <trkpt lat="46.48311" lon="3.87659">
        <ele>229.77437</ele>
        <time>2021-09-11T07:41:57.000Z</time>
      </trkpt>
      <trkpt lat="46.48303" lon="3.87718">
        <ele>229.537654</ele>
        <time>2021-09-11T07:42:04.000Z</time>
      </trkpt>
      <trkpt lat="46.48297" lon="3.87759">
        <ele>229.544746</ele>
        <time>2021-09-11T07:42:09.000Z</time>
      </trkpt>
      <trkpt lat="46.48296" lon="3.87767">
        <ele>229.546112</ele>
        <time>2021-09-11T07:42:10.000Z</time>
      </trkpt>
      <trkpt lat="46.48295" lon="3.87774">
        <ele>229.547474</ele>
        <time>2021-09-11T07:42:11.000Z</time>
      </trkpt>
      <trkpt lat="46.48293" lon="3.8779">
        <ele>229.550151</ele>
        <time>2021-09-11T07:42:13.000Z</time>
      </trkpt>
      <trkpt lat="46.48292" lon="3.87798">
        <ele>229.551623</ele>
        <time>2021-09-11T07:42:14.000Z</time>
      </trkpt>
      <trkpt lat="46.48291" lon="3.87806">
        <ele>229.55304</ele>
        <time>2021-09-11T07:42:15.000Z</time>
      </trkpt>
      <trkpt lat="46.48286" lon="3.87845">
        <ele>229.559845</ele>
        <time>2021-09-11T07:42:20.000Z</time>
      </trkpt>
      <trkpt lat="46.48279" lon="3.87893">
        <ele>229.568301</ele>
        <time>2021-09-11T07:42:26.000Z</time>
      </trkpt>
      <trkpt lat="46.4827" lon="3.87953">
        <ele>229.57876</ele>
        <time>2021-09-11T07:42:33.000Z</time>
      </trkpt>
      <trkpt lat="46.4825" lon="3.87999">
        <ele>229.669471</ele>
        <time>2021-09-11T07:42:39.000Z</time>
      </trkpt>
      <trkpt lat="46.48223" lon="3.88061">
        <ele>229.844094</ele>
        <time>2021-09-11T07:42:47.000Z</time>
      </trkpt>
      <trkpt lat="46.48196" lon="3.88124">
        <ele>230.019318</ele>
        <time>2021-09-11T07:42:55.000Z</time>
      </trkpt>
      <trkpt lat="46.48168" lon="3.88189">
        <ele>230.198769</ele>
        <time>2021-09-11T07:43:03.000Z</time>
      </trkpt>
      <trkpt lat="46.48142" lon="3.88253">
        <ele>230.396051</ele>
        <time>2021-09-11T07:43:11.000Z</time>
      </trkpt>
      <trkpt lat="46.48111" lon="3.88327">
        <ele>230.622725</ele>
        <time>2021-09-11T07:43:20.000Z</time>
      </trkpt>
      <trkpt lat="46.48092" lon="3.88373">
        <ele>230.763213</ele>
        <time>2021-09-11T07:43:26.000Z</time>
      </trkpt>
      <trkpt lat="46.48074" lon="3.88436">
        <ele>231.003334</ele>
        <time>2021-09-11T07:43:34.000Z</time>
      </trkpt>
      <trkpt lat="46.48062" lon="3.88499">
        <ele>231.353596</ele>
        <time>2021-09-11T07:43:42.000Z</time>
      </trkpt>
      <trkpt lat="46.48055" lon="3.88527">
        <ele>231.512741</ele>
        <time>2021-09-11T07:43:46.000Z</time>
      </trkpt>
      <trkpt lat="46.4805" lon="3.88548">
        <ele>231.631929</ele>
        <time>2021-09-11T07:43:49.000Z</time>
      </trkpt>
      <trkpt lat="46.48033" lon="3.88603">
        <ele>231.953226</ele>
        <time>2021-09-11T07:43:57.000Z</time>
      </trkpt>
      <trkpt lat="46.4802" lon="3.88644">
        <ele>232.194311</ele>
        <time>2021-09-11T07:44:03.000Z</time>
      </trkpt>
      <trkpt lat="46.48001" lon="3.88698">
        <ele>232.599952</ele>
        <time>2021-09-11T07:44:11.000Z</time>
      </trkpt>
      <trkpt lat="46.47982" lon="3.88753">
        <ele>233.035551</ele>
        <time>2021-09-11T07:44:19.000Z</time>
      </trkpt>
      <trkpt lat="46.4798" lon="3.8876">
        <ele>233.091577</ele>
        <time>2021-09-11T07:44:20.000Z</time>
      </trkpt>
      <trkpt lat="46.47966" lon="3.88827">
        <ele>233.591121</ele>
        <time>2021-09-11T07:44:29.000Z</time>
      </trkpt>
      <trkpt lat="46.47964" lon="3.88883">
        <ele>233.988473</ele>
        <time>2021-09-11T07:44:36.000Z</time>
      </trkpt>
      <trkpt lat="46.47967" lon="3.88956">
        <ele>234.381556</ele>
        <time>2021-09-11T07:44:45.000Z</time>
      </trkpt>
      <trkpt lat="46.47972" lon="3.89025">
        <ele>234.694559</ele>
        <time>2021-09-11T07:44:53.000Z</time>
      </trkpt>
      <trkpt lat="46.47968" lon="3.89089">
        <ele>234.987687</ele>
        <time>2021-09-11T07:45:00.000Z</time>
      </trkpt>
      <trkpt lat="46.47957" lon="3.89131">
        <ele>235.195864</ele>
        <time>2021-09-11T07:45:05.000Z</time>
      </trkpt>
      <trkpt lat="46.47935" lon="3.89171">
        <ele>235.387551</ele>
        <time>2021-09-11T07:45:11.000Z</time>
      </trkpt>
      <trkpt lat="46.47909" lon="3.89214">
        <ele>235.536461</ele>
        <time>2021-09-11T07:45:18.000Z</time>
      </trkpt>
      <trkpt lat="46.47883" lon="3.89259">
        <ele>235.68902</ele>
        <time>2021-09-11T07:45:25.000Z</time>
      </trkpt>
      <trkpt lat="46.47873" lon="3.89278">
        <ele>235.749421</ele>
        <time>2021-09-11T07:45:28.000Z</time>
      </trkpt>
      <trkpt lat="46.47864" lon="3.89307">
        <ele>235.832589</ele>
        <time>2021-09-11T07:45:32.000Z</time>
      </trkpt>
      <trkpt lat="46.47859" lon="3.89322">
        <ele>235.87568</ele>
        <time>2021-09-11T07:45:34.000Z</time>
      </trkpt>
      <trkpt lat="46.47853" lon="3.89354">
        <ele>235.962306</ele>
        <time>2021-09-11T07:45:38.000Z</time>
      </trkpt>
      <trkpt lat="46.47853" lon="3.89363">
        <ele>235.985261</ele>
        <time>2021-09-11T07:45:39.000Z</time>
      </trkpt>
      <trkpt lat="46.47852" lon="3.8938">
        <ele>235.990274</ele>
        <time>2021-09-11T07:45:41.000Z</time>
      </trkpt>
      <trkpt lat="46.47855" lon="3.89397">
        <ele>235.91384</ele>
        <time>2021-09-11T07:45:43.000Z</time>
      </trkpt>
      <trkpt lat="46.47866" lon="3.89448">
        <ele>235.680224</ele>
        <time>2021-09-11T07:45:49.000Z</time>
      </trkpt>
      <trkpt lat="46.47875" lon="3.89472">
        <ele>235.562443</ele>
        <time>2021-09-11T07:45:52.000Z</time>
      </trkpt>
      <trkpt lat="46.47881" lon="3.89487">
        <ele>235.484782</ele>
        <time>2021-09-11T07:45:54.000Z</time>
      </trkpt>
      <trkpt lat="46.47908" lon="3.89547">
        <ele>235.172729</ele>
        <time>2021-09-11T07:46:02.000Z</time>
      </trkpt>
      <trkpt lat="46.47923" lon="3.89584">
        <ele>234.984795</ele>
        <time>2021-09-11T07:46:07.000Z</time>
      </trkpt>
      <trkpt lat="46.47939" lon="3.89641">
        <ele>234.724431</ele>
        <time>2021-09-11T07:46:14.000Z</time>
      </trkpt>
      <trkpt lat="46.47945" lon="3.89683">
        <ele>234.541486</ele>
        <time>2021-09-11T07:46:19.000Z</time>
      </trkpt>
      <trkpt lat="46.47946" lon="3.89692">
        <ele>234.505638</ele>
        <time>2021-09-11T07:46:20.000Z</time>
      </trkpt>
      <trkpt lat="46.47949" lon="3.89753">
        <ele>234.247358</ele>
        <time>2021-09-11T07:46:27.000Z</time>
      </trkpt>
      <trkpt lat="46.47949" lon="3.89761">
        <ele>234.209808</ele>
        <time>2021-09-11T07:46:28.000Z</time>
      </trkpt>
      <trkpt lat="46.47948" lon="3.89806">
        <ele>234.022014</ele>
        <time>2021-09-11T07:46:33.000Z</time>
      </trkpt>
      <trkpt lat="46.47945" lon="3.89858">
        <ele>233.801916</ele>
        <time>2021-09-11T07:46:39.000Z</time>
      </trkpt>
      <trkpt lat="46.47937" lon="3.8992">
        <ele>233.651379</ele>
        <time>2021-09-11T07:46:46.000Z</time>
      </trkpt>
      <trkpt lat="46.47924" lon="3.90004">
        <ele>233.465071</ele>
        <time>2021-09-11T07:46:55.000Z</time>
      </trkpt>
      <trkpt lat="46.47911" lon="3.90085">
        <ele>233.28649</ele>
        <time>2021-09-11T07:47:04.000Z</time>
      </trkpt>
      <trkpt lat="46.47898" lon="3.90165">
        <ele>233.076881</ele>
        <time>2021-09-11T07:47:13.000Z</time>
      </trkpt>
      <trkpt lat="46.47897" lon="3.90174">
        <ele>233.049798</ele>
        <time>2021-09-11T07:47:14.000Z</time>
      </trkpt>
      <trkpt lat="46.47887" lon="3.90239">
        <ele>232.861247</ele>
        <time>2021-09-11T07:47:21.000Z</time>
      </trkpt>
      <trkpt lat="46.47874" lon="3.90322">
        <ele>232.619274</ele>
        <time>2021-09-11T07:47:30.000Z</time>
      </trkpt>
      <trkpt lat="46.47861" lon="3.90404">
        <ele>232.369637</ele>
        <time>2021-09-11T07:47:39.000Z</time>
      </trkpt>
      <trkpt lat="46.47859" lon="3.90412">
        <ele>232.341187</ele>
        <time>2021-09-11T07:47:40.000Z</time>
      </trkpt>
      <trkpt lat="46.47847" lon="3.90491">
        <ele>232.083786</ele>
        <time>2021-09-11T07:47:49.000Z</time>
      </trkpt>
      <trkpt lat="46.47846" lon="3.905">
        <ele>232.055955</ele>
        <time>2021-09-11T07:47:50.000Z</time>
      </trkpt>
      <trkpt lat="46.47835" lon="3.90569">
        <ele>231.828556</ele>
        <time>2021-09-11T07:47:58.000Z</time>
      </trkpt>
      <trkpt lat="46.47833" lon="3.90578">
        <ele>231.80145</ele>
        <time>2021-09-11T07:47:59.000Z</time>
      </trkpt>
      <trkpt lat="46.47831" lon="3.90595">
        <ele>231.743928</ele>
        <time>2021-09-11T07:48:01.000Z</time>
      </trkpt>
      <trkpt lat="46.47826" lon="3.90622">
        <ele>231.657437</ele>
        <time>2021-09-11T07:48:04.000Z</time>
      </trkpt>
      <trkpt lat="46.47815" lon="3.90693">
        <ele>231.610432</ele>
        <time>2021-09-11T07:48:12.000Z</time>
      </trkpt>
      <trkpt lat="46.47802" lon="3.90773">
        <ele>231.579492</ele>
        <time>2021-09-11T07:48:21.000Z</time>
      </trkpt>
      <trkpt lat="46.47791" lon="3.90845">
        <ele>231.551898</ele>
        <time>2021-09-11T07:48:29.000Z</time>
      </trkpt>
      <trkpt lat="46.47776" lon="3.90928">
        <ele>231.612067</ele>
        <time>2021-09-11T07:48:38.000Z</time>
      </trkpt>
      <trkpt lat="46.47774" lon="3.90938">
        <ele>231.627759</ele>
        <time>2021-09-11T07:48:39.000Z</time>
      </trkpt>
      <trkpt lat="46.47759" lon="3.91014">
        <ele>231.754008</ele>
        <time>2021-09-11T07:48:47.000Z</time>
      </trkpt>
      <trkpt lat="46.47757" lon="3.91024">
        <ele>231.770223</ele>
        <time>2021-09-11T07:48:48.000Z</time>
      </trkpt>
      <trkpt lat="46.4774" lon="3.91099">
        <ele>231.896661</ele>
        <time>2021-09-11T07:48:56.000Z</time>
      </trkpt>
      <trkpt lat="46.47724" lon="3.91173">
        <ele>232.142289</ele>
        <time>2021-09-11T07:49:04.000Z</time>
      </trkpt>
      <trkpt lat="46.47705" lon="3.91253">
        <ele>232.530228</ele>
        <time>2021-09-11T07:49:13.000Z</time>
      </trkpt>
      <trkpt lat="46.47687" lon="3.91331">
        <ele>232.903552</ele>
        <time>2021-09-11T07:49:22.000Z</time>
      </trkpt>
      <trkpt lat="46.4767" lon="3.91409">
        <ele>233.244506</ele>
        <time>2021-09-11T07:49:31.000Z</time>
      </trkpt>
      <trkpt lat="46.47668" lon="3.91418">
        <ele>233.276092</ele>
        <time>2021-09-11T07:49:32.000Z</time>
      </trkpt>
      <trkpt lat="46.47652" lon="3.915">
        <ele>233.568969</ele>
        <time>2021-09-11T07:49:41.000Z</time>
      </trkpt>
      <trkpt lat="46.47648" lon="3.91518">
        <ele>233.635876</ele>
        <time>2021-09-11T07:49:43.000Z</time>
      </trkpt>
      <trkpt lat="46.47632" lon="3.91602">
        <ele>233.936283</ele>
        <time>2021-09-11T07:49:52.000Z</time>
      </trkpt>
      <trkpt lat="46.4763" lon="3.91611">
        <ele>233.969669</ele>
        <time>2021-09-11T07:49:53.000Z</time>
      </trkpt>
      <trkpt lat="46.47614" lon="3.91694">
        <ele>234.147743</ele>
        <time>2021-09-11T07:50:02.000Z</time>
      </trkpt>
      <trkpt lat="46.47608" lon="3.91723">
        <ele>234.19486</ele>
        <time>2021-09-11T07:50:05.000Z</time>
      </trkpt>
      <trkpt lat="46.47596" lon="3.918">
        <ele>234.321101</ele>
        <time>2021-09-11T07:50:13.000Z</time>
      </trkpt>
      <trkpt lat="46.47594" lon="3.91819">
        <ele>234.352131</ele>
        <time>2021-09-11T07:50:15.000Z</time>
      </trkpt>
      <trkpt lat="46.47586" lon="3.91896">
        <ele>234.469345</ele>
        <time>2021-09-11T07:50:23.000Z</time>
      </trkpt>
      <trkpt lat="46.47588" lon="3.91953">
        <ele>234.515408</ele>
        <time>2021-09-11T07:50:29.000Z</time>
      </trkpt>
      <trkpt lat="46.476" lon="3.92031">
        <ele>234.579254</ele>
        <time>2021-09-11T07:50:37.000Z</time>
      </trkpt>
      <trkpt lat="46.47602" lon="3.92041">
        <ele>234.587674</ele>
        <time>2021-09-11T07:50:38.000Z</time>
      </trkpt>
      <trkpt lat="46.47609" lon="3.92103">
        <ele>234.637406</ele>
        <time>2021-09-11T07:50:44.000Z</time>
      </trkpt>
      <trkpt lat="46.47607" lon="3.92162">
        <ele>234.712451</ele>
        <time>2021-09-11T07:50:50.000Z</time>
      </trkpt>
      <trkpt lat="46.47602" lon="3.92228">
        <ele>234.86956</ele>
        <time>2021-09-11T07:50:57.000Z</time>
      </trkpt>
      <trkpt lat="46.47595" lon="3.92313">
        <ele>235.071877</ele>
        <time>2021-09-11T07:51:07.000Z</time>
      </trkpt>
      <trkpt lat="46.4759" lon="3.92373">
        <ele>235.212851</ele>
        <time>2021-09-11T07:51:14.000Z</time>
      </trkpt>
      <trkpt lat="46.47584" lon="3.92447">
        <ele>235.307667</ele>
        <time>2021-09-11T07:51:22.000Z</time>
      </trkpt>
      <trkpt lat="46.47579" lon="3.92509">
        <ele>235.337379</ele>
        <time>2021-09-11T07:51:28.000Z</time>
      </trkpt>
      <trkpt lat="46.47571" lon="3.92594">
        <ele>235.378902</ele>
        <time>2021-09-11T07:51:36.000Z</time>
      </trkpt>
      <trkpt lat="46.47569" lon="3.92605">
        <ele>235.384014</ele>
        <time>2021-09-11T07:51:37.000Z</time>
      </trkpt>
      <trkpt lat="46.47557" lon="3.92644">
        <ele>235.404901</ele>
        <time>2021-09-11T07:51:41.000Z</time>
      </trkpt>
      <trkpt lat="46.47553" lon="3.92654">
        <ele>235.410089</ele>
        <time>2021-09-11T07:51:42.000Z</time>
      </trkpt>
      <trkpt lat="46.47522" lon="3.92702">
        <ele>235.328845</ele>
        <time>2021-09-11T07:51:48.000Z</time>
      </trkpt>
      <trkpt lat="46.47479" lon="3.92765">
        <ele>235.210727</ele>
        <time>2021-09-11T07:51:56.000Z</time>
      </trkpt>
      <trkpt lat="46.47464" lon="3.92792">
        <ele>235.164118</ele>
        <time>2021-09-11T07:51:59.000Z</time>
      </trkpt>
      <trkpt lat="46.47456" lon="3.92813">
        <ele>235.133114</ele>
        <time>2021-09-11T07:52:01.000Z</time>
      </trkpt>
      <trkpt lat="46.47445" lon="3.92866">
        <ele>235.056638</ele>
        <time>2021-09-11T07:52:06.000Z</time>
      </trkpt>
      <trkpt lat="46.47432" lon="3.92949">
        <ele>234.900546</ele>
        <time>2021-09-11T07:52:14.000Z</time>
      </trkpt>
      <trkpt lat="46.4743" lon="3.92959">
        <ele>234.8809</ele>
        <time>2021-09-11T07:52:15.000Z</time>
      </trkpt>
      <trkpt lat="46.47417" lon="3.93039">
        <ele>234.730437</ele>
        <time>2021-09-11T07:52:23.000Z</time>
      </trkpt>
      <trkpt lat="46.47416" lon="3.93049">
        <ele>234.71151</ele>
        <time>2021-09-11T07:52:24.000Z</time>
      </trkpt>
      <trkpt lat="46.47403" lon="3.93128">
        <ele>234.608662</ele>
        <time>2021-09-11T07:52:32.000Z</time>
      </trkpt>
      <trkpt lat="46.47401" lon="3.93137">
        <ele>234.630326</ele>
        <time>2021-09-11T07:52:33.000Z</time>
      </trkpt>
      <trkpt lat="46.47389" lon="3.93215">
        <ele>234.815749</ele>
        <time>2021-09-11T07:52:42.000Z</time>
      </trkpt>
      <trkpt lat="46.47378" lon="3.93282">
        <ele>234.975446</ele>
        <time>2021-09-11T07:52:50.000Z</time>
      </trkpt>
      <trkpt lat="46.47369" lon="3.93346">
        <ele>235.127657</ele>
        <time>2021-09-11T07:52:58.000Z</time>
      </trkpt>
      <trkpt lat="46.47365" lon="3.93418">
        <ele>235.263524</ele>
        <time>2021-09-11T07:53:07.000Z</time>
      </trkpt>
      <trkpt lat="46.4736" lon="3.93499">
        <ele>235.396061</ele>
        <time>2021-09-11T07:53:17.000Z</time>
      </trkpt>
      <trkpt lat="46.47355" lon="3.93567">
        <ele>235.50757</ele>
        <time>2021-09-11T07:53:24.000Z</time>
      </trkpt>
      <trkpt lat="46.47347" lon="3.93633">
        <ele>235.612908</ele>
        <time>2021-09-11T07:53:30.000Z</time>
      </trkpt>
      <trkpt lat="46.47334" lon="3.93676">
        <ele>235.543198</ele>
        <time>2021-09-11T07:53:34.000Z</time>
      </trkpt>
      <trkpt lat="46.4733" lon="3.93686">
        <ele>235.52544</ele>
        <time>2021-09-11T07:53:35.000Z</time>
      </trkpt>
      <trkpt lat="46.47298" lon="3.93753">
        <ele>235.404597</ele>
        <time>2021-09-11T07:53:42.000Z</time>
      </trkpt>
      <trkpt lat="46.47269" lon="3.93813">
        <ele>235.296093</ele>
        <time>2021-09-11T07:53:49.000Z</time>
      </trkpt>
      <trkpt lat="46.47247" lon="3.93858">
        <ele>235.240837</ele>
        <time>2021-09-11T07:53:55.000Z</time>
      </trkpt>
      <trkpt lat="46.47224" lon="3.93907">
        <ele>235.333219</ele>
        <time>2021-09-11T07:54:02.000Z</time>
      </trkpt>
      <trkpt lat="46.47214" lon="3.93925">
        <ele>235.369722</ele>
        <time>2021-09-11T07:54:05.000Z</time>
      </trkpt>
      <trkpt lat="46.47202" lon="3.93942">
        <ele>235.406878</ele>
        <time>2021-09-11T07:54:08.000Z</time>
      </trkpt>
      <trkpt lat="46.47183" lon="3.93968">
        <ele>235.465952</ele>
        <time>2021-09-11T07:54:13.000Z</time>
      </trkpt>
      <trkpt lat="46.47179" lon="3.93972">
        <ele>235.476707</ele>
        <time>2021-09-11T07:54:14.000Z</time>
      </trkpt>
      <trkpt lat="46.47154" lon="3.94006">
        <ele>235.554429</ele>
        <time>2021-09-11T07:54:21.000Z</time>
      </trkpt>
      <trkpt lat="46.47127" lon="3.94042">
        <ele>235.63639</ele>
        <time>2021-09-11T07:54:28.000Z</time>
      </trkpt>
      <trkpt lat="46.47096" lon="3.94084">
        <ele>235.743712</ele>
        <time>2021-09-11T07:54:36.000Z</time>
      </trkpt>
      <trkpt lat="46.47067" lon="3.94123">
        <ele>235.842187</ele>
        <time>2021-09-11T07:54:43.000Z</time>
      </trkpt>
      <trkpt lat="46.47038" lon="3.94161">
        <ele>235.939668</ele>
        <time>2021-09-11T07:54:50.000Z</time>
      </trkpt>
      <trkpt lat="46.47003" lon="3.94206">
        <ele>236.057016</ele>
        <time>2021-09-11T07:54:59.000Z</time>
      </trkpt>
      <trkpt lat="46.46984" lon="3.94229">
        <ele>236.124317</ele>
        <time>2021-09-11T07:55:04.000Z</time>
      </trkpt>
      <trkpt lat="46.46978" lon="3.94241">
        <ele>236.151909</ele>
        <time>2021-09-11T07:55:06.000Z</time>
      </trkpt>
      <trkpt lat="46.4697" lon="3.94258">
        <ele>236.193458</ele>
        <time>2021-09-11T07:55:09.000Z</time>
      </trkpt>
      <trkpt lat="46.46964" lon="3.94278">
        <ele>236.238458</ele>
        <time>2021-09-11T07:55:12.000Z</time>
      </trkpt>
      <trkpt lat="46.46956" lon="3.94317">
        <ele>236.31949</ele>
        <time>2021-09-11T07:55:17.000Z</time>
      </trkpt>
      <trkpt lat="46.46956" lon="3.94326">
        <ele>236.336246</ele>
        <time>2021-09-11T07:55:18.000Z</time>
      </trkpt>
      <trkpt lat="46.46957" lon="3.94334">
        <ele>236.353413</ele>
        <time>2021-09-11T07:55:19.000Z</time>
      </trkpt>
      <trkpt lat="46.46958" lon="3.94359">
        <ele>236.402798</ele>
        <time>2021-09-11T07:55:22.000Z</time>
      </trkpt>
      <trkpt lat="46.46959" lon="3.94368">
        <ele>236.419989</ele>
        <time>2021-09-11T07:55:23.000Z</time>
      </trkpt>
      <trkpt lat="46.46974" lon="3.94414">
        <ele>236.52199</ele>
        <time>2021-09-11T07:55:29.000Z</time>
      </trkpt>
      <trkpt lat="46.46994" lon="3.94452">
        <ele>236.616912</ele>
        <time>2021-09-11T07:55:35.000Z</time>
      </trkpt>
      <trkpt lat="46.4702" lon="3.94487">
        <ele>236.714277</ele>
        <time>2021-09-11T07:55:42.000Z</time>
      </trkpt>
      <trkpt lat="46.47044" lon="3.94515">
        <ele>236.798597</ele>
        <time>2021-09-11T07:55:49.000Z</time>
      </trkpt>
      <trkpt lat="46.47074" lon="3.9455">
        <ele>236.902222</ele>
        <time>2021-09-11T07:55:58.000Z</time>
      </trkpt>
      <trkpt lat="46.47095" lon="3.94576">
        <ele>236.977389</ele>
        <time>2021-09-11T07:56:04.000Z</time>
      </trkpt>
      <trkpt lat="46.47127" lon="3.94614">
        <ele>237.090586</ele>
        <time>2021-09-11T07:56:12.000Z</time>
      </trkpt>
      <trkpt lat="46.47156" lon="3.94651">
        <ele>236.908806</ele>
        <time>2021-09-11T07:56:18.000Z</time>
      </trkpt>
      <trkpt lat="46.47175" lon="3.94684">
        <ele>236.764337</ele>
        <time>2021-09-11T07:56:22.000Z</time>
      </trkpt>
      <trkpt lat="46.47183" lon="3.94701">
        <ele>236.694898</ele>
        <time>2021-09-11T07:56:24.000Z</time>
      </trkpt>
      <trkpt lat="46.4719" lon="3.94729">
        <ele>236.594212</ele>
        <time>2021-09-11T07:56:27.000Z</time>
      </trkpt>
      <trkpt lat="46.47195" lon="3.94746">
        <ele>236.530704</ele>
        <time>2021-09-11T07:56:29.000Z</time>
      </trkpt>
      <trkpt lat="46.47205" lon="3.94799">
        <ele>236.344379</ele>
        <time>2021-09-11T07:56:35.000Z</time>
      </trkpt>
      <trkpt lat="46.47216" lon="3.94851">
        <ele>236.173272</ele>
        <time>2021-09-11T07:56:41.000Z</time>
      </trkpt>
      <trkpt lat="46.47232" lon="3.94934">
        <ele>235.955773</ele>
        <time>2021-09-11T07:56:50.000Z</time>
      </trkpt>
      <trkpt lat="46.47234" lon="3.94944">
        <ele>235.931621</ele>
        <time>2021-09-11T07:56:51.000Z</time>
      </trkpt>
      <trkpt lat="46.47244" lon="3.94998">
        <ele>235.789591</ele>
        <time>2021-09-11T07:56:57.000Z</time>
      </trkpt>
      <trkpt lat="46.47259" lon="3.95079">
        <ele>235.578178</ele>
        <time>2021-09-11T07:57:06.000Z</time>
      </trkpt>
      <trkpt lat="46.4727" lon="3.95139">
        <ele>235.481767</ele>
        <time>2021-09-11T07:57:13.000Z</time>
      </trkpt>
      <trkpt lat="46.47284" lon="3.95208">
        <ele>235.385274</ele>
        <time>2021-09-11T07:57:21.000Z</time>
      </trkpt>
      <trkpt lat="46.47298" lon="3.95279">
        <ele>235.285609</ele>
        <time>2021-09-11T07:57:29.000Z</time>
      </trkpt>
      <trkpt lat="46.47311" lon="3.95347">
        <ele>235.201275</ele>
        <time>2021-09-11T07:57:37.000Z</time>
      </trkpt>
      <trkpt lat="46.47321" lon="3.954">
        <ele>235.212238</ele>
        <time>2021-09-11T07:57:43.000Z</time>
      </trkpt>
      <trkpt lat="46.47333" lon="3.95462">
        <ele>235.225067</ele>
        <time>2021-09-11T07:57:50.000Z</time>
      </trkpt>
      <trkpt lat="46.47347" lon="3.95535">
        <ele>235.240255</ele>
        <time>2021-09-11T07:57:58.000Z</time>
      </trkpt>
      <trkpt lat="46.47363" lon="3.95619">
        <ele>235.273707</ele>
        <time>2021-09-11T07:58:07.000Z</time>
      </trkpt>
      <trkpt lat="46.47375" lon="3.95696">
        <ele>235.335892</ele>
        <time>2021-09-11T07:58:15.000Z</time>
      </trkpt>
      <trkpt lat="46.47381" lon="3.95764">
        <ele>235.390221</ele>
        <time>2021-09-11T07:58:22.000Z</time>
      </trkpt>
      <trkpt lat="46.47389" lon="3.95841">
        <ele>235.452002</ele>
        <time>2021-09-11T07:58:30.000Z</time>
      </trkpt>
      <trkpt lat="46.47391" lon="3.95871">
        <ele>235.449855</ele>
        <time>2021-09-11T07:58:33.000Z</time>
      </trkpt>
      <trkpt lat="46.47399" lon="3.95951">
        <ele>235.419862</ele>
        <time>2021-09-11T07:58:41.000Z</time>
      </trkpt>
      <trkpt lat="46.47404" lon="3.96011">
        <ele>235.397531</ele>
        <time>2021-09-11T07:58:47.000Z</time>
      </trkpt>
      <trkpt lat="46.47413" lon="3.96094">
        <ele>235.366192</ele>
        <time>2021-09-11T07:58:55.000Z</time>
      </trkpt>
      <trkpt lat="46.47414" lon="3.96104">
        <ele>235.362337</ele>
        <time>2021-09-11T07:58:56.000Z</time>
      </trkpt>
      <trkpt lat="46.47431" lon="3.96176">
        <ele>235.238519</ele>
        <time>2021-09-11T07:59:03.000Z</time>
      </trkpt>
      <trkpt lat="46.47455" lon="3.96251">
        <ele>235.097402</ele>
        <time>2021-09-11T07:59:11.000Z</time>
      </trkpt>
      <trkpt lat="46.47476" lon="3.96318">
        <ele>234.972771</ele>
        <time>2021-09-11T07:59:18.000Z</time>
      </trkpt>
      <trkpt lat="46.47498" lon="3.96394">
        <ele>234.97386</ele>
        <time>2021-09-11T07:59:26.000Z</time>
      </trkpt>
      <trkpt lat="46.47516" lon="3.96462">
        <ele>235.057452</ele>
        <time>2021-09-11T07:59:33.000Z</time>
      </trkpt>
      <trkpt lat="46.47528" lon="3.96514">
        <ele>235.11968</ele>
        <time>2021-09-11T07:59:39.000Z</time>
      </trkpt>
      <trkpt lat="46.47544" lon="3.96579">
        <ele>235.198017</ele>
        <time>2021-09-11T07:59:47.000Z</time>
      </trkpt>
      <trkpt lat="46.47557" lon="3.96635">
        <ele>234.894169</ele>
        <time>2021-09-11T07:59:54.000Z</time>
      </trkpt>
      <trkpt lat="46.47564" lon="3.96663">
        <ele>234.683988</ele>
        <time>2021-09-11T07:59:59.000Z</time>
      </trkpt>
      <trkpt lat="46.47556" lon="3.96664">
        <ele>234.594748</ele>
        <time>2021-09-11T08:00:02.000Z</time>
      </trkpt>
      <trkpt lat="46.4756" lon="3.96647">
        <ele>234.461134</ele>
        <time>2021-09-11T08:00:07.000Z</time>
      </trkpt>
      <trkpt lat="46.47552" lon="3.96636">
        <ele>234.343225</ele>
        <time>2021-09-11T08:00:11.000Z</time>
      </trkpt>
      <trkpt lat="46.4755" lon="3.96636">
        <ele>234.329629</ele>
        <time>2021-09-11T08:00:12.000Z</time>
      </trkpt>
      <trkpt lat="46.4754" lon="3.96633">
        <ele>234.221258</ele>
        <time>2021-09-11T08:00:17.000Z</time>
      </trkpt>
      <trkpt lat="46.4752" lon="3.96627">
        <ele>234.013165</ele>
        <time>2021-09-11T08:00:23.000Z</time>
      </trkpt>
      <trkpt lat="46.47509" lon="3.96624">
        <ele>233.891205</ele>
        <time>2021-09-11T08:00:28.000Z</time>
      </trkpt>
      <trkpt lat="46.47506" lon="3.96623">
        <ele>233.86605</ele>
        <time>2021-09-11T08:00:32.000Z</time>
      </trkpt>
      <trkpt lat="46.47503" lon="3.9663">
        <ele>233.810302</ele>
        <time>2021-09-11T08:00:33.000Z</time>
      </trkpt>
      <trkpt lat="46.47504" lon="3.96648">
        <ele>233.683579</ele>
        <time>2021-09-11T08:00:37.000Z</time>
      </trkpt>
      <trkpt lat="46.47505" lon="3.96686">
        <ele>233.413111</ele>
        <time>2021-09-11T08:00:42.000Z</time>
      </trkpt>
      <trkpt lat="46.47506" lon="3.96738">
        <ele>233.216024</ele>
        <time>2021-09-11T08:00:48.000Z</time>
      </trkpt>
      <trkpt lat="46.47509" lon="3.96789">
        <ele>233.05555</ele>
        <time>2021-09-11T08:00:54.000Z</time>
      </trkpt>
      <trkpt lat="46.47513" lon="3.96851">
        <ele>232.859322</ele>
        <time>2021-09-11T08:01:01.000Z</time>
      </trkpt>
      <trkpt lat="46.47516" lon="3.96899">
        <ele>232.70724</ele>
        <time>2021-09-11T08:01:07.000Z</time>
      </trkpt>
      <trkpt lat="46.47519" lon="3.96944">
        <ele>232.562441</ele>
        <time>2021-09-11T08:01:12.000Z</time>
      </trkpt>
      <trkpt lat="46.47519" lon="3.96954">
        <ele>232.532591</ele>
        <time>2021-09-11T08:01:13.000Z</time>
      </trkpt>
      <trkpt lat="46.47527" lon="3.97018">
        <ele>232.144813</ele>
        <time>2021-09-11T08:01:20.000Z</time>
      </trkpt>
      <trkpt lat="46.47536" lon="3.97063">
        <ele>231.8687</ele>
        <time>2021-09-11T08:01:25.000Z</time>
      </trkpt>
      <trkpt lat="46.47539" lon="3.9708">
        <ele>231.762021</ele>
        <time>2021-09-11T08:01:27.000Z</time>
      </trkpt>
      <trkpt lat="46.47551" lon="3.97142">
        <ele>231.375553</ele>
        <time>2021-09-11T08:01:34.000Z</time>
      </trkpt>
      <trkpt lat="46.47563" lon="3.97202">
        <ele>231.005412</ele>
        <time>2021-09-11T08:01:41.000Z</time>
      </trkpt>
      <trkpt lat="46.47574" lon="3.9726">
        <ele>230.902111</ele>
        <time>2021-09-11T08:01:48.000Z</time>
      </trkpt>
      <trkpt lat="46.47573" lon="3.97276">
        <ele>230.880871</ele>
        <time>2021-09-11T08:01:50.000Z</time>
      </trkpt>
      <trkpt lat="46.47572" lon="3.97292">
        <ele>230.858776</ele>
        <time>2021-09-11T08:01:52.000Z</time>
      </trkpt>
      <trkpt lat="46.47569" lon="3.97308">
        <ele>230.83769</ele>
        <time>2021-09-11T08:01:54.000Z</time>
      </trkpt>
      <trkpt lat="46.47561" lon="3.97316">
        <ele>230.8188</ele>
        <time>2021-09-11T08:01:56.000Z</time>
      </trkpt>
      <trkpt lat="46.47544" lon="3.97332">
        <ele>230.780498</ele>
        <time>2021-09-11T08:02:00.000Z</time>
      </trkpt>
      <trkpt lat="46.47536" lon="3.97339">
        <ele>230.762463</ele>
        <time>2021-09-11T08:02:02.000Z</time>
      </trkpt>
      <trkpt lat="46.47532" lon="3.97343">
        <ele>230.753489</ele>
        <time>2021-09-11T08:02:03.000Z</time>
      </trkpt>
      <trkpt lat="46.47524" lon="3.97351">
        <ele>230.735454</ele>
        <time>2021-09-11T08:02:05.000Z</time>
      </trkpt>
      <trkpt lat="46.47518" lon="3.9736">
        <ele>230.717604</ele>
        <time>2021-09-11T08:02:07.000Z</time>
      </trkpt>
      <trkpt lat="46.47515" lon="3.97366">
        <ele>230.70785</ele>
        <time>2021-09-11T08:02:08.000Z</time>
      </trkpt>
      <trkpt lat="46.47513" lon="3.97372">
        <ele>230.699079</ele>
        <time>2021-09-11T08:02:09.000Z</time>
      </trkpt>
      <trkpt lat="46.47512" lon="3.97393">
        <ele>230.671234</ele>
        <time>2021-09-11T08:02:12.000Z</time>
      </trkpt>
      <trkpt lat="46.47509" lon="3.97441">
        <ele>230.653729</ele>
        <time>2021-09-11T08:02:18.000Z</time>
      </trkpt>
      <trkpt lat="46.47509" lon="3.97456">
        <ele>230.676881</ele>
        <time>2021-09-11T08:02:20.000Z</time>
      </trkpt>
      <trkpt lat="46.47506" lon="3.97483">
        <ele>230.715237</ele>
        <time>2021-09-11T08:02:23.000Z</time>
      </trkpt>
      <trkpt lat="46.47499" lon="3.97528">
        <ele>230.782615</ele>
        <time>2021-09-11T08:02:28.000Z</time>
      </trkpt>
      <trkpt lat="46.4749" lon="3.97583">
        <ele>230.86457</ele>
        <time>2021-09-11T08:02:34.000Z</time>
      </trkpt>
      <trkpt lat="46.47485" lon="3.9761">
        <ele>230.90595</ele>
        <time>2021-09-11T08:02:37.000Z</time>
      </trkpt>
      <trkpt lat="46.47477" lon="3.97635">
        <ele>230.946478</ele>
        <time>2021-09-11T08:02:40.000Z</time>
      </trkpt>
      <trkpt lat="46.47458" lon="3.97672">
        <ele>231.017613</ele>
        <time>2021-09-11T08:02:45.000Z</time>
      </trkpt>
      <trkpt lat="46.47438" lon="3.97711">
        <ele>231.245219</ele>
        <time>2021-09-11T08:02:51.000Z</time>
      </trkpt>
      <trkpt lat="46.4743" lon="3.97729">
        <ele>231.342168</ele>
        <time>2021-09-11T08:02:54.000Z</time>
      </trkpt>
      <trkpt lat="46.47424" lon="3.97746">
        <ele>231.427737</ele>
        <time>2021-09-11T08:02:57.000Z</time>
      </trkpt>
      <trkpt lat="46.47418" lon="3.97762">
        <ele>231.51404</ele>
        <time>2021-09-11T08:03:00.000Z</time>
      </trkpt>
      <trkpt lat="46.47411" lon="3.97778">
        <ele>231.600008</ele>
        <time>2021-09-11T08:03:03.000Z</time>
      </trkpt>
      <trkpt lat="46.47407" lon="3.97788">
        <ele>231.652842</ele>
        <time>2021-09-11T08:03:05.000Z</time>
      </trkpt>
      <trkpt lat="46.47405" lon="3.978">
        <ele>231.710552</ele>
        <time>2021-09-11T08:03:07.000Z</time>
      </trkpt>
      <trkpt lat="46.47405" lon="3.97806">
        <ele>231.73725</ele>
        <time>2021-09-11T08:03:08.000Z</time>
      </trkpt>
      <trkpt lat="46.47406" lon="3.97814">
        <ele>231.776381</ele>
        <time>2021-09-11T08:03:09.000Z</time>
      </trkpt>
      <trkpt lat="46.47411" lon="3.97823">
        <ele>231.830292</ele>
        <time>2021-09-11T08:03:11.000Z</time>
      </trkpt>
      <trkpt lat="46.47414" lon="3.97827">
        <ele>231.859749</ele>
        <time>2021-09-11T08:03:12.000Z</time>
      </trkpt>
      <trkpt lat="46.47435" lon="3.97843">
        <ele>232.019496</ele>
        <time>2021-09-11T08:03:18.000Z</time>
      </trkpt>
      <trkpt lat="46.47473" lon="3.9787">
        <ele>232.428816</ele>
        <time>2021-09-11T08:03:29.000Z</time>
      </trkpt>
      <trkpt lat="46.47494" lon="3.97884">
        <ele>232.833254</ele>
        <time>2021-09-11T08:03:36.000Z</time>
      </trkpt>
      <trkpt lat="46.47499" lon="3.97897">
        <ele>233.008869</ele>
        <time>2021-09-11T08:03:40.000Z</time>
      </trkpt>
      <trkpt lat="46.47501" lon="3.97899">
        <ele>233.036975</ele>
        <time>2021-09-11T08:03:41.000Z</time>
      </trkpt>
      <trkpt lat="46.47503" lon="3.97901">
        <ele>233.087336</ele>
        <time>2021-09-11T08:03:43.000Z</time>
      </trkpt>
      <trkpt lat="46.47506" lon="3.97903">
        <ele>233.135099</ele>
        <time>2021-09-11T08:03:44.000Z</time>
      </trkpt>
      <trkpt lat="46.47524" lon="3.97916">
        <ele>233.474875</ele>
        <time>2021-09-11T08:03:50.000Z</time>
      </trkpt>
      <trkpt lat="46.47547" lon="3.97926">
        <ele>233.882438</ele>
        <time>2021-09-11T08:03:56.000Z</time>
      </trkpt>
      <trkpt lat="46.4757" lon="3.97941">
        <ele>234.31541</ele>
        <time>2021-09-11T08:04:02.000Z</time>
      </trkpt>
      <trkpt lat="46.47581" lon="3.97948">
        <ele>234.507529</ele>
        <time>2021-09-11T08:04:05.000Z</time>
      </trkpt>
      <trkpt lat="46.47612" lon="3.9797">
        <ele>235.098229</ele>
        <time>2021-09-11T08:04:13.000Z</time>
      </trkpt>
      <trkpt lat="46.47621" lon="3.97978">
        <ele>235.262852</ele>
        <time>2021-09-11T08:04:16.000Z</time>
      </trkpt>
      <trkpt lat="46.47623" lon="3.9798">
        <ele>235.282259</ele>
        <time>2021-09-11T08:04:17.000Z</time>
      </trkpt>
      <trkpt lat="46.47625" lon="3.97982">
        <ele>235.299526</ele>
        <time>2021-09-11T08:04:18.000Z</time>
      </trkpt>
      <trkpt lat="46.47627" lon="3.97984">
        <ele>235.319234</ele>
        <time>2021-09-11T08:04:20.000Z</time>
      </trkpt>
      <trkpt lat="46.47628" lon="3.97985">
        <ele>235.334309</ele>
        <time>2021-09-11T08:04:23.000Z</time>
      </trkpt>
      <trkpt lat="46.4763" lon="3.97986">
        <ele>235.350079</ele>
        <time>2021-09-11T08:04:24.000Z</time>
      </trkpt>
      <trkpt lat="46.47644" lon="3.97995">
        <ele>235.466609</ele>
        <time>2021-09-11T08:04:30.000Z</time>
      </trkpt>
      <trkpt lat="46.47667" lon="3.9801">
        <ele>235.653485</ele>
        <time>2021-09-11T08:04:37.000Z</time>
      </trkpt>
      <trkpt lat="46.47694" lon="3.98028">
        <ele>235.884459</ele>
        <time>2021-09-11T08:04:45.000Z</time>
      </trkpt>
      <trkpt lat="46.47715" lon="3.98041">
        <ele>236.056047</ele>
        <time>2021-09-11T08:04:52.000Z</time>
      </trkpt>
      <trkpt lat="46.47739" lon="3.98057">
        <ele>236.256178</ele>
        <time>2021-09-11T08:04:59.000Z</time>
      </trkpt>
      <trkpt lat="46.47767" lon="3.98075">
        <ele>236.489451</ele>
        <time>2021-09-11T08:05:07.000Z</time>
      </trkpt>
      <trkpt lat="46.4779" lon="3.9809">
        <ele>236.660683</ele>
        <time>2021-09-11T08:05:14.000Z</time>
      </trkpt>
      <trkpt lat="46.47801" lon="3.98097">
        <ele>236.724278</ele>
        <time>2021-09-11T08:05:19.000Z</time>
      </trkpt>
      <trkpt lat="46.47805" lon="3.98097">
        <ele>236.740537</ele>
        <time>2021-09-11T08:05:21.000Z</time>
      </trkpt>
      <trkpt lat="46.47807" lon="3.98098">
        <ele>236.754217</ele>
        <time>2021-09-11T08:05:22.000Z</time>
      </trkpt>
      <trkpt lat="46.47819" lon="3.98104">
        <ele>236.817285</ele>
        <time>2021-09-11T08:05:26.000Z</time>
      </trkpt>
      <trkpt lat="46.47826" lon="3.9811">
        <ele>236.859602</ele>
        <time>2021-09-11T08:05:30.000Z</time>
      </trkpt>
      <trkpt lat="46.4784" lon="3.98119">
        <ele>236.93571</ele>
        <time>2021-09-11T08:05:36.000Z</time>
      </trkpt>
      <trkpt lat="46.47854" lon="3.98124">
        <ele>237.010183</ele>
        <time>2021-09-11T08:05:40.000Z</time>
      </trkpt>
      <trkpt lat="46.47858" lon="3.98127">
        <ele>237.031117</ele>
        <time>2021-09-11T08:05:41.000Z</time>
      </trkpt>
      <trkpt lat="46.47889" lon="3.98146">
        <ele>237.200075</ele>
        <time>2021-09-11T08:05:48.000Z</time>
      </trkpt>
      <trkpt lat="46.47917" lon="3.98165">
        <ele>237.357963</ele>
        <time>2021-09-11T08:05:54.000Z</time>
      </trkpt>
      <trkpt lat="46.47943" lon="3.98181">
        <ele>237.502652</ele>
        <time>2021-09-11T08:06:00.000Z</time>
      </trkpt>
      <trkpt lat="46.47952" lon="3.98187">
        <ele>237.549602</ele>
        <time>2021-09-11T08:06:02.000Z</time>
      </trkpt>
      <trkpt lat="46.47965" lon="3.98196">
        <ele>237.624739</ele>
        <time>2021-09-11T08:06:05.000Z</time>
      </trkpt>
      <trkpt lat="46.4797" lon="3.98198">
        <ele>237.647598</ele>
        <time>2021-09-11T08:06:06.000Z</time>
      </trkpt>
      <trkpt lat="46.47988" lon="3.98214">
        <ele>237.757369</ele>
        <time>2021-09-11T08:06:11.000Z</time>
      </trkpt>
      <trkpt lat="46.47993" lon="3.98216">
        <ele>237.784485</ele>
        <time>2021-09-11T08:06:12.000Z</time>
      </trkpt>
      <trkpt lat="46.48012" lon="3.98225">
        <ele>237.88339</ele>
        <time>2021-09-11T08:06:16.000Z</time>
      </trkpt>
      <trkpt lat="46.48019" lon="3.9823">
        <ele>237.923156</ele>
        <time>2021-09-11T08:06:18.000Z</time>
      </trkpt>
      <trkpt lat="46.48023" lon="3.98233">
        <ele>237.945118</ele>
        <time>2021-09-11T08:06:19.000Z</time>
      </trkpt>
      <trkpt lat="46.48033" lon="3.98246">
        <ele>238.015294</ele>
        <time>2021-09-11T08:06:22.000Z</time>
      </trkpt>
      <trkpt lat="46.48036" lon="3.98252">
        <ele>238.040538</ele>
        <time>2021-09-11T08:06:23.000Z</time>
      </trkpt>
      <trkpt lat="46.48049" lon="3.98278">
        <ele>238.152921</ele>
        <time>2021-09-11T08:06:27.000Z</time>
      </trkpt>
      <trkpt lat="46.48078" lon="3.98336">
        <ele>238.403479</ele>
        <time>2021-09-11T08:06:35.000Z</time>
      </trkpt>
      <trkpt lat="46.48106" lon="3.98394">
        <ele>238.508535</ele>
        <time>2021-09-11T08:06:43.000Z</time>
      </trkpt>
      <trkpt lat="46.48134" lon="3.98451">
        <ele>238.58354</ele>
        <time>2021-09-11T08:06:51.000Z</time>
      </trkpt>
      <trkpt lat="46.48163" lon="3.9851">
        <ele>238.659068</ele>
        <time>2021-09-11T08:06:59.000Z</time>
      </trkpt>
      <trkpt lat="46.48173" lon="3.98531">
        <ele>238.687153</ele>
        <time>2021-09-11T08:07:02.000Z</time>
      </trkpt>
      <trkpt lat="46.48184" lon="3.98554">
        <ele>238.716281</ele>
        <time>2021-09-11T08:07:05.000Z</time>
      </trkpt>
      <trkpt lat="46.48204" lon="3.98594">
        <ele>238.650281</ele>
        <time>2021-09-11T08:07:11.000Z</time>
      </trkpt>
      <trkpt lat="46.48226" lon="3.98638">
        <ele>238.557518</ele>
        <time>2021-09-11T08:07:17.000Z</time>
      </trkpt>
      <trkpt lat="46.48246" lon="3.98679">
        <ele>238.471413</ele>
        <time>2021-09-11T08:07:23.000Z</time>
      </trkpt>
      <trkpt lat="46.48248" lon="3.98695">
        <ele>238.443364</ele>
        <time>2021-09-11T08:07:25.000Z</time>
      </trkpt>
      <trkpt lat="46.48249" lon="3.98703">
        <ele>238.42959</ele>
        <time>2021-09-11T08:07:26.000Z</time>
      </trkpt>
      <trkpt lat="46.48251" lon="3.98715">
        <ele>238.407541</ele>
        <time>2021-09-11T08:07:28.000Z</time>
      </trkpt>
      <trkpt lat="46.48254" lon="3.98722">
        <ele>238.392956</ele>
        <time>2021-09-11T08:07:29.000Z</time>
      </trkpt>
      <trkpt lat="46.48258" lon="3.98727">
        <ele>238.380454</ele>
        <time>2021-09-11T08:07:30.000Z</time>
      </trkpt>
      <trkpt lat="46.48263" lon="3.9873">
        <ele>238.366404</ele>
        <time>2021-09-11T08:07:31.000Z</time>
      </trkpt>
      <trkpt lat="46.48269" lon="3.98726">
        <ele>238.352303</ele>
        <time>2021-09-11T08:07:32.000Z</time>
      </trkpt>
      <trkpt lat="46.48277" lon="3.98718">
        <ele>238.326289</ele>
        <time>2021-09-11T08:07:34.000Z</time>
      </trkpt>
      <trkpt lat="46.48282" lon="3.98716">
        <ele>238.314956</ele>
        <time>2021-09-11T08:07:35.000Z</time>
      </trkpt>
      <trkpt lat="46.48287" lon="3.98716">
        <ele>238.302472</ele>
        <time>2021-09-11T08:07:37.000Z</time>
      </trkpt>
      <trkpt lat="46.48292" lon="3.98719">
        <ele>238.288074</ele>
        <time>2021-09-11T08:07:44.000Z</time>
      </trkpt>
      <trkpt lat="46.48301" lon="3.98712">
        <ele>238.259861</ele>
        <time>2021-09-11T08:07:46.000Z</time>
      </trkpt>
      <trkpt lat="46.483" lon="3.98711">
        <ele>238.257423</ele>
        <time>2021-09-11T08:07:48.000Z</time>
      </trkpt>
      <trkpt lat="46.48287" lon="3.98716">
        <ele>238.213904</ele>
        <time>2021-09-11T08:07:52.000Z</time>
      </trkpt>
      <trkpt lat="46.4829" lon="3.9871">
        <ele>238.197751</ele>
        <time>2021-09-11T08:07:54.000Z</time>
      </trkpt>
      <trkpt lat="46.48289" lon="3.98713">
        <ele>238.191286</ele>
        <time>2021-09-11T08:07:56.000Z</time>
      </trkpt>
      <trkpt lat="46.48291" lon="3.98724">
        <ele>238.166441</ele>
        <time>2021-09-11T08:08:00.000Z</time>
      </trkpt>
      <trkpt lat="46.48297" lon="3.98735">
        <ele>238.138129</ele>
        <time>2021-09-11T08:08:04.000Z</time>
      </trkpt>
      <trkpt lat="46.48307" lon="3.98757">
        <ele>238.082035</ele>
        <time>2021-09-11T08:08:10.000Z</time>
      </trkpt>
      <trkpt lat="46.48321" lon="3.98783">
        <ele>238.012443</ele>
        <time>2021-09-11T08:08:17.000Z</time>
      </trkpt>
      <trkpt lat="46.48318" lon="3.98803">
        <ele>237.970586</ele>
        <time>2021-09-11T08:08:20.000Z</time>
      </trkpt>
      <trkpt lat="46.48316" lon="3.98806">
        <ele>237.961533</ele>
        <time>2021-09-11T08:08:22.000Z</time>
      </trkpt>
      <trkpt lat="46.48313" lon="3.98818">
        <ele>237.935216</ele>
        <time>2021-09-11T08:08:24.000Z</time>
      </trkpt>
      <trkpt lat="46.48318" lon="3.98833">
        <ele>237.901613</ele>
        <time>2021-09-11T08:08:27.000Z</time>
      </trkpt>
      <trkpt lat="46.4832" lon="3.98838">
        <ele>237.888067</ele>
        <time>2021-09-11T08:08:28.000Z</time>
      </trkpt>
      <trkpt lat="46.48323" lon="3.98844">
        <ele>237.873298</ele>
        <time>2021-09-11T08:08:29.000Z</time>
      </trkpt>
      <trkpt lat="46.48331" lon="3.98861">
        <ele>237.828838</ele>
        <time>2021-09-11T08:08:32.000Z</time>
      </trkpt>
      <trkpt lat="46.48333" lon="3.98867">
        <ele>237.815286</ele>
        <time>2021-09-11T08:08:33.000Z</time>
      </trkpt>
      <trkpt lat="46.48339" lon="3.98878">
        <ele>237.786804</ele>
        <time>2021-09-11T08:08:35.000Z</time>
      </trkpt>
      <trkpt lat="46.48347" lon="3.98896">
        <ele>237.741297</ele>
        <time>2021-09-11T08:08:38.000Z</time>
      </trkpt>
      <trkpt lat="46.48359" lon="3.98938">
        <ele>237.717184</ele>
        <time>2021-09-11T08:08:44.000Z</time>
      </trkpt>
      <trkpt lat="46.4836" lon="3.98945">
        <ele>237.715808</ele>
        <time>2021-09-11T08:08:45.000Z</time>
      </trkpt>
      <trkpt lat="46.4837" lon="3.98995">
        <ele>237.706487</ele>
        <time>2021-09-11T08:08:52.000Z</time>
      </trkpt>
      <trkpt lat="46.48379" lon="3.99046">
        <ele>237.696868</ele>
        <time>2021-09-11T08:08:59.000Z</time>
      </trkpt>
      <trkpt lat="46.48382" lon="3.9906">
        <ele>237.694277</ele>
        <time>2021-09-11T08:09:01.000Z</time>
      </trkpt>
      <trkpt lat="46.48385" lon="3.99075">
        <ele>237.6913</ele>
        <time>2021-09-11T08:09:03.000Z</time>
      </trkpt>
      <trkpt lat="46.48398" lon="3.99143">
        <ele>237.678571</ele>
        <time>2021-09-11T08:09:11.000Z</time>
      </trkpt>
      <trkpt lat="46.48419" lon="3.99197">
        <ele>237.584417</ele>
        <time>2021-09-11T08:09:18.000Z</time>
      </trkpt>
      <trkpt lat="46.48444" lon="3.99245">
        <ele>237.471947</ele>
        <time>2021-09-11T08:09:25.000Z</time>
      </trkpt>
      <trkpt lat="46.48479" lon="3.99298">
        <ele>237.33871</ele>
        <time>2021-09-11T08:09:33.000Z</time>
      </trkpt>
      <trkpt lat="46.485" lon="3.99335">
        <ele>237.248446</ele>
        <time>2021-09-11T08:09:39.000Z</time>
      </trkpt>
      <trkpt lat="46.48518" lon="3.9938">
        <ele>237.184953</ele>
        <time>2021-09-11T08:09:45.000Z</time>
      </trkpt>
      <trkpt lat="46.48531" lon="3.99426">
        <ele>237.161561</ele>
        <time>2021-09-11T08:09:51.000Z</time>
      </trkpt>
      <trkpt lat="46.48537" lon="3.99472">
        <ele>237.139572</ele>
        <time>2021-09-11T08:09:57.000Z</time>
      </trkpt>
      <trkpt lat="46.48538" lon="3.99521">
        <ele>237.116364</ele>
        <time>2021-09-11T08:10:04.000Z</time>
      </trkpt>
      <trkpt lat="46.48537" lon="3.99568">
        <ele>237.094345</ele>
        <time>2021-09-11T08:10:11.000Z</time>
      </trkpt>
      <trkpt lat="46.48537" lon="3.99601">
        <ele>237.078549</ele>
        <time>2021-09-11T08:10:16.000Z</time>
      </trkpt>
      <trkpt lat="46.48536" lon="3.99616">
        <ele>237.076953</ele>
        <time>2021-09-11T08:10:18.000Z</time>
      </trkpt>
      <trkpt lat="46.48536" lon="3.99638">
        <ele>237.121811</ele>
        <time>2021-09-11T08:10:21.000Z</time>
      </trkpt>
      <trkpt lat="46.48536" lon="3.99661">
        <ele>237.168264</ele>
        <time>2021-09-11T08:10:24.000Z</time>
      </trkpt>
      <trkpt lat="46.48538" lon="3.99717">
        <ele>237.279014</ele>
        <time>2021-09-11T08:10:31.000Z</time>
      </trkpt>
      <trkpt lat="46.48544" lon="3.99761">
        <ele>237.368975</ele>
        <time>2021-09-11T08:10:37.000Z</time>
      </trkpt>
      <trkpt lat="46.48547" lon="3.99775">
        <ele>237.398335</ele>
        <time>2021-09-11T08:10:39.000Z</time>
      </trkpt>
      <trkpt lat="46.48553" lon="3.99802">
        <ele>237.454402</ele>
        <time>2021-09-11T08:10:43.000Z</time>
      </trkpt>
      <trkpt lat="46.48556" lon="3.99815">
        <ele>237.482766</ele>
        <time>2021-09-11T08:10:46.000Z</time>
      </trkpt>
      <trkpt lat="46.48563" lon="3.99836">
        <ele>237.527391</ele>
        <time>2021-09-11T08:10:50.000Z</time>
      </trkpt>
      <trkpt lat="46.4857" lon="3.99854">
        <ele>237.569494</ele>
        <time>2021-09-11T08:10:54.000Z</time>
      </trkpt>
      <trkpt lat="46.48573" lon="3.9986">
        <ele>237.582963</ele>
        <time>2021-09-11T08:10:55.000Z</time>
      </trkpt>
      <trkpt lat="46.4858" lon="3.99871">
        <ele>237.613974</ele>
        <time>2021-09-11T08:10:57.000Z</time>
      </trkpt>
      <trkpt lat="46.48585" lon="3.99879">
        <ele>237.634326</ele>
        <time>2021-09-11T08:10:58.000Z</time>
      </trkpt>
      <trkpt lat="46.486" lon="3.99907">
        <ele>237.702795</ele>
        <time>2021-09-11T08:11:02.000Z</time>
      </trkpt>
      <trkpt lat="46.48625" lon="3.99957">
        <ele>237.819948</ele>
        <time>2021-09-11T08:11:09.000Z</time>
      </trkpt>
      <trkpt lat="46.48657" lon="4.00028">
        <ele>237.982693</ele>
        <time>2021-09-11T08:11:18.000Z</time>
      </trkpt>
      <trkpt lat="46.48687" lon="4.00094">
        <ele>238.070839</ele>
        <time>2021-09-11T08:11:26.000Z</time>
      </trkpt>
      <trkpt lat="46.48711" lon="4.00144">
        <ele>238.006099</ele>
        <time>2021-09-11T08:11:33.000Z</time>
      </trkpt>
      <trkpt lat="46.48735" lon="4.00197">
        <ele>237.938994</ele>
        <time>2021-09-11T08:11:40.000Z</time>
      </trkpt>
      <trkpt lat="46.48758" lon="4.00248">
        <ele>237.873721</ele>
        <time>2021-09-11T08:11:47.000Z</time>
      </trkpt>
      <trkpt lat="46.48775" lon="4.00286">
        <ele>237.825861</ele>
        <time>2021-09-11T08:11:52.000Z</time>
      </trkpt>
      <trkpt lat="46.48796" lon="4.00332">
        <ele>237.841485</ele>
        <time>2021-09-11T08:11:58.000Z</time>
      </trkpt>
      <trkpt lat="46.48802" lon="4.00347">
        <ele>237.851632</ele>
        <time>2021-09-11T08:12:00.000Z</time>
      </trkpt>
      <trkpt lat="46.4881" lon="4.00373">
        <ele>237.867192</ele>
        <time>2021-09-11T08:12:03.000Z</time>
      </trkpt>
      <trkpt lat="46.48822" lon="4.00425">
        <ele>237.898333</ele>
        <time>2021-09-11T08:12:09.000Z</time>
      </trkpt>
      <trkpt lat="46.48829" lon="4.0049">
        <ele>237.935091</ele>
        <time>2021-09-11T08:12:16.000Z</time>
      </trkpt>
      <trkpt lat="46.48828" lon="4.00555">
        <ele>237.957986</ele>
        <time>2021-09-11T08:12:23.000Z</time>
      </trkpt>
      <trkpt lat="46.48817" lon="4.00624">
        <ele>237.938864</ele>
        <time>2021-09-11T08:12:31.000Z</time>
      </trkpt>
      <trkpt lat="46.4881" lon="4.00649">
        <ele>237.931581</ele>
        <time>2021-09-11T08:12:34.000Z</time>
      </trkpt>
      <trkpt lat="46.48806" lon="4.00659">
        <ele>237.928477</ele>
        <time>2021-09-11T08:12:36.000Z</time>
      </trkpt>
      <trkpt lat="46.48805" lon="4.00672">
        <ele>237.924991</ele>
        <time>2021-09-11T08:12:37.000Z</time>
      </trkpt>
      <trkpt lat="46.48805" lon="4.00679">
        <ele>237.923001</ele>
        <time>2021-09-11T08:12:38.000Z</time>
      </trkpt>
      <trkpt lat="46.48804" lon="4.00697">
        <ele>237.918077</ele>
        <time>2021-09-11T08:12:40.000Z</time>
      </trkpt>
      <trkpt lat="46.48802" lon="4.00715">
        <ele>237.913166</ele>
        <time>2021-09-11T08:12:42.000Z</time>
      </trkpt>
      <trkpt lat="46.48792" lon="4.00778">
        <ele>237.895992</ele>
        <time>2021-09-11T08:12:49.000Z</time>
      </trkpt>
      <trkpt lat="46.4878" lon="4.0086">
        <ele>237.946573</ele>
        <time>2021-09-11T08:12:58.000Z</time>
      </trkpt>
      <trkpt lat="46.48778" lon="4.00869">
        <ele>237.953832</ele>
        <time>2021-09-11T08:12:59.000Z</time>
      </trkpt>
      <trkpt lat="46.48774" lon="4.00896">
        <ele>237.975866</ele>
        <time>2021-09-11T08:13:02.000Z</time>
      </trkpt>
      <trkpt lat="46.48766" lon="4.00951">
        <ele>238.020018</ele>
        <time>2021-09-11T08:13:08.000Z</time>
      </trkpt>
      <trkpt lat="46.48765" lon="4.0096">
        <ele>238.027122</ele>
        <time>2021-09-11T08:13:09.000Z</time>
      </trkpt>
      <trkpt lat="46.48766" lon="4.01016">
        <ele>238.071352</ele>
        <time>2021-09-11T08:13:15.000Z</time>
      </trkpt>
      <trkpt lat="46.48777" lon="4.01078">
        <ele>237.839099</ele>
        <time>2021-09-11T08:13:22.000Z</time>
      </trkpt>
      <trkpt lat="46.48791" lon="4.01137">
        <ele>237.31813</ele>
        <time>2021-09-11T08:13:29.000Z</time>
      </trkpt>
      <trkpt lat="46.48805" lon="4.01195">
        <ele>236.801536</ele>
        <time>2021-09-11T08:13:36.000Z</time>
      </trkpt>
      <trkpt lat="46.48815" lon="4.01236">
        <ele>236.432088</ele>
        <time>2021-09-11T08:13:41.000Z</time>
      </trkpt>
      <trkpt lat="46.48817" lon="4.01245">
        <ele>236.358118</ele>
        <time>2021-09-11T08:13:42.000Z</time>
      </trkpt>
      <trkpt lat="46.4882" lon="4.01272">
        <ele>236.126406</ele>
        <time>2021-09-11T08:13:45.000Z</time>
      </trkpt>
      <trkpt lat="46.48822" lon="4.01308">
        <ele>235.878087</ele>
        <time>2021-09-11T08:13:49.000Z</time>
      </trkpt>
      <trkpt lat="46.48823" lon="4.01316">
        <ele>235.858314</ele>
        <time>2021-09-11T08:13:50.000Z</time>
      </trkpt>
      <trkpt lat="46.48821" lon="4.0136">
        <ele>235.755689</ele>
        <time>2021-09-11T08:13:55.000Z</time>
      </trkpt>
      <trkpt lat="46.4882" lon="4.01379">
        <ele>235.713212</ele>
        <time>2021-09-11T08:13:57.000Z</time>
      </trkpt>
      <trkpt lat="46.48814" lon="4.01415">
        <ele>235.627026</ele>
        <time>2021-09-11T08:14:01.000Z</time>
      </trkpt>
      <trkpt lat="46.4881" lon="4.01432">
        <ele>235.584147</ele>
        <time>2021-09-11T08:14:03.000Z</time>
      </trkpt>
      <trkpt lat="46.48802" lon="4.01457">
        <ele>235.520319</ele>
        <time>2021-09-11T08:14:06.000Z</time>
      </trkpt>
      <trkpt lat="46.48797" lon="4.01474">
        <ele>235.478551</ele>
        <time>2021-09-11T08:14:08.000Z</time>
      </trkpt>
      <trkpt lat="46.48783" lon="4.01513">
        <ele>235.374124</ele>
        <time>2021-09-11T08:14:13.000Z</time>
      </trkpt>
      <trkpt lat="46.4877" lon="4.01552">
        <ele>235.31803</ele>
        <time>2021-09-11T08:14:18.000Z</time>
      </trkpt>
      <trkpt lat="46.48767" lon="4.0156">
        <ele>235.343243</ele>
        <time>2021-09-11T08:14:19.000Z</time>
      </trkpt>
      <trkpt lat="46.48766" lon="4.01577">
        <ele>235.394071</ele>
        <time>2021-09-11T08:14:21.000Z</time>
      </trkpt>
      <trkpt lat="46.4877" lon="4.01584">
        <ele>235.419009</ele>
        <time>2021-09-11T08:14:22.000Z</time>
      </trkpt>
      <trkpt lat="46.48774" lon="4.01595">
        <ele>235.45539</ele>
        <time>2021-09-11T08:14:24.000Z</time>
      </trkpt>
      <trkpt lat="46.48773" lon="4.01598">
        <ele>235.466469</ele>
        <time>2021-09-11T08:14:25.000Z</time>
      </trkpt>
      <trkpt lat="46.4877" lon="4.0161">
        <ele>235.503916</ele>
        <time>2021-09-11T08:14:28.000Z</time>
      </trkpt>
      <trkpt lat="46.48766" lon="4.01612">
        <ele>235.519027</ele>
        <time>2021-09-11T08:14:29.000Z</time>
      </trkpt>
      <trkpt lat="46.48762" lon="4.01613">
        <ele>235.537249</ele>
        <time>2021-09-11T08:14:30.000Z</time>
      </trkpt>
      <trkpt lat="46.48753" lon="4.01615">
        <ele>235.575329</ele>
        <time>2021-09-11T08:14:32.000Z</time>
      </trkpt>
      <trkpt lat="46.48749" lon="4.01618">
        <ele>235.598049</ele>
        <time>2021-09-11T08:14:33.000Z</time>
      </trkpt>
      <trkpt lat="46.48745" lon="4.01624">
        <ele>235.62226</ele>
        <time>2021-09-11T08:14:34.000Z</time>
      </trkpt>
      <trkpt lat="46.48739" lon="4.01637">
        <ele>235.669668</ele>
        <time>2021-09-11T08:14:36.000Z</time>
      </trkpt>
      <trkpt lat="46.48725" lon="4.01689">
        <ele>235.833985</ele>
        <time>2021-09-11T08:14:43.000Z</time>
      </trkpt>
      <trkpt lat="46.48717" lon="4.01754">
        <ele>236.028246</ele>
        <time>2021-09-11T08:14:51.000Z</time>
      </trkpt>
      <trkpt lat="46.48711" lon="4.01829">
        <ele>236.359905</ele>
        <time>2021-09-11T08:15:00.000Z</time>
      </trkpt>
      <trkpt lat="46.48709" lon="4.01853">
        <ele>236.476645</ele>
        <time>2021-09-11T08:15:03.000Z</time>
      </trkpt>
      <trkpt lat="46.48707" lon="4.0187">
        <ele>236.555093</ele>
        <time>2021-09-11T08:15:05.000Z</time>
      </trkpt>
      <trkpt lat="46.48706" lon="4.01886">
        <ele>236.633075</ele>
        <time>2021-09-11T08:15:07.000Z</time>
      </trkpt>
      <trkpt lat="46.48704" lon="4.01911">
        <ele>236.747953</ele>
        <time>2021-09-11T08:15:10.000Z</time>
      </trkpt>
      <trkpt lat="46.487" lon="4.01961">
        <ele>236.987103</ele>
        <time>2021-09-11T08:15:16.000Z</time>
      </trkpt>
      <trkpt lat="46.487" lon="4.0197">
        <ele>237.028583</ele>
        <time>2021-09-11T08:15:17.000Z</time>
      </trkpt>
      <trkpt lat="46.48699" lon="4.01979">
        <ele>237.06913</ele>
        <time>2021-09-11T08:15:18.000Z</time>
      </trkpt>
      <trkpt lat="46.48698" lon="4.02014">
        <ele>237.233543</ele>
        <time>2021-09-11T08:15:22.000Z</time>
      </trkpt>
      <trkpt lat="46.48699" lon="4.02057">
        <ele>237.231915</ele>
        <time>2021-09-11T08:15:27.000Z</time>
      </trkpt>
      <trkpt lat="46.48701" lon="4.02065">
        <ele>237.215837</ele>
        <time>2021-09-11T08:15:28.000Z</time>
      </trkpt>
      <trkpt lat="46.48712" lon="4.02116">
        <ele>237.112862</ele>
        <time>2021-09-11T08:15:34.000Z</time>
      </trkpt>
      <trkpt lat="46.48728" lon="4.02174">
        <ele>236.989927</ele>
        <time>2021-09-11T08:15:41.000Z</time>
      </trkpt>
      <trkpt lat="46.48744" lon="4.02232">
        <ele>236.870292</ele>
        <time>2021-09-11T08:15:48.000Z</time>
      </trkpt>
      <trkpt lat="46.48752" lon="4.02271">
        <ele>236.791337</ele>
        <time>2021-09-11T08:15:53.000Z</time>
      </trkpt>
      <trkpt lat="46.48752" lon="4.02278">
        <ele>236.730829</ele>
        <time>2021-09-11T08:15:54.000Z</time>
      </trkpt>
      <trkpt lat="46.48755" lon="4.02312">
        <ele>236.326616</ele>
        <time>2021-09-11T08:15:58.000Z</time>
      </trkpt>
      <trkpt lat="46.48756" lon="4.0232">
        <ele>236.222063</ele>
        <time>2021-09-11T08:15:59.000Z</time>
      </trkpt>
      <trkpt lat="46.48757" lon="4.02337">
        <ele>236.012802</ele>
        <time>2021-09-11T08:16:01.000Z</time>
      </trkpt>
      <trkpt lat="46.48759" lon="4.02373">
        <ele>235.58101</ele>
        <time>2021-09-11T08:16:05.000Z</time>
      </trkpt>
      <trkpt lat="46.4876" lon="4.02389">
        <ele>235.389835</ele>
        <time>2021-09-11T08:16:07.000Z</time>
      </trkpt>
      <trkpt lat="46.48763" lon="4.02415">
        <ele>235.063168</ele>
        <time>2021-09-11T08:16:10.000Z</time>
      </trkpt>
      <trkpt lat="46.48765" lon="4.02432">
        <ele>234.851553</ele>
        <time>2021-09-11T08:16:12.000Z</time>
      </trkpt>
      <trkpt lat="46.48769" lon="4.02457">
        <ele>234.538961</ele>
        <time>2021-09-11T08:16:15.000Z</time>
      </trkpt>
      <trkpt lat="46.48772" lon="4.02474">
        <ele>234.333841</ele>
        <time>2021-09-11T08:16:17.000Z</time>
      </trkpt>
      <trkpt lat="46.48775" lon="4.02489">
        <ele>234.140888</ele>
        <time>2021-09-11T08:16:19.000Z</time>
      </trkpt>
      <trkpt lat="46.48777" lon="4.02501">
        <ele>233.995588</ele>
        <time>2021-09-11T08:16:21.000Z</time>
      </trkpt>
      <trkpt lat="46.48779" lon="4.02509">
        <ele>233.895593</ele>
        <time>2021-09-11T08:16:22.000Z</time>
      </trkpt>
      <trkpt lat="46.4879" lon="4.02589">
        <ele>233.398039</ele>
        <time>2021-09-11T08:16:30.000Z</time>
      </trkpt>
      <trkpt lat="46.48797" lon="4.02662">
        <ele>233.119186</ele>
        <time>2021-09-11T08:16:38.000Z</time>
      </trkpt>
      <trkpt lat="46.48799" lon="4.02679">
        <ele>233.057994</ele>
        <time>2021-09-11T08:16:40.000Z</time>
      </trkpt>
      <trkpt lat="46.48801" lon="4.02695">
        <ele>232.995316</ele>
        <time>2021-09-11T08:16:42.000Z</time>
      </trkpt>
      <trkpt lat="46.48807" lon="4.02758">
        <ele>232.755911</ele>
        <time>2021-09-11T08:16:49.000Z</time>
      </trkpt>
      <trkpt lat="46.48811" lon="4.02793">
        <ele>232.638237</ele>
        <time>2021-09-11T08:16:53.000Z</time>
      </trkpt>
      <trkpt lat="46.48812" lon="4.02801">
        <ele>232.637118</ele>
        <time>2021-09-11T08:16:54.000Z</time>
      </trkpt>
      <trkpt lat="46.48813" lon="4.02818">
        <ele>232.634903</ele>
        <time>2021-09-11T08:16:56.000Z</time>
      </trkpt>
      <trkpt lat="46.48814" lon="4.02826">
        <ele>232.63382</ele>
        <time>2021-09-11T08:16:57.000Z</time>
      </trkpt>
      <trkpt lat="46.48814" lon="4.02845">
        <ele>232.631294</ele>
        <time>2021-09-11T08:16:59.000Z</time>
      </trkpt>
      <trkpt lat="46.48814" lon="4.02863">
        <ele>232.628912</ele>
        <time>2021-09-11T08:17:01.000Z</time>
      </trkpt>
      <trkpt lat="46.48814" lon="4.02872">
        <ele>232.627753</ele>
        <time>2021-09-11T08:17:02.000Z</time>
      </trkpt>
      <trkpt lat="46.4881" lon="4.02918">
        <ele>232.621722</ele>
        <time>2021-09-11T08:17:07.000Z</time>
      </trkpt>
      <trkpt lat="46.48809" lon="4.02926">
        <ele>232.620577</ele>
        <time>2021-09-11T08:17:08.000Z</time>
      </trkpt>
      <trkpt lat="46.48804" lon="4.02971">
        <ele>232.614606</ele>
        <time>2021-09-11T08:17:13.000Z</time>
      </trkpt>
      <trkpt lat="46.48803" lon="4.0298">
        <ele>232.613455</ele>
        <time>2021-09-11T08:17:14.000Z</time>
      </trkpt>
      <trkpt lat="46.48787" lon="4.03039">
        <ele>232.60512</ele>
        <time>2021-09-11T08:17:21.000Z</time>
      </trkpt>
      <trkpt lat="46.48763" lon="4.03082">
        <ele>233.009846</ele>
        <time>2021-09-11T08:17:27.000Z</time>
      </trkpt>
      <trkpt lat="46.48759" lon="4.03089">
        <ele>233.086444</ele>
        <time>2021-09-11T08:17:28.000Z</time>
      </trkpt>
      <trkpt lat="46.48737" lon="4.03131">
        <ele>233.527419</ele>
        <time>2021-09-11T08:17:34.000Z</time>
      </trkpt>
      <trkpt lat="46.48719" lon="4.03188">
        <ele>234.036825</ele>
        <time>2021-09-11T08:17:41.000Z</time>
      </trkpt>
      <trkpt lat="46.48717" lon="4.03196">
        <ele>234.109174</ele>
        <time>2021-09-11T08:17:42.000Z</time>
      </trkpt>
      <trkpt lat="46.48712" lon="4.03222">
        <ele>234.327652</ele>
        <time>2021-09-11T08:17:45.000Z</time>
      </trkpt>
      <trkpt lat="46.48711" lon="4.0323">
        <ele>234.400491</ele>
        <time>2021-09-11T08:17:46.000Z</time>
      </trkpt>
      <trkpt lat="46.48703" lon="4.03282">
        <ele>234.806197</ele>
        <time>2021-09-11T08:17:52.000Z</time>
      </trkpt>
      <trkpt lat="46.48693" lon="4.0335">
        <ele>235.198073</ele>
        <time>2021-09-11T08:18:00.000Z</time>
      </trkpt>
      <trkpt lat="46.4869" lon="4.03384">
        <ele>235.393043</ele>
        <time>2021-09-11T08:18:04.000Z</time>
      </trkpt>
      <trkpt lat="46.48679" lon="4.03405">
        <ele>235.544892</ele>
        <time>2021-09-11T08:18:07.000Z</time>
      </trkpt>
      <trkpt lat="46.48679" lon="4.03411">
        <ele>235.576361</ele>
        <time>2021-09-11T08:18:08.000Z</time>
      </trkpt>
      <trkpt lat="46.4868" lon="4.03419">
        <ele>235.621</ele>
        <time>2021-09-11T08:18:09.000Z</time>
      </trkpt>
      <trkpt lat="46.4868" lon="4.03428">
        <ele>235.671637</ele>
        <time>2021-09-11T08:18:10.000Z</time>
      </trkpt>
      <trkpt lat="46.48683" lon="4.03471">
        <ele>235.914857</ele>
        <time>2021-09-11T08:18:15.000Z</time>
      </trkpt>
      <trkpt lat="46.48682" lon="4.0353">
        <ele>236.235282</ele>
        <time>2021-09-11T08:18:22.000Z</time>
      </trkpt>
      <trkpt lat="46.48691" lon="4.03599">
        <ele>236.458223</ele>
        <time>2021-09-11T08:18:30.000Z</time>
      </trkpt>
      <trkpt lat="46.48702" lon="4.03678">
        <ele>236.71228</ele>
        <time>2021-09-11T08:18:39.000Z</time>
      </trkpt>
      <trkpt lat="46.48704" lon="4.03723">
        <ele>236.856293</ele>
        <time>2021-09-11T08:18:44.000Z</time>
      </trkpt>
      <trkpt lat="46.48698" lon="4.03778">
        <ele>237.031998</ele>
        <time>2021-09-11T08:18:50.000Z</time>
      </trkpt>
      <trkpt lat="46.4869" lon="4.03833">
        <ele>237.203479</ele>
        <time>2021-09-11T08:18:56.000Z</time>
      </trkpt>
      <trkpt lat="46.4868" lon="4.03888">
        <ele>237.373182</ele>
        <time>2021-09-11T08:19:02.000Z</time>
      </trkpt>
      <trkpt lat="46.48666" lon="4.0397">
        <ele>237.626498</ele>
        <time>2021-09-11T08:19:11.000Z</time>
      </trkpt>
      <trkpt lat="46.48659" lon="4.04053">
        <ele>237.873116</ele>
        <time>2021-09-11T08:19:20.000Z</time>
      </trkpt>
      <trkpt lat="46.48653" lon="4.04128">
        <ele>238.075757</ele>
        <time>2021-09-11T08:19:28.000Z</time>
      </trkpt>
      <trkpt lat="46.48647" lon="4.042">
        <ele>238.270468</ele>
        <time>2021-09-11T08:19:36.000Z</time>
      </trkpt>
      <trkpt lat="46.4864" lon="4.04271">
        <ele>238.462254</ele>
        <time>2021-09-11T08:19:44.000Z</time>
      </trkpt>
      <trkpt lat="46.48635" lon="4.04322">
        <ele>238.579052</ele>
        <time>2021-09-11T08:19:50.000Z</time>
      </trkpt>
      <trkpt lat="46.48635" lon="4.04331">
        <ele>238.59448</ele>
        <time>2021-09-11T08:19:51.000Z</time>
      </trkpt>
      <trkpt lat="46.48628" lon="4.044">
        <ele>238.718577</ele>
        <time>2021-09-11T08:19:59.000Z</time>
      </trkpt>
      <trkpt lat="46.48621" lon="4.04484">
        <ele>238.869585</ele>
        <time>2021-09-11T08:20:09.000Z</time>
      </trkpt>
      <trkpt lat="46.48613" lon="4.04563">
        <ele>239.005145</ele>
        <time>2021-09-11T08:20:18.000Z</time>
      </trkpt>
      <trkpt lat="46.48613" lon="4.04571">
        <ele>239.014069</ele>
        <time>2021-09-11T08:20:19.000Z</time>
      </trkpt>
      <trkpt lat="46.48605" lon="4.0465">
        <ele>239.094366</ele>
        <time>2021-09-11T08:20:28.000Z</time>
      </trkpt>
      <trkpt lat="46.48599" lon="4.04718">
        <ele>239.164832</ele>
        <time>2021-09-11T08:20:36.000Z</time>
      </trkpt>
      <trkpt lat="46.48589" lon="4.04797">
        <ele>239.2457</ele>
        <time>2021-09-11T08:20:45.000Z</time>
      </trkpt>
      <trkpt lat="46.48573" lon="4.04834">
        <ele>239.282508</ele>
        <time>2021-09-11T08:20:50.000Z</time>
      </trkpt>
      <trkpt lat="46.48551" lon="4.04861">
        <ele>239.31318</ele>
        <time>2021-09-11T08:20:55.000Z</time>
      </trkpt>
      <trkpt lat="46.48514" lon="4.04896">
        <ele>239.359101</ele>
        <time>2021-09-11T08:21:02.000Z</time>
      </trkpt>
      <trkpt lat="46.48486" lon="4.04934">
        <ele>239.398996</ele>
        <time>2021-09-11T08:21:08.000Z</time>
      </trkpt>
      <trkpt lat="46.48461" lon="4.04987">
        <ele>239.445611</ele>
        <time>2021-09-11T08:21:15.000Z</time>
      </trkpt>
      <trkpt lat="46.48459" lon="4.04996">
        <ele>239.452269</ele>
        <time>2021-09-11T08:21:16.000Z</time>
      </trkpt>
      <trkpt lat="46.48452" lon="4.0503">
        <ele>239.484705</ele>
        <time>2021-09-11T08:21:20.000Z</time>
      </trkpt>
      <trkpt lat="46.4844" lon="4.0508">
        <ele>239.532777</ele>
        <time>2021-09-11T08:21:26.000Z</time>
      </trkpt>
      <trkpt lat="46.48416" lon="4.0512">
        <ele>239.581097</ele>
        <time>2021-09-11T08:21:32.000Z</time>
      </trkpt>
      <trkpt lat="46.4838" lon="4.05159">
        <ele>239.639828</ele>
        <time>2021-09-11T08:21:39.000Z</time>
      </trkpt>
      <trkpt lat="46.48375" lon="4.05164">
        <ele>239.648279</ele>
        <time>2021-09-11T08:21:40.000Z</time>
      </trkpt>
      <trkpt lat="46.48354" lon="4.05186">
        <ele>239.681285</ele>
        <time>2021-09-11T08:21:44.000Z</time>
      </trkpt>
      <trkpt lat="46.48339" lon="4.05201">
        <ele>239.710574</ele>
        <time>2021-09-11T08:21:47.000Z</time>
      </trkpt>
      <trkpt lat="46.4833" lon="4.05212">
        <ele>239.731684</ele>
        <time>2021-09-11T08:21:49.000Z</time>
      </trkpt>
      <trkpt lat="46.48299" lon="4.05244">
        <ele>239.796193</ele>
        <time>2021-09-11T08:21:55.000Z</time>
      </trkpt>
      <trkpt lat="46.48262" lon="4.05273">
        <ele>239.869208</ele>
        <time>2021-09-11T08:22:02.000Z</time>
      </trkpt>
      <trkpt lat="46.48238" lon="4.05285">
        <ele>239.911437</ele>
        <time>2021-09-11T08:22:08.000Z</time>
      </trkpt>
      <trkpt lat="46.48222" lon="4.05295">
        <ele>239.942875</ele>
        <time>2021-09-11T08:22:09.000Z</time>
      </trkpt>
      <trkpt lat="46.48216" lon="4.053">
        <ele>239.953828</ele>
        <time>2021-09-11T08:22:10.000Z</time>
      </trkpt>
      <trkpt lat="46.48202" lon="4.05319">
        <ele>239.986958</ele>
        <time>2021-09-11T08:22:13.000Z</time>
      </trkpt>
      <trkpt lat="46.48186" lon="4.05359">
        <ele>240.038199</ele>
        <time>2021-09-11T08:22:18.000Z</time>
      </trkpt>
      <trkpt lat="46.4817" lon="4.05407">
        <ele>240.096878</ele>
        <time>2021-09-11T08:22:24.000Z</time>
      </trkpt>
      <trkpt lat="46.48156" lon="4.05448">
        <ele>240.146339</ele>
        <time>2021-09-11T08:22:29.000Z</time>
      </trkpt>
      <trkpt lat="46.4815" lon="4.05463">
        <ele>240.165691</ele>
        <time>2021-09-11T08:22:31.000Z</time>
      </trkpt>
      <trkpt lat="46.48136" lon="4.05491">
        <ele>240.203832</ele>
        <time>2021-09-11T08:22:35.000Z</time>
      </trkpt>
      <trkpt lat="46.48128" lon="4.05505">
        <ele>240.223238</ele>
        <time>2021-09-11T08:22:37.000Z</time>
      </trkpt>
      <trkpt lat="46.48117" lon="4.05526">
        <ele>240.252251</ele>
        <time>2021-09-11T08:22:40.000Z</time>
      </trkpt>
      <trkpt lat="46.48109" lon="4.0554">
        <ele>240.271894</ele>
        <time>2021-09-11T08:22:42.000Z</time>
      </trkpt>
      <trkpt lat="46.48094" lon="4.05567">
        <ele>240.322249</ele>
        <time>2021-09-11T08:22:46.000Z</time>
      </trkpt>
      <trkpt lat="46.48066" lon="4.05615">
        <ele>240.421438</ele>
        <time>2021-09-11T08:22:53.000Z</time>
      </trkpt>
      <trkpt lat="46.48042" lon="4.05657">
        <ele>240.508176</ele>
        <time>2021-09-11T08:22:59.000Z</time>
      </trkpt>
      <trkpt lat="46.48038" lon="4.05664">
        <ele>240.522731</ele>
        <time>2021-09-11T08:23:00.000Z</time>
      </trkpt>
      <trkpt lat="46.48022" lon="4.05692">
        <ele>240.581388</ele>
        <time>2021-09-11T08:23:04.000Z</time>
      </trkpt>
      <trkpt lat="46.48006" lon="4.0572">
        <ele>240.637942</ele>
        <time>2021-09-11T08:23:08.000Z</time>
      </trkpt>
      <trkpt lat="46.48002" lon="4.05726">
        <ele>240.652357</ele>
        <time>2021-09-11T08:23:09.000Z</time>
      </trkpt>
      <trkpt lat="46.47969" lon="4.0577">
        <ele>240.714219</ele>
        <time>2021-09-11T08:23:16.000Z</time>
      </trkpt>
      <trkpt lat="46.47932" lon="4.0582">
        <ele>240.749457</ele>
        <time>2021-09-11T08:23:24.000Z</time>
      </trkpt>
      <trkpt lat="46.47909" lon="4.05863">
        <ele>240.775833</ele>
        <time>2021-09-11T08:23:30.000Z</time>
      </trkpt>
      <trkpt lat="46.47907" lon="4.05872">
        <ele>240.78013</ele>
        <time>2021-09-11T08:23:31.000Z</time>
      </trkpt>
      <trkpt lat="46.47902" lon="4.05897">
        <ele>240.792785</ele>
        <time>2021-09-11T08:23:34.000Z</time>
      </trkpt>
      <trkpt lat="46.47901" lon="4.05914">
        <ele>240.800952</ele>
        <time>2021-09-11T08:23:36.000Z</time>
      </trkpt>
      <trkpt lat="46.47901" lon="4.05933">
        <ele>240.809662</ele>
        <time>2021-09-11T08:23:38.000Z</time>
      </trkpt>
      <trkpt lat="46.47901" lon="4.0596">
        <ele>240.82265</ele>
        <time>2021-09-11T08:23:41.000Z</time>
      </trkpt>
      <trkpt lat="46.47907" lon="4.06031">
        <ele>240.862203</ele>
        <time>2021-09-11T08:23:49.000Z</time>
      </trkpt>
      <trkpt lat="46.47915" lon="4.06111">
        <ele>240.906694</ele>
        <time>2021-09-11T08:23:58.000Z</time>
      </trkpt>
      <trkpt lat="46.47918" lon="4.06145">
        <ele>240.925543</ele>
        <time>2021-09-11T08:24:02.000Z</time>
      </trkpt>
      <trkpt lat="46.4792" lon="4.0616">
        <ele>240.934004</ele>
        <time>2021-09-11T08:24:04.000Z</time>
      </trkpt>
      <trkpt lat="46.47921" lon="4.06167">
        <ele>240.937841</ele>
        <time>2021-09-11T08:24:05.000Z</time>
      </trkpt>
      <trkpt lat="46.47923" lon="4.06187">
        <ele>240.948907</ele>
        <time>2021-09-11T08:24:08.000Z</time>
      </trkpt>
      <trkpt lat="46.4793" lon="4.06241">
        <ele>241.004488</ele>
        <time>2021-09-11T08:24:16.000Z</time>
      </trkpt>
      <trkpt lat="46.47939" lon="4.063">
        <ele>241.100975</ele>
        <time>2021-09-11T08:24:24.000Z</time>
      </trkpt>
      <trkpt lat="46.47947" lon="4.06345">
        <ele>241.174956</ele>
        <time>2021-09-11T08:24:30.000Z</time>
      </trkpt>
      <trkpt lat="46.47953" lon="4.06394">
        <ele>241.252503</ele>
        <time>2021-09-11T08:24:36.000Z</time>
      </trkpt>
      <trkpt lat="46.47951" lon="4.06418">
        <ele>241.29103</ele>
        <time>2021-09-11T08:24:39.000Z</time>
      </trkpt>
      <trkpt lat="46.47949" lon="4.06433">
        <ele>241.315398</ele>
        <time>2021-09-11T08:24:41.000Z</time>
      </trkpt>
      <trkpt lat="46.47939" lon="4.06486">
        <ele>241.455056</ele>
        <time>2021-09-11T08:24:48.000Z</time>
      </trkpt>
      <trkpt lat="46.47937" lon="4.06494">
        <ele>241.49595</ele>
        <time>2021-09-11T08:24:49.000Z</time>
      </trkpt>
      <trkpt lat="46.47921" lon="4.06536">
        <ele>241.740038</ele>
        <time>2021-09-11T08:24:55.000Z</time>
      </trkpt>
      <trkpt lat="46.4791" lon="4.06559">
        <ele>241.8837</ele>
        <time>2021-09-11T08:24:59.000Z</time>
      </trkpt>
      <trkpt lat="46.47907" lon="4.06565">
        <ele>241.919301</ele>
        <time>2021-09-11T08:25:00.000Z</time>
      </trkpt>
      <trkpt lat="46.47904" lon="4.0657">
        <ele>241.955554</ele>
        <time>2021-09-11T08:25:01.000Z</time>
      </trkpt>
      <trkpt lat="46.47894" lon="4.06583">
        <ele>242.052639</ele>
        <time>2021-09-11T08:25:04.000Z</time>
      </trkpt>
      <trkpt lat="46.47891" lon="4.06588">
        <ele>242.087839</ele>
        <time>2021-09-11T08:25:05.000Z</time>
      </trkpt>
      <trkpt lat="46.47883" lon="4.06597">
        <ele>242.160773</ele>
        <time>2021-09-11T08:25:07.000Z</time>
      </trkpt>
      <trkpt lat="46.4787" lon="4.06611">
        <ele>242.282374</ele>
        <time>2021-09-11T08:25:10.000Z</time>
      </trkpt>
      <trkpt lat="46.4784" lon="4.06633">
        <ele>242.531627</ele>
        <time>2021-09-11T08:25:16.000Z</time>
      </trkpt>
      <trkpt lat="46.47834" lon="4.06635">
        <ele>242.577448</ele>
        <time>2021-09-11T08:25:17.000Z</time>
      </trkpt>
      <trkpt lat="46.4781" lon="4.06642">
        <ele>242.720464</ele>
        <time>2021-09-11T08:25:21.000Z</time>
      </trkpt>
      <trkpt lat="46.47762" lon="4.06649">
        <ele>242.824795</ele>
        <time>2021-09-11T08:25:29.000Z</time>
      </trkpt>
      <trkpt lat="46.4772" lon="4.06655">
        <ele>242.917208</ele>
        <time>2021-09-11T08:25:36.000Z</time>
      </trkpt>
      <trkpt lat="46.47673" lon="4.06667">
        <ele>243.019867</ele>
        <time>2021-09-11T08:25:44.000Z</time>
      </trkpt>
      <trkpt lat="46.47634" lon="4.06692">
        <ele>243.116019</ele>
        <time>2021-09-11T08:25:51.000Z</time>
      </trkpt>
      <trkpt lat="46.47587" lon="4.06731">
        <ele>243.268955</ele>
        <time>2021-09-11T08:26:00.000Z</time>
      </trkpt>
      <trkpt lat="46.47582" lon="4.06736">
        <ele>243.285698</ele>
        <time>2021-09-11T08:26:01.000Z</time>
      </trkpt>
      <trkpt lat="46.47547" lon="4.06766">
        <ele>243.400025</ele>
        <time>2021-09-11T08:26:08.000Z</time>
      </trkpt>
      <trkpt lat="46.47507" lon="4.06801">
        <ele>243.532705</ele>
        <time>2021-09-11T08:26:16.000Z</time>
      </trkpt>
      <trkpt lat="46.47502" lon="4.06805">
        <ele>243.548765</ele>
        <time>2021-09-11T08:26:17.000Z</time>
      </trkpt>
      <trkpt lat="46.47481" lon="4.06823">
        <ele>243.672141</ele>
        <time>2021-09-11T08:26:21.000Z</time>
      </trkpt>
      <trkpt lat="46.47451" lon="4.0685">
        <ele>244.173891</ele>
        <time>2021-09-11T08:26:27.000Z</time>
      </trkpt>
      <trkpt lat="46.47427" lon="4.06872">
        <ele>244.587504</ele>
        <time>2021-09-11T08:26:32.000Z</time>
      </trkpt>
      <trkpt lat="46.47422" lon="4.06877">
        <ele>244.669914</ele>
        <time>2021-09-11T08:26:33.000Z</time>
      </trkpt>
      <trkpt lat="46.47403" lon="4.06896">
        <ele>245.000394</ele>
        <time>2021-09-11T08:26:37.000Z</time>
      </trkpt>
      <trkpt lat="46.47394" lon="4.06907">
        <ele>245.171855</ele>
        <time>2021-09-11T08:26:39.000Z</time>
      </trkpt>
      <trkpt lat="46.47389" lon="4.06913">
        <ele>245.259318</ele>
        <time>2021-09-11T08:26:40.000Z</time>
      </trkpt>
      <trkpt lat="46.47376" lon="4.06934">
        <ele>245.535794</ele>
        <time>2021-09-11T08:26:43.000Z</time>
      </trkpt>
      <trkpt lat="46.47372" lon="4.06941">
        <ele>245.633331</ele>
        <time>2021-09-11T08:26:44.000Z</time>
      </trkpt>
      <trkpt lat="46.47352" lon="4.06988">
        <ele>246.171058</ele>
        <time>2021-09-11T08:26:50.000Z</time>
      </trkpt>
      <trkpt lat="46.47349" lon="4.06996">
        <ele>246.190741</ele>
        <time>2021-09-11T08:26:51.000Z</time>
      </trkpt>
      <trkpt lat="46.47341" lon="4.07018">
        <ele>246.237297</ele>
        <time>2021-09-11T08:26:54.000Z</time>
      </trkpt>
      <trkpt lat="46.47338" lon="4.07026">
        <ele>246.252774</ele>
        <time>2021-09-11T08:26:55.000Z</time>
      </trkpt>
      <trkpt lat="46.47335" lon="4.07033">
        <ele>246.268695</ele>
        <time>2021-09-11T08:26:56.000Z</time>
      </trkpt>
      <trkpt lat="46.47329" lon="4.07049">
        <ele>246.300983</ele>
        <time>2021-09-11T08:26:58.000Z</time>
      </trkpt>
      <trkpt lat="46.47327" lon="4.07056">
        <ele>246.315986</ele>
        <time>2021-09-11T08:26:59.000Z</time>
      </trkpt>
      <trkpt lat="46.47322" lon="4.07072">
        <ele>246.346652</ele>
        <time>2021-09-11T08:27:01.000Z</time>
      </trkpt>
      <trkpt lat="46.47317" lon="4.07088">
        <ele>246.378585</ele>
        <time>2021-09-11T08:27:03.000Z</time>
      </trkpt>
      <trkpt lat="46.4731" lon="4.07113">
        <ele>246.427681</ele>
        <time>2021-09-11T08:27:06.000Z</time>
      </trkpt>
      <trkpt lat="46.4729" lon="4.07186">
        <ele>246.569559</ele>
        <time>2021-09-11T08:27:15.000Z</time>
      </trkpt>
      <trkpt lat="46.47267" lon="4.07246">
        <ele>246.514172</ele>
        <time>2021-09-11T08:27:23.000Z</time>
      </trkpt>
      <trkpt lat="46.47242" lon="4.07306">
        <ele>246.139838</ele>
        <time>2021-09-11T08:27:31.000Z</time>
      </trkpt>
      <trkpt lat="46.47217" lon="4.07376">
        <ele>245.721071</ele>
        <time>2021-09-11T08:27:40.000Z</time>
      </trkpt>
      <trkpt lat="46.47193" lon="4.07453">
        <ele>245.272046</ele>
        <time>2021-09-11T08:27:50.000Z</time>
      </trkpt>
      <trkpt lat="46.47177" lon="4.07508">
        <ele>245.060107</ele>
        <time>2021-09-11T08:27:57.000Z</time>
      </trkpt>
      <trkpt lat="46.47175" lon="4.07516">
        <ele>245.030074</ele>
        <time>2021-09-11T08:27:58.000Z</time>
      </trkpt>
      <trkpt lat="46.47165" lon="4.07539">
        <ele>244.937536</ele>
        <time>2021-09-11T08:28:01.000Z</time>
      </trkpt>
      <trkpt lat="46.47162" lon="4.07546">
        <ele>244.905835</ele>
        <time>2021-09-11T08:28:02.000Z</time>
      </trkpt>
      <trkpt lat="46.47138" lon="4.076">
        <ele>244.687349</ele>
        <time>2021-09-11T08:28:09.000Z</time>
      </trkpt>
      <trkpt lat="46.4711" lon="4.07665">
        <ele>244.419725</ele>
        <time>2021-09-11T08:28:18.000Z</time>
      </trkpt>
      <trkpt lat="46.47094" lon="4.077">
        <ele>244.278738</ele>
        <time>2021-09-11T08:28:23.000Z</time>
      </trkpt>
      <trkpt lat="46.47085" lon="4.07711">
        <ele>244.226622</ele>
        <time>2021-09-11T08:28:25.000Z</time>
      </trkpt>
      <trkpt lat="46.47064" lon="4.0775">
        <ele>244.065756</ele>
        <time>2021-09-11T08:28:31.000Z</time>
      </trkpt>
      <trkpt lat="46.47058" lon="4.07773">
        <ele>243.990548</ele>
        <time>2021-09-11T08:28:34.000Z</time>
      </trkpt>
      <trkpt lat="46.4705" lon="4.07815">
        <ele>243.850271</ele>
        <time>2021-09-11T08:28:40.000Z</time>
      </trkpt>
      <trkpt lat="46.47043" lon="4.07861">
        <ele>243.699268</ele>
        <time>2021-09-11T08:28:46.000Z</time>
      </trkpt>
      <trkpt lat="46.47047" lon="4.07911">
        <ele>243.53698</ele>
        <time>2021-09-11T08:28:52.000Z</time>
      </trkpt>
      <trkpt lat="46.47059" lon="4.07976">
        <ele>243.326658</ele>
        <time>2021-09-11T08:29:00.000Z</time>
      </trkpt>
      <trkpt lat="46.47068" lon="4.08021">
        <ele>243.180278</ele>
        <time>2021-09-11T08:29:06.000Z</time>
      </trkpt>
      <trkpt lat="46.47072" lon="4.08062">
        <ele>243.051915</ele>
        <time>2021-09-11T08:29:11.000Z</time>
      </trkpt>
      <trkpt lat="46.47071" lon="4.0807">
        <ele>243.026328</ele>
        <time>2021-09-11T08:29:12.000Z</time>
      </trkpt>
      <trkpt lat="46.47067" lon="4.08102">
        <ele>242.925969</ele>
        <time>2021-09-11T08:29:16.000Z</time>
      </trkpt>
      <trkpt lat="46.47063" lon="4.08117">
        <ele>242.875475</ele>
        <time>2021-09-11T08:29:18.000Z</time>
      </trkpt>
      <trkpt lat="46.47061" lon="4.08124">
        <ele>242.850157</ele>
        <time>2021-09-11T08:29:19.000Z</time>
      </trkpt>
      <trkpt lat="46.4705" lon="4.08143">
        <ele>242.773942</ele>
        <time>2021-09-11T08:29:22.000Z</time>
      </trkpt>
      <trkpt lat="46.47046" lon="4.08149">
        <ele>242.747526</ele>
        <time>2021-09-11T08:29:23.000Z</time>
      </trkpt>
      <trkpt lat="46.4703" lon="4.08176">
        <ele>242.620687</ele>
        <time>2021-09-11T08:29:27.000Z</time>
      </trkpt>
      <trkpt lat="46.47024" lon="4.08191">
        <ele>242.553546</ele>
        <time>2021-09-11T08:29:29.000Z</time>
      </trkpt>
      <trkpt lat="46.47017" lon="4.08214">
        <ele>242.461287</ele>
        <time>2021-09-11T08:29:32.000Z</time>
      </trkpt>
      <trkpt lat="46.47013" lon="4.08229">
        <ele>242.397344</ele>
        <time>2021-09-11T08:29:34.000Z</time>
      </trkpt>
      <trkpt lat="46.47006" lon="4.08289">
        <ele>242.166203</ele>
        <time>2021-09-11T08:29:41.000Z</time>
      </trkpt>
      <trkpt lat="46.47002" lon="4.08305">
        <ele>242.102359</ele>
        <time>2021-09-11T08:29:43.000Z</time>
      </trkpt>
      <trkpt lat="46.46997" lon="4.08321">
        <ele>242.035296</ele>
        <time>2021-09-11T08:29:45.000Z</time>
      </trkpt>
      <trkpt lat="46.46994" lon="4.08328">
        <ele>242.002296</ele>
        <time>2021-09-11T08:29:46.000Z</time>
      </trkpt>
      <trkpt lat="46.46991" lon="4.08335">
        <ele>241.970281</ele>
        <time>2021-09-11T08:29:47.000Z</time>
      </trkpt>
      <trkpt lat="46.46974" lon="4.08362">
        <ele>241.832399</ele>
        <time>2021-09-11T08:29:51.000Z</time>
      </trkpt>
      <trkpt lat="46.46943" lon="4.08407">
        <ele>241.71066</ele>
        <time>2021-09-11T08:29:58.000Z</time>
      </trkpt>
      <trkpt lat="46.46938" lon="4.08414">
        <ele>241.710787</ele>
        <time>2021-09-11T08:29:59.000Z</time>
      </trkpt>
      <trkpt lat="46.46902" lon="4.08465">
        <ele>241.711799</ele>
        <time>2021-09-11T08:30:07.000Z</time>
      </trkpt>
      <trkpt lat="46.46871" lon="4.0851">
        <ele>241.712674</ele>
        <time>2021-09-11T08:30:14.000Z</time>
      </trkpt>
      <trkpt lat="46.46838" lon="4.08558">
        <ele>241.713621</ele>
        <time>2021-09-11T08:30:22.000Z</time>
      </trkpt>
      <trkpt lat="46.46813" lon="4.08595">
        <ele>241.751576</ele>
        <time>2021-09-11T08:30:28.000Z</time>
      </trkpt>
      <trkpt lat="46.46804" lon="4.08608">
        <ele>241.77004</ele>
        <time>2021-09-11T08:30:30.000Z</time>
      </trkpt>
      <trkpt lat="46.46787" lon="4.08633">
        <ele>241.806362</ele>
        <time>2021-09-11T08:30:34.000Z</time>
      </trkpt>
      <trkpt lat="46.46752" lon="4.08682">
        <ele>241.878401</ele>
        <time>2021-09-11T08:30:42.000Z</time>
      </trkpt>
      <trkpt lat="46.46748" lon="4.08688">
        <ele>241.887064</ele>
        <time>2021-09-11T08:30:43.000Z</time>
      </trkpt>
      <trkpt lat="46.46732" lon="4.08712">
        <ele>241.921675</ele>
        <time>2021-09-11T08:30:47.000Z</time>
      </trkpt>
      <trkpt lat="46.4672" lon="4.0873">
        <ele>241.94759</ele>
        <time>2021-09-11T08:30:50.000Z</time>
      </trkpt>
      <trkpt lat="46.46708" lon="4.08747">
        <ele>241.97254</ele>
        <time>2021-09-11T08:30:53.000Z</time>
      </trkpt>
      <trkpt lat="46.46703" lon="4.08753">
        <ele>241.980987</ele>
        <time>2021-09-11T08:30:54.000Z</time>
      </trkpt>
      <trkpt lat="46.46691" lon="4.0877">
        <ele>242.030695</ele>
        <time>2021-09-11T08:30:57.000Z</time>
      </trkpt>
      <trkpt lat="46.46658" lon="4.08815">
        <ele>242.15973</ele>
        <time>2021-09-11T08:31:05.000Z</time>
      </trkpt>
      <trkpt lat="46.46626" lon="4.08859">
        <ele>242.285052</ele>
        <time>2021-09-11T08:31:13.000Z</time>
      </trkpt>
      <trkpt lat="46.46623" lon="4.08864">
        <ele>242.298984</ele>
        <time>2021-09-11T08:31:14.000Z</time>
      </trkpt>
      <trkpt lat="46.46608" lon="4.08888">
        <ele>242.362021</ele>
        <time>2021-09-11T08:31:18.000Z</time>
      </trkpt>
      <trkpt lat="46.46604" lon="4.08894">
        <ele>242.37876</ele>
        <time>2021-09-11T08:31:19.000Z</time>
      </trkpt>
      <trkpt lat="46.46588" lon="4.08919">
        <ele>242.446198</ele>
        <time>2021-09-11T08:31:23.000Z</time>
      </trkpt>
      <trkpt lat="46.46563" lon="4.08957">
        <ele>242.524331</ele>
        <time>2021-09-11T08:31:29.000Z</time>
      </trkpt>
      <trkpt lat="46.46534" lon="4.09002">
        <ele>242.589366</ele>
        <time>2021-09-11T08:31:36.000Z</time>
      </trkpt>
      <trkpt lat="46.46522" lon="4.09022">
        <ele>242.617317</ele>
        <time>2021-09-11T08:31:39.000Z</time>
      </trkpt>
      <trkpt lat="46.46509" lon="4.09041">
        <ele>242.64542</ele>
        <time>2021-09-11T08:31:42.000Z</time>
      </trkpt>
      <trkpt lat="46.46475" lon="4.09095">
        <ele>242.721834</ele>
        <time>2021-09-11T08:31:50.000Z</time>
      </trkpt>
      <trkpt lat="46.46439" lon="4.09144">
        <ele>242.803133</ele>
        <time>2021-09-11T08:31:58.000Z</time>
      </trkpt>
      <trkpt lat="46.464" lon="4.09185">
        <ele>242.892082</ele>
        <time>2021-09-11T08:32:06.000Z</time>
      </trkpt>
      <trkpt lat="46.4636" lon="4.09221">
        <ele>242.978119</ele>
        <time>2021-09-11T08:32:14.000Z</time>
      </trkpt>
      <trkpt lat="46.46331" lon="4.09251">
        <ele>243.044587</ele>
        <time>2021-09-11T08:32:21.000Z</time>
      </trkpt>
      <trkpt lat="46.46301" lon="4.09283">
        <ele>243.102685</ele>
        <time>2021-09-11T08:32:28.000Z</time>
      </trkpt>
      <trkpt lat="46.46263" lon="4.0932">
        <ele>243.101588</ele>
        <time>2021-09-11T08:32:36.000Z</time>
      </trkpt>
      <trkpt lat="46.46226" lon="4.09358">
        <ele>243.100476</ele>
        <time>2021-09-11T08:32:44.000Z</time>
      </trkpt>
      <trkpt lat="46.46177" lon="4.09406">
        <ele>243.099046</ele>
        <time>2021-09-11T08:32:54.000Z</time>
      </trkpt>
      <trkpt lat="46.46146" lon="4.09448">
        <ele>243.123475</ele>
        <time>2021-09-11T08:33:01.000Z</time>
      </trkpt>
      <trkpt lat="46.46106" lon="4.09504">
        <ele>243.19703</ele>
        <time>2021-09-11T08:33:10.000Z</time>
      </trkpt>
      <trkpt lat="46.46102" lon="4.0951">
        <ele>243.205021</ele>
        <time>2021-09-11T08:33:11.000Z</time>
      </trkpt>
      <trkpt lat="46.46073" lon="4.09554">
        <ele>243.261059</ele>
        <time>2021-09-11T08:33:18.000Z</time>
      </trkpt>
      <trkpt lat="46.46041" lon="4.09601">
        <ele>243.321476</ele>
        <time>2021-09-11T08:33:26.000Z</time>
      </trkpt>
      <trkpt lat="46.46012" lon="4.09645">
        <ele>243.47388</ele>
        <time>2021-09-11T08:33:33.000Z</time>
      </trkpt>
      <trkpt lat="46.45987" lon="4.09681">
        <ele>243.632472</ele>
        <time>2021-09-11T08:33:39.000Z</time>
      </trkpt>
      <trkpt lat="46.45968" lon="4.09708">
        <ele>243.758838</ele>
        <time>2021-09-11T08:33:44.000Z</time>
      </trkpt>
      <trkpt lat="46.45942" lon="4.09732">
        <ele>243.895224</ele>
        <time>2021-09-11T08:33:50.000Z</time>
      </trkpt>
      <trkpt lat="46.45907" lon="4.09752">
        <ele>244.070844</ele>
        <time>2021-09-11T08:33:58.000Z</time>
      </trkpt>
      <trkpt lat="46.45878" lon="4.09766">
        <ele>244.232187</ele>
        <time>2021-09-11T08:34:05.000Z</time>
      </trkpt>
      <trkpt lat="46.45856" lon="4.09779">
        <ele>244.40078</ele>
        <time>2021-09-11T08:34:11.000Z</time>
      </trkpt>
      <trkpt lat="46.45848" lon="4.09783">
        <ele>244.459175</ele>
        <time>2021-09-11T08:34:13.000Z</time>
      </trkpt>
      <trkpt lat="46.45833" lon="4.09793">
        <ele>244.574765</ele>
        <time>2021-09-11T08:34:17.000Z</time>
      </trkpt>
      <trkpt lat="46.45806" lon="4.09808">
        <ele>244.775224</ele>
        <time>2021-09-11T08:34:24.000Z</time>
      </trkpt>
      <trkpt lat="46.45799" lon="4.09813">
        <ele>244.834264</ele>
        <time>2021-09-11T08:34:26.000Z</time>
      </trkpt>
      <trkpt lat="46.45786" lon="4.0982">
        <ele>244.926514</ele>
        <time>2021-09-11T08:34:29.000Z</time>
      </trkpt>
      <trkpt lat="46.45782" lon="4.09823">
        <ele>244.957602</ele>
        <time>2021-09-11T08:34:30.000Z</time>
      </trkpt>
      <trkpt lat="46.45778" lon="4.09825">
        <ele>244.989336</ele>
        <time>2021-09-11T08:34:31.000Z</time>
      </trkpt>
      <trkpt lat="46.45763" lon="4.09837">
        <ele>245.111248</ele>
        <time>2021-09-11T08:34:35.000Z</time>
      </trkpt>
      <trkpt lat="46.45744" lon="4.09853">
        <ele>245.265412</ele>
        <time>2021-09-11T08:34:40.000Z</time>
      </trkpt>
      <trkpt lat="46.4574" lon="4.09856">
        <ele>245.296025</ele>
        <time>2021-09-11T08:34:41.000Z</time>
      </trkpt>
      <trkpt lat="46.45736" lon="4.09861">
        <ele>245.330926</ele>
        <time>2021-09-11T08:34:42.000Z</time>
      </trkpt>
      <trkpt lat="46.45723" lon="4.09877">
        <ele>245.45875</ele>
        <time>2021-09-11T08:34:46.000Z</time>
      </trkpt>
      <trkpt lat="46.45703" lon="4.09907">
        <ele>245.705251</ele>
        <time>2021-09-11T08:34:53.000Z</time>
      </trkpt>
      <trkpt lat="46.4569" lon="4.09928">
        <ele>245.876389</ele>
        <time>2021-09-11T08:34:58.000Z</time>
      </trkpt>
      <trkpt lat="46.45666" lon="4.09964">
        <ele>246.173277</ele>
        <time>2021-09-11T08:35:06.000Z</time>
      </trkpt>
      <trkpt lat="46.45647" lon="4.09992">
        <ele>246.411487</ele>
        <time>2021-09-11T08:35:12.000Z</time>
      </trkpt>
      <trkpt lat="46.4564" lon="4.10001">
        <ele>246.49075</ele>
        <time>2021-09-11T08:35:14.000Z</time>
      </trkpt>
      <trkpt lat="46.45621" lon="4.10029">
        <ele>246.727502</ele>
        <time>2021-09-11T08:35:20.000Z</time>
      </trkpt>
      <trkpt lat="46.45605" lon="4.10052">
        <ele>246.924525</ele>
        <time>2021-09-11T08:35:25.000Z</time>
      </trkpt>
      <trkpt lat="46.45601" lon="4.10057">
        <ele>246.963637</ele>
        <time>2021-09-11T08:35:26.000Z</time>
      </trkpt>
      <trkpt lat="46.45579" lon="4.10089">
        <ele>247.036191</ele>
        <time>2021-09-11T08:35:34.000Z</time>
      </trkpt>
      <trkpt lat="46.45569" lon="4.10097">
        <ele>247.057735</ele>
        <time>2021-09-11T08:35:38.000Z</time>
      </trkpt>
      <trkpt lat="46.45558" lon="4.10107">
        <ele>247.082651</ele>
        <time>2021-09-11T08:35:44.000Z</time>
      </trkpt>
      <trkpt lat="46.45541" lon="4.10126">
        <ele>247.122545</ele>
        <time>2021-09-11T08:35:50.000Z</time>
      </trkpt>
      <trkpt lat="46.45534" lon="4.10137">
        <ele>247.141023</ele>
        <time>2021-09-11T08:35:52.000Z</time>
      </trkpt>
      <trkpt lat="46.4553" lon="4.10148">
        <ele>247.157058</ele>
        <time>2021-09-11T08:35:54.000Z</time>
      </trkpt>
      <trkpt lat="46.45524" lon="4.10164">
        <ele>247.180159</ele>
        <time>2021-09-11T08:35:57.000Z</time>
      </trkpt>
      <trkpt lat="46.45514" lon="4.10177">
        <ele>247.204795</ele>
        <time>2021-09-11T08:36:00.000Z</time>
      </trkpt>
      <trkpt lat="46.45507" lon="4.10187">
        <ele>247.222773</ele>
        <time>2021-09-11T08:36:02.000Z</time>
      </trkpt>
      <trkpt lat="46.455" lon="4.10197">
        <ele>247.241416</ele>
        <time>2021-09-11T08:36:04.000Z</time>
      </trkpt>
      <trkpt lat="46.45496" lon="4.10202">
        <ele>247.250737</ele>
        <time>2021-09-11T08:36:05.000Z</time>
      </trkpt>
      <trkpt lat="46.45486" lon="4.1022">
        <ele>247.280098</ele>
        <time>2021-09-11T08:36:08.000Z</time>
      </trkpt>
      <trkpt lat="46.4548" lon="4.10231">
        <ele>247.29836</ele>
        <time>2021-09-11T08:36:10.000Z</time>
      </trkpt>
      <trkpt lat="46.45461" lon="4.1027">
        <ele>247.299714</ele>
        <time>2021-09-11T08:36:16.000Z</time>
      </trkpt>
      <trkpt lat="46.4544" lon="4.10315">
        <ele>247.273926</ele>
        <time>2021-09-11T08:36:23.000Z</time>
      </trkpt>
      <trkpt lat="46.45417" lon="4.10366">
        <ele>247.245271</ele>
        <time>2021-09-11T08:36:31.000Z</time>
      </trkpt>
      <trkpt lat="46.45396" lon="4.10413">
        <ele>247.218786</ele>
        <time>2021-09-11T08:36:39.000Z</time>
      </trkpt>
      <trkpt lat="46.45377" lon="4.10455">
        <ele>247.195131</ele>
        <time>2021-09-11T08:36:46.000Z</time>
      </trkpt>
      <trkpt lat="46.45357" lon="4.10498">
        <ele>247.134068</ele>
        <time>2021-09-11T08:36:53.000Z</time>
      </trkpt>
      <trkpt lat="46.45335" lon="4.10547">
        <ele>247.060456</ele>
        <time>2021-09-11T08:37:01.000Z</time>
      </trkpt>
      <trkpt lat="46.45312" lon="4.10596">
        <ele>246.986635</ele>
        <time>2021-09-11T08:37:09.000Z</time>
      </trkpt>
      <trkpt lat="46.45294" lon="4.10637">
        <ele>246.925807</ele>
        <time>2021-09-11T08:37:15.000Z</time>
      </trkpt>
      <trkpt lat="46.4529" lon="4.10644">
        <ele>246.915395</ele>
        <time>2021-09-11T08:37:16.000Z</time>
      </trkpt>
      <trkpt lat="46.45266" lon="4.10697">
        <ele>246.84471</ele>
        <time>2021-09-11T08:37:24.000Z</time>
      </trkpt>
      <trkpt lat="46.45242" lon="4.10749">
        <ele>246.79057</ele>
        <time>2021-09-11T08:37:32.000Z</time>
      </trkpt>
      <trkpt lat="46.45222" lon="4.10793">
        <ele>246.744473</ele>
        <time>2021-09-11T08:37:39.000Z</time>
      </trkpt>
      <trkpt lat="46.45196" lon="4.10851">
        <ele>246.683871</ele>
        <time>2021-09-11T08:37:48.000Z</time>
      </trkpt>
      <trkpt lat="46.45172" lon="4.10903">
        <ele>246.628378</ele>
        <time>2021-09-11T08:37:56.000Z</time>
      </trkpt>
      <trkpt lat="46.45151" lon="4.10949">
        <ele>246.578439</ele>
        <time>2021-09-11T08:38:03.000Z</time>
      </trkpt>
      <trkpt lat="46.4512" lon="4.11016">
        <ele>246.50503</ele>
        <time>2021-09-11T08:38:13.000Z</time>
      </trkpt>
      <trkpt lat="46.45102" lon="4.11053">
        <ele>246.463864</ele>
        <time>2021-09-11T08:38:19.000Z</time>
      </trkpt>
      <trkpt lat="46.45083" lon="4.11096">
        <ele>246.4167</ele>
        <time>2021-09-11T08:38:27.000Z</time>
      </trkpt>
      <trkpt lat="46.45075" lon="4.11113">
        <ele>246.399147</ele>
        <time>2021-09-11T08:38:30.000Z</time>
      </trkpt>
      <trkpt lat="46.45067" lon="4.11131">
        <ele>246.388202</ele>
        <time>2021-09-11T08:38:33.000Z</time>
      </trkpt>
      <trkpt lat="46.45048" lon="4.11172">
        <ele>246.362219</ele>
        <time>2021-09-11T08:38:40.000Z</time>
      </trkpt>
      <trkpt lat="46.45034" lon="4.11201">
        <ele>246.34382</ele>
        <time>2021-09-11T08:38:45.000Z</time>
      </trkpt>
      <trkpt lat="46.45032" lon="4.11207">
        <ele>246.340287</ele>
        <time>2021-09-11T08:38:46.000Z</time>
      </trkpt>
      <trkpt lat="46.45008" lon="4.11258">
        <ele>246.308013</ele>
        <time>2021-09-11T08:38:54.000Z</time>
      </trkpt>
      <trkpt lat="46.44983" lon="4.11313">
        <ele>246.273626</ele>
        <time>2021-09-11T08:39:02.000Z</time>
      </trkpt>
      <trkpt lat="46.44966" lon="4.1135">
        <ele>246.433745</ele>
        <time>2021-09-11T08:39:08.000Z</time>
      </trkpt>
      <trkpt lat="46.44947" lon="4.11391">
        <ele>246.755808</ele>
        <time>2021-09-11T08:39:16.000Z</time>
      </trkpt>
      <trkpt lat="46.44932" lon="4.11424">
        <ele>247.016243</ele>
        <time>2021-09-11T08:39:24.000Z</time>
      </trkpt>
      <trkpt lat="46.44921" lon="4.11445">
        <ele>247.185107</ele>
        <time>2021-09-11T08:39:31.000Z</time>
      </trkpt>
      <trkpt lat="46.44911" lon="4.11463">
        <ele>247.336068</ele>
        <time>2021-09-11T08:39:39.000Z</time>
      </trkpt>
      <trkpt lat="46.44905" lon="4.11493">
        <ele>247.535786</ele>
        <time>2021-09-11T08:39:46.000Z</time>
      </trkpt>
      <trkpt lat="46.44899" lon="4.11482">
        <ele>247.627256</ele>
        <time>2021-09-11T08:39:47.000Z</time>
      </trkpt>
      <trkpt lat="46.44894" lon="4.11488">
        <ele>247.686547</ele>
        <time>2021-09-11T08:39:51.000Z</time>
      </trkpt>
      <trkpt lat="46.4489" lon="4.11496">
        <ele>247.749536</ele>
        <time>2021-09-11T08:39:55.000Z</time>
      </trkpt>
      <trkpt lat="46.44897" lon="4.11508">
        <ele>247.853358</ele>
        <time>2021-09-11T08:39:57.000Z</time>
      </trkpt>
      <trkpt lat="46.44899" lon="4.11534">
        <ele>248.056107</ele>
        <time>2021-09-11T08:40:02.000Z</time>
      </trkpt>
      <trkpt lat="46.44904" lon="4.11573">
        <ele>248.43659</ele>
        <time>2021-09-11T08:40:09.000Z</time>
      </trkpt>
      <trkpt lat="46.44908" lon="4.11614">
        <ele>248.84144</ele>
        <time>2021-09-11T08:40:16.000Z</time>
      </trkpt>
      <trkpt lat="46.44912" lon="4.11658">
        <ele>249.26253</ele>
        <time>2021-09-11T08:40:23.000Z</time>
      </trkpt>
      <trkpt lat="46.44917" lon="4.11706">
        <ele>249.738695</ele>
        <time>2021-09-11T08:40:31.000Z</time>
      </trkpt>
      <trkpt lat="46.44919" lon="4.11733">
        <ele>249.997459</ele>
        <time>2021-09-11T08:40:36.000Z</time>
      </trkpt>
      <trkpt lat="46.44926" lon="4.11791">
        <ele>250.478213</ele>
        <time>2021-09-11T08:40:46.000Z</time>
      </trkpt>
      <trkpt lat="46.44929" lon="4.11822">
        <ele>250.463666</ele>
        <time>2021-09-11T08:40:52.000Z</time>
      </trkpt>
      <trkpt lat="46.44931" lon="4.11836">
        <ele>250.457242</ele>
        <time>2021-09-11T08:40:56.000Z</time>
      </trkpt>
      <trkpt lat="46.44931" lon="4.11846">
        <ele>250.452867</ele>
        <time>2021-09-11T08:41:46.000Z</time>
      </trkpt>
      <trkpt lat="46.44934" lon="4.11855">
        <ele>250.447961</ele>
        <time>2021-09-11T08:41:48.000Z</time>
      </trkpt>
      <trkpt lat="46.44937" lon="4.11857">
        <ele>250.445875</ele>
        <time>2021-09-11T08:41:49.000Z</time>
      </trkpt>
      <trkpt lat="46.44947" lon="4.11864">
        <ele>250.438714</ele>
        <time>2021-09-11T08:41:52.000Z</time>
      </trkpt>
      <trkpt lat="46.44965" lon="4.11877">
        <ele>250.424915</ele>
        <time>2021-09-11T08:41:58.000Z</time>
      </trkpt>
      <trkpt lat="46.44989" lon="4.11897">
        <ele>250.406752</ele>
        <time>2021-09-11T08:42:05.000Z</time>
      </trkpt>
      <trkpt lat="46.45007" lon="4.11913">
        <ele>250.392603</ele>
        <time>2021-09-11T08:42:11.000Z</time>
      </trkpt>
      <trkpt lat="46.45028" lon="4.11925">
        <ele>250.37716</ele>
        <time>2021-09-11T08:42:19.000Z</time>
      </trkpt>
      <trkpt lat="46.45047" lon="4.11935">
        <ele>250.363869</ele>
        <time>2021-09-11T08:42:27.000Z</time>
      </trkpt>
      <trkpt lat="46.45055" lon="4.11939">
        <ele>250.322785</ele>
        <time>2021-09-11T08:42:32.000Z</time>
      </trkpt>
      <trkpt lat="46.45066" lon="4.11945">
        <ele>250.235733</ele>
        <time>2021-09-11T08:42:37.000Z</time>
      </trkpt>
      <trkpt lat="46.45066" lon="4.11945">
        <ele>250.235733</ele>
        <time>2021-09-11T08:42:39.000Z</time>
      </trkpt>
      <trkpt lat="46.4505" lon="4.11936">
        <ele>250.109714</ele>
        <time>2021-09-11T08:42:45.000Z</time>
      </trkpt>
      <trkpt lat="46.4506" lon="4.11941">
        <ele>250.028796</ele>
        <time>2021-09-11T08:42:46.000Z</time>
      </trkpt>
      <trkpt lat="46.45055" lon="4.11939">
        <ele>249.991322</ele>
        <time>2021-09-11T08:42:52.000Z</time>
      </trkpt>
      <trkpt lat="46.45055" lon="4.11938">
        <ele>249.985352</ele>
        <time>2021-09-11T08:49:07.000Z</time>
      </trkpt>
      <trkpt lat="46.45065" lon="4.11944">
        <ele>249.907253</ele>
        <time>2021-09-11T08:49:12.000Z</time>
      </trkpt>
      <trkpt lat="46.45066" lon="4.11945">
        <ele>249.897628</ele>
        <time>2021-09-11T08:49:13.000Z</time>
      </trkpt>
      <trkpt lat="46.45075" lon="4.11949">
        <ele>249.831797</ele>
        <time>2021-09-11T08:49:18.000Z</time>
      </trkpt>
      <trkpt lat="46.4509" lon="4.11955">
        <ele>249.720465</ele>
        <time>2021-09-11T08:49:25.000Z</time>
      </trkpt>
      <trkpt lat="46.45099" lon="4.11958">
        <ele>249.657019</ele>
        <time>2021-09-11T08:49:30.000Z</time>
      </trkpt>
      <trkpt lat="46.45102" lon="4.11959">
        <ele>249.63953</ele>
        <time>2021-09-11T08:49:32.000Z</time>
      </trkpt>
      <trkpt lat="46.45105" lon="4.11961">
        <ele>249.612819</ele>
        <time>2021-09-11T08:49:35.000Z</time>
      </trkpt>
      <trkpt lat="46.45114" lon="4.11966">
        <ele>249.546754</ele>
        <time>2021-09-11T08:49:41.000Z</time>
      </trkpt>
      <trkpt lat="46.45116" lon="4.11968">
        <ele>249.525582</ele>
        <time>2021-09-11T08:49:45.000Z</time>
      </trkpt>
      <trkpt lat="46.45129" lon="4.11977">
        <ele>249.422689</ele>
        <time>2021-09-11T08:49:53.000Z</time>
      </trkpt>
      <trkpt lat="46.45141" lon="4.11986">
        <ele>249.330804</ele>
        <time>2021-09-11T08:49:59.000Z</time>
      </trkpt>
      <trkpt lat="46.45154" lon="4.11996">
        <ele>249.227618</ele>
        <time>2021-09-11T08:50:05.000Z</time>
      </trkpt>
      <trkpt lat="46.45167" lon="4.12007">
        <ele>249.119848</ele>
        <time>2021-09-11T08:50:11.000Z</time>
      </trkpt>
      <trkpt lat="46.45175" lon="4.12014">
        <ele>249.066229</ele>
        <time>2021-09-11T08:50:14.000Z</time>
      </trkpt>
      <trkpt lat="46.45175" lon="4.12014">
        <ele>249.064634</ele>
        <time>2021-09-11T08:50:15.000Z</time>
      </trkpt>
      <trkpt lat="46.45184" lon="4.12008">
        <ele>249.019982</ele>
        <time>2021-09-11T08:50:20.000Z</time>
      </trkpt>
      <trkpt lat="46.45191" lon="4.12003">
        <ele>248.978665</ele>
        <time>2021-09-11T08:50:24.000Z</time>
      </trkpt>
      <trkpt lat="46.45203" lon="4.11996">
        <ele>248.918286</ele>
        <time>2021-09-11T08:50:30.000Z</time>
      </trkpt>
      <trkpt lat="46.4521" lon="4.11993">
        <ele>248.884475</ele>
        <time>2021-09-11T08:50:35.000Z</time>
      </trkpt>
      <trkpt lat="46.45221" lon="4.11993">
        <ele>248.82891</ele>
        <time>2021-09-11T08:50:41.000Z</time>
      </trkpt>
      <trkpt lat="46.45238" lon="4.11997">
        <ele>248.746384</ele>
        <time>2021-09-11T08:50:47.000Z</time>
      </trkpt>
      <trkpt lat="46.45253" lon="4.12">
        <ele>248.673989</ele>
        <time>2021-09-11T08:50:54.000Z</time>
      </trkpt>
      <trkpt lat="46.45254" lon="4.12">
        <ele>248.666621</ele>
        <time>2021-09-11T08:50:55.000Z</time>
      </trkpt>
      <trkpt lat="46.45259" lon="4.12001">
        <ele>248.645104</ele>
        <time>2021-09-11T08:50:58.000Z</time>
      </trkpt>
      <trkpt lat="46.4528" lon="4.11986">
        <ele>248.531128</ele>
        <time>2021-09-11T08:51:04.000Z</time>
      </trkpt>
      <trkpt lat="46.45291" lon="4.11963">
        <ele>248.437586</ele>
        <time>2021-09-11T08:51:11.000Z</time>
      </trkpt>
      <trkpt lat="46.45296" lon="4.11943">
        <ele>248.367243</ele>
        <time>2021-09-11T08:51:17.000Z</time>
      </trkpt>
      <trkpt lat="46.45303" lon="4.11939">
        <ele>248.33245</ele>
        <time>2021-09-11T08:51:23.000Z</time>
      </trkpt>
      <trkpt lat="46.45313" lon="4.11932">
        <ele>248.279097</ele>
        <time>2021-09-11T08:51:29.000Z</time>
      </trkpt>
      <trkpt lat="46.45324" lon="4.11917">
        <ele>248.212288</ele>
        <time>2021-09-11T08:51:35.000Z</time>
      </trkpt>
      <trkpt lat="46.45329" lon="4.11911">
        <ele>248.1946</ele>
        <time>2021-09-11T08:51:40.000Z</time>
      </trkpt>
      <trkpt lat="46.45328" lon="4.11927">
        <ele>248.162697</ele>
        <time>2021-09-11T08:52:14.000Z</time>
      </trkpt>
      <trkpt lat="46.45321" lon="4.11921">
        <ele>248.140687</ele>
        <time>2021-09-11T08:52:16.000Z</time>
      </trkpt>
      <trkpt lat="46.45318" lon="4.11925">
        <ele>248.129148</ele>
        <time>2021-09-11T08:52:18.000Z</time>
      </trkpt>
      <trkpt lat="46.45314" lon="4.11932">
        <ele>248.111113</ele>
        <time>2021-09-11T08:52:21.000Z</time>
      </trkpt>
      <trkpt lat="46.45301" lon="4.1194">
        <ele>248.07052</ele>
        <time>2021-09-11T08:52:26.000Z</time>
      </trkpt>
      <trkpt lat="46.45291" lon="4.11956">
        <ele>248.027292</ele>
        <time>2021-09-11T08:52:30.000Z</time>
      </trkpt>
      <trkpt lat="46.45282" lon="4.11974">
        <ele>247.984743</ele>
        <time>2021-09-11T08:52:34.000Z</time>
      </trkpt>
      <trkpt lat="46.45273" lon="4.11993">
        <ele>247.938409</ele>
        <time>2021-09-11T08:52:39.000Z</time>
      </trkpt>
      <trkpt lat="46.45258" lon="4.12016">
        <ele>247.874941</ele>
        <time>2021-09-11T08:52:45.000Z</time>
      </trkpt>
      <trkpt lat="46.45244" lon="4.12038">
        <ele>247.816545</ele>
        <time>2021-09-11T08:52:51.000Z</time>
      </trkpt>
      <trkpt lat="46.45239" lon="4.12048">
        <ele>247.790996</ele>
        <time>2021-09-11T08:52:54.000Z</time>
      </trkpt>
      <trkpt lat="46.45237" lon="4.1205">
        <ele>247.784772</ele>
        <time>2021-09-11T08:52:55.000Z</time>
      </trkpt>
      <trkpt lat="46.45234" lon="4.12057">
        <ele>247.768711</ele>
        <time>2021-09-11T08:53:00.000Z</time>
      </trkpt>
      <trkpt lat="46.45215" lon="4.12049">
        <ele>247.711915</ele>
        <time>2021-09-11T08:53:08.000Z</time>
      </trkpt>
      <trkpt lat="46.45215" lon="4.12047">
        <ele>247.708095</ele>
        <time>2021-09-11T08:53:09.000Z</time>
      </trkpt>
      <trkpt lat="46.45239" lon="4.12029">
        <ele>247.408494</ele>
        <time>2021-09-11T08:53:13.000Z</time>
      </trkpt>
      <trkpt lat="46.45247" lon="4.12032">
        <ele>247.308898</ele>
        <time>2021-09-11T08:53:18.000Z</time>
      </trkpt>
      <trkpt lat="46.45277" lon="4.11992">
        <ele>246.84425</ele>
        <time>2021-09-11T08:53:23.000Z</time>
      </trkpt>
      <trkpt lat="46.45289" lon="4.11969">
        <ele>246.613497</ele>
        <time>2021-09-11T08:53:28.000Z</time>
      </trkpt>
      <trkpt lat="46.45299" lon="4.11942">
        <ele>246.367284</ele>
        <time>2021-09-11T08:53:34.000Z</time>
      </trkpt>
      <trkpt lat="46.45313" lon="4.11932">
        <ele>246.184553</ele>
        <time>2021-09-11T08:53:38.000Z</time>
      </trkpt>
      <trkpt lat="46.45319" lon="4.11924">
        <ele>246.09196</ele>
        <time>2021-09-11T08:53:40.000Z</time>
      </trkpt>
      <trkpt lat="46.45329" lon="4.1191">
        <ele>245.940591</ele>
        <time>2021-09-11T08:53:44.000Z</time>
      </trkpt>
      <trkpt lat="46.45332" lon="4.11917">
        <ele>245.875921</ele>
        <time>2021-09-11T09:00:21.000Z</time>
      </trkpt>
      <trkpt lat="46.45325" lon="4.11915">
        <ele>245.796651</ele>
        <time>2021-09-11T09:01:09.000Z</time>
      </trkpt>
      <trkpt lat="46.45322" lon="4.11919">
        <ele>245.74885</ele>
        <time>2021-09-11T09:01:11.000Z</time>
      </trkpt>
      <trkpt lat="46.45314" lon="4.11932">
        <ele>245.637752</ele>
        <time>2021-09-11T09:01:15.000Z</time>
      </trkpt>
      <trkpt lat="46.45308" lon="4.11935">
        <ele>245.628856</ele>
        <time>2021-09-11T09:01:20.000Z</time>
      </trkpt>
      <trkpt lat="46.45292" lon="4.11937">
        <ele>245.603558</ele>
        <time>2021-09-11T09:01:26.000Z</time>
      </trkpt>
      <trkpt lat="46.45282" lon="4.1193">
        <ele>245.587249</ele>
        <time>2021-09-11T09:01:31.000Z</time>
      </trkpt>
      <trkpt lat="46.45275" lon="4.11934">
        <ele>245.576403</ele>
        <time>2021-09-11T09:01:37.000Z</time>
      </trkpt>
      <trkpt lat="46.45261" lon="4.11924">
        <ele>245.553344</ele>
        <time>2021-09-11T09:01:42.000Z</time>
      </trkpt>
      <trkpt lat="46.45244" lon="4.11926">
        <ele>245.528157</ele>
        <time>2021-09-11T09:01:48.000Z</time>
      </trkpt>
      <trkpt lat="46.45224" lon="4.11928">
        <ele>245.497242</ele>
        <time>2021-09-11T09:01:55.000Z</time>
      </trkpt>
      <trkpt lat="46.45208" lon="4.11929">
        <ele>245.472424</ele>
        <time>2021-09-11T09:02:01.000Z</time>
      </trkpt>
      <trkpt lat="46.45194" lon="4.11929">
        <ele>245.452289</ele>
        <time>2021-09-11T09:02:07.000Z</time>
      </trkpt>
      <trkpt lat="46.45184" lon="4.11924">
        <ele>245.436149</ele>
        <time>2021-09-11T09:02:13.000Z</time>
      </trkpt>
      <trkpt lat="46.45173" lon="4.11922">
        <ele>245.418917</ele>
        <time>2021-09-11T09:02:17.000Z</time>
      </trkpt>
      <trkpt lat="46.4516" lon="4.11924">
        <ele>245.398506</ele>
        <time>2021-09-11T09:02:23.000Z</time>
      </trkpt>
      <trkpt lat="46.45146" lon="4.11928">
        <ele>245.376886</ele>
        <time>2021-09-11T09:02:30.000Z</time>
      </trkpt>
      <trkpt lat="46.45142" lon="4.1193">
        <ele>245.370876</ele>
        <time>2021-09-11T09:02:32.000Z</time>
      </trkpt>
      <trkpt lat="46.45136" lon="4.11933">
        <ele>245.758934</ele>
        <time>2021-09-11T09:02:35.000Z</time>
      </trkpt>
      <trkpt lat="46.45134" lon="4.11934">
        <ele>245.897613</ele>
        <time>2021-09-11T09:02:36.000Z</time>
      </trkpt>
      <trkpt lat="46.45129" lon="4.11938">
        <ele>246.255357</ele>
        <time>2021-09-11T09:02:39.000Z</time>
      </trkpt>
      <trkpt lat="46.45115" lon="4.11948">
        <ele>247.319718</ele>
        <time>2021-09-11T09:02:46.000Z</time>
      </trkpt>
      <trkpt lat="46.45106" lon="4.11954">
        <ele>247.96654</ele>
        <time>2021-09-11T09:02:51.000Z</time>
      </trkpt>
      <trkpt lat="46.45105" lon="4.11951">
        <ele>248.128564</ele>
        <time>2021-09-11T09:02:52.000Z</time>
      </trkpt>
      <trkpt lat="46.45105" lon="4.11951">
        <ele>248.128564</ele>
        <time>2021-09-11T09:02:54.000Z</time>
      </trkpt>
      <trkpt lat="46.45104" lon="4.11957">
        <ele>248.451592</ele>
        <time>2021-09-11T09:02:56.000Z</time>
      </trkpt>
      <trkpt lat="46.4511" lon="4.11957">
        <ele>248.859849</ele>
        <time>2021-09-11T09:02:59.000Z</time>
      </trkpt>
      <trkpt lat="46.45112" lon="4.11959">
        <ele>249.030525</ele>
        <time>2021-09-11T09:03:04.000Z</time>
      </trkpt>
      <trkpt lat="46.4511" lon="4.11963">
        <ele>249.262947</ele>
        <time>2021-09-11T09:04:17.000Z</time>
      </trkpt>
      <trkpt lat="46.45106" lon="4.11961">
        <ele>249.554422</ele>
        <time>2021-09-11T09:04:19.000Z</time>
      </trkpt>
      <trkpt lat="46.45096" lon="4.11957">
        <ele>250.2036</ele>
        <time>2021-09-11T09:04:24.000Z</time>
      </trkpt>
      <trkpt lat="46.45089" lon="4.11954">
        <ele>250.734869</ele>
        <time>2021-09-11T09:04:29.000Z</time>
      </trkpt>
      <trkpt lat="46.45086" lon="4.11953">
        <ele>250.907257</ele>
        <time>2021-09-11T09:04:31.000Z</time>
      </trkpt>
      <trkpt lat="46.45081" lon="4.11951">
        <ele>251.245542</ele>
        <time>2021-09-11T09:04:34.000Z</time>
      </trkpt>
      <trkpt lat="46.45079" lon="4.11951">
        <ele>251.377946</ele>
        <time>2021-09-11T09:04:39.000Z</time>
      </trkpt>
      <trkpt lat="46.4508" lon="4.11951">
        <ele>251.400041</ele>
        <time>2021-09-11T09:04:43.000Z</time>
      </trkpt>
      <trkpt lat="46.45081" lon="4.11951">
        <ele>251.475937</ele>
        <time>2021-09-11T09:04:44.000Z</time>
      </trkpt>
      <trkpt lat="46.4509" lon="4.11955">
        <ele>252.1384</ele>
        <time>2021-09-11T09:04:50.000Z</time>
      </trkpt>
      <trkpt lat="46.45093" lon="4.11956">
        <ele>252.339007</ele>
        <time>2021-09-11T09:04:54.000Z</time>
      </trkpt>
      <trkpt lat="46.45101" lon="4.11959">
        <ele>252.898491</ele>
        <time>2021-09-11T09:06:31.000Z</time>
      </trkpt>
      <trkpt lat="46.45113" lon="4.11966">
        <ele>253.739275</ele>
        <time>2021-09-11T09:06:39.000Z</time>
      </trkpt>
      <trkpt lat="46.45114" lon="4.11967">
        <ele>253.835671</ele>
        <time>2021-09-11T09:06:40.000Z</time>
      </trkpt>
      <trkpt lat="46.45119" lon="4.1197">
        <ele>254.185102</ele>
        <time>2021-09-11T09:06:44.000Z</time>
      </trkpt>
      <trkpt lat="46.45119" lon="4.1197">
        <ele>254.185102</ele>
        <time>2021-09-11T09:06:45.000Z</time>
      </trkpt>
      <trkpt lat="46.45112" lon="4.11959">
        <ele>254.863496</ele>
        <time>2021-09-11T10:06:38.000Z</time>
      </trkpt>
      <trkpt lat="46.45113" lon="4.11957">
        <ele>254.985137</ele>
        <time>2021-09-11T10:06:40.000Z</time>
      </trkpt>
      <trkpt lat="46.45112" lon="4.11965">
        <ele>255.341748</ele>
        <time>2021-09-11T10:06:41.000Z</time>
      </trkpt>
      <trkpt lat="46.45109" lon="4.11957">
        <ele>255.753795</ele>
        <time>2021-09-11T10:06:45.000Z</time>
      </trkpt>
      <trkpt lat="46.45093" lon="4.11956">
        <ele>256.805566</ele>
        <time>2021-09-11T10:06:51.000Z</time>
      </trkpt>
      <trkpt lat="46.4508" lon="4.11951">
        <ele>257.017361</ele>
        <time>2021-09-11T10:06:58.000Z</time>
      </trkpt>
      <trkpt lat="46.45075" lon="4.11949">
        <ele>256.572925</ele>
        <time>2021-09-11T10:07:01.000Z</time>
      </trkpt>
      <trkpt lat="46.45074" lon="4.11957">
        <ele>256.112792</ele>
        <time>2021-09-11T10:07:03.000Z</time>
      </trkpt>
      <trkpt lat="46.45072" lon="4.11965">
        <ele>255.649196</ele>
        <time>2021-09-11T10:07:08.000Z</time>
      </trkpt>
      <trkpt lat="46.45065" lon="4.11986">
        <ele>254.349785</ele>
        <time>2021-09-11T10:07:15.000Z</time>
      </trkpt>
      <trkpt lat="46.45056" lon="4.12013">
        <ele>252.671892</ele>
        <time>2021-09-11T10:07:22.000Z</time>
      </trkpt>
      <trkpt lat="46.45044" lon="4.12025">
        <ele>251.482816</ele>
        <time>2021-09-11T10:07:26.000Z</time>
      </trkpt>
      <trkpt lat="46.45027" lon="4.12043">
        <ele>249.814419</ele>
        <time>2021-09-11T10:07:33.000Z</time>
      </trkpt>
      <trkpt lat="46.45025" lon="4.12059">
        <ele>248.911528</ele>
        <time>2021-09-11T10:07:38.000Z</time>
      </trkpt>
      <trkpt lat="46.45025" lon="4.12076">
        <ele>247.960915</ele>
        <time>2021-09-11T10:07:44.000Z</time>
      </trkpt>
      <trkpt lat="46.45022" lon="4.12083">
        <ele>247.486643</ele>
        <time>2021-09-11T10:07:49.000Z</time>
      </trkpt>
      <trkpt lat="46.45021" lon="4.12084">
        <ele>247.421986</ele>
        <time>2021-09-11T10:08:38.000Z</time>
      </trkpt>
      <trkpt lat="46.45019" lon="4.12087">
        <ele>247.164131</ele>
        <time>2021-09-11T10:08:40.000Z</time>
      </trkpt>
      <trkpt lat="46.45013" lon="4.12094">
        <ele>246.529797</ele>
        <time>2021-09-11T10:08:44.000Z</time>
      </trkpt>
      <trkpt lat="46.45011" lon="4.12094">
        <ele>246.384758</ele>
        <time>2021-09-11T10:08:45.000Z</time>
      </trkpt>
      <trkpt lat="46.45006" lon="4.12097">
        <ele>245.931048</ele>
        <time>2021-09-11T10:08:49.000Z</time>
      </trkpt>
      <trkpt lat="46.45003" lon="4.12097">
        <ele>245.674475</ele>
        <time>2021-09-11T10:08:51.000Z</time>
      </trkpt>
      <trkpt lat="46.45" lon="4.12098">
        <ele>245.425855</ele>
        <time>2021-09-11T10:08:55.000Z</time>
      </trkpt>
      <trkpt lat="46.45" lon="4.12098">
        <ele>245.425855</ele>
        <time>2021-09-11T10:16:12.000Z</time>
      </trkpt>
      <trkpt lat="46.45017" lon="4.12085">
        <ele>243.80569</ele>
        <time>2021-09-11T10:16:18.000Z</time>
      </trkpt>
      <trkpt lat="46.45025" lon="4.1208">
        <ele>243.124484</ele>
        <time>2021-09-11T10:16:24.000Z</time>
      </trkpt>
      <trkpt lat="46.45036" lon="4.12058">
        <ele>242.834814</ele>
        <time>2021-09-11T10:16:31.000Z</time>
      </trkpt>
      <trkpt lat="46.4505" lon="4.12031">
        <ele>242.870639</ele>
        <time>2021-09-11T10:16:40.000Z</time>
      </trkpt>
      <trkpt lat="46.45059" lon="4.1201">
        <ele>242.898033</ele>
        <time>2021-09-11T10:16:47.000Z</time>
      </trkpt>
      <trkpt lat="46.4504" lon="4.11985">
        <ele>242.938282</ele>
        <time>2021-09-11T10:16:52.000Z</time>
      </trkpt>
      <trkpt lat="46.45045" lon="4.11964">
        <ele>242.962243</ele>
        <time>2021-09-11T10:16:59.000Z</time>
      </trkpt>
      <trkpt lat="46.45048" lon="4.11941">
        <ele>242.987468</ele>
        <time>2021-09-11T10:17:03.000Z</time>
      </trkpt>
      <trkpt lat="46.45049" lon="4.11938">
        <ele>242.99056</ele>
        <time>2021-09-11T10:17:04.000Z</time>
      </trkpt>
      <trkpt lat="46.45049" lon="4.11935">
        <ele>242.993737</ele>
        <time>2021-09-11T10:17:09.000Z</time>
      </trkpt>
      <trkpt lat="46.45035" lon="4.11928">
        <ele>243.017313</ele>
        <time>2021-09-11T10:17:14.000Z</time>
      </trkpt>
      <trkpt lat="46.4502" lon="4.11921">
        <ele>243.041259</ele>
        <time>2021-09-11T10:17:20.000Z</time>
      </trkpt>
      <trkpt lat="46.45005" lon="4.11912">
        <ele>243.067272</ele>
        <time>2021-09-11T10:17:27.000Z</time>
      </trkpt>
      <trkpt lat="46.44987" lon="4.11895">
        <ele>243.130043</ele>
        <time>2021-09-11T10:17:34.000Z</time>
      </trkpt>
      <trkpt lat="46.44979" lon="4.11888">
        <ele>243.212182</ele>
        <time>2021-09-11T10:17:38.000Z</time>
      </trkpt>
      <trkpt lat="46.44978" lon="4.11887">
        <ele>243.221438</ele>
        <time>2021-09-11T10:17:40.000Z</time>
      </trkpt>
      <trkpt lat="46.44975" lon="4.11884">
        <ele>243.257089</ele>
        <time>2021-09-11T10:18:01.000Z</time>
      </trkpt>
      <trkpt lat="46.44973" lon="4.11882">
        <ele>243.278479</ele>
        <time>2021-09-11T10:18:02.000Z</time>
      </trkpt>
      <trkpt lat="46.44955" lon="4.1187">
        <ele>243.445865</ele>
        <time>2021-09-11T10:18:08.000Z</time>
      </trkpt>
      <trkpt lat="46.44934" lon="4.11855">
        <ele>243.657202</ele>
        <time>2021-09-11T10:18:14.000Z</time>
      </trkpt>
      <trkpt lat="46.44919" lon="4.1185">
        <ele>243.791793</ele>
        <time>2021-09-11T10:18:17.000Z</time>
      </trkpt>
      <trkpt lat="46.44919" lon="4.1185">
        <ele>243.791793</ele>
        <time>2021-09-11T10:18:18.000Z</time>
      </trkpt>
      <trkpt lat="46.44916" lon="4.11849">
        <ele>243.821043</ele>
        <time>2021-09-11T10:18:22.000Z</time>
      </trkpt>
      <trkpt lat="46.44912" lon="4.11847">
        <ele>243.856937</ele>
        <time>2021-09-11T10:25:19.000Z</time>
      </trkpt>
      <trkpt lat="46.44897" lon="4.11838">
        <ele>243.995824</ele>
        <time>2021-09-11T10:25:26.000Z</time>
      </trkpt>
      <trkpt lat="46.44878" lon="4.11826">
        <ele>244.178749</ele>
        <time>2021-09-11T10:25:35.000Z</time>
      </trkpt>
      <trkpt lat="46.44864" lon="4.11815">
        <ele>244.315689</ele>
        <time>2021-09-11T10:25:43.000Z</time>
      </trkpt>
      <trkpt lat="46.44853" lon="4.11806">
        <ele>244.431546</ele>
        <time>2021-09-11T10:25:48.000Z</time>
      </trkpt>
      <trkpt lat="46.44829" lon="4.11788">
        <ele>244.666432</ele>
        <time>2021-09-11T10:25:56.000Z</time>
      </trkpt>
      <trkpt lat="46.44806" lon="4.1177">
        <ele>244.685072</ele>
        <time>2021-09-11T10:26:03.000Z</time>
      </trkpt>
      <trkpt lat="46.44792" lon="4.11757">
        <ele>244.693119</ele>
        <time>2021-09-11T10:26:08.000Z</time>
      </trkpt>
      <trkpt lat="46.44776" lon="4.11759">
        <ele>244.701287</ele>
        <time>2021-09-11T10:26:13.000Z</time>
      </trkpt>
      <trkpt lat="46.44763" lon="4.1176">
        <ele>244.707496</ele>
        <time>2021-09-11T10:26:18.000Z</time>
      </trkpt>
      <trkpt lat="46.44741" lon="4.11762">
        <ele>244.71835</ele>
        <time>2021-09-11T10:26:25.000Z</time>
      </trkpt>
      <trkpt lat="46.4472" lon="4.1176">
        <ele>244.728467</ele>
        <time>2021-09-11T10:26:32.000Z</time>
      </trkpt>
      <trkpt lat="46.4471" lon="4.1175">
        <ele>244.73455</ele>
        <time>2021-09-11T10:26:37.000Z</time>
      </trkpt>
      <trkpt lat="46.44705" lon="4.11743">
        <ele>244.737858</ele>
        <time>2021-09-11T10:26:41.000Z</time>
      </trkpt>
      <trkpt lat="46.44698" lon="4.11739">
        <ele>244.741404</ele>
        <time>2021-09-11T10:26:42.000Z</time>
      </trkpt>
      <trkpt lat="46.44695" lon="4.11745">
        <ele>244.744023</ele>
        <time>2021-09-11T10:26:44.000Z</time>
      </trkpt>
      <trkpt lat="46.447" lon="4.11731">
        <ele>244.749453</ele>
        <time>2021-09-11T10:26:47.000Z</time>
      </trkpt>
      <trkpt lat="46.44698" lon="4.11728">
        <ele>244.750906</ele>
        <time>2021-09-11T10:26:53.000Z</time>
      </trkpt>
      <trkpt lat="46.44702" lon="4.11734">
        <ele>244.753927</ele>
        <time>2021-09-11T10:26:56.000Z</time>
      </trkpt>
      <trkpt lat="46.44704" lon="4.11739">
        <ele>244.755794</ele>
        <time>2021-09-11T10:27:03.000Z</time>
      </trkpt>
      <trkpt lat="46.44712" lon="4.11753">
        <ele>244.738513</ele>
        <time>2021-09-11T10:27:08.000Z</time>
      </trkpt>
      <trkpt lat="46.44716" lon="4.11757">
        <ele>244.696904</ele>
        <time>2021-09-11T10:27:10.000Z</time>
      </trkpt>
      <trkpt lat="46.44716" lon="4.11765">
        <ele>244.653655</ele>
        <time>2021-09-11T10:27:11.000Z</time>
      </trkpt>
      <trkpt lat="46.44713" lon="4.11768">
        <ele>244.625683</ele>
        <time>2021-09-11T10:27:12.000Z</time>
      </trkpt>
      <trkpt lat="46.44703" lon="4.11783">
        <ele>244.505536</ele>
        <time>2021-09-11T10:27:15.000Z</time>
      </trkpt>
      <trkpt lat="46.44694" lon="4.11796">
        <ele>244.403105</ele>
        <time>2021-09-11T10:27:17.000Z</time>
      </trkpt>
      <trkpt lat="46.44692" lon="4.11799">
        <ele>244.381243</ele>
        <time>2021-09-11T10:27:20.000Z</time>
      </trkpt>
      <trkpt lat="46.4464" lon="4.11823">
        <ele>243.931935</ele>
        <time>2021-09-11T10:27:26.000Z</time>
      </trkpt>
      <trkpt lat="46.44636" lon="4.11829">
        <ele>243.886242</ele>
        <time>2021-09-11T10:27:27.000Z</time>
      </trkpt>
      <trkpt lat="46.44643" lon="4.11889">
        <ele>243.541646</ele>
        <time>2021-09-11T10:27:30.000Z</time>
      </trkpt>
      <trkpt lat="46.44636" lon="4.11916">
        <ele>243.375601</ele>
        <time>2021-09-11T10:27:35.000Z</time>
      </trkpt>
      <trkpt lat="46.44634" lon="4.11924">
        <ele>243.329215</ele>
        <time>2021-09-11T10:27:36.000Z</time>
      </trkpt>
      <trkpt lat="46.44627" lon="4.11951">
        <ele>243.197473</ele>
        <time>2021-09-11T10:27:40.000Z</time>
      </trkpt>
      <trkpt lat="46.44623" lon="4.11964">
        <ele>243.14183</ele>
        <time>2021-09-11T10:27:42.000Z</time>
      </trkpt>
      <trkpt lat="46.44619" lon="4.11976">
        <ele>243.091425</ele>
        <time>2021-09-11T10:27:44.000Z</time>
      </trkpt>
      <trkpt lat="46.44616" lon="4.11987">
        <ele>243.042434</ele>
        <time>2021-09-11T10:27:46.000Z</time>
      </trkpt>
      <trkpt lat="46.44612" lon="4.11997">
        <ele>242.995113</ele>
        <time>2021-09-11T10:27:48.000Z</time>
      </trkpt>
      <trkpt lat="46.44596" lon="4.12014">
        <ele>242.884167</ele>
        <time>2021-09-11T10:27:53.000Z</time>
      </trkpt>
      <trkpt lat="46.44585" lon="4.12024">
        <ele>242.81102</ele>
        <time>2021-09-11T10:27:56.000Z</time>
      </trkpt>
      <trkpt lat="46.44581" lon="4.12028">
        <ele>242.78306</ele>
        <time>2021-09-11T10:27:58.000Z</time>
      </trkpt>
      <trkpt lat="46.44574" lon="4.12038">
        <ele>242.725214</ele>
        <time>2021-09-11T10:27:59.000Z</time>
      </trkpt>
      <trkpt lat="46.44564" lon="4.1206">
        <ele>242.620408</ele>
        <time>2021-09-11T10:28:03.000Z</time>
      </trkpt>
      <trkpt lat="46.44561" lon="4.12071">
        <ele>242.573251</ele>
        <time>2021-09-11T10:28:05.000Z</time>
      </trkpt>
      <trkpt lat="46.44552" lon="4.12097">
        <ele>242.459527</ele>
        <time>2021-09-11T10:28:10.000Z</time>
      </trkpt>
      <trkpt lat="46.44549" lon="4.12107">
        <ele>242.415861</ele>
        <time>2021-09-11T10:28:12.000Z</time>
      </trkpt>
      <trkpt lat="46.44534" lon="4.12153">
        <ele>242.238647</ele>
        <time>2021-09-11T10:28:19.000Z</time>
      </trkpt>
      <trkpt lat="46.44525" lon="4.12182">
        <ele>242.202912</ele>
        <time>2021-09-11T10:28:24.000Z</time>
      </trkpt>
      <trkpt lat="46.44518" lon="4.12204">
        <ele>242.176177</ele>
        <time>2021-09-11T10:28:26.000Z</time>
      </trkpt>
      <trkpt lat="46.44499" lon="4.12264">
        <ele>242.103573</ele>
        <time>2021-09-11T10:28:34.000Z</time>
      </trkpt>
      <trkpt lat="46.44479" lon="4.12325">
        <ele>242.029969</ele>
        <time>2021-09-11T10:28:42.000Z</time>
      </trkpt>
      <trkpt lat="46.44456" lon="4.12397">
        <ele>241.964839</ele>
        <time>2021-09-11T10:28:51.000Z</time>
      </trkpt>
      <trkpt lat="46.44432" lon="4.12469">
        <ele>241.983832</ele>
        <time>2021-09-11T10:29:00.000Z</time>
      </trkpt>
      <trkpt lat="46.44429" lon="4.12477">
        <ele>241.985956</ele>
        <time>2021-09-11T10:29:01.000Z</time>
      </trkpt>
      <trkpt lat="46.44411" lon="4.12532">
        <ele>242.000659</ele>
        <time>2021-09-11T10:29:08.000Z</time>
      </trkpt>
      <trkpt lat="46.444" lon="4.12566">
        <ele>242.009441</ele>
        <time>2021-09-11T10:29:13.000Z</time>
      </trkpt>
      <trkpt lat="46.44387" lon="4.12609">
        <ele>242.020656</ele>
        <time>2021-09-11T10:29:20.000Z</time>
      </trkpt>
      <trkpt lat="46.44369" lon="4.12665">
        <ele>242.167412</ele>
        <time>2021-09-11T10:29:28.000Z</time>
      </trkpt>
      <trkpt lat="46.44352" lon="4.12717">
        <ele>242.325267</ele>
        <time>2021-09-11T10:29:35.000Z</time>
      </trkpt>
      <trkpt lat="46.44333" lon="4.12773">
        <ele>242.498088</ele>
        <time>2021-09-11T10:29:43.000Z</time>
      </trkpt>
      <trkpt lat="46.44331" lon="4.12781">
        <ele>242.520026</ele>
        <time>2021-09-11T10:29:44.000Z</time>
      </trkpt>
      <trkpt lat="46.44325" lon="4.12811">
        <ele>242.60644</ele>
        <time>2021-09-11T10:29:48.000Z</time>
      </trkpt>
      <trkpt lat="46.44323" lon="4.12818">
        <ele>242.627582</ele>
        <time>2021-09-11T10:29:49.000Z</time>
      </trkpt>
      <trkpt lat="46.44316" lon="4.12871">
        <ele>242.766031</ele>
        <time>2021-09-11T10:29:56.000Z</time>
      </trkpt>
      <trkpt lat="46.44316" lon="4.12887">
        <ele>242.79441</ele>
        <time>2021-09-11T10:29:58.000Z</time>
      </trkpt>
      <trkpt lat="46.44315" lon="4.12911">
        <ele>242.838342</ele>
        <time>2021-09-11T10:30:01.000Z</time>
      </trkpt>
      <trkpt lat="46.44315" lon="4.12966">
        <ele>242.940109</ele>
        <time>2021-09-11T10:30:08.000Z</time>
      </trkpt>
      <trkpt lat="46.44315" lon="4.12974">
        <ele>242.954753</ele>
        <time>2021-09-11T10:30:09.000Z</time>
      </trkpt>
      <trkpt lat="46.44315" lon="4.12998">
        <ele>242.997946</ele>
        <time>2021-09-11T10:30:12.000Z</time>
      </trkpt>
      <trkpt lat="46.44315" lon="4.13038">
        <ele>243.071338</ele>
        <time>2021-09-11T10:30:17.000Z</time>
      </trkpt>
      <trkpt lat="46.44315" lon="4.13112">
        <ele>243.207141</ele>
        <time>2021-09-11T10:30:26.000Z</time>
      </trkpt>
      <trkpt lat="46.44316" lon="4.13162">
        <ele>243.209475</ele>
        <time>2021-09-11T10:30:32.000Z</time>
      </trkpt>
      <trkpt lat="46.44316" lon="4.13211">
        <ele>243.195659</ele>
        <time>2021-09-11T10:30:38.000Z</time>
      </trkpt>
      <trkpt lat="46.44316" lon="4.13268">
        <ele>243.179634</ele>
        <time>2021-09-11T10:30:45.000Z</time>
      </trkpt>
      <trkpt lat="46.44316" lon="4.13294">
        <ele>243.17253</ele>
        <time>2021-09-11T10:30:48.000Z</time>
      </trkpt>
      <trkpt lat="46.44316" lon="4.1332">
        <ele>243.165259</ele>
        <time>2021-09-11T10:30:51.000Z</time>
      </trkpt>
      <trkpt lat="46.44317" lon="4.13388">
        <ele>243.137931</ele>
        <time>2021-09-11T10:30:59.000Z</time>
      </trkpt>
      <trkpt lat="46.44317" lon="4.13404">
        <ele>243.116148</ele>
        <time>2021-09-11T10:31:01.000Z</time>
      </trkpt>
      <trkpt lat="46.44317" lon="4.13419">
        <ele>243.095198</ele>
        <time>2021-09-11T10:31:03.000Z</time>
      </trkpt>
      <trkpt lat="46.44317" lon="4.13427">
        <ele>243.084238</ele>
        <time>2021-09-11T10:31:04.000Z</time>
      </trkpt>
      <trkpt lat="46.44317" lon="4.13457">
        <ele>243.043171</ele>
        <time>2021-09-11T10:31:08.000Z</time>
      </trkpt>
      <trkpt lat="46.44317" lon="4.13464">
        <ele>243.03318</ele>
        <time>2021-09-11T10:31:09.000Z</time>
      </trkpt>
      <trkpt lat="46.44317" lon="4.13502">
        <ele>242.979766</ele>
        <time>2021-09-11T10:31:14.000Z</time>
      </trkpt>
      <trkpt lat="46.44317" lon="4.1351">
        <ele>242.968665</ele>
        <time>2021-09-11T10:31:15.000Z</time>
      </trkpt>
      <trkpt lat="46.44317" lon="4.1356">
        <ele>242.899711</ele>
        <time>2021-09-11T10:31:21.000Z</time>
      </trkpt>
      <trkpt lat="46.44318" lon="4.1362">
        <ele>242.815773</ele>
        <time>2021-09-11T10:31:28.000Z</time>
      </trkpt>
      <trkpt lat="46.44318" lon="4.13672">
        <ele>242.760394</ele>
        <time>2021-09-11T10:31:34.000Z</time>
      </trkpt>
      <trkpt lat="46.44318" lon="4.13731">
        <ele>242.710382</ele>
        <time>2021-09-11T10:31:41.000Z</time>
      </trkpt>
      <trkpt lat="46.44318" lon="4.13756">
        <ele>242.689516</ele>
        <time>2021-09-11T10:31:44.000Z</time>
      </trkpt>
      <trkpt lat="46.44318" lon="4.13772">
        <ele>242.675746</ele>
        <time>2021-09-11T10:31:46.000Z</time>
      </trkpt>
      <trkpt lat="46.44319" lon="4.13814">
        <ele>242.641026</ele>
        <time>2021-09-11T10:31:51.000Z</time>
      </trkpt>
      <trkpt lat="46.44319" lon="4.13822">
        <ele>242.634098</ele>
        <time>2021-09-11T10:31:52.000Z</time>
      </trkpt>
      <trkpt lat="46.44319" lon="4.1387">
        <ele>242.593379</ele>
        <time>2021-09-11T10:31:58.000Z</time>
      </trkpt>
      <trkpt lat="46.44319" lon="4.13878">
        <ele>242.586452</ele>
        <time>2021-09-11T10:31:59.000Z</time>
      </trkpt>
      <trkpt lat="46.44319" lon="4.13903">
        <ele>242.565839</ele>
        <time>2021-09-11T10:32:02.000Z</time>
      </trkpt>
      <trkpt lat="46.44319" lon="4.13911">
        <ele>242.556425</ele>
        <time>2021-09-11T10:32:03.000Z</time>
      </trkpt>
      <trkpt lat="46.44319" lon="4.1396">
        <ele>242.499553</ele>
        <time>2021-09-11T10:32:09.000Z</time>
      </trkpt>
      <trkpt lat="46.44319" lon="4.13976">
        <ele>242.48017</ele>
        <time>2021-09-11T10:32:11.000Z</time>
      </trkpt>
      <trkpt lat="46.44319" lon="4.13993">
        <ele>242.460555</ele>
        <time>2021-09-11T10:32:13.000Z</time>
      </trkpt>
      <trkpt lat="46.44319" lon="4.14002">
        <ele>242.45092</ele>
        <time>2021-09-11T10:32:14.000Z</time>
      </trkpt>
      <trkpt lat="46.4432" lon="4.14035">
        <ele>242.412155</ele>
        <time>2021-09-11T10:32:18.000Z</time>
      </trkpt>
      <trkpt lat="46.4432" lon="4.14092">
        <ele>242.346112</ele>
        <time>2021-09-11T10:32:25.000Z</time>
      </trkpt>
      <trkpt lat="46.4432" lon="4.14138">
        <ele>242.292142</ele>
        <time>2021-09-11T10:32:31.000Z</time>
      </trkpt>
      <trkpt lat="46.44316" lon="4.14179">
        <ele>242.255854</ele>
        <time>2021-09-11T10:32:37.000Z</time>
      </trkpt>
      <trkpt lat="46.44314" lon="4.14214">
        <ele>242.240944</ele>
        <time>2021-09-11T10:32:42.000Z</time>
      </trkpt>
      <trkpt lat="46.44314" lon="4.14227">
        <ele>242.235173</ele>
        <time>2021-09-11T10:32:44.000Z</time>
      </trkpt>
      <trkpt lat="46.44316" lon="4.14252">
        <ele>242.224561</ele>
        <time>2021-09-11T10:32:47.000Z</time>
      </trkpt>
      <trkpt lat="46.44318" lon="4.1432">
        <ele>242.195117</ele>
        <time>2021-09-11T10:32:55.000Z</time>
      </trkpt>
      <trkpt lat="46.44319" lon="4.14381">
        <ele>242.168601</ele>
        <time>2021-09-11T10:33:02.000Z</time>
      </trkpt>
      <trkpt lat="46.44318" lon="4.14439">
        <ele>242.13944</ele>
        <time>2021-09-11T10:33:09.000Z</time>
      </trkpt>
      <trkpt lat="46.44315" lon="4.14473">
        <ele>242.115547</ele>
        <time>2021-09-11T10:33:13.000Z</time>
      </trkpt>
      <trkpt lat="46.44314" lon="4.14489">
        <ele>242.103765</ele>
        <time>2021-09-11T10:33:15.000Z</time>
      </trkpt>
      <trkpt lat="46.4431" lon="4.1453">
        <ele>242.073935</ele>
        <time>2021-09-11T10:33:20.000Z</time>
      </trkpt>
      <trkpt lat="46.44305" lon="4.1458">
        <ele>242.038658</ele>
        <time>2021-09-11T10:33:26.000Z</time>
      </trkpt>
      <trkpt lat="46.443" lon="4.14631">
        <ele>242.001632</ele>
        <time>2021-09-11T10:33:32.000Z</time>
      </trkpt>
      <trkpt lat="46.44294" lon="4.14699">
        <ele>241.958589</ele>
        <time>2021-09-11T10:33:40.000Z</time>
      </trkpt>
      <trkpt lat="46.4429" lon="4.1474">
        <ele>241.943859</ele>
        <time>2021-09-11T10:33:45.000Z</time>
      </trkpt>
      <trkpt lat="46.44285" lon="4.14791">
        <ele>241.925502</ele>
        <time>2021-09-11T10:33:51.000Z</time>
      </trkpt>
      <trkpt lat="46.44278" lon="4.14858">
        <ele>241.90144</ele>
        <time>2021-09-11T10:33:59.000Z</time>
      </trkpt>
      <trkpt lat="46.44276" lon="4.14875">
        <ele>241.895516</ele>
        <time>2021-09-11T10:34:01.000Z</time>
      </trkpt>
      <trkpt lat="46.44274" lon="4.149">
        <ele>241.886394</ele>
        <time>2021-09-11T10:34:04.000Z</time>
      </trkpt>
      <trkpt lat="46.44266" lon="4.14958">
        <ele>241.816394</ele>
        <time>2021-09-11T10:34:11.000Z</time>
      </trkpt>
      <trkpt lat="46.44256" lon="4.14996">
        <ele>241.681945</ele>
        <time>2021-09-11T10:34:16.000Z</time>
      </trkpt>
      <trkpt lat="46.44241" lon="4.15045">
        <ele>241.507036</ele>
        <time>2021-09-11T10:34:23.000Z</time>
      </trkpt>
      <trkpt lat="46.44233" lon="4.15074">
        <ele>241.40364</ele>
        <time>2021-09-11T10:34:27.000Z</time>
      </trkpt>
      <trkpt lat="46.4423" lon="4.15091">
        <ele>241.348671</ele>
        <time>2021-09-11T10:34:29.000Z</time>
      </trkpt>
      <trkpt lat="46.44229" lon="4.15108">
        <ele>241.294031</ele>
        <time>2021-09-11T10:34:31.000Z</time>
      </trkpt>
      <trkpt lat="46.44228" lon="4.15132">
        <ele>241.213207</ele>
        <time>2021-09-11T10:34:34.000Z</time>
      </trkpt>
      <trkpt lat="46.44233" lon="4.15154">
        <ele>241.137844</ele>
        <time>2021-09-11T10:34:37.000Z</time>
      </trkpt>
      <trkpt lat="46.44235" lon="4.15162">
        <ele>241.110877</ele>
        <time>2021-09-11T10:34:38.000Z</time>
      </trkpt>
      <trkpt lat="46.44238" lon="4.1517">
        <ele>241.082844</ele>
        <time>2021-09-11T10:34:39.000Z</time>
      </trkpt>
      <trkpt lat="46.44243" lon="4.15184">
        <ele>241.030205</ele>
        <time>2021-09-11T10:34:41.000Z</time>
      </trkpt>
      <trkpt lat="46.44246" lon="4.15191">
        <ele>241.019726</ele>
        <time>2021-09-11T10:34:42.000Z</time>
      </trkpt>
      <trkpt lat="46.44264" lon="4.15224">
        <ele>241.011256</ele>
        <time>2021-09-11T10:34:47.000Z</time>
      </trkpt>
      <trkpt lat="46.44267" lon="4.1523">
        <ele>241.009631</ele>
        <time>2021-09-11T10:34:48.000Z</time>
      </trkpt>
      <trkpt lat="46.44284" lon="4.15261">
        <ele>241.001788</ele>
        <time>2021-09-11T10:34:53.000Z</time>
      </trkpt>
      <trkpt lat="46.44298" lon="4.15287">
        <ele>240.995091</ele>
        <time>2021-09-11T10:34:57.000Z</time>
      </trkpt>
      <trkpt lat="46.44306" lon="4.15299">
        <ele>240.991719</ele>
        <time>2021-09-11T10:34:59.000Z</time>
      </trkpt>
      <trkpt lat="46.44318" lon="4.15319">
        <ele>240.986355</ele>
        <time>2021-09-11T10:35:02.000Z</time>
      </trkpt>
      <trkpt lat="46.44335" lon="4.15342">
        <ele>240.979511</ele>
        <time>2021-09-11T10:35:06.000Z</time>
      </trkpt>
      <trkpt lat="46.44365" lon="4.15373">
        <ele>240.968824</ele>
        <time>2021-09-11T10:35:12.000Z</time>
      </trkpt>
      <trkpt lat="46.44404" lon="4.15403">
        <ele>241.081634</ele>
        <time>2021-09-11T10:35:19.000Z</time>
      </trkpt>
      <trkpt lat="46.44437" lon="4.15425">
        <ele>241.178968</ele>
        <time>2021-09-11T10:35:25.000Z</time>
      </trkpt>
      <trkpt lat="46.44487" lon="4.15459">
        <ele>241.326014</ele>
        <time>2021-09-11T10:35:34.000Z</time>
      </trkpt>
      <trkpt lat="46.44513" lon="4.15477">
        <ele>241.404443</ele>
        <time>2021-09-11T10:35:39.000Z</time>
      </trkpt>
      <trkpt lat="46.4455" lon="4.15502">
        <ele>241.53429</ele>
        <time>2021-09-11T10:35:46.000Z</time>
      </trkpt>
      <trkpt lat="46.44582" lon="4.15524">
        <ele>241.660405</ele>
        <time>2021-09-11T10:35:52.000Z</time>
      </trkpt>
      <trkpt lat="46.44613" lon="4.15545">
        <ele>241.782248</ele>
        <time>2021-09-11T10:35:58.000Z</time>
      </trkpt>
      <trkpt lat="46.44646" lon="4.15561">
        <ele>241.903682</ele>
        <time>2021-09-11T10:36:04.000Z</time>
      </trkpt>
      <trkpt lat="46.44667" lon="4.15571">
        <ele>241.983653</ele>
        <time>2021-09-11T10:36:08.000Z</time>
      </trkpt>
      <trkpt lat="46.44703" lon="4.15583">
        <ele>242.101747</ele>
        <time>2021-09-11T10:36:14.000Z</time>
      </trkpt>
      <trkpt lat="46.44743" lon="4.15596">
        <ele>242.173576</ele>
        <time>2021-09-11T10:36:21.000Z</time>
      </trkpt>
      <trkpt lat="46.44779" lon="4.15607">
        <ele>242.23679</ele>
        <time>2021-09-11T10:36:27.000Z</time>
      </trkpt>
      <trkpt lat="46.44828" lon="4.15623">
        <ele>242.322888</ele>
        <time>2021-09-11T10:36:35.000Z</time>
      </trkpt>
      <trkpt lat="46.4485" lon="4.1563">
        <ele>242.361514</ele>
        <time>2021-09-11T10:36:39.000Z</time>
      </trkpt>
      <trkpt lat="46.44855" lon="4.15632">
        <ele>242.37018</ele>
        <time>2021-09-11T10:36:40.000Z</time>
      </trkpt>
      <trkpt lat="46.44878" lon="4.1564">
        <ele>242.41522</ele>
        <time>2021-09-11T10:36:45.000Z</time>
      </trkpt>
      <trkpt lat="46.44882" lon="4.15641">
        <ele>242.42785</ele>
        <time>2021-09-11T10:36:46.000Z</time>
      </trkpt>
      <trkpt lat="46.44912" lon="4.15651">
        <ele>242.5066</ele>
        <time>2021-09-11T10:36:52.000Z</time>
      </trkpt>
      <trkpt lat="46.44941" lon="4.1566">
        <ele>242.584726</ele>
        <time>2021-09-11T10:36:58.000Z</time>
      </trkpt>
      <trkpt lat="46.44974" lon="4.15671">
        <ele>242.67423</ele>
        <time>2021-09-11T10:37:05.000Z</time>
      </trkpt>
      <trkpt lat="46.45007" lon="4.15683">
        <ele>242.762424</ele>
        <time>2021-09-11T10:37:13.000Z</time>
      </trkpt>
      <trkpt lat="46.45028" lon="4.1569">
        <ele>242.817672</ele>
        <time>2021-09-11T10:37:18.000Z</time>
      </trkpt>
      <trkpt lat="46.45032" lon="4.15691">
        <ele>242.828401</ele>
        <time>2021-09-11T10:37:19.000Z</time>
      </trkpt>
      <trkpt lat="46.45057" lon="4.157">
        <ele>243.210776</ele>
        <time>2021-09-11T10:37:26.000Z</time>
      </trkpt>
      <trkpt lat="46.45082" lon="4.15708">
        <ele>244.112122</ele>
        <time>2021-09-11T10:37:33.000Z</time>
      </trkpt>
      <trkpt lat="46.45086" lon="4.15709">
        <ele>244.259405</ele>
        <time>2021-09-11T10:37:34.000Z</time>
      </trkpt>
      <trkpt lat="46.45108" lon="4.15711">
        <ele>245.044861</ele>
        <time>2021-09-11T10:37:39.000Z</time>
      </trkpt>
      <trkpt lat="46.45127" lon="4.15712">
        <ele>245.70065</ele>
        <time>2021-09-11T10:37:44.000Z</time>
      </trkpt>
      <trkpt lat="46.45141" lon="4.15719">
        <ele>246.203527</ele>
        <time>2021-09-11T10:37:50.000Z</time>
      </trkpt>
      <trkpt lat="46.45141" lon="4.15739">
        <ele>246.6978</ele>
        <time>2021-09-11T10:37:56.000Z</time>
      </trkpt>
      <trkpt lat="46.45141" lon="4.15762">
        <ele>247.252295</ele>
        <time>2021-09-11T10:38:02.000Z</time>
      </trkpt>
      <trkpt lat="46.45141" lon="4.1579">
        <ele>247.920329</ele>
        <time>2021-09-11T10:38:08.000Z</time>
      </trkpt>
      <trkpt lat="46.45142" lon="4.15797">
        <ele>248.082801</ele>
        <time>2021-09-11T10:38:10.000Z</time>
      </trkpt>
      <trkpt lat="46.45142" lon="4.15798">
        <ele>248.118147</ele>
        <time>2021-09-11T10:38:12.000Z</time>
      </trkpt>
      <trkpt lat="46.45142" lon="4.15798">
        <ele>248.118147</ele>
        <time>2021-09-11T10:38:13.000Z</time>
      </trkpt>
      <trkpt lat="46.45143" lon="4.158">
        <ele>248.168536</ele>
        <time>2021-09-11T10:39:25.000Z</time>
      </trkpt>
      <trkpt lat="46.45138" lon="4.15808">
        <ele>248.407493</ele>
        <time>2021-09-11T10:39:27.000Z</time>
      </trkpt>
      <trkpt lat="46.45138" lon="4.15825">
        <ele>248.830319</ele>
        <time>2021-09-11T10:39:33.000Z</time>
      </trkpt>
      <trkpt lat="46.45138" lon="4.15846">
        <ele>249.49699</ele>
        <time>2021-09-11T10:39:41.000Z</time>
      </trkpt>
      <trkpt lat="46.45138" lon="4.15861">
        <ele>250.202354</ele>
        <time>2021-09-11T10:39:47.000Z</time>
      </trkpt>
      <trkpt lat="46.45138" lon="4.15875">
        <ele>250.888661</ele>
        <time>2021-09-11T10:39:53.000Z</time>
      </trkpt>
      <trkpt lat="46.45139" lon="4.15898">
        <ele>251.984819</ele>
        <time>2021-09-11T10:40:01.000Z</time>
      </trkpt>
      <trkpt lat="46.45139" lon="4.15921">
        <ele>253.085568</ele>
        <time>2021-09-11T10:40:09.000Z</time>
      </trkpt>
      <trkpt lat="46.45138" lon="4.15946">
        <ele>254.286441</ele>
        <time>2021-09-11T10:40:17.000Z</time>
      </trkpt>
      <trkpt lat="46.45138" lon="4.15969">
        <ele>255.3586</ele>
        <time>2021-09-11T10:40:24.000Z</time>
      </trkpt>
      <trkpt lat="46.45138" lon="4.15991">
        <ele>256.411699</ele>
        <time>2021-09-11T10:40:31.000Z</time>
      </trkpt>
      <trkpt lat="46.45138" lon="4.16015">
        <ele>257.574393</ele>
        <time>2021-09-11T10:40:39.000Z</time>
      </trkpt>
      <trkpt lat="46.45138" lon="4.16047">
        <ele>259.099273</ele>
        <time>2021-09-11T10:40:49.000Z</time>
      </trkpt>
      <trkpt lat="46.45138" lon="4.16067">
        <ele>260.028484</ele>
        <time>2021-09-11T10:40:55.000Z</time>
      </trkpt>
      <trkpt lat="46.45138" lon="4.16097">
        <ele>261.453302</ele>
        <time>2021-09-11T10:41:04.000Z</time>
      </trkpt>
      <trkpt lat="46.45138" lon="4.16104">
        <ele>261.706372</ele>
        <time>2021-09-11T10:41:06.000Z</time>
      </trkpt>
      <trkpt lat="46.45138" lon="4.16108">
        <ele>261.834451</ele>
        <time>2021-09-11T10:41:08.000Z</time>
      </trkpt>
      <trkpt lat="46.45137" lon="4.16119">
        <ele>262.143469</ele>
        <time>2021-09-11T10:41:12.000Z</time>
      </trkpt>
      <trkpt lat="46.45137" lon="4.16121">
        <ele>262.207648</ele>
        <time>2021-09-11T10:41:13.000Z</time>
      </trkpt>
      <trkpt lat="46.45135" lon="4.16127">
        <ele>262.424885</ele>
        <time>2021-09-11T10:41:18.000Z</time>
      </trkpt>
      <trkpt lat="46.45135" lon="4.16127">
        <ele>262.424885</ele>
        <time>2021-09-11T10:41:19.000Z</time>
      </trkpt>
      <trkpt lat="46.45135" lon="4.1614">
        <ele>262.797505</ele>
        <time>2021-09-11T10:44:26.000Z</time>
      </trkpt>
      <trkpt lat="46.45133" lon="4.16145">
        <ele>262.955347</ele>
        <time>2021-09-11T10:44:28.000Z</time>
      </trkpt>
      <trkpt lat="46.45132" lon="4.16156">
        <ele>263.291705</ele>
        <time>2021-09-11T10:44:32.000Z</time>
      </trkpt>
      <trkpt lat="46.45132" lon="4.1616">
        <ele>263.404319</ele>
        <time>2021-09-11T10:44:33.000Z</time>
      </trkpt>
      <trkpt lat="46.45136" lon="4.16182">
        <ele>264.055122</ele>
        <time>2021-09-11T10:44:38.000Z</time>
      </trkpt>
      <trkpt lat="46.45139" lon="4.16208">
        <ele>264.816105</ele>
        <time>2021-09-11T10:44:44.000Z</time>
      </trkpt>
      <trkpt lat="46.4514" lon="4.16244">
        <ele>265.859884</ele>
        <time>2021-09-11T10:44:51.000Z</time>
      </trkpt>
      <trkpt lat="46.45144" lon="4.1628">
        <ele>266.939264</ele>
        <time>2021-09-11T10:44:58.000Z</time>
      </trkpt>
      <trkpt lat="46.45146" lon="4.16285">
        <ele>267.09907</ele>
        <time>2021-09-11T10:44:59.000Z</time>
      </trkpt>
      <trkpt lat="46.45152" lon="4.16307">
        <ele>267.798544</ele>
        <time>2021-09-11T10:45:03.000Z</time>
      </trkpt>
      <trkpt lat="46.45154" lon="4.16313">
        <ele>267.973162</ele>
        <time>2021-09-11T10:45:04.000Z</time>
      </trkpt>
      <trkpt lat="46.45165" lon="4.16334">
        <ele>268.7333</ele>
        <time>2021-09-11T10:45:08.000Z</time>
      </trkpt>
      <trkpt lat="46.45168" lon="4.16347">
        <ele>269.121355</ele>
        <time>2021-09-11T10:45:10.000Z</time>
      </trkpt>
      <trkpt lat="46.45166" lon="4.16361">
        <ele>269.243664</ele>
        <time>2021-09-11T10:45:12.000Z</time>
      </trkpt>
      <trkpt lat="46.45161" lon="4.16371">
        <ele>269.293614</ele>
        <time>2021-09-11T10:45:14.000Z</time>
      </trkpt>
      <trkpt lat="46.45152" lon="4.16389">
        <ele>269.374313</ele>
        <time>2021-09-11T10:45:17.000Z</time>
      </trkpt>
      <trkpt lat="46.45146" lon="4.16401">
        <ele>269.428521</ele>
        <time>2021-09-11T10:45:19.000Z</time>
      </trkpt>
      <trkpt lat="46.45144" lon="4.16407">
        <ele>269.45475</ele>
        <time>2021-09-11T10:45:20.000Z</time>
      </trkpt>
      <trkpt lat="46.45141" lon="4.16449">
        <ele>269.608024</ele>
        <time>2021-09-11T10:45:26.000Z</time>
      </trkpt>
      <trkpt lat="46.4514" lon="4.16506">
        <ele>269.821671</ele>
        <time>2021-09-11T10:45:34.000Z</time>
      </trkpt>
      <trkpt lat="46.4514" lon="4.16569">
        <ele>270.052264</ele>
        <time>2021-09-11T10:45:42.000Z</time>
      </trkpt>
      <trkpt lat="46.45139" lon="4.16637">
        <ele>270.227193</ele>
        <time>2021-09-11T10:45:51.000Z</time>
      </trkpt>
      <trkpt lat="46.45139" lon="4.16652">
        <ele>270.252309</ele>
        <time>2021-09-11T10:45:53.000Z</time>
      </trkpt>
      <trkpt lat="46.45139" lon="4.16675">
        <ele>270.290394</ele>
        <time>2021-09-11T10:45:56.000Z</time>
      </trkpt>
      <trkpt lat="46.45139" lon="4.16729">
        <ele>270.379532</ele>
        <time>2021-09-11T10:46:03.000Z</time>
      </trkpt>
      <trkpt lat="46.45139" lon="4.16803">
        <ele>270.499695</ele>
        <time>2021-09-11T10:46:12.000Z</time>
      </trkpt>
      <trkpt lat="46.45139" lon="4.16885">
        <ele>270.566328</ele>
        <time>2021-09-11T10:46:21.000Z</time>
      </trkpt>
      <trkpt lat="46.45139" lon="4.16959">
        <ele>270.478028</ele>
        <time>2021-09-11T10:46:29.000Z</time>
      </trkpt>
      <trkpt lat="46.45139" lon="4.1704">
        <ele>270.381375</ele>
        <time>2021-09-11T10:46:38.000Z</time>
      </trkpt>
      <trkpt lat="46.45138" lon="4.17122">
        <ele>270.282735</ele>
        <time>2021-09-11T10:46:47.000Z</time>
      </trkpt>
      <trkpt lat="46.45138" lon="4.1719">
        <ele>269.985051</ele>
        <time>2021-09-11T10:46:54.000Z</time>
      </trkpt>
      <trkpt lat="46.45137" lon="4.17272">
        <ele>269.631313</ele>
        <time>2021-09-11T10:47:02.000Z</time>
      </trkpt>
      <trkpt lat="46.45137" lon="4.17303">
        <ele>269.496162</ele>
        <time>2021-09-11T10:47:05.000Z</time>
      </trkpt>
      <trkpt lat="46.45137" lon="4.17386">
        <ele>269.142407</ele>
        <time>2021-09-11T10:47:13.000Z</time>
      </trkpt>
      <trkpt lat="46.45136" lon="4.17407">
        <ele>269.101856</ele>
        <time>2021-09-11T10:47:15.000Z</time>
      </trkpt>
      <trkpt lat="46.45136" lon="4.17489">
        <ele>268.942572</ele>
        <time>2021-09-11T10:47:23.000Z</time>
      </trkpt>
      <trkpt lat="46.45136" lon="4.17499">
        <ele>268.923363</ele>
        <time>2021-09-11T10:47:24.000Z</time>
      </trkpt>
      <trkpt lat="46.45135" lon="4.17579">
        <ele>268.768347</ele>
        <time>2021-09-11T10:47:32.000Z</time>
      </trkpt>
      <trkpt lat="46.45135" lon="4.17641">
        <ele>268.647282</ele>
        <time>2021-09-11T10:47:39.000Z</time>
      </trkpt>
      <trkpt lat="46.45135" lon="4.17697">
        <ele>269.063254</ele>
        <time>2021-09-11T10:47:46.000Z</time>
      </trkpt>
      <trkpt lat="46.45134" lon="4.17736">
        <ele>269.377529</ele>
        <time>2021-09-11T10:47:53.000Z</time>
      </trkpt>
      <trkpt lat="46.45131" lon="4.17775">
        <ele>269.684864</ele>
        <time>2021-09-11T10:48:01.000Z</time>
      </trkpt>
      <trkpt lat="46.45123" lon="4.17822">
        <ele>270.076765</ele>
        <time>2021-09-11T10:48:10.000Z</time>
      </trkpt>
      <trkpt lat="46.45112" lon="4.17868">
        <ele>270.456631</ele>
        <time>2021-09-11T10:48:19.000Z</time>
      </trkpt>
      <trkpt lat="46.451" lon="4.17916">
        <ele>270.784114</ele>
        <time>2021-09-11T10:48:28.000Z</time>
      </trkpt>
      <trkpt lat="46.45092" lon="4.17945">
        <ele>270.894374</ele>
        <time>2021-09-11T10:48:33.000Z</time>
      </trkpt>
      <trkpt lat="46.45089" lon="4.17958">
        <ele>270.940265</ele>
        <time>2021-09-11T10:48:35.000Z</time>
      </trkpt>
      <trkpt lat="46.45075" lon="4.18009">
        <ele>271.134003</ele>
        <time>2021-09-11T10:48:43.000Z</time>
      </trkpt>
      <trkpt lat="46.45058" lon="4.18064">
        <ele>271.344232</ele>
        <time>2021-09-11T10:48:51.000Z</time>
      </trkpt>
      <trkpt lat="46.4504" lon="4.18123">
        <ele>271.569051</ele>
        <time>2021-09-11T10:48:58.000Z</time>
      </trkpt>
      <trkpt lat="46.45016" lon="4.18202">
        <ele>271.807523</ele>
        <time>2021-09-11T10:49:07.000Z</time>
      </trkpt>
      <trkpt lat="46.45014" lon="4.18211">
        <ele>271.830883</ele>
        <time>2021-09-11T10:49:08.000Z</time>
      </trkpt>
      <trkpt lat="46.44993" lon="4.18281">
        <ele>272.029014</ele>
        <time>2021-09-11T10:49:17.000Z</time>
      </trkpt>
      <trkpt lat="46.44974" lon="4.18343">
        <ele>272.20269</ele>
        <time>2021-09-11T10:49:26.000Z</time>
      </trkpt>
      <trkpt lat="46.44956" lon="4.18403">
        <ele>272.545746</ele>
        <time>2021-09-11T10:49:35.000Z</time>
      </trkpt>
      <trkpt lat="46.4494" lon="4.18456">
        <ele>273.085464</ele>
        <time>2021-09-11T10:49:43.000Z</time>
      </trkpt>
      <trkpt lat="46.44917" lon="4.18533">
        <ele>273.856737</ele>
        <time>2021-09-11T10:49:55.000Z</time>
      </trkpt>
      <trkpt lat="46.44895" lon="4.18603">
        <ele>274.567073</ele>
        <time>2021-09-11T10:50:07.000Z</time>
      </trkpt>
      <trkpt lat="46.44881" lon="4.1865">
        <ele>275.258714</ele>
        <time>2021-09-11T10:50:16.000Z</time>
      </trkpt>
      <trkpt lat="46.44868" lon="4.18691">
        <ele>275.947983</ele>
        <time>2021-09-11T10:50:24.000Z</time>
      </trkpt>
      <trkpt lat="46.44853" lon="4.18742">
        <ele>276.817417</ele>
        <time>2021-09-11T10:50:34.000Z</time>
      </trkpt>
      <trkpt lat="46.44835" lon="4.18802">
        <ele>277.824453</ele>
        <time>2021-09-11T10:50:45.000Z</time>
      </trkpt>
      <trkpt lat="46.44823" lon="4.18844">
        <ele>278.521703</ele>
        <time>2021-09-11T10:50:52.000Z</time>
      </trkpt>
      <trkpt lat="46.44807" lon="4.18897">
        <ele>279.418775</ele>
        <time>2021-09-11T10:51:01.000Z</time>
      </trkpt>
      <trkpt lat="46.44789" lon="4.18955">
        <ele>280.397474</ele>
        <time>2021-09-11T10:51:11.000Z</time>
      </trkpt>
      <trkpt lat="46.44775" lon="4.19002">
        <ele>281.201543</ele>
        <time>2021-09-11T10:51:19.000Z</time>
      </trkpt>
      <trkpt lat="46.44759" lon="4.19055">
        <ele>282.089908</ele>
        <time>2021-09-11T10:51:28.000Z</time>
      </trkpt>
      <trkpt lat="46.44742" lon="4.19113">
        <ele>283.099427</ele>
        <time>2021-09-11T10:51:38.000Z</time>
      </trkpt>
      <trkpt lat="46.44725" lon="4.19169">
        <ele>284.179868</ele>
        <time>2021-09-11T10:51:48.000Z</time>
      </trkpt>
      <trkpt lat="46.4471" lon="4.1922">
        <ele>285.161922</ele>
        <time>2021-09-11T10:51:57.000Z</time>
      </trkpt>
      <trkpt lat="46.44694" lon="4.19272">
        <ele>286.168063</ele>
        <time>2021-09-11T10:52:06.000Z</time>
      </trkpt>
      <trkpt lat="46.44676" lon="4.19331">
        <ele>287.29124</ele>
        <time>2021-09-11T10:52:16.000Z</time>
      </trkpt>
      <trkpt lat="46.44664" lon="4.19371">
        <ele>288.142254</ele>
        <time>2021-09-11T10:52:23.000Z</time>
      </trkpt>
      <trkpt lat="46.44648" lon="4.19425">
        <ele>289.301565</ele>
        <time>2021-09-11T10:52:33.000Z</time>
      </trkpt>
      <trkpt lat="46.44632" lon="4.19479">
        <ele>290.466279</ele>
        <time>2021-09-11T10:52:43.000Z</time>
      </trkpt>
      <trkpt lat="46.44619" lon="4.19522">
        <ele>291.372222</ele>
        <time>2021-09-11T10:52:51.000Z</time>
      </trkpt>
      <trkpt lat="46.44609" lon="4.19554">
        <ele>292.057484</ele>
        <time>2021-09-11T10:52:57.000Z</time>
      </trkpt>
      <trkpt lat="46.44598" lon="4.19592">
        <ele>292.858671</ele>
        <time>2021-09-11T10:53:04.000Z</time>
      </trkpt>
      <trkpt lat="46.44588" lon="4.19624">
        <ele>293.522956</ele>
        <time>2021-09-11T10:53:10.000Z</time>
      </trkpt>
      <trkpt lat="46.44573" lon="4.19674">
        <ele>294.546701</ele>
        <time>2021-09-11T10:53:19.000Z</time>
      </trkpt>
      <trkpt lat="46.44557" lon="4.19729">
        <ele>295.671272</ele>
        <time>2021-09-11T10:53:29.000Z</time>
      </trkpt>
      <trkpt lat="46.44544" lon="4.19772">
        <ele>296.559441</ele>
        <time>2021-09-11T10:53:37.000Z</time>
      </trkpt>
      <trkpt lat="46.44529" lon="4.19822">
        <ele>297.526348</ele>
        <time>2021-09-11T10:53:46.000Z</time>
      </trkpt>
      <trkpt lat="46.44513" lon="4.19877">
        <ele>298.271703</ele>
        <time>2021-09-11T10:53:56.000Z</time>
      </trkpt>
      <trkpt lat="46.44512" lon="4.19882">
        <ele>298.342879</ele>
        <time>2021-09-11T10:53:57.000Z</time>
      </trkpt>
      <trkpt lat="46.44503" lon="4.19922">
        <ele>298.870998</ele>
        <time>2021-09-11T10:54:04.000Z</time>
      </trkpt>
      <trkpt lat="46.44497" lon="4.19973">
        <ele>299.522379</ele>
        <time>2021-09-11T10:54:12.000Z</time>
      </trkpt>
      <trkpt lat="46.44487" lon="4.20044">
        <ele>300.421587</ele>
        <time>2021-09-11T10:54:22.000Z</time>
      </trkpt>
      <trkpt lat="46.44479" lon="4.20107">
        <ele>300.894924</ele>
        <time>2021-09-11T10:54:31.000Z</time>
      </trkpt>
      <trkpt lat="46.44472" lon="4.20157">
        <ele>301.140416</ele>
        <time>2021-09-11T10:54:38.000Z</time>
      </trkpt>
      <trkpt lat="46.44462" lon="4.20229">
        <ele>301.49183</ele>
        <time>2021-09-11T10:54:47.000Z</time>
      </trkpt>
      <trkpt lat="46.44453" lon="4.20303">
        <ele>301.850565</ele>
        <time>2021-09-11T10:54:55.000Z</time>
      </trkpt>
      <trkpt lat="46.44442" lon="4.20387">
        <ele>301.925337</ele>
        <time>2021-09-11T10:55:03.000Z</time>
      </trkpt>
      <trkpt lat="46.44431" lon="4.20466">
        <ele>301.907397</ele>
        <time>2021-09-11T10:55:10.000Z</time>
      </trkpt>
      <trkpt lat="46.44428" lon="4.20489">
        <ele>301.902265</ele>
        <time>2021-09-11T10:55:12.000Z</time>
      </trkpt>
      <trkpt lat="46.44417" lon="4.20575">
        <ele>301.88293</ele>
        <time>2021-09-11T10:55:20.000Z</time>
      </trkpt>
      <trkpt lat="46.44408" lon="4.20641">
        <ele>302.208645</ele>
        <time>2021-09-11T10:55:27.000Z</time>
      </trkpt>
      <trkpt lat="46.444" lon="4.20704">
        <ele>302.528408</ele>
        <time>2021-09-11T10:55:35.000Z</time>
      </trkpt>
      <trkpt lat="46.44391" lon="4.20773">
        <ele>302.87703</ele>
        <time>2021-09-11T10:55:45.000Z</time>
      </trkpt>
      <trkpt lat="46.44385" lon="4.20822">
        <ele>303.129004</ele>
        <time>2021-09-11T10:55:53.000Z</time>
      </trkpt>
      <trkpt lat="46.44379" lon="4.20868">
        <ele>303.500993</ele>
        <time>2021-09-11T10:56:01.000Z</time>
      </trkpt>
      <trkpt lat="46.44376" lon="4.20891">
        <ele>303.713276</ele>
        <time>2021-09-11T10:56:05.000Z</time>
      </trkpt>
      <trkpt lat="46.44374" lon="4.20909">
        <ele>303.869889</ele>
        <time>2021-09-11T10:56:08.000Z</time>
      </trkpt>
      <trkpt lat="46.44366" lon="4.20971">
        <ele>304.437602</ele>
        <time>2021-09-11T10:56:19.000Z</time>
      </trkpt>
      <trkpt lat="46.44364" lon="4.20989">
        <ele>304.601505</ele>
        <time>2021-09-11T10:56:22.000Z</time>
      </trkpt>
      <trkpt lat="46.44361" lon="4.21013">
        <ele>304.821078</ele>
        <time>2021-09-11T10:56:25.000Z</time>
      </trkpt>
      <trkpt lat="46.44355" lon="4.21058">
        <ele>305.233944</ele>
        <time>2021-09-11T10:56:32.000Z</time>
      </trkpt>
      <trkpt lat="46.44349" lon="4.21104">
        <ele>305.594095</ele>
        <time>2021-09-11T10:56:39.000Z</time>
      </trkpt>
      <trkpt lat="46.44344" lon="4.21148">
        <ele>305.803681</ele>
        <time>2021-09-11T10:56:46.000Z</time>
      </trkpt>
      <trkpt lat="46.44337" lon="4.21203">
        <ele>306.07262</ele>
        <time>2021-09-11T10:56:53.000Z</time>
      </trkpt>
      <trkpt lat="46.44328" lon="4.21276">
        <ele>306.423331</ele>
        <time>2021-09-11T10:57:02.000Z</time>
      </trkpt>
      <trkpt lat="46.4432" lon="4.21342">
        <ele>306.740867</ele>
        <time>2021-09-11T10:57:10.000Z</time>
      </trkpt>
      <trkpt lat="46.4431" lon="4.21418">
        <ele>307.030354</ele>
        <time>2021-09-11T10:57:19.000Z</time>
      </trkpt>
      <trkpt lat="46.44304" lon="4.21467">
        <ele>307.211483</ele>
        <time>2021-09-11T10:57:25.000Z</time>
      </trkpt>
      <trkpt lat="46.443" lon="4.21499">
        <ele>307.331933</ele>
        <time>2021-09-11T10:57:29.000Z</time>
      </trkpt>
      <trkpt lat="46.44299" lon="4.21508">
        <ele>307.362862</ele>
        <time>2021-09-11T10:57:30.000Z</time>
      </trkpt>
      <trkpt lat="46.44292" lon="4.21569">
        <ele>307.59006</ele>
        <time>2021-09-11T10:57:37.000Z</time>
      </trkpt>
      <trkpt lat="46.44284" lon="4.21629">
        <ele>307.794264</ele>
        <time>2021-09-11T10:57:43.000Z</time>
      </trkpt>
      <trkpt lat="46.44276" lon="4.21695">
        <ele>307.985472</ele>
        <time>2021-09-11T10:57:49.000Z</time>
      </trkpt>
      <trkpt lat="46.44268" lon="4.21755">
        <ele>308.157042</ele>
        <time>2021-09-11T10:57:55.000Z</time>
      </trkpt>
      <trkpt lat="46.44262" lon="4.21802">
        <ele>308.294805</ele>
        <time>2021-09-11T10:58:01.000Z</time>
      </trkpt>
      <trkpt lat="46.44256" lon="4.21857">
        <ele>308.452134</ele>
        <time>2021-09-11T10:58:09.000Z</time>
      </trkpt>
      <trkpt lat="46.44252" lon="4.21888">
        <ele>308.777592</ele>
        <time>2021-09-11T10:58:14.000Z</time>
      </trkpt>
      <trkpt lat="46.4425" lon="4.219">
        <ele>308.924597</ele>
        <time>2021-09-11T10:58:16.000Z</time>
      </trkpt>
      <trkpt lat="46.44249" lon="4.21907">
        <ele>308.997531</ele>
        <time>2021-09-11T10:58:17.000Z</time>
      </trkpt>
      <trkpt lat="46.44245" lon="4.21944">
        <ele>309.441656</ele>
        <time>2021-09-11T10:58:23.000Z</time>
      </trkpt>
      <trkpt lat="46.44239" lon="4.21988">
        <ele>309.952727</ele>
        <time>2021-09-11T10:58:30.000Z</time>
      </trkpt>
      <trkpt lat="46.44233" lon="4.22035">
        <ele>310.508528</ele>
        <time>2021-09-11T10:58:38.000Z</time>
      </trkpt>
      <trkpt lat="46.44227" lon="4.22083">
        <ele>311.07373</ele>
        <time>2021-09-11T10:58:47.000Z</time>
      </trkpt>
      <trkpt lat="46.44222" lon="4.22131">
        <ele>311.772336</ele>
        <time>2021-09-11T10:58:56.000Z</time>
      </trkpt>
      <trkpt lat="46.44216" lon="4.22175">
        <ele>312.754289</ele>
        <time>2021-09-11T10:59:04.000Z</time>
      </trkpt>
      <trkpt lat="46.44213" lon="4.22203">
        <ele>313.393625</ele>
        <time>2021-09-11T10:59:09.000Z</time>
      </trkpt>
      <trkpt lat="46.44212" lon="4.22209">
        <ele>313.533201</ele>
        <time>2021-09-11T10:59:10.000Z</time>
      </trkpt>
      <trkpt lat="46.4421" lon="4.22227">
        <ele>313.942091</ele>
        <time>2021-09-11T10:59:13.000Z</time>
      </trkpt>
      <trkpt lat="46.44207" lon="4.22244">
        <ele>314.330159</ele>
        <time>2021-09-11T10:59:16.000Z</time>
      </trkpt>
      <trkpt lat="46.44202" lon="4.2229">
        <ele>315.368489</ele>
        <time>2021-09-11T10:59:24.000Z</time>
      </trkpt>
      <trkpt lat="46.44198" lon="4.22323">
        <ele>316.113441</ele>
        <time>2021-09-11T10:59:30.000Z</time>
      </trkpt>
      <trkpt lat="46.44192" lon="4.22367">
        <ele>317.088839</ele>
        <time>2021-09-11T10:59:38.000Z</time>
      </trkpt>
      <trkpt lat="46.44188" lon="4.22403">
        <ele>317.38868</ele>
        <time>2021-09-11T10:59:45.000Z</time>
      </trkpt>
      <trkpt lat="46.44185" lon="4.22427">
        <ele>317.479302</ele>
        <time>2021-09-11T10:59:50.000Z</time>
      </trkpt>
      <trkpt lat="46.44182" lon="4.22448">
        <ele>317.557507</ele>
        <time>2021-09-11T10:59:54.000Z</time>
      </trkpt>
      <trkpt lat="46.44181" lon="4.2246">
        <ele>317.60406</ele>
        <time>2021-09-11T10:59:56.000Z</time>
      </trkpt>
      <trkpt lat="46.44179" lon="4.22472">
        <ele>317.650705</ele>
        <time>2021-09-11T10:59:58.000Z</time>
      </trkpt>
      <trkpt lat="46.44177" lon="4.22493">
        <ele>317.730564</ele>
        <time>2021-09-11T11:00:01.000Z</time>
      </trkpt>
      <trkpt lat="46.44171" lon="4.22542">
        <ele>317.913554</ele>
        <time>2021-09-11T11:00:07.000Z</time>
      </trkpt>
      <trkpt lat="46.4417" lon="4.22551">
        <ele>317.948055</ele>
        <time>2021-09-11T11:00:08.000Z</time>
      </trkpt>
      <trkpt lat="46.44167" lon="4.22579">
        <ele>318.055236</ele>
        <time>2021-09-11T11:00:11.000Z</time>
      </trkpt>
      <trkpt lat="46.44159" lon="4.22645">
        <ele>318.140211</ele>
        <time>2021-09-11T11:00:17.000Z</time>
      </trkpt>
      <trkpt lat="46.4415" lon="4.22719">
        <ele>317.45552</ele>
        <time>2021-09-11T11:00:23.000Z</time>
      </trkpt>
      <trkpt lat="46.44141" lon="4.22798">
        <ele>316.732941</ele>
        <time>2021-09-11T11:00:29.000Z</time>
      </trkpt>
      <trkpt lat="46.4414" lon="4.2281">
        <ele>316.619496</ele>
        <time>2021-09-11T11:00:30.000Z</time>
      </trkpt>
      <trkpt lat="46.44132" lon="4.22876">
        <ele>316.013271</ele>
        <time>2021-09-11T11:00:36.000Z</time>
      </trkpt>
      <trkpt lat="46.44125" lon="4.22937">
        <ele>315.488735</ele>
        <time>2021-09-11T11:00:43.000Z</time>
      </trkpt>
      <trkpt lat="46.44118" lon="4.22998">
        <ele>314.978687</ele>
        <time>2021-09-11T11:00:51.000Z</time>
      </trkpt>
      <trkpt lat="46.44111" lon="4.23058">
        <ele>314.484605</ele>
        <time>2021-09-11T11:00:58.000Z</time>
      </trkpt>
      <trkpt lat="46.44105" lon="4.23111">
        <ele>314.03864</ele>
        <time>2021-09-11T11:01:03.000Z</time>
      </trkpt>
      <trkpt lat="46.44095" lon="4.23196">
        <ele>313.202289</ele>
        <time>2021-09-11T11:01:10.000Z</time>
      </trkpt>
      <trkpt lat="46.44087" lon="4.2327">
        <ele>312.374169</ele>
        <time>2021-09-11T11:01:16.000Z</time>
      </trkpt>
      <trkpt lat="46.44072" lon="4.23357">
        <ele>311.389446</ele>
        <time>2021-09-11T11:01:23.000Z</time>
      </trkpt>
      <trkpt lat="46.44056" lon="4.2343">
        <ele>310.80167</ele>
        <time>2021-09-11T11:01:29.000Z</time>
      </trkpt>
      <trkpt lat="46.4404" lon="4.23504">
        <ele>310.608087</ele>
        <time>2021-09-11T11:01:36.000Z</time>
      </trkpt>
      <trkpt lat="46.44029" lon="4.23555">
        <ele>310.474491</ele>
        <time>2021-09-11T11:01:42.000Z</time>
      </trkpt>
      <trkpt lat="46.44016" lon="4.23609">
        <ele>310.330107</ele>
        <time>2021-09-11T11:01:50.000Z</time>
      </trkpt>
      <trkpt lat="46.44004" lon="4.23666">
        <ele>310.220235</ele>
        <time>2021-09-11T11:01:59.000Z</time>
      </trkpt>
      <trkpt lat="46.43992" lon="4.23718">
        <ele>310.211572</ele>
        <time>2021-09-11T11:02:07.000Z</time>
      </trkpt>
      <trkpt lat="46.4398" lon="4.23774">
        <ele>310.202258</ele>
        <time>2021-09-11T11:02:15.000Z</time>
      </trkpt>
      <trkpt lat="46.43966" lon="4.23834">
        <ele>310.192287</ele>
        <time>2021-09-11T11:02:23.000Z</time>
      </trkpt>
      <trkpt lat="46.43952" lon="4.23901">
        <ele>310.172497</ele>
        <time>2021-09-11T11:02:31.000Z</time>
      </trkpt>
      <trkpt lat="46.4394" lon="4.23969">
        <ele>309.836992</ele>
        <time>2021-09-11T11:02:39.000Z</time>
      </trkpt>
      <trkpt lat="46.43933" lon="4.24027">
        <ele>309.556182</ele>
        <time>2021-09-11T11:02:46.000Z</time>
      </trkpt>
      <trkpt lat="46.43929" lon="4.24079">
        <ele>309.310561</ele>
        <time>2021-09-11T11:02:52.000Z</time>
      </trkpt>
      <trkpt lat="46.43925" lon="4.24151">
        <ele>308.964994</ele>
        <time>2021-09-11T11:03:00.000Z</time>
      </trkpt>
      <trkpt lat="46.43925" lon="4.2423">
        <ele>308.421031</ele>
        <time>2021-09-11T11:03:08.000Z</time>
      </trkpt>
      <trkpt lat="46.4393" lon="4.24307">
        <ele>307.875588</ele>
        <time>2021-09-11T11:03:15.000Z</time>
      </trkpt>
      <trkpt lat="46.43937" lon="4.24395">
        <ele>307.249644</ele>
        <time>2021-09-11T11:03:22.000Z</time>
      </trkpt>
      <trkpt lat="46.43941" lon="4.24462">
        <ele>307.456471</ele>
        <time>2021-09-11T11:03:28.000Z</time>
      </trkpt>
      <trkpt lat="46.43941" lon="4.24506">
        <ele>307.794708</ele>
        <time>2021-09-11T11:03:33.000Z</time>
      </trkpt>
      <trkpt lat="46.4394" lon="4.2452">
        <ele>307.899597</ele>
        <time>2021-09-11T11:03:35.000Z</time>
      </trkpt>
      <trkpt lat="46.43939" lon="4.24537">
        <ele>308.029105</ele>
        <time>2021-09-11T11:03:38.000Z</time>
      </trkpt>
      <trkpt lat="46.43938" lon="4.24565">
        <ele>308.244295</ele>
        <time>2021-09-11T11:03:44.000Z</time>
      </trkpt>
      <trkpt lat="46.43936" lon="4.24593">
        <ele>308.457188</ele>
        <time>2021-09-11T11:03:51.000Z</time>
      </trkpt>
      <trkpt lat="46.43933" lon="4.24616">
        <ele>308.633636</ele>
        <time>2021-09-11T11:03:57.000Z</time>
      </trkpt>
      <trkpt lat="46.43931" lon="4.24638">
        <ele>308.803877</ele>
        <time>2021-09-11T11:04:03.000Z</time>
      </trkpt>
      <trkpt lat="46.43928" lon="4.24664">
        <ele>309.011181</ele>
        <time>2021-09-11T11:04:11.000Z</time>
      </trkpt>
      <trkpt lat="46.43924" lon="4.24695">
        <ele>309.541772</ele>
        <time>2021-09-11T11:04:20.000Z</time>
      </trkpt>
      <trkpt lat="46.4392" lon="4.24729">
        <ele>310.321558</ele>
        <time>2021-09-11T11:04:29.000Z</time>
      </trkpt>
      <trkpt lat="46.43917" lon="4.24761">
        <ele>311.064643</ele>
        <time>2021-09-11T11:04:38.000Z</time>
      </trkpt>
      <trkpt lat="46.43913" lon="4.24796">
        <ele>311.856097</ele>
        <time>2021-09-11T11:04:47.000Z</time>
      </trkpt>
      <trkpt lat="46.4391" lon="4.24823">
        <ele>312.473478</ele>
        <time>2021-09-11T11:04:54.000Z</time>
      </trkpt>
      <trkpt lat="46.43907" lon="4.24854">
        <ele>313.177634</ele>
        <time>2021-09-11T11:05:02.000Z</time>
      </trkpt>
      <trkpt lat="46.43903" lon="4.2489">
        <ele>314.015909</ele>
        <time>2021-09-11T11:05:11.000Z</time>
      </trkpt>
      <trkpt lat="46.43899" lon="4.24926">
        <ele>314.824682</ele>
        <time>2021-09-11T11:05:20.000Z</time>
      </trkpt>
      <trkpt lat="46.43896" lon="4.24956">
        <ele>315.532249</ele>
        <time>2021-09-11T11:05:29.000Z</time>
      </trkpt>
      <trkpt lat="46.43892" lon="4.24991">
        <ele>316.342516</ele>
        <time>2021-09-11T11:05:37.000Z</time>
      </trkpt>
      <trkpt lat="46.43889" lon="4.25015">
        <ele>316.899638</ele>
        <time>2021-09-11T11:05:43.000Z</time>
      </trkpt>
      <trkpt lat="46.43887" lon="4.25039">
        <ele>317.465912</ele>
        <time>2021-09-11T11:05:50.000Z</time>
      </trkpt>
      <trkpt lat="46.43884" lon="4.25063">
        <ele>318.03498</ele>
        <time>2021-09-11T11:05:57.000Z</time>
      </trkpt>
      <trkpt lat="46.43882" lon="4.25087">
        <ele>318.59719</ele>
        <time>2021-09-11T11:06:03.000Z</time>
      </trkpt>
      <trkpt lat="46.43877" lon="4.25118">
        <ele>319.330311</ele>
        <time>2021-09-11T11:06:09.000Z</time>
      </trkpt>
      <trkpt lat="46.43867" lon="4.25156">
        <ele>320.26274</ele>
        <time>2021-09-11T11:06:16.000Z</time>
      </trkpt>
      <trkpt lat="46.43855" lon="4.25172">
        <ele>320.824984</ele>
        <time>2021-09-11T11:06:20.000Z</time>
      </trkpt>
      <trkpt lat="46.43852" lon="4.25183">
        <ele>321.050973</ele>
        <time>2021-09-11T11:06:22.000Z</time>
      </trkpt>
      <trkpt lat="46.43852" lon="4.25189">
        <ele>321.10375</ele>
        <time>2021-09-11T11:06:23.000Z</time>
      </trkpt>
      <trkpt lat="46.43853" lon="4.25195">
        <ele>321.149399</ele>
        <time>2021-09-11T11:06:24.000Z</time>
      </trkpt>
      <trkpt lat="46.43859" lon="4.25209">
        <ele>321.275927</ele>
        <time>2021-09-11T11:06:27.000Z</time>
      </trkpt>
      <trkpt lat="46.43863" lon="4.25222">
        <ele>321.381194</ele>
        <time>2021-09-11T11:06:29.000Z</time>
      </trkpt>
      <trkpt lat="46.43863" lon="4.25236">
        <ele>321.490016</ele>
        <time>2021-09-11T11:06:31.000Z</time>
      </trkpt>
      <trkpt lat="46.43862" lon="4.25242">
        <ele>321.537146</ele>
        <time>2021-09-11T11:06:32.000Z</time>
      </trkpt>
      <trkpt lat="46.43858" lon="4.25291">
        <ele>321.921912</ele>
        <time>2021-09-11T11:06:40.000Z</time>
      </trkpt>
      <trkpt lat="46.43852" lon="4.25347">
        <ele>322.360575</ele>
        <time>2021-09-11T11:06:48.000Z</time>
      </trkpt>
      <trkpt lat="46.43847" lon="4.25392">
        <ele>322.711005</ele>
        <time>2021-09-11T11:06:54.000Z</time>
      </trkpt>
      <trkpt lat="46.43845" lon="4.25407">
        <ele>322.829085</ele>
        <time>2021-09-11T11:06:56.000Z</time>
      </trkpt>
      <trkpt lat="46.43838" lon="4.25471">
        <ele>323.099248</ele>
        <time>2021-09-11T11:07:04.000Z</time>
      </trkpt>
      <trkpt lat="46.43832" lon="4.25525">
        <ele>323.187045</ele>
        <time>2021-09-11T11:07:11.000Z</time>
      </trkpt>
      <trkpt lat="46.4383" lon="4.2554">
        <ele>323.211078</ele>
        <time>2021-09-11T11:07:13.000Z</time>
      </trkpt>
      <trkpt lat="46.43827" lon="4.2557">
        <ele>323.2593</ele>
        <time>2021-09-11T11:07:17.000Z</time>
      </trkpt>
      <trkpt lat="46.43819" lon="4.25638">
        <ele>323.367156</ele>
        <time>2021-09-11T11:07:25.000Z</time>
      </trkpt>
      <trkpt lat="46.4381" lon="4.25719">
        <ele>323.34735</ele>
        <time>2021-09-11T11:07:34.000Z</time>
      </trkpt>
      <trkpt lat="46.43809" lon="4.25728">
        <ele>323.312995</ele>
        <time>2021-09-11T11:07:35.000Z</time>
      </trkpt>
      <trkpt lat="46.43804" lon="4.25773">
        <ele>323.134872</ele>
        <time>2021-09-11T11:07:40.000Z</time>
      </trkpt>
      <trkpt lat="46.43803" lon="4.25782">
        <ele>323.097812</ele>
        <time>2021-09-11T11:07:41.000Z</time>
      </trkpt>
      <trkpt lat="46.43796" lon="4.25853">
        <ele>322.819626</ele>
        <time>2021-09-11T11:07:48.000Z</time>
      </trkpt>
      <trkpt lat="46.43789" lon="4.25917">
        <ele>322.56473</ele>
        <time>2021-09-11T11:07:53.000Z</time>
      </trkpt>
      <trkpt lat="46.4378" lon="4.26003">
        <ele>322.397458</ele>
        <time>2021-09-11T11:07:59.000Z</time>
      </trkpt>
      <trkpt lat="46.43773" lon="4.26063">
        <ele>322.355087</ele>
        <time>2021-09-11T11:08:04.000Z</time>
      </trkpt>
      <trkpt lat="46.43769" lon="4.26107">
        <ele>322.32427</ele>
        <time>2021-09-11T11:08:09.000Z</time>
      </trkpt>
      <trkpt lat="46.43765" lon="4.26143">
        <ele>322.298535</ele>
        <time>2021-09-11T11:08:15.000Z</time>
      </trkpt>
      <trkpt lat="46.4376" lon="4.26187">
        <ele>322.267565</ele>
        <time>2021-09-11T11:08:24.000Z</time>
      </trkpt>
      <trkpt lat="46.43757" lon="4.26221">
        <ele>322.279927</ele>
        <time>2021-09-11T11:08:31.000Z</time>
      </trkpt>
      <trkpt lat="46.43754" lon="4.2625">
        <ele>322.339189</ele>
        <time>2021-09-11T11:08:37.000Z</time>
      </trkpt>
      <trkpt lat="46.43749" lon="4.26287">
        <ele>322.415377</ele>
        <time>2021-09-11T11:08:45.000Z</time>
      </trkpt>
      <trkpt lat="46.43745" lon="4.26323">
        <ele>322.488288</ele>
        <time>2021-09-11T11:08:53.000Z</time>
      </trkpt>
      <trkpt lat="46.4374" lon="4.26369">
        <ele>322.581972</ele>
        <time>2021-09-11T11:09:01.000Z</time>
      </trkpt>
      <trkpt lat="46.43736" lon="4.26411">
        <ele>322.666274</ele>
        <time>2021-09-11T11:09:07.000Z</time>
      </trkpt>
      <trkpt lat="46.43731" lon="4.2646">
        <ele>322.766705</ele>
        <time>2021-09-11T11:09:13.000Z</time>
      </trkpt>
      <trkpt lat="46.43724" lon="4.26529">
        <ele>322.170404</ele>
        <time>2021-09-11T11:09:20.000Z</time>
      </trkpt>
      <trkpt lat="46.43715" lon="4.26609">
        <ele>321.388941</ele>
        <time>2021-09-11T11:09:27.000Z</time>
      </trkpt>
      <trkpt lat="46.43706" lon="4.26694">
        <ele>320.565686</ele>
        <time>2021-09-11T11:09:34.000Z</time>
      </trkpt>
      <trkpt lat="46.43705" lon="4.26706">
        <ele>320.446425</ele>
        <time>2021-09-11T11:09:35.000Z</time>
      </trkpt>
      <trkpt lat="46.43698" lon="4.26768">
        <ele>319.575548</ele>
        <time>2021-09-11T11:09:40.000Z</time>
      </trkpt>
      <trkpt lat="46.43692" lon="4.2683">
        <ele>318.568183</ele>
        <time>2021-09-11T11:09:45.000Z</time>
      </trkpt>
      <trkpt lat="46.43682" lon="4.26919">
        <ele>317.143638</ele>
        <time>2021-09-11T11:09:52.000Z</time>
      </trkpt>
      <trkpt lat="46.43681" lon="4.26932">
        <ele>316.946448</ele>
        <time>2021-09-11T11:09:53.000Z</time>
      </trkpt>
      <trkpt lat="46.43672" lon="4.27018">
        <ele>315.106606</ele>
        <time>2021-09-11T11:10:00.000Z</time>
      </trkpt>
      <trkpt lat="46.43663" lon="4.27104">
        <ele>312.634421</ele>
        <time>2021-09-11T11:10:07.000Z</time>
      </trkpt>
      <trkpt lat="46.43656" lon="4.27175">
        <ele>310.614939</ele>
        <time>2021-09-11T11:10:13.000Z</time>
      </trkpt>
      <trkpt lat="46.43653" lon="4.27197">
        <ele>309.972686</ele>
        <time>2021-09-11T11:10:15.000Z</time>
      </trkpt>
      <trkpt lat="46.43644" lon="4.27219">
        <ele>309.272948</ele>
        <time>2021-09-11T11:10:17.000Z</time>
      </trkpt>
      <trkpt lat="46.43612" lon="4.2725">
        <ele>306.954727</ele>
        <time>2021-09-11T11:10:22.000Z</time>
      </trkpt>
      <trkpt lat="46.43597" lon="4.27265">
        <ele>305.683911</ele>
        <time>2021-09-11T11:10:25.000Z</time>
      </trkpt>
      <trkpt lat="46.43588" lon="4.27274">
        <ele>304.886286</ele>
        <time>2021-09-11T11:10:27.000Z</time>
      </trkpt>
      <trkpt lat="46.4356" lon="4.27302">
        <ele>302.565202</ele>
        <time>2021-09-11T11:10:32.000Z</time>
      </trkpt>
      <trkpt lat="46.43516" lon="4.27342">
        <ele>298.966216</ele>
        <time>2021-09-11T11:10:39.000Z</time>
      </trkpt>
      <trkpt lat="46.43482" lon="4.27361">
        <ele>296.455092</ele>
        <time>2021-09-11T11:10:44.000Z</time>
      </trkpt>
      <trkpt lat="46.43471" lon="4.27371">
        <ele>295.716874</ele>
        <time>2021-09-11T11:10:46.000Z</time>
      </trkpt>
      <trkpt lat="46.43464" lon="4.27381">
        <ele>295.175769</ele>
        <time>2021-09-11T11:10:48.000Z</time>
      </trkpt>
      <trkpt lat="46.4346" lon="4.27387">
        <ele>294.828469</ele>
        <time>2021-09-11T11:10:52.000Z</time>
      </trkpt>
      <trkpt lat="46.4346" lon="4.27387">
        <ele>294.828469</ele>
        <time>2021-09-11T11:10:53.000Z</time>
      </trkpt>
      <trkpt lat="46.43457" lon="4.27392">
        <ele>294.602255</ele>
        <time>2021-09-11T11:11:20.000Z</time>
      </trkpt>
      <trkpt lat="46.43455" lon="4.27395">
        <ele>294.442648</ele>
        <time>2021-09-11T11:11:22.000Z</time>
      </trkpt>
      <trkpt lat="46.43447" lon="4.27406">
        <ele>293.828373</ele>
        <time>2021-09-11T11:11:28.000Z</time>
      </trkpt>
      <trkpt lat="46.43437" lon="4.27423">
        <ele>292.957389</ele>
        <time>2021-09-11T11:11:35.000Z</time>
      </trkpt>
      <trkpt lat="46.43426" lon="4.27439">
        <ele>292.100989</ele>
        <time>2021-09-11T11:11:42.000Z</time>
      </trkpt>
      <trkpt lat="46.43418" lon="4.2745">
        <ele>291.483993</ele>
        <time>2021-09-11T11:11:47.000Z</time>
      </trkpt>
      <trkpt lat="46.43415" lon="4.27455">
        <ele>291.253933</ele>
        <time>2021-09-11T11:11:49.000Z</time>
      </trkpt>
      <trkpt lat="46.43412" lon="4.27459">
        <ele>291.019247</ele>
        <time>2021-09-11T11:11:51.000Z</time>
      </trkpt>
      <trkpt lat="46.43408" lon="4.27466">
        <ele>290.686799</ele>
        <time>2021-09-11T11:11:54.000Z</time>
      </trkpt>
      <trkpt lat="46.43408" lon="4.27468">
        <ele>290.607824</ele>
        <time>2021-09-11T11:11:55.000Z</time>
      </trkpt>
      <trkpt lat="46.43405" lon="4.27472">
        <ele>290.380332</ele>
        <time>2021-09-11T11:11:58.000Z</time>
      </trkpt>
      <trkpt lat="46.43404" lon="4.27474">
        <ele>290.310788</ele>
        <time>2021-09-11T11:11:59.000Z</time>
      </trkpt>
      <trkpt lat="46.43404" lon="4.27487">
        <ele>289.786436</ele>
        <time>2021-09-11T11:12:04.000Z</time>
      </trkpt>
      <trkpt lat="46.43413" lon="4.27508">
        <ele>288.8343</ele>
        <time>2021-09-11T11:12:10.000Z</time>
      </trkpt>
      <trkpt lat="46.43417" lon="4.27517">
        <ele>288.431098</ele>
        <time>2021-09-11T11:12:12.000Z</time>
      </trkpt>
      <trkpt lat="46.43424" lon="4.27526">
        <ele>287.923901</ele>
        <time>2021-09-11T11:12:14.000Z</time>
      </trkpt>
      <trkpt lat="46.43449" lon="4.27561">
        <ele>286.46092</ele>
        <time>2021-09-11T11:12:23.000Z</time>
      </trkpt>
      <trkpt lat="46.4345" lon="4.27565">
        <ele>286.512753</ele>
        <time>2021-09-11T11:12:24.000Z</time>
      </trkpt>
      <trkpt lat="46.43454" lon="4.27579">
        <ele>286.686881</ele>
        <time>2021-09-11T11:12:27.000Z</time>
      </trkpt>
      <trkpt lat="46.4346" lon="4.27598">
        <ele>286.950063</ele>
        <time>2021-09-11T11:12:32.000Z</time>
      </trkpt>
      <trkpt lat="46.43468" lon="4.27618">
        <ele>287.218323</ele>
        <time>2021-09-11T11:12:38.000Z</time>
      </trkpt>
      <trkpt lat="46.43471" lon="4.27623">
        <ele>287.305556</ele>
        <time>2021-09-11T11:12:40.000Z</time>
      </trkpt>
      <trkpt lat="46.43472" lon="4.27625">
        <ele>287.338372</ele>
        <time>2021-09-11T11:12:41.000Z</time>
      </trkpt>
      <trkpt lat="46.43473" lon="4.27628">
        <ele>287.373073</ele>
        <time>2021-09-11T11:12:45.000Z</time>
      </trkpt>
      <trkpt lat="46.43479" lon="4.27638">
        <ele>287.523765</ele>
        <time>2021-09-11T11:27:07.000Z</time>
      </trkpt>
      <trkpt lat="46.43484" lon="4.27648">
        <ele>287.684428</ele>
        <time>2021-09-11T11:27:12.000Z</time>
      </trkpt>
      <trkpt lat="46.43495" lon="4.27667">
        <ele>287.974032</ele>
        <time>2021-09-11T11:27:18.000Z</time>
      </trkpt>
      <trkpt lat="46.43503" lon="4.27681">
        <ele>288.197091</ele>
        <time>2021-09-11T11:27:23.000Z</time>
      </trkpt>
      <trkpt lat="46.43509" lon="4.27691">
        <ele>288.364332</ele>
        <time>2021-09-11T11:27:28.000Z</time>
      </trkpt>
      <trkpt lat="46.43514" lon="4.27703">
        <ele>288.52784</ele>
        <time>2021-09-11T11:27:33.000Z</time>
      </trkpt>
      <trkpt lat="46.4352" lon="4.27724">
        <ele>288.796862</ele>
        <time>2021-09-11T11:27:38.000Z</time>
      </trkpt>
      <trkpt lat="46.4353" lon="4.27759">
        <ele>289.251341</ele>
        <time>2021-09-11T11:27:44.000Z</time>
      </trkpt>
      <trkpt lat="46.43536" lon="4.27777">
        <ele>289.475207</ele>
        <time>2021-09-11T11:27:47.000Z</time>
      </trkpt>
      <trkpt lat="46.43539" lon="4.27783">
        <ele>289.395034</ele>
        <time>2021-09-11T11:27:48.000Z</time>
      </trkpt>
      <trkpt lat="46.43541" lon="4.27789">
        <ele>289.322261</ele>
        <time>2021-09-11T11:27:49.000Z</time>
      </trkpt>
      <trkpt lat="46.43553" lon="4.27808">
        <ele>289.032143</ele>
        <time>2021-09-11T11:27:53.000Z</time>
      </trkpt>
      <trkpt lat="46.4357" lon="4.27832">
        <ele>288.647534</ele>
        <time>2021-09-11T11:27:59.000Z</time>
      </trkpt>
      <trkpt lat="46.4359" lon="4.27853">
        <ele>288.235019</ele>
        <time>2021-09-11T11:28:07.000Z</time>
      </trkpt>
      <trkpt lat="46.43609" lon="4.27872">
        <ele>287.864069</ele>
        <time>2021-09-11T11:28:13.000Z</time>
      </trkpt>
      <trkpt lat="46.43628" lon="4.27896">
        <ele>287.453548</ele>
        <time>2021-09-11T11:28:20.000Z</time>
      </trkpt>
      <trkpt lat="46.43638" lon="4.27908">
        <ele>287.229655</ele>
        <time>2021-09-11T11:28:25.000Z</time>
      </trkpt>
      <trkpt lat="46.43642" lon="4.27902">
        <ele>287.151637</ele>
        <time>2021-09-11T11:28:26.000Z</time>
      </trkpt>
      <trkpt lat="46.43645" lon="4.27897">
        <ele>287.070508</ele>
        <time>2021-09-11T11:28:28.000Z</time>
      </trkpt>
      <trkpt lat="46.43648" lon="4.27882">
        <ele>286.887608</ele>
        <time>2021-09-11T11:28:31.000Z</time>
      </trkpt>
      <trkpt lat="46.43647" lon="4.27874">
        <ele>286.804073</ele>
        <time>2021-09-11T11:28:32.000Z</time>
      </trkpt>
      <trkpt lat="46.43646" lon="4.27872">
        <ele>286.777915</ele>
        <time>2021-09-11T11:28:33.000Z</time>
      </trkpt>
      <trkpt lat="46.43637" lon="4.27852">
        <ele>286.51881</ele>
        <time>2021-09-11T11:28:37.000Z</time>
      </trkpt>
      <trkpt lat="46.43632" lon="4.27817">
        <ele>286.310351</ele>
        <time>2021-09-11T11:28:45.000Z</time>
      </trkpt>
      <trkpt lat="46.43629" lon="4.27801">
        <ele>286.218518</ele>
        <time>2021-09-11T11:28:49.000Z</time>
      </trkpt>
      <trkpt lat="46.43631" lon="4.27802">
        <ele>286.202487</ele>
        <time>2021-09-11T11:28:51.000Z</time>
      </trkpt>
      <trkpt lat="46.43633" lon="4.27826">
        <ele>286.060446</ele>
        <time>2021-09-11T11:28:56.000Z</time>
      </trkpt>
      <trkpt lat="46.43639" lon="4.27865">
        <ele>285.83333</ele>
        <time>2021-09-11T11:29:03.000Z</time>
      </trkpt>
      <trkpt lat="46.43633" lon="4.27868">
        <ele>285.781282</ele>
        <time>2021-09-11T11:29:04.000Z</time>
      </trkpt>
      <trkpt lat="46.43626" lon="4.2788">
        <ele>285.687993</ele>
        <time>2021-09-11T11:29:07.000Z</time>
      </trkpt>
      <trkpt lat="46.43626" lon="4.27893">
        <ele>285.615152</ele>
        <time>2021-09-11T11:29:09.000Z</time>
      </trkpt>
      <trkpt lat="46.43629" lon="4.27897">
        <ele>285.58119</ele>
        <time>2021-09-11T11:29:10.000Z</time>
      </trkpt>
      <trkpt lat="46.43632" lon="4.279">
        <ele>285.549613</ele>
        <time>2021-09-11T11:29:11.000Z</time>
      </trkpt>
      <trkpt lat="46.43644" lon="4.27915">
        <ele>285.413979</ele>
        <time>2021-09-11T11:29:15.000Z</time>
      </trkpt>
      <trkpt lat="46.43661" lon="4.27941">
        <ele>285.209888</ele>
        <time>2021-09-11T11:29:21.000Z</time>
      </trkpt>
      <trkpt lat="46.4368" lon="4.27961">
        <ele>285.017242</ele>
        <time>2021-09-11T11:29:27.000Z</time>
      </trkpt>
      <trkpt lat="46.43705" lon="4.27982">
        <ele>284.846865</ele>
        <time>2021-09-11T11:29:34.000Z</time>
      </trkpt>
      <trkpt lat="46.43709" lon="4.27985">
        <ele>284.820799</ele>
        <time>2021-09-11T11:29:35.000Z</time>
      </trkpt>
      <trkpt lat="46.43722" lon="4.27999">
        <ele>284.727331</ele>
        <time>2021-09-11T11:29:39.000Z</time>
      </trkpt>
      <trkpt lat="46.43739" lon="4.28005">
        <ele>284.630995</ele>
        <time>2021-09-11T11:29:44.000Z</time>
      </trkpt>
      <trkpt lat="46.43762" lon="4.28016">
        <ele>284.486415</ele>
        <time>2021-09-11T11:29:49.000Z</time>
      </trkpt>
      <trkpt lat="46.43779" lon="4.28023">
        <ele>284.38672</ele>
        <time>2021-09-11T11:29:52.000Z</time>
      </trkpt>
      <trkpt lat="46.43797" lon="4.28031">
        <ele>284.278814</ele>
        <time>2021-09-11T11:29:55.000Z</time>
      </trkpt>
      <trkpt lat="46.43832" lon="4.28046">
        <ele>284.066985</ele>
        <time>2021-09-11T11:30:01.000Z</time>
      </trkpt>
      <trkpt lat="46.43841" lon="4.28052">
        <ele>284.011976</ele>
        <time>2021-09-11T11:30:03.000Z</time>
      </trkpt>
      <trkpt lat="46.43846" lon="4.28055">
        <ele>283.994355</ele>
        <time>2021-09-11T11:30:04.000Z</time>
      </trkpt>
      <trkpt lat="46.43879" lon="4.28076">
        <ele>284.198496</ele>
        <time>2021-09-11T11:30:11.000Z</time>
      </trkpt>
      <trkpt lat="46.43904" lon="4.28091">
        <ele>284.352522</ele>
        <time>2021-09-11T11:30:17.000Z</time>
      </trkpt>
      <trkpt lat="46.43908" lon="4.28095">
        <ele>284.379842</ele>
        <time>2021-09-11T11:30:18.000Z</time>
      </trkpt>
      <trkpt lat="46.43919" lon="4.28106">
        <ele>284.45746</ele>
        <time>2021-09-11T11:30:21.000Z</time>
      </trkpt>
      <trkpt lat="46.43925" lon="4.28112">
        <ele>284.497181</ele>
        <time>2021-09-11T11:30:23.000Z</time>
      </trkpt>
      <trkpt lat="46.4393" lon="4.28122">
        <ele>284.543434</ele>
        <time>2021-09-11T11:30:25.000Z</time>
      </trkpt>
      <trkpt lat="46.43937" lon="4.28136">
        <ele>284.612573</ele>
        <time>2021-09-11T11:30:28.000Z</time>
      </trkpt>
      <trkpt lat="46.43949" lon="4.28176">
        <ele>284.778765</ele>
        <time>2021-09-11T11:30:35.000Z</time>
      </trkpt>
      <trkpt lat="46.43952" lon="4.28192">
        <ele>284.845925</ele>
        <time>2021-09-11T11:30:39.000Z</time>
      </trkpt>
      <trkpt lat="46.43959" lon="4.28203">
        <ele>284.900883</ele>
        <time>2021-09-11T11:30:41.000Z</time>
      </trkpt>
      <trkpt lat="46.43961" lon="4.28199">
        <ele>284.920547</ele>
        <time>2021-09-11T11:30:43.000Z</time>
      </trkpt>
      <trkpt lat="46.43963" lon="4.28195">
        <ele>284.940031</ele>
        <time>2021-09-11T11:30:44.000Z</time>
      </trkpt>
      <trkpt lat="46.43961" lon="4.28179">
        <ele>285.001762</ele>
        <time>2021-09-11T11:30:50.000Z</time>
      </trkpt>
      <trkpt lat="46.4396" lon="4.28158">
        <ele>284.973111</ele>
        <time>2021-09-11T11:30:56.000Z</time>
      </trkpt>
      <trkpt lat="46.43961" lon="4.28131">
        <ele>284.934253</ele>
        <time>2021-09-11T11:31:03.000Z</time>
      </trkpt>
      <trkpt lat="46.43965" lon="4.28118">
        <ele>284.914313</ele>
        <time>2021-09-11T11:31:08.000Z</time>
      </trkpt>
      <trkpt lat="46.43965" lon="4.28118">
        <ele>284.913837</ele>
        <time>2021-09-11T11:31:11.000Z</time>
      </trkpt>
      <trkpt lat="46.4397" lon="4.28105">
        <ele>284.893549</ele>
        <time>2021-09-11T11:34:10.000Z</time>
      </trkpt>
      <trkpt lat="46.43971" lon="4.28103">
        <ele>284.889195</ele>
        <time>2021-09-11T11:34:11.000Z</time>
      </trkpt>
      <trkpt lat="46.43974" lon="4.28098">
        <ele>284.878945</ele>
        <time>2021-09-11T11:34:14.000Z</time>
      </trkpt>
      <trkpt lat="46.4398" lon="4.28091">
        <ele>284.864072</ele>
        <time>2021-09-11T11:34:16.000Z</time>
      </trkpt>
      <trkpt lat="46.43973" lon="4.281">
        <ele>284.844917</ele>
        <time>2021-09-11T11:34:19.000Z</time>
      </trkpt>
      <trkpt lat="46.4397" lon="4.28103">
        <ele>284.838013</ele>
        <time>2021-09-11T11:34:20.000Z</time>
      </trkpt>
      <trkpt lat="46.43979" lon="4.28092">
        <ele>284.813391</ele>
        <time>2021-09-11T11:34:25.000Z</time>
      </trkpt>
      <trkpt lat="46.43987" lon="4.28083">
        <ele>284.792928</ele>
        <time>2021-09-11T11:34:30.000Z</time>
      </trkpt>
      <trkpt lat="46.43993" lon="4.28076">
        <ele>284.77608</ele>
        <time>2021-09-11T11:34:35.000Z</time>
      </trkpt>
      <trkpt lat="46.43997" lon="4.28074">
        <ele>284.768123</ele>
        <time>2021-09-11T11:34:39.000Z</time>
      </trkpt>
      <trkpt lat="46.43999" lon="4.28074">
        <ele>284.764797</ele>
        <time>2021-09-11T11:34:41.000Z</time>
      </trkpt>
      <trkpt lat="46.44" lon="4.28075">
        <ele>284.763116</ele>
        <time>2021-09-11T11:34:42.000Z</time>
      </trkpt>
      <trkpt lat="46.44007" lon="4.28076">
        <ele>284.747825</ele>
        <time>2021-09-11T11:34:46.000Z</time>
      </trkpt>
      <trkpt lat="46.44014" lon="4.28083">
        <ele>284.729732</ele>
        <time>2021-09-11T11:34:52.000Z</time>
      </trkpt>
      <trkpt lat="46.44019" lon="4.2809">
        <ele>284.715475</ele>
        <time>2021-09-11T11:34:58.000Z</time>
      </trkpt>
      <trkpt lat="46.44017" lon="4.28088">
        <ele>284.711127</ele>
        <time>2021-09-11T11:36:06.000Z</time>
      </trkpt>
      <trkpt lat="46.44015" lon="4.28083">
        <ele>284.701931</ele>
        <time>2021-09-11T11:36:08.000Z</time>
      </trkpt>
      <trkpt lat="46.44001" lon="4.28075">
        <ele>284.672192</ele>
        <time>2021-09-11T11:36:14.000Z</time>
      </trkpt>
      <trkpt lat="46.4399" lon="4.28064">
        <ele>284.644168</ele>
        <time>2021-09-11T11:36:20.000Z</time>
      </trkpt>
      <trkpt lat="46.43983" lon="4.2806">
        <ele>284.630214</ele>
        <time>2021-09-11T11:36:24.000Z</time>
      </trkpt>
      <trkpt lat="46.43982" lon="4.28059">
        <ele>284.630214</ele>
        <time>2021-09-11T11:36:25.000Z</time>
      </trkpt>
      <trkpt lat="46.43989" lon="4.2808">
        <ele>284.630214</ele>
        <time>2021-09-11T11:36:27.000Z</time>
      </trkpt>
      <trkpt lat="46.43988" lon="4.28082">
        <ele>284.630214</ele>
        <time>2021-09-11T11:36:29.000Z</time>
      </trkpt>
      <trkpt lat="46.43988" lon="4.28082">
        <ele>284.630214</ele>
        <time>2021-09-11T11:36:31.000Z</time>
      </trkpt>
      <trkpt lat="46.43992" lon="4.28076">
        <ele>284.630214</ele>
        <time>2021-09-11T11:36:43.000Z</time>
      </trkpt>
      <trkpt lat="46.43992" lon="4.28065">
        <ele>284.630214</ele>
        <time>2021-09-11T11:36:46.000Z</time>
      </trkpt>
      <trkpt lat="46.43995" lon="4.2807">
        <ele>284.630214</ele>
        <time>2021-09-11T11:36:48.000Z</time>
      </trkpt>
      <trkpt lat="46.43993" lon="4.28076">
        <ele>284.630214</ele>
        <time>2021-09-11T11:36:51.000Z</time>
      </trkpt>
      <trkpt lat="46.43991" lon="4.28078">
        <ele>284.630214</ele>
        <time>2021-09-11T11:36:53.000Z</time>
      </trkpt>
      <trkpt lat="46.43983" lon="4.28088">
        <ele>284.630214</ele>
        <time>2021-09-11T11:36:59.000Z</time>
      </trkpt>
      <trkpt lat="46.43974" lon="4.28099">
        <ele>284.630214</ele>
        <time>2021-09-11T11:37:05.000Z</time>
      </trkpt>
      <trkpt lat="46.43967" lon="4.28111">
        <ele>284.630214</ele>
        <time>2021-09-11T11:37:10.000Z</time>
      </trkpt>
      <trkpt lat="46.43967" lon="4.28128">
        <ele>284.630214</ele>
        <time>2021-09-11T11:37:14.000Z</time>
      </trkpt>
      <trkpt lat="46.43968" lon="4.28129">
        <ele>284.630214</ele>
        <time>2021-09-11T11:37:32.000Z</time>
      </trkpt>
      <trkpt lat="46.43969" lon="4.28132">
        <ele>284.630214</ele>
        <time>2021-09-11T11:37:34.000Z</time>
      </trkpt>
      <trkpt lat="46.43973" lon="4.28137">
        <ele>284.630214</ele>
        <time>2021-09-11T11:37:37.000Z</time>
      </trkpt>
      <trkpt lat="46.43974" lon="4.28139">
        <ele>284.630214</ele>
        <time>2021-09-11T11:37:38.000Z</time>
      </trkpt>
    </trkseg>
  </trk>
</gpx>